<?xml version="1.0" encoding="UTF-8" standalone="no" ?>
<gpx xmlns="http://www.topografix.com/GPX/1/1" xmlns:xsi="http://www.w3.org/2001/XMLSchema-instance" xsi:schemaLocation="http://www.topografix.com/GPX/1/1 http://www.topografix.com/GPX/1/1/gpx.xsd" version="1.1" creator="VisuGPX - https://www.visugpx.com">
  <metadata>
    <name>Versailles Mantes</name>
    <desc><![CDATA[Versailles Mantes]]></desc>
  </metadata>
  <trk>
    <name><![CDATA[Versailles Mantes]]></name>
    <trkseg>
      <trkpt lat="48.80469" lon="2.12582">
        <ele>132.60000610352</ele>
        <time>2013-01-26T23:05:44.000Z</time>
      </trkpt>
      <trkpt lat="48.8047" lon="2.12577">
        <ele>132.60000610352</ele>
        <time>2013-01-26T23:05:48.000Z</time>
      </trkpt>
      <trkpt lat="48.80469" lon="2.12564">
        <ele>132.39999389648</ele>
        <time>2013-01-26T23:05:55.000Z</time>
      </trkpt>
      <trkpt lat="48.80468" lon="2.12551">
        <ele>132.39999389648</ele>
        <time>2013-01-26T23:06:02.000Z</time>
      </trkpt>
      <trkpt lat="48.80468" lon="2.1254">
        <ele>132.39999389648</ele>
        <time>2013-01-26T23:06:08.000Z</time>
      </trkpt>
      <trkpt lat="48.80467" lon="2.12533">
        <ele>132.19999694824</ele>
        <time>2013-01-26T23:06:12.000Z</time>
      </trkpt>
      <trkpt lat="48.80465" lon="2.12511">
        <ele>132.19999694824</ele>
        <time>2013-01-26T23:06:22.000Z</time>
      </trkpt>
      <trkpt lat="48.80466" lon="2.12505">
        <ele>132.19999694824</ele>
        <time>2013-01-26T23:06:26.000Z</time>
      </trkpt>
      <trkpt lat="48.80465" lon="2.125">
        <ele>132</ele>
        <time>2013-01-26T23:06:29.000Z</time>
      </trkpt>
      <trkpt lat="48.80462" lon="2.12484">
        <ele>132.80000305176</ele>
        <time>2013-01-26T23:06:36.000Z</time>
      </trkpt>
      <trkpt lat="48.80461" lon="2.12475">
        <ele>133.39999389648</ele>
        <time>2013-01-26T23:06:41.000Z</time>
      </trkpt>
      <trkpt lat="48.8046" lon="2.12471">
        <ele>133.60000610352</ele>
        <time>2013-01-26T23:06:43.000Z</time>
      </trkpt>
      <trkpt lat="48.8046" lon="2.12467">
        <ele>133.80000305176</ele>
        <time>2013-01-26T23:06:45.000Z</time>
      </trkpt>
      <trkpt lat="48.80459" lon="2.12457">
        <ele>134.19999694824</ele>
        <time>2013-01-26T23:06:50.000Z</time>
      </trkpt>
      <trkpt lat="48.80458" lon="2.12452">
        <ele>134.39999389648</ele>
        <time>2013-01-26T23:06:53.000Z</time>
      </trkpt>
      <trkpt lat="48.80459" lon="2.12433">
        <ele>135.60000610352</ele>
        <time>2013-01-26T23:07:02.000Z</time>
      </trkpt>
      <trkpt lat="48.8046" lon="2.1243">
        <ele>135.80000305176</ele>
        <time>2013-01-26T23:07:04.000Z</time>
      </trkpt>
      <trkpt lat="48.80459" lon="2.12427">
        <ele>135.80000305176</ele>
        <time>2013-01-26T23:07:06.000Z</time>
      </trkpt>
      <trkpt lat="48.80459" lon="2.12421">
        <ele>136.19999694824</ele>
        <time>2013-01-26T23:07:11.000Z</time>
      </trkpt>
      <trkpt lat="48.80461" lon="2.12413">
        <ele>136.80000305176</ele>
        <time>2013-01-26T23:07:17.000Z</time>
      </trkpt>
      <trkpt lat="48.80485" lon="2.12378">
        <ele>139.80000305176</ele>
        <time>2013-01-26T23:10:11.000Z</time>
      </trkpt>
      <trkpt lat="48.80491" lon="2.12355">
        <ele>141.39999389648</ele>
        <time>2013-01-26T23:10:45.000Z</time>
      </trkpt>
      <trkpt lat="48.80492" lon="2.1235">
        <ele>141.80000305176</ele>
        <time>2013-01-26T23:10:49.000Z</time>
      </trkpt>
      <trkpt lat="48.80494" lon="2.12341">
        <ele>142.39999389648</ele>
        <time>2013-01-26T23:10:56.000Z</time>
      </trkpt>
      <trkpt lat="48.80495" lon="2.12332">
        <ele>143</ele>
        <time>2013-01-26T23:11:03.000Z</time>
      </trkpt>
      <trkpt lat="48.80499" lon="2.12321">
        <ele>144</ele>
        <time>2013-01-26T23:11:12.000Z</time>
      </trkpt>
      <trkpt lat="48.80501" lon="2.12312">
        <ele>145</ele>
        <time>2013-01-26T23:11:18.000Z</time>
      </trkpt>
      <trkpt lat="48.80504" lon="2.12298">
        <ele>146</ele>
        <time>2013-01-26T23:11:27.000Z</time>
      </trkpt>
      <trkpt lat="48.80505" lon="2.12298">
        <ele>146</ele>
        <time>2013-01-26T23:11:28.000Z</time>
      </trkpt>
      <trkpt lat="48.80509" lon="2.12297">
        <ele>146</ele>
        <time>2013-01-26T23:11:34.000Z</time>
      </trkpt>
      <trkpt lat="48.80511" lon="2.12297">
        <ele>146</ele>
        <time>2013-01-26T23:11:35.000Z</time>
      </trkpt>
      <trkpt lat="48.80516" lon="2.12299">
        <ele>145.60000610352</ele>
        <time>2013-01-26T23:11:39.000Z</time>
      </trkpt>
      <trkpt lat="48.80529" lon="2.12303">
        <ele>144.60000610352</ele>
        <time>2013-01-26T23:11:47.000Z</time>
      </trkpt>
      <trkpt lat="48.80543" lon="2.12308">
        <ele>143.60000610352</ele>
        <time>2013-01-26T23:11:54.000Z</time>
      </trkpt>
      <trkpt lat="48.80554" lon="2.12311">
        <ele>143</ele>
        <time>2013-01-26T23:12:00.000Z</time>
      </trkpt>
      <trkpt lat="48.80564" lon="2.12314">
        <ele>142.19999694824</ele>
        <time>2013-01-26T23:12:06.000Z</time>
      </trkpt>
      <trkpt lat="48.80572" lon="2.12316">
        <ele>141.80000305176</ele>
        <time>2013-01-26T23:12:10.000Z</time>
      </trkpt>
      <trkpt lat="48.80577" lon="2.12317">
        <ele>141.60000610352</ele>
        <time>2013-01-26T23:12:13.000Z</time>
      </trkpt>
      <trkpt lat="48.80591" lon="2.12318">
        <ele>140.19999694824</ele>
        <time>2013-01-26T23:12:20.000Z</time>
      </trkpt>
      <trkpt lat="48.80594" lon="2.12324">
        <ele>139.39999389648</ele>
        <time>2013-01-26T23:12:26.000Z</time>
      </trkpt>
      <trkpt lat="48.80595" lon="2.12324">
        <ele>139.39999389648</ele>
        <time>2013-01-26T23:12:27.000Z</time>
      </trkpt>
      <trkpt lat="48.80597" lon="2.12331">
        <ele>138.60000610352</ele>
        <time>2013-01-26T23:12:37.000Z</time>
      </trkpt>
      <trkpt lat="48.806" lon="2.12335">
        <ele>138</ele>
        <time>2013-01-26T23:12:41.000Z</time>
      </trkpt>
      <trkpt lat="48.80602" lon="2.12338">
        <ele>137.80000305176</ele>
        <time>2013-01-26T23:12:46.000Z</time>
      </trkpt>
      <trkpt lat="48.80609" lon="2.12343">
        <ele>137</ele>
        <time>2013-01-26T23:12:53.000Z</time>
      </trkpt>
      <trkpt lat="48.8061" lon="2.12344">
        <ele>136.80000305176</ele>
        <time>2013-01-26T23:12:54.000Z</time>
      </trkpt>
      <trkpt lat="48.80613" lon="2.12348">
        <ele>136.39999389648</ele>
        <time>2013-01-26T23:12:58.000Z</time>
      </trkpt>
      <trkpt lat="48.80619" lon="2.1235">
        <ele>135.80000305176</ele>
        <time>2013-01-26T23:13:02.000Z</time>
      </trkpt>
      <trkpt lat="48.80624" lon="2.12355">
        <ele>135.19999694824</ele>
        <time>2013-01-26T23:13:08.000Z</time>
      </trkpt>
      <trkpt lat="48.80628" lon="2.12358">
        <ele>134.80000305176</ele>
        <time>2013-01-26T23:13:13.000Z</time>
      </trkpt>
      <trkpt lat="48.80629" lon="2.1236">
        <ele>134.80000305176</ele>
        <time>2013-01-26T23:13:14.000Z</time>
      </trkpt>
      <trkpt lat="48.8063" lon="2.12361">
        <ele>134.60000610352</ele>
        <time>2013-01-26T23:13:17.000Z</time>
      </trkpt>
      <trkpt lat="48.80641" lon="2.12365">
        <ele>133.60000610352</ele>
        <time>2013-01-26T23:13:24.000Z</time>
      </trkpt>
      <trkpt lat="48.80645" lon="2.12369">
        <ele>133.19999694824</ele>
        <time>2013-01-26T23:13:28.000Z</time>
      </trkpt>
      <trkpt lat="48.80653" lon="2.1237">
        <ele>132.60000610352</ele>
        <time>2013-01-26T23:13:32.000Z</time>
      </trkpt>
      <trkpt lat="48.80656" lon="2.12372">
        <ele>132.19999694824</ele>
        <time>2013-01-26T23:13:35.000Z</time>
      </trkpt>
      <trkpt lat="48.8066" lon="2.12377">
        <ele>132</ele>
        <time>2013-01-26T23:13:40.000Z</time>
      </trkpt>
      <trkpt lat="48.80661" lon="2.12377">
        <ele>131.80000305176</ele>
        <time>2013-01-26T23:13:41.000Z</time>
      </trkpt>
      <trkpt lat="48.80666" lon="2.1238">
        <ele>131.60000610352</ele>
        <time>2013-01-26T23:13:46.000Z</time>
      </trkpt>
      <trkpt lat="48.80667" lon="2.12381">
        <ele>131.39999389648</ele>
        <time>2013-01-26T23:13:47.000Z</time>
      </trkpt>
      <trkpt lat="48.80672" lon="2.12383">
        <ele>131.19999694824</ele>
        <time>2013-01-26T23:13:50.000Z</time>
      </trkpt>
      <trkpt lat="48.80674" lon="2.12385">
        <ele>131.19999694824</ele>
        <time>2013-01-26T23:13:52.000Z</time>
      </trkpt>
      <trkpt lat="48.80679" lon="2.12388">
        <ele>131</ele>
        <time>2013-01-26T23:13:56.000Z</time>
      </trkpt>
      <trkpt lat="48.80681" lon="2.12389">
        <ele>131</ele>
        <time>2013-01-26T23:13:57.000Z</time>
      </trkpt>
      <trkpt lat="48.80685" lon="2.12391">
        <ele>131</ele>
        <time>2013-01-26T23:14:00.000Z</time>
      </trkpt>
      <trkpt lat="48.80698" lon="2.12397">
        <ele>130.60000610352</ele>
        <time>2013-01-26T23:14:08.000Z</time>
      </trkpt>
      <trkpt lat="48.80706" lon="2.12402">
        <ele>130.60000610352</ele>
        <time>2013-01-26T23:14:13.000Z</time>
      </trkpt>
      <trkpt lat="48.80715" lon="2.12412">
        <ele>130.60000610352</ele>
        <time>2013-01-26T23:14:22.000Z</time>
      </trkpt>
      <trkpt lat="48.80716" lon="2.12413">
        <ele>130.60000610352</ele>
        <time>2013-01-26T23:14:23.000Z</time>
      </trkpt>
      <trkpt lat="48.80727" lon="2.12417">
        <ele>130.39999389648</ele>
        <time>2013-01-26T23:14:31.000Z</time>
      </trkpt>
      <trkpt lat="48.80729" lon="2.1242">
        <ele>130.39999389648</ele>
        <time>2013-01-26T23:14:33.000Z</time>
      </trkpt>
      <trkpt lat="48.80736" lon="2.12424">
        <ele>130.39999389648</ele>
        <time>2013-01-26T23:14:38.000Z</time>
      </trkpt>
      <trkpt lat="48.80738" lon="2.12425">
        <ele>130.19999694824</ele>
        <time>2013-01-26T23:14:40.000Z</time>
      </trkpt>
      <trkpt lat="48.80743" lon="2.12428">
        <ele>130.19999694824</ele>
        <time>2013-01-26T23:14:44.000Z</time>
      </trkpt>
      <trkpt lat="48.80753" lon="2.12434">
        <ele>130.19999694824</ele>
        <time>2013-01-26T23:14:52.000Z</time>
      </trkpt>
      <trkpt lat="48.80763" lon="2.12438">
        <ele>130.19999694824</ele>
        <time>2013-01-26T23:14:59.000Z</time>
      </trkpt>
      <trkpt lat="48.80766" lon="2.12439">
        <ele>130.19999694824</ele>
        <time>2013-01-26T23:15:01.000Z</time>
      </trkpt>
      <trkpt lat="48.8077" lon="2.12442">
        <ele>130.19999694824</ele>
        <time>2013-01-26T23:15:05.000Z</time>
      </trkpt>
      <trkpt lat="48.80774" lon="2.12446">
        <ele>130.39999389648</ele>
        <time>2013-01-26T23:15:10.000Z</time>
      </trkpt>
      <trkpt lat="48.80784" lon="2.12452">
        <ele>130.39999389648</ele>
        <time>2013-01-26T23:15:17.000Z</time>
      </trkpt>
      <trkpt lat="48.80792" lon="2.12455">
        <ele>130.39999389648</ele>
        <time>2013-01-26T23:15:23.000Z</time>
      </trkpt>
      <trkpt lat="48.80797" lon="2.1246">
        <ele>130.39999389648</ele>
        <time>2013-01-26T23:15:28.000Z</time>
      </trkpt>
      <trkpt lat="48.80805" lon="2.12464">
        <ele>130.39999389648</ele>
        <time>2013-01-26T23:15:35.000Z</time>
      </trkpt>
      <trkpt lat="48.80808" lon="2.12464">
        <ele>130.39999389648</ele>
        <time>2013-01-26T23:15:37.000Z</time>
      </trkpt>
      <trkpt lat="48.80811" lon="2.12465">
        <ele>130.39999389648</ele>
        <time>2013-01-26T23:15:41.000Z</time>
      </trkpt>
      <trkpt lat="48.80814" lon="2.12468">
        <ele>130.39999389648</ele>
        <time>2013-01-26T23:15:45.000Z</time>
      </trkpt>
      <trkpt lat="48.80819" lon="2.12475">
        <ele>130.19999694824</ele>
        <time>2013-01-26T23:15:51.000Z</time>
      </trkpt>
      <trkpt lat="48.8082" lon="2.12475">
        <ele>130.19999694824</ele>
        <time>2013-01-26T23:15:52.000Z</time>
      </trkpt>
      <trkpt lat="48.80831" lon="2.12482">
        <ele>130.19999694824</ele>
        <time>2013-01-26T23:15:59.000Z</time>
      </trkpt>
      <trkpt lat="48.80835" lon="2.12485">
        <ele>130</ele>
        <time>2013-01-26T23:16:02.000Z</time>
      </trkpt>
      <trkpt lat="48.80846" lon="2.12489">
        <ele>129.80000305176</ele>
        <time>2013-01-26T23:16:10.000Z</time>
      </trkpt>
      <trkpt lat="48.80851" lon="2.12492">
        <ele>129.60000610352</ele>
        <time>2013-01-26T23:16:13.000Z</time>
      </trkpt>
      <trkpt lat="48.80854" lon="2.12495">
        <ele>129.39999389648</ele>
        <time>2013-01-26T23:16:16.000Z</time>
      </trkpt>
      <trkpt lat="48.80863" lon="2.12501">
        <ele>129.19999694824</ele>
        <time>2013-01-26T23:16:22.000Z</time>
      </trkpt>
      <trkpt lat="48.80864" lon="2.12501">
        <ele>129</ele>
        <time>2013-01-26T23:16:23.000Z</time>
      </trkpt>
      <trkpt lat="48.80869" lon="2.12504">
        <ele>128.80000305176</ele>
        <time>2013-01-26T23:16:27.000Z</time>
      </trkpt>
      <trkpt lat="48.80876" lon="2.12509">
        <ele>128.39999389648</ele>
        <time>2013-01-26T23:16:33.000Z</time>
      </trkpt>
      <trkpt lat="48.80882" lon="2.12512">
        <ele>128</ele>
        <time>2013-01-26T23:16:38.000Z</time>
      </trkpt>
      <trkpt lat="48.80887" lon="2.12514">
        <ele>127.80000305176</ele>
        <time>2013-01-26T23:16:41.000Z</time>
      </trkpt>
      <trkpt lat="48.80898" lon="2.12519">
        <ele>127.19999694824</ele>
        <time>2013-01-26T23:16:47.000Z</time>
      </trkpt>
      <trkpt lat="48.80908" lon="2.12527">
        <ele>126.59999847412</ele>
        <time>2013-01-26T23:16:55.000Z</time>
      </trkpt>
      <trkpt lat="48.80917" lon="2.12533">
        <ele>126</ele>
        <time>2013-01-26T23:17:02.000Z</time>
      </trkpt>
      <trkpt lat="48.80918" lon="2.12534">
        <ele>125.80000305176</ele>
        <time>2013-01-26T23:17:03.000Z</time>
      </trkpt>
      <trkpt lat="48.80922" lon="2.12539">
        <ele>125.59999847412</ele>
        <time>2013-01-26T23:17:07.000Z</time>
      </trkpt>
      <trkpt lat="48.80928" lon="2.12543">
        <ele>125.19999694824</ele>
        <time>2013-01-26T23:17:10.000Z</time>
      </trkpt>
      <trkpt lat="48.80935" lon="2.12559">
        <ele>124.40000152588</ele>
        <time>2013-01-26T23:17:19.000Z</time>
      </trkpt>
      <trkpt lat="48.80936" lon="2.1256">
        <ele>124.40000152588</ele>
        <time>2013-01-26T23:17:20.000Z</time>
      </trkpt>
      <trkpt lat="48.80943" lon="2.12563">
        <ele>124.19999694824</ele>
        <time>2013-01-26T23:17:25.000Z</time>
      </trkpt>
      <trkpt lat="48.80949" lon="2.12566">
        <ele>124</ele>
        <time>2013-01-26T23:17:29.000Z</time>
      </trkpt>
      <trkpt lat="48.8095" lon="2.12566">
        <ele>124</ele>
        <time>2013-01-26T23:17:30.000Z</time>
      </trkpt>
      <trkpt lat="48.8096" lon="2.12567">
        <ele>124</ele>
        <time>2013-01-26T23:17:36.000Z</time>
      </trkpt>
      <trkpt lat="48.80969" lon="2.12573">
        <ele>124</ele>
        <time>2013-01-26T23:17:44.000Z</time>
      </trkpt>
      <trkpt lat="48.80976" lon="2.12576">
        <ele>123.80000305176</ele>
        <time>2013-01-26T23:17:50.000Z</time>
      </trkpt>
      <trkpt lat="48.80981" lon="2.12578">
        <ele>123.80000305176</ele>
        <time>2013-01-26T23:17:54.000Z</time>
      </trkpt>
      <trkpt lat="48.80982" lon="2.12579">
        <ele>123.80000305176</ele>
        <time>2013-01-26T23:17:55.000Z</time>
      </trkpt>
      <trkpt lat="48.80988" lon="2.12583">
        <ele>123.80000305176</ele>
        <time>2013-01-26T23:18:01.000Z</time>
      </trkpt>
      <trkpt lat="48.80992" lon="2.12585">
        <ele>123.80000305176</ele>
        <time>2013-01-26T23:18:03.000Z</time>
      </trkpt>
      <trkpt lat="48.80998" lon="2.12588">
        <ele>123.80000305176</ele>
        <time>2013-01-26T23:18:07.000Z</time>
      </trkpt>
      <trkpt lat="48.81006" lon="2.12592">
        <ele>124</ele>
        <time>2013-01-26T23:18:14.000Z</time>
      </trkpt>
      <trkpt lat="48.81018" lon="2.12599">
        <ele>124</ele>
        <time>2013-01-26T23:18:23.000Z</time>
      </trkpt>
      <trkpt lat="48.81029" lon="2.12602">
        <ele>124.19999694824</ele>
        <time>2013-01-26T23:18:31.000Z</time>
      </trkpt>
      <trkpt lat="48.81036" lon="2.12607">
        <ele>124.19999694824</ele>
        <time>2013-01-26T23:18:37.000Z</time>
      </trkpt>
      <trkpt lat="48.81044" lon="2.12612">
        <ele>124.19999694824</ele>
        <time>2013-01-26T23:18:44.000Z</time>
      </trkpt>
      <trkpt lat="48.81051" lon="2.12617">
        <ele>124.19999694824</ele>
        <time>2013-01-26T23:18:50.000Z</time>
      </trkpt>
      <trkpt lat="48.8106" lon="2.12625">
        <ele>124.19999694824</ele>
        <time>2013-01-26T23:18:58.000Z</time>
      </trkpt>
      <trkpt lat="48.81069" lon="2.12632">
        <ele>124.19999694824</ele>
        <time>2013-01-26T23:19:05.000Z</time>
      </trkpt>
      <trkpt lat="48.8107" lon="2.12632">
        <ele>124.19999694824</ele>
        <time>2013-01-26T23:19:06.000Z</time>
      </trkpt>
      <trkpt lat="48.81072" lon="2.12635">
        <ele>124.19999694824</ele>
        <time>2013-01-26T23:19:09.000Z</time>
      </trkpt>
      <trkpt lat="48.81083" lon="2.12645">
        <ele>124.19999694824</ele>
        <time>2013-01-26T23:19:19.000Z</time>
      </trkpt>
      <trkpt lat="48.81096" lon="2.1265">
        <ele>124</ele>
        <time>2013-01-26T23:19:27.000Z</time>
      </trkpt>
      <trkpt lat="48.81106" lon="2.12653">
        <ele>124</ele>
        <time>2013-01-26T23:19:33.000Z</time>
      </trkpt>
      <trkpt lat="48.81117" lon="2.12657">
        <ele>124</ele>
        <time>2013-01-26T23:19:40.000Z</time>
      </trkpt>
      <trkpt lat="48.81126" lon="2.12663">
        <ele>124</ele>
        <time>2013-01-26T23:19:47.000Z</time>
      </trkpt>
      <trkpt lat="48.81136" lon="2.12669">
        <ele>124</ele>
        <time>2013-01-26T23:19:54.000Z</time>
      </trkpt>
      <trkpt lat="48.81147" lon="2.12676">
        <ele>124</ele>
        <time>2013-01-26T23:20:02.000Z</time>
      </trkpt>
      <trkpt lat="48.81152" lon="2.1268">
        <ele>124</ele>
        <time>2013-01-26T23:20:07.000Z</time>
      </trkpt>
      <trkpt lat="48.8116" lon="2.12685">
        <ele>124</ele>
        <time>2013-01-26T23:20:13.000Z</time>
      </trkpt>
      <trkpt lat="48.81169" lon="2.12691">
        <ele>124.19999694824</ele>
        <time>2013-01-26T23:20:20.000Z</time>
      </trkpt>
      <trkpt lat="48.8118" lon="2.12697">
        <ele>124.80000305176</ele>
        <time>2013-01-26T23:20:28.000Z</time>
      </trkpt>
      <trkpt lat="48.81193" lon="2.12706">
        <ele>125.40000152588</ele>
        <time>2013-01-26T23:20:38.000Z</time>
      </trkpt>
      <trkpt lat="48.81201" lon="2.12711">
        <ele>125.59999847412</ele>
        <time>2013-01-26T23:20:44.000Z</time>
      </trkpt>
      <trkpt lat="48.81212" lon="2.12719">
        <ele>126.19999694824</ele>
        <time>2013-01-26T23:20:52.000Z</time>
      </trkpt>
      <trkpt lat="48.81223" lon="2.12725">
        <ele>126.59999847412</ele>
        <time>2013-01-26T23:21:00.000Z</time>
      </trkpt>
      <trkpt lat="48.81232" lon="2.1273">
        <ele>127</ele>
        <time>2013-01-26T23:21:07.000Z</time>
      </trkpt>
      <trkpt lat="48.8124" lon="2.12735">
        <ele>127.40000152588</ele>
        <time>2013-01-26T23:21:14.000Z</time>
      </trkpt>
      <trkpt lat="48.81249" lon="2.12741">
        <ele>127.80000305176</ele>
        <time>2013-01-26T23:21:22.000Z</time>
      </trkpt>
      <trkpt lat="48.81257" lon="2.12747">
        <ele>128</ele>
        <time>2013-01-26T23:21:29.000Z</time>
      </trkpt>
      <trkpt lat="48.81258" lon="2.12748">
        <ele>128</ele>
        <time>2013-01-26T23:21:30.000Z</time>
      </trkpt>
      <trkpt lat="48.81265" lon="2.12752">
        <ele>128.19999694824</ele>
        <time>2013-01-26T23:21:36.000Z</time>
      </trkpt>
      <trkpt lat="48.81267" lon="2.12754">
        <ele>128.19999694824</ele>
        <time>2013-01-26T23:21:38.000Z</time>
      </trkpt>
      <trkpt lat="48.81275" lon="2.12758">
        <ele>128.39999389648</ele>
        <time>2013-01-26T23:21:44.000Z</time>
      </trkpt>
      <trkpt lat="48.81278" lon="2.12759">
        <ele>128.60000610352</ele>
        <time>2013-01-26T23:21:46.000Z</time>
      </trkpt>
      <trkpt lat="48.81287" lon="2.12762">
        <ele>128.60000610352</ele>
        <time>2013-01-26T23:21:52.000Z</time>
      </trkpt>
      <trkpt lat="48.81296" lon="2.12766">
        <ele>128.80000305176</ele>
        <time>2013-01-26T23:21:58.000Z</time>
      </trkpt>
      <trkpt lat="48.81299" lon="2.12768">
        <ele>128.80000305176</ele>
        <time>2013-01-26T23:22:00.000Z</time>
      </trkpt>
      <trkpt lat="48.81306" lon="2.12774">
        <ele>128.80000305176</ele>
        <time>2013-01-26T23:22:06.000Z</time>
      </trkpt>
      <trkpt lat="48.81307" lon="2.12775">
        <ele>128.80000305176</ele>
        <time>2013-01-26T23:22:07.000Z</time>
      </trkpt>
      <trkpt lat="48.81315" lon="2.12781">
        <ele>128.80000305176</ele>
        <time>2013-01-26T23:22:13.000Z</time>
      </trkpt>
      <trkpt lat="48.81326" lon="2.12787">
        <ele>129</ele>
        <time>2013-01-26T23:22:20.000Z</time>
      </trkpt>
      <trkpt lat="48.81335" lon="2.12792">
        <ele>129</ele>
        <time>2013-01-26T23:22:26.000Z</time>
      </trkpt>
      <trkpt lat="48.8134" lon="2.12796">
        <ele>129</ele>
        <time>2013-01-26T23:22:30.000Z</time>
      </trkpt>
      <trkpt lat="48.81352" lon="2.12801">
        <ele>129.60000610352</ele>
        <time>2013-01-26T23:22:38.000Z</time>
      </trkpt>
      <trkpt lat="48.81353" lon="2.12802">
        <ele>129.60000610352</ele>
        <time>2013-01-26T23:22:39.000Z</time>
      </trkpt>
      <trkpt lat="48.81356" lon="2.12804">
        <ele>129.60000610352</ele>
        <time>2013-01-26T23:22:42.000Z</time>
      </trkpt>
      <trkpt lat="48.81357" lon="2.12806">
        <ele>129.80000305176</ele>
        <time>2013-01-26T23:22:44.000Z</time>
      </trkpt>
      <trkpt lat="48.81364" lon="2.1281">
        <ele>130</ele>
        <time>2013-01-26T23:22:49.000Z</time>
      </trkpt>
      <trkpt lat="48.81371" lon="2.12813">
        <ele>130.39999389648</ele>
        <time>2013-01-26T23:22:54.000Z</time>
      </trkpt>
      <trkpt lat="48.81375" lon="2.12816">
        <ele>130.60000610352</ele>
        <time>2013-01-26T23:22:57.000Z</time>
      </trkpt>
      <trkpt lat="48.81385" lon="2.12823">
        <ele>131</ele>
        <time>2013-01-26T23:23:05.000Z</time>
      </trkpt>
      <trkpt lat="48.8139" lon="2.12828">
        <ele>131.19999694824</ele>
        <time>2013-01-26T23:23:10.000Z</time>
      </trkpt>
      <trkpt lat="48.81398" lon="2.12833">
        <ele>131.80000305176</ele>
        <time>2013-01-26T23:23:16.000Z</time>
      </trkpt>
      <trkpt lat="48.81408" lon="2.12839">
        <ele>132.39999389648</ele>
        <time>2013-01-26T23:23:23.000Z</time>
      </trkpt>
      <trkpt lat="48.81411" lon="2.12841">
        <ele>132.60000610352</ele>
        <time>2013-01-26T23:23:25.000Z</time>
      </trkpt>
      <trkpt lat="48.81418" lon="2.12843">
        <ele>132.80000305176</ele>
        <time>2013-01-26T23:23:29.000Z</time>
      </trkpt>
      <trkpt lat="48.81426" lon="2.12848">
        <ele>132.80000305176</ele>
        <time>2013-01-26T23:23:35.000Z</time>
      </trkpt>
      <trkpt lat="48.8143" lon="2.12849">
        <ele>132.80000305176</ele>
        <time>2013-01-26T23:23:38.000Z</time>
      </trkpt>
      <trkpt lat="48.81439" lon="2.12853">
        <ele>132.60000610352</ele>
        <time>2013-01-26T23:23:45.000Z</time>
      </trkpt>
      <trkpt lat="48.8144" lon="2.12853">
        <ele>132.60000610352</ele>
        <time>2013-01-26T23:23:46.000Z</time>
      </trkpt>
      <trkpt lat="48.81448" lon="2.12857">
        <ele>132.60000610352</ele>
        <time>2013-01-26T23:23:52.000Z</time>
      </trkpt>
      <trkpt lat="48.81455" lon="2.12859">
        <ele>132.60000610352</ele>
        <time>2013-01-26T23:23:57.000Z</time>
      </trkpt>
      <trkpt lat="48.81462" lon="2.12863">
        <ele>132.60000610352</ele>
        <time>2013-01-26T23:24:02.000Z</time>
      </trkpt>
      <trkpt lat="48.81468" lon="2.12866">
        <ele>132.60000610352</ele>
        <time>2013-01-26T23:24:06.000Z</time>
      </trkpt>
      <trkpt lat="48.81473" lon="2.12871">
        <ele>132.39999389648</ele>
        <time>2013-01-26T23:24:10.000Z</time>
      </trkpt>
      <trkpt lat="48.81478" lon="2.12882">
        <ele>132.39999389648</ele>
        <time>2013-01-26T23:24:16.000Z</time>
      </trkpt>
      <trkpt lat="48.81479" lon="2.12884">
        <ele>132.19999694824</ele>
        <time>2013-01-26T23:24:17.000Z</time>
      </trkpt>
      <trkpt lat="48.8148" lon="2.12891">
        <ele>132.19999694824</ele>
        <time>2013-01-26T23:24:20.000Z</time>
      </trkpt>
      <trkpt lat="48.81484" lon="2.12897">
        <ele>132.19999694824</ele>
        <time>2013-01-26T23:24:23.000Z</time>
      </trkpt>
      <trkpt lat="48.8149" lon="2.12911">
        <ele>132</ele>
        <time>2013-01-26T23:24:29.000Z</time>
      </trkpt>
      <trkpt lat="48.81494" lon="2.12917">
        <ele>132</ele>
        <time>2013-01-26T23:24:32.000Z</time>
      </trkpt>
      <trkpt lat="48.815" lon="2.12924">
        <ele>132</ele>
        <time>2013-01-26T23:24:36.000Z</time>
      </trkpt>
      <trkpt lat="48.81509" lon="2.12931">
        <ele>132.19999694824</ele>
        <time>2013-01-26T23:24:43.000Z</time>
      </trkpt>
      <trkpt lat="48.81511" lon="2.12933">
        <ele>132.39999389648</ele>
        <time>2013-01-26T23:24:45.000Z</time>
      </trkpt>
      <trkpt lat="48.81517" lon="2.12935">
        <ele>132.39999389648</ele>
        <time>2013-01-26T23:24:51.000Z</time>
      </trkpt>
      <trkpt lat="48.81525" lon="2.12934">
        <ele>132.60000610352</ele>
        <time>2013-01-26T23:24:57.000Z</time>
      </trkpt>
      <trkpt lat="48.81527" lon="2.12934">
        <ele>132.60000610352</ele>
        <time>2013-01-26T23:24:58.000Z</time>
      </trkpt>
      <trkpt lat="48.81534" lon="2.12927">
        <ele>132.80000305176</ele>
        <time>2013-01-26T23:25:03.000Z</time>
      </trkpt>
      <trkpt lat="48.81538" lon="2.12923">
        <ele>132.80000305176</ele>
        <time>2013-01-26T23:25:07.000Z</time>
      </trkpt>
      <trkpt lat="48.81542" lon="2.12919">
        <ele>132.80000305176</ele>
        <time>2013-01-26T23:25:11.000Z</time>
      </trkpt>
      <trkpt lat="48.81548" lon="2.12913">
        <ele>133</ele>
        <time>2013-01-26T23:25:16.000Z</time>
      </trkpt>
      <trkpt lat="48.81553" lon="2.12898">
        <ele>133.19999694824</ele>
        <time>2013-01-26T23:25:24.000Z</time>
      </trkpt>
      <trkpt lat="48.81554" lon="2.12883">
        <ele>133</ele>
        <time>2013-01-26T23:25:31.000Z</time>
      </trkpt>
      <trkpt lat="48.81552" lon="2.12863">
        <ele>133</ele>
        <time>2013-01-26T23:25:40.000Z</time>
      </trkpt>
      <trkpt lat="48.81549" lon="2.12851">
        <ele>133</ele>
        <time>2013-01-26T23:25:46.000Z</time>
      </trkpt>
      <trkpt lat="48.81549" lon="2.12836">
        <ele>133</ele>
        <time>2013-01-26T23:25:53.000Z</time>
      </trkpt>
      <trkpt lat="48.81555" lon="2.12821">
        <ele>133</ele>
        <time>2013-01-26T23:26:01.000Z</time>
      </trkpt>
      <trkpt lat="48.81558" lon="2.12811">
        <ele>133</ele>
        <time>2013-01-26T23:26:06.000Z</time>
      </trkpt>
      <trkpt lat="48.81567" lon="2.12779">
        <ele>133</ele>
        <time>2013-01-26T23:26:23.000Z</time>
      </trkpt>
      <trkpt lat="48.8157" lon="2.12766">
        <ele>133</ele>
        <time>2013-01-26T23:26:30.000Z</time>
      </trkpt>
      <trkpt lat="48.81574" lon="2.12754">
        <ele>133</ele>
        <time>2013-01-26T23:26:36.000Z</time>
      </trkpt>
      <trkpt lat="48.81577" lon="2.12739">
        <ele>132.60000610352</ele>
        <time>2013-01-26T23:26:44.000Z</time>
      </trkpt>
      <trkpt lat="48.81578" lon="2.12737">
        <ele>132.60000610352</ele>
        <time>2013-01-26T23:26:45.000Z</time>
      </trkpt>
      <trkpt lat="48.8158" lon="2.12731">
        <ele>132.39999389648</ele>
        <time>2013-01-26T23:26:49.000Z</time>
      </trkpt>
      <trkpt lat="48.81585" lon="2.12723">
        <ele>132.19999694824</ele>
        <time>2013-01-26T23:26:55.000Z</time>
      </trkpt>
      <trkpt lat="48.81585" lon="2.12721">
        <ele>132.19999694824</ele>
        <time>2013-01-26T23:26:56.000Z</time>
      </trkpt>
      <trkpt lat="48.81589" lon="2.12709">
        <ele>132</ele>
        <time>2013-01-26T23:27:02.000Z</time>
      </trkpt>
      <trkpt lat="48.81591" lon="2.12705">
        <ele>131.80000305176</ele>
        <time>2013-01-26T23:27:05.000Z</time>
      </trkpt>
      <trkpt lat="48.81594" lon="2.1269">
        <ele>131.60000610352</ele>
        <time>2013-01-26T23:27:13.000Z</time>
      </trkpt>
      <trkpt lat="48.81597" lon="2.12677">
        <ele>131.19999694824</ele>
        <time>2013-01-26T23:27:20.000Z</time>
      </trkpt>
      <trkpt lat="48.81597" lon="2.12675">
        <ele>131.19999694824</ele>
        <time>2013-01-26T23:27:21.000Z</time>
      </trkpt>
      <trkpt lat="48.816" lon="2.12665">
        <ele>131.19999694824</ele>
        <time>2013-01-26T23:27:27.000Z</time>
      </trkpt>
      <trkpt lat="48.81601" lon="2.12663">
        <ele>131.19999694824</ele>
        <time>2013-01-26T23:27:28.000Z</time>
      </trkpt>
      <trkpt lat="48.81604" lon="2.12651">
        <ele>131.19999694824</ele>
        <time>2013-01-26T23:27:35.000Z</time>
      </trkpt>
      <trkpt lat="48.81606" lon="2.12648">
        <ele>131.19999694824</ele>
        <time>2013-01-26T23:27:37.000Z</time>
      </trkpt>
      <trkpt lat="48.8161" lon="2.12635">
        <ele>131.39999389648</ele>
        <time>2013-01-26T23:27:44.000Z</time>
      </trkpt>
      <trkpt lat="48.81613" lon="2.12629">
        <ele>131.39999389648</ele>
        <time>2013-01-26T23:27:48.000Z</time>
      </trkpt>
      <trkpt lat="48.81613" lon="2.12627">
        <ele>131.39999389648</ele>
        <time>2013-01-26T23:27:49.000Z</time>
      </trkpt>
      <trkpt lat="48.81614" lon="2.12623">
        <ele>131.39999389648</ele>
        <time>2013-01-26T23:27:51.000Z</time>
      </trkpt>
      <trkpt lat="48.81618" lon="2.12608">
        <ele>131.60000610352</ele>
        <time>2013-01-26T23:27:59.000Z</time>
      </trkpt>
      <trkpt lat="48.81623" lon="2.12599">
        <ele>131.80000305176</ele>
        <time>2013-01-26T23:28:05.000Z</time>
      </trkpt>
      <trkpt lat="48.81628" lon="2.12579">
        <ele>132</ele>
        <time>2013-01-26T23:28:15.000Z</time>
      </trkpt>
      <trkpt lat="48.81632" lon="2.12562">
        <ele>131.80000305176</ele>
        <time>2013-01-26T23:28:23.000Z</time>
      </trkpt>
      <trkpt lat="48.81637" lon="2.1255">
        <ele>131.60000610352</ele>
        <time>2013-01-26T23:28:30.000Z</time>
      </trkpt>
      <trkpt lat="48.81637" lon="2.12548">
        <ele>131.60000610352</ele>
        <time>2013-01-26T23:28:31.000Z</time>
      </trkpt>
      <trkpt lat="48.81642" lon="2.12534">
        <ele>131.39999389648</ele>
        <time>2013-01-26T23:28:38.000Z</time>
      </trkpt>
      <trkpt lat="48.81647" lon="2.12521">
        <ele>131.19999694824</ele>
        <time>2013-01-26T23:28:44.000Z</time>
      </trkpt>
      <trkpt lat="48.81653" lon="2.12507">
        <ele>131</ele>
        <time>2013-01-26T23:28:51.000Z</time>
      </trkpt>
      <trkpt lat="48.81656" lon="2.125">
        <ele>131</ele>
        <time>2013-01-26T23:28:54.000Z</time>
      </trkpt>
      <trkpt lat="48.81665" lon="2.12485">
        <ele>130.19999694824</ele>
        <time>2013-01-26T23:29:02.000Z</time>
      </trkpt>
      <trkpt lat="48.81672" lon="2.12471">
        <ele>129.19999694824</ele>
        <time>2013-01-26T23:29:09.000Z</time>
      </trkpt>
      <trkpt lat="48.8168" lon="2.12452">
        <ele>128.19999694824</ele>
        <time>2013-01-26T23:29:18.000Z</time>
      </trkpt>
      <trkpt lat="48.81684" lon="2.12441">
        <ele>127.80000305176</ele>
        <time>2013-01-26T23:29:23.000Z</time>
      </trkpt>
      <trkpt lat="48.81688" lon="2.12427">
        <ele>127.19999694824</ele>
        <time>2013-01-26T23:29:30.000Z</time>
      </trkpt>
      <trkpt lat="48.81689" lon="2.12425">
        <ele>127.19999694824</ele>
        <time>2013-01-26T23:29:31.000Z</time>
      </trkpt>
      <trkpt lat="48.81699" lon="2.12412">
        <ele>126.59999847412</ele>
        <time>2013-01-26T23:29:37.000Z</time>
      </trkpt>
      <trkpt lat="48.8171" lon="2.12393">
        <ele>126</ele>
        <time>2013-01-26T23:29:46.000Z</time>
      </trkpt>
      <trkpt lat="48.81716" lon="2.12378">
        <ele>125.40000152588</ele>
        <time>2013-01-26T23:29:53.000Z</time>
      </trkpt>
      <trkpt lat="48.81722" lon="2.12364">
        <ele>125</ele>
        <time>2013-01-26T23:30:00.000Z</time>
      </trkpt>
      <trkpt lat="48.81729" lon="2.12347">
        <ele>124.59999847412</ele>
        <time>2013-01-26T23:30:08.000Z</time>
      </trkpt>
      <trkpt lat="48.81735" lon="2.12329">
        <ele>124</ele>
        <time>2013-01-26T23:30:16.000Z</time>
      </trkpt>
      <trkpt lat="48.81739" lon="2.12315">
        <ele>123</ele>
        <time>2013-01-26T23:30:23.000Z</time>
      </trkpt>
      <trkpt lat="48.81745" lon="2.12299">
        <ele>122</ele>
        <time>2013-01-26T23:30:31.000Z</time>
      </trkpt>
      <trkpt lat="48.81751" lon="2.12284">
        <ele>120.80000305176</ele>
        <time>2013-01-26T23:30:39.000Z</time>
      </trkpt>
      <trkpt lat="48.81755" lon="2.12275">
        <ele>120</ele>
        <time>2013-01-26T23:30:44.000Z</time>
      </trkpt>
      <trkpt lat="48.81759" lon="2.12264">
        <ele>119</ele>
        <time>2013-01-26T23:30:50.000Z</time>
      </trkpt>
      <trkpt lat="48.81767" lon="2.12243">
        <ele>118</ele>
        <time>2013-01-26T23:31:01.000Z</time>
      </trkpt>
      <trkpt lat="48.81772" lon="2.1223">
        <ele>117.80000305176</ele>
        <time>2013-01-26T23:31:08.000Z</time>
      </trkpt>
      <trkpt lat="48.81779" lon="2.12218">
        <ele>117.80000305176</ele>
        <time>2013-01-26T23:31:15.000Z</time>
      </trkpt>
      <trkpt lat="48.81788" lon="2.12199">
        <ele>117.40000152588</ele>
        <time>2013-01-26T23:31:26.000Z</time>
      </trkpt>
      <trkpt lat="48.81795" lon="2.12181">
        <ele>117.19999694824</ele>
        <time>2013-01-26T23:31:35.000Z</time>
      </trkpt>
      <trkpt lat="48.81802" lon="2.12163">
        <ele>116.80000305176</ele>
        <time>2013-01-26T23:31:45.000Z</time>
      </trkpt>
      <trkpt lat="48.81806" lon="2.12151">
        <ele>116.80000305176</ele>
        <time>2013-01-26T23:31:51.000Z</time>
      </trkpt>
      <trkpt lat="48.81814" lon="2.12127">
        <ele>116.59999847412</ele>
        <time>2013-01-26T23:32:03.000Z</time>
      </trkpt>
      <trkpt lat="48.81818" lon="2.12111">
        <ele>116.59999847412</ele>
        <time>2013-01-26T23:32:10.000Z</time>
      </trkpt>
      <trkpt lat="48.81822" lon="2.12096">
        <ele>116.59999847412</ele>
        <time>2013-01-26T23:32:18.000Z</time>
      </trkpt>
      <trkpt lat="48.81827" lon="2.12077">
        <ele>116.59999847412</ele>
        <time>2013-01-26T23:32:28.000Z</time>
      </trkpt>
      <trkpt lat="48.81833" lon="2.12064">
        <ele>116.59999847412</ele>
        <time>2013-01-26T23:32:36.000Z</time>
      </trkpt>
      <trkpt lat="48.8184" lon="2.12046">
        <ele>116.59999847412</ele>
        <time>2013-01-26T23:32:46.000Z</time>
      </trkpt>
      <trkpt lat="48.81846" lon="2.1203">
        <ele>116.59999847412</ele>
        <time>2013-01-26T23:32:54.000Z</time>
      </trkpt>
      <trkpt lat="48.81854" lon="2.12011">
        <ele>116.80000305176</ele>
        <time>2013-01-26T23:33:04.000Z</time>
      </trkpt>
      <trkpt lat="48.81859" lon="2.11995">
        <ele>116.80000305176</ele>
        <time>2013-01-26T23:33:12.000Z</time>
      </trkpt>
      <trkpt lat="48.81866" lon="2.11979">
        <ele>116.80000305176</ele>
        <time>2013-01-26T23:33:21.000Z</time>
      </trkpt>
      <trkpt lat="48.81871" lon="2.11963">
        <ele>116.80000305176</ele>
        <time>2013-01-26T23:33:30.000Z</time>
      </trkpt>
      <trkpt lat="48.81877" lon="2.11948">
        <ele>116.80000305176</ele>
        <time>2013-01-26T23:33:37.000Z</time>
      </trkpt>
      <trkpt lat="48.81883" lon="2.11929">
        <ele>116.59999847412</ele>
        <time>2013-01-26T23:33:47.000Z</time>
      </trkpt>
      <trkpt lat="48.81889" lon="2.11916">
        <ele>116.59999847412</ele>
        <time>2013-01-26T23:33:55.000Z</time>
      </trkpt>
      <trkpt lat="48.81894" lon="2.11903">
        <ele>117</ele>
        <time>2013-01-26T23:34:02.000Z</time>
      </trkpt>
      <trkpt lat="48.819" lon="2.11886">
        <ele>117.40000152588</ele>
        <time>2013-01-26T23:34:11.000Z</time>
      </trkpt>
      <trkpt lat="48.81905" lon="2.11875">
        <ele>117.80000305176</ele>
        <time>2013-01-26T23:34:17.000Z</time>
      </trkpt>
      <trkpt lat="48.81905" lon="2.11874">
        <ele>117.80000305176</ele>
        <time>2013-01-26T23:34:18.000Z</time>
      </trkpt>
      <trkpt lat="48.8191" lon="2.11863">
        <ele>118.19999694824</ele>
        <time>2013-01-26T23:34:24.000Z</time>
      </trkpt>
      <trkpt lat="48.81916" lon="2.11846">
        <ele>118.59999847412</ele>
        <time>2013-01-26T23:34:33.000Z</time>
      </trkpt>
      <trkpt lat="48.81924" lon="2.11828">
        <ele>119</ele>
        <time>2013-01-26T23:34:43.000Z</time>
      </trkpt>
      <trkpt lat="48.81931" lon="2.11807">
        <ele>119.19999694824</ele>
        <time>2013-01-26T23:34:53.000Z</time>
      </trkpt>
      <trkpt lat="48.81931" lon="2.11805">
        <ele>119.19999694824</ele>
        <time>2013-01-26T23:34:54.000Z</time>
      </trkpt>
      <trkpt lat="48.81935" lon="2.11796">
        <ele>119.19999694824</ele>
        <time>2013-01-26T23:34:58.000Z</time>
      </trkpt>
      <trkpt lat="48.81936" lon="2.11793">
        <ele>119.19999694824</ele>
        <time>2013-01-26T23:35:00.000Z</time>
      </trkpt>
      <trkpt lat="48.81942" lon="2.11788">
        <ele>119.40000152588</ele>
        <time>2013-01-26T23:35:05.000Z</time>
      </trkpt>
      <trkpt lat="48.81949" lon="2.11772">
        <ele>119.59999847412</ele>
        <time>2013-01-26T23:35:14.000Z</time>
      </trkpt>
      <trkpt lat="48.81954" lon="2.11756">
        <ele>119.80000305176</ele>
        <time>2013-01-26T23:35:22.000Z</time>
      </trkpt>
      <trkpt lat="48.81961" lon="2.11734">
        <ele>120</ele>
        <time>2013-01-26T23:35:33.000Z</time>
      </trkpt>
      <trkpt lat="48.81962" lon="2.11732">
        <ele>120</ele>
        <time>2013-01-26T23:35:34.000Z</time>
      </trkpt>
      <trkpt lat="48.81964" lon="2.11726">
        <ele>120.19999694824</ele>
        <time>2013-01-26T23:35:37.000Z</time>
      </trkpt>
      <trkpt lat="48.81969" lon="2.1171">
        <ele>120.40000152588</ele>
        <time>2013-01-26T23:35:45.000Z</time>
      </trkpt>
      <trkpt lat="48.81975" lon="2.11689">
        <ele>120.59999847412</ele>
        <time>2013-01-26T23:35:55.000Z</time>
      </trkpt>
      <trkpt lat="48.81982" lon="2.11668">
        <ele>120.59999847412</ele>
        <time>2013-01-26T23:36:05.000Z</time>
      </trkpt>
      <trkpt lat="48.81988" lon="2.11652">
        <ele>121.19999694824</ele>
        <time>2013-01-26T23:36:13.000Z</time>
      </trkpt>
      <trkpt lat="48.81995" lon="2.11634">
        <ele>121.59999847412</ele>
        <time>2013-01-26T23:36:22.000Z</time>
      </trkpt>
      <trkpt lat="48.82003" lon="2.11613">
        <ele>122.19999694824</ele>
        <time>2013-01-26T23:36:33.000Z</time>
      </trkpt>
      <trkpt lat="48.82008" lon="2.11598">
        <ele>122.40000152588</ele>
        <time>2013-01-26T23:36:41.000Z</time>
      </trkpt>
      <trkpt lat="48.82019" lon="2.11582">
        <ele>122.40000152588</ele>
        <time>2013-01-26T23:36:51.000Z</time>
      </trkpt>
      <trkpt lat="48.82028" lon="2.11567">
        <ele>122.40000152588</ele>
        <time>2013-01-26T23:37:00.000Z</time>
      </trkpt>
      <trkpt lat="48.82037" lon="2.11558">
        <ele>122.40000152588</ele>
        <time>2013-01-26T23:37:08.000Z</time>
      </trkpt>
      <trkpt lat="48.82045" lon="2.1155">
        <ele>122.40000152588</ele>
        <time>2013-01-26T23:37:15.000Z</time>
      </trkpt>
      <trkpt lat="48.82061" lon="2.1154">
        <ele>122.59999847412</ele>
        <time>2013-01-26T23:37:28.000Z</time>
      </trkpt>
      <trkpt lat="48.82073" lon="2.11537">
        <ele>122.59999847412</ele>
        <time>2013-01-26T23:37:36.000Z</time>
      </trkpt>
      <trkpt lat="48.82086" lon="2.11535">
        <ele>122.80000305176</ele>
        <time>2013-01-26T23:37:45.000Z</time>
      </trkpt>
      <trkpt lat="48.82101" lon="2.11533">
        <ele>123.59999847412</ele>
        <time>2013-01-26T23:37:55.000Z</time>
      </trkpt>
      <trkpt lat="48.82112" lon="2.11531">
        <ele>124</ele>
        <time>2013-01-26T23:38:03.000Z</time>
      </trkpt>
      <trkpt lat="48.82121" lon="2.11529">
        <ele>124.59999847412</ele>
        <time>2013-01-26T23:38:10.000Z</time>
      </trkpt>
      <trkpt lat="48.82131" lon="2.11528">
        <ele>125</ele>
        <time>2013-01-26T23:38:17.000Z</time>
      </trkpt>
      <trkpt lat="48.82145" lon="2.11525">
        <ele>125.59999847412</ele>
        <time>2013-01-26T23:38:27.000Z</time>
      </trkpt>
      <trkpt lat="48.82154" lon="2.11522">
        <ele>126</ele>
        <time>2013-01-26T23:38:34.000Z</time>
      </trkpt>
      <trkpt lat="48.82166" lon="2.11514">
        <ele>126.59999847412</ele>
        <time>2013-01-26T23:38:43.000Z</time>
      </trkpt>
      <trkpt lat="48.8218" lon="2.11509">
        <ele>127.19999694824</ele>
        <time>2013-01-26T23:38:53.000Z</time>
      </trkpt>
      <trkpt lat="48.8219" lon="2.11507">
        <ele>127.59999847412</ele>
        <time>2013-01-26T23:39:00.000Z</time>
      </trkpt>
      <trkpt lat="48.82204" lon="2.11505">
        <ele>128.19999694824</ele>
        <time>2013-01-26T23:39:11.000Z</time>
      </trkpt>
      <trkpt lat="48.82216" lon="2.11502">
        <ele>128.60000610352</ele>
        <time>2013-01-26T23:39:20.000Z</time>
      </trkpt>
      <trkpt lat="48.8223" lon="2.11499">
        <ele>129.19999694824</ele>
        <time>2013-01-26T23:39:30.000Z</time>
      </trkpt>
      <trkpt lat="48.82242" lon="2.11496">
        <ele>129.60000610352</ele>
        <time>2013-01-26T23:39:39.000Z</time>
      </trkpt>
      <trkpt lat="48.82256" lon="2.11492">
        <ele>130.19999694824</ele>
        <time>2013-01-26T23:39:50.000Z</time>
      </trkpt>
      <trkpt lat="48.82268" lon="2.11491">
        <ele>130.60000610352</ele>
        <time>2013-01-26T23:39:59.000Z</time>
      </trkpt>
      <trkpt lat="48.8228" lon="2.11489">
        <ele>131.19999694824</ele>
        <time>2013-01-26T23:40:08.000Z</time>
      </trkpt>
      <trkpt lat="48.82292" lon="2.11486">
        <ele>131.60000610352</ele>
        <time>2013-01-26T23:40:16.000Z</time>
      </trkpt>
      <trkpt lat="48.82302" lon="2.11483">
        <ele>132</ele>
        <time>2013-01-26T23:40:24.000Z</time>
      </trkpt>
      <trkpt lat="48.82315" lon="2.11481">
        <ele>132.39999389648</ele>
        <time>2013-01-26T23:40:33.000Z</time>
      </trkpt>
      <trkpt lat="48.82325" lon="2.11478">
        <ele>132.80000305176</ele>
        <time>2013-01-26T23:40:41.000Z</time>
      </trkpt>
      <trkpt lat="48.82336" lon="2.11475">
        <ele>133</ele>
        <time>2013-01-26T23:40:49.000Z</time>
      </trkpt>
      <trkpt lat="48.82347" lon="2.11472">
        <ele>133.19999694824</ele>
        <time>2013-01-26T23:40:57.000Z</time>
      </trkpt>
      <trkpt lat="48.82358" lon="2.11469">
        <ele>133.39999389648</ele>
        <time>2013-01-26T23:41:05.000Z</time>
      </trkpt>
      <trkpt lat="48.8237" lon="2.11466">
        <ele>133.80000305176</ele>
        <time>2013-01-26T23:41:14.000Z</time>
      </trkpt>
      <trkpt lat="48.82375" lon="2.11463">
        <ele>133.80000305176</ele>
        <time>2013-01-26T23:41:18.000Z</time>
      </trkpt>
      <trkpt lat="48.82382" lon="2.1146">
        <ele>134</ele>
        <time>2013-01-26T23:41:23.000Z</time>
      </trkpt>
      <trkpt lat="48.82389" lon="2.11458">
        <ele>134</ele>
        <time>2013-01-26T23:41:29.000Z</time>
      </trkpt>
      <trkpt lat="48.82393" lon="2.11457">
        <ele>134.19999694824</ele>
        <time>2013-01-26T23:41:32.000Z</time>
      </trkpt>
      <trkpt lat="48.82401" lon="2.11454">
        <ele>134.39999389648</ele>
        <time>2013-01-26T23:41:38.000Z</time>
      </trkpt>
      <trkpt lat="48.82414" lon="2.11451">
        <ele>134.60000610352</ele>
        <time>2013-01-26T23:41:47.000Z</time>
      </trkpt>
      <trkpt lat="48.82428" lon="2.11448">
        <ele>135</ele>
        <time>2013-01-26T23:41:57.000Z</time>
      </trkpt>
      <trkpt lat="48.82438" lon="2.11445">
        <ele>135</ele>
        <time>2013-01-26T23:42:04.000Z</time>
      </trkpt>
      <trkpt lat="48.82454" lon="2.11441">
        <ele>135.39999389648</ele>
        <time>2013-01-26T23:42:16.000Z</time>
      </trkpt>
      <trkpt lat="48.82465" lon="2.11439">
        <ele>135.80000305176</ele>
        <time>2013-01-26T23:42:25.000Z</time>
      </trkpt>
      <trkpt lat="48.82466" lon="2.11439">
        <ele>135.80000305176</ele>
        <time>2013-01-26T23:42:26.000Z</time>
      </trkpt>
      <trkpt lat="48.82468" lon="2.11438">
        <ele>135.80000305176</ele>
        <time>2013-01-26T23:42:28.000Z</time>
      </trkpt>
      <trkpt lat="48.82474" lon="2.11437">
        <ele>136</ele>
        <time>2013-01-26T23:42:33.000Z</time>
      </trkpt>
      <trkpt lat="48.82486" lon="2.11435">
        <ele>136.19999694824</ele>
        <time>2013-01-26T23:42:42.000Z</time>
      </trkpt>
      <trkpt lat="48.825" lon="2.11433">
        <ele>136.80000305176</ele>
        <time>2013-01-26T23:42:52.000Z</time>
      </trkpt>
      <trkpt lat="48.82511" lon="2.11432">
        <ele>137</ele>
        <time>2013-01-26T23:42:59.000Z</time>
      </trkpt>
      <trkpt lat="48.82526" lon="2.11434">
        <ele>137.19999694824</ele>
        <time>2013-01-26T23:43:09.000Z</time>
      </trkpt>
      <trkpt lat="48.8254" lon="2.11436">
        <ele>137.39999389648</ele>
        <time>2013-01-26T23:43:19.000Z</time>
      </trkpt>
      <trkpt lat="48.82556" lon="2.11437">
        <ele>137.60000610352</ele>
        <time>2013-01-26T23:43:30.000Z</time>
      </trkpt>
      <trkpt lat="48.82565" lon="2.11436">
        <ele>137.80000305176</ele>
        <time>2013-01-26T23:43:37.000Z</time>
      </trkpt>
      <trkpt lat="48.82579" lon="2.11434">
        <ele>138</ele>
        <time>2013-01-26T23:43:47.000Z</time>
      </trkpt>
      <trkpt lat="48.82591" lon="2.11431">
        <ele>138.39999389648</ele>
        <time>2013-01-26T23:43:56.000Z</time>
      </trkpt>
      <trkpt lat="48.82599" lon="2.11429">
        <ele>138.60000610352</ele>
        <time>2013-01-26T23:44:02.000Z</time>
      </trkpt>
      <trkpt lat="48.82613" lon="2.11426">
        <ele>139</ele>
        <time>2013-01-26T23:44:12.000Z</time>
      </trkpt>
      <trkpt lat="48.82624" lon="2.11423">
        <ele>139.39999389648</ele>
        <time>2013-01-26T23:44:21.000Z</time>
      </trkpt>
      <trkpt lat="48.82633" lon="2.11421">
        <ele>139.60000610352</ele>
        <time>2013-01-26T23:44:28.000Z</time>
      </trkpt>
      <trkpt lat="48.82644" lon="2.11422">
        <ele>140</ele>
        <time>2013-01-26T23:44:36.000Z</time>
      </trkpt>
      <trkpt lat="48.82645" lon="2.11422">
        <ele>140</ele>
        <time>2013-01-26T23:44:37.000Z</time>
      </trkpt>
      <trkpt lat="48.82654" lon="2.11429">
        <ele>140.19999694824</ele>
        <time>2013-01-26T23:44:44.000Z</time>
      </trkpt>
      <trkpt lat="48.82667" lon="2.11444">
        <ele>140.19999694824</ele>
        <time>2013-01-26T23:44:54.000Z</time>
      </trkpt>
      <trkpt lat="48.82675" lon="2.11458">
        <ele>139.80000305176</ele>
        <time>2013-01-26T23:45:02.000Z</time>
      </trkpt>
      <trkpt lat="48.82686" lon="2.11466">
        <ele>139.60000610352</ele>
        <time>2013-01-26T23:45:10.000Z</time>
      </trkpt>
      <trkpt lat="48.82698" lon="2.1147">
        <ele>139.39999389648</ele>
        <time>2013-01-26T23:45:18.000Z</time>
      </trkpt>
      <trkpt lat="48.82707" lon="2.11463">
        <ele>139.60000610352</ele>
        <time>2013-01-26T23:45:25.000Z</time>
      </trkpt>
      <trkpt lat="48.82709" lon="2.11451">
        <ele>139.80000305176</ele>
        <time>2013-01-26T23:45:31.000Z</time>
      </trkpt>
      <trkpt lat="48.82705" lon="2.11428">
        <ele>140.60000610352</ele>
        <time>2013-01-26T23:45:42.000Z</time>
      </trkpt>
      <trkpt lat="48.82699" lon="2.11411">
        <ele>141</ele>
        <time>2013-01-26T23:45:51.000Z</time>
      </trkpt>
      <trkpt lat="48.82698" lon="2.11408">
        <ele>141.19999694824</ele>
        <time>2013-01-26T23:45:53.000Z</time>
      </trkpt>
      <trkpt lat="48.82704" lon="2.11399">
        <ele>141.39999389648</ele>
        <time>2013-01-26T23:46:00.000Z</time>
      </trkpt>
      <trkpt lat="48.8271" lon="2.11398">
        <ele>141.39999389648</ele>
        <time>2013-01-26T23:46:06.000Z</time>
      </trkpt>
      <trkpt lat="48.82716" lon="2.11396">
        <ele>141.60000610352</ele>
        <time>2013-01-26T23:46:13.000Z</time>
      </trkpt>
      <trkpt lat="48.82722" lon="2.11395">
        <ele>141.60000610352</ele>
        <time>2013-01-26T23:46:19.000Z</time>
      </trkpt>
      <trkpt lat="48.8273" lon="2.11393">
        <ele>141.80000305176</ele>
        <time>2013-01-26T23:46:27.000Z</time>
      </trkpt>
      <trkpt lat="48.82737" lon="2.11392">
        <ele>142</ele>
        <time>2013-01-26T23:46:33.000Z</time>
      </trkpt>
      <trkpt lat="48.82747" lon="2.11389">
        <ele>142.19999694824</ele>
        <time>2013-01-26T23:46:41.000Z</time>
      </trkpt>
      <trkpt lat="48.82755" lon="2.11387">
        <ele>142.19999694824</ele>
        <time>2013-01-26T23:46:48.000Z</time>
      </trkpt>
      <trkpt lat="48.82762" lon="2.11386">
        <ele>142</ele>
        <time>2013-01-26T23:46:55.000Z</time>
      </trkpt>
      <trkpt lat="48.82768" lon="2.11385">
        <ele>142</ele>
        <time>2013-01-26T23:47:00.000Z</time>
      </trkpt>
      <trkpt lat="48.82773" lon="2.11382">
        <ele>141.80000305176</ele>
        <time>2013-01-26T23:47:06.000Z</time>
      </trkpt>
      <trkpt lat="48.82783" lon="2.1138">
        <ele>141.60000610352</ele>
        <time>2013-01-26T23:47:15.000Z</time>
      </trkpt>
      <trkpt lat="48.82794" lon="2.11378">
        <ele>141.39999389648</ele>
        <time>2013-01-26T23:47:23.000Z</time>
      </trkpt>
      <trkpt lat="48.82804" lon="2.11374">
        <ele>141.39999389648</ele>
        <time>2013-01-26T23:47:31.000Z</time>
      </trkpt>
      <trkpt lat="48.82814" lon="2.11371">
        <ele>141.19999694824</ele>
        <time>2013-01-26T23:47:38.000Z</time>
      </trkpt>
      <trkpt lat="48.82822" lon="2.11369">
        <ele>141</ele>
        <time>2013-01-26T23:47:45.000Z</time>
      </trkpt>
      <trkpt lat="48.82831" lon="2.11367">
        <ele>140.80000305176</ele>
        <time>2013-01-26T23:47:51.000Z</time>
      </trkpt>
      <trkpt lat="48.8284" lon="2.11366">
        <ele>140.60000610352</ele>
        <time>2013-01-26T23:47:57.000Z</time>
      </trkpt>
      <trkpt lat="48.82849" lon="2.11365">
        <ele>140.39999389648</ele>
        <time>2013-01-26T23:48:04.000Z</time>
      </trkpt>
      <trkpt lat="48.82859" lon="2.11363">
        <ele>140.39999389648</ele>
        <time>2013-01-26T23:48:11.000Z</time>
      </trkpt>
      <trkpt lat="48.82872" lon="2.1136">
        <ele>140.19999694824</ele>
        <time>2013-01-26T23:48:20.000Z</time>
      </trkpt>
      <trkpt lat="48.82884" lon="2.11358">
        <ele>140</ele>
        <time>2013-01-26T23:48:29.000Z</time>
      </trkpt>
      <trkpt lat="48.82895" lon="2.11354">
        <ele>139.80000305176</ele>
        <time>2013-01-26T23:48:36.000Z</time>
      </trkpt>
      <trkpt lat="48.82906" lon="2.1135">
        <ele>139.80000305176</ele>
        <time>2013-01-26T23:48:44.000Z</time>
      </trkpt>
      <trkpt lat="48.82917" lon="2.11347">
        <ele>139.60000610352</ele>
        <time>2013-01-26T23:48:52.000Z</time>
      </trkpt>
      <trkpt lat="48.82929" lon="2.11344">
        <ele>139.19999694824</ele>
        <time>2013-01-26T23:49:00.000Z</time>
      </trkpt>
      <trkpt lat="48.8294" lon="2.1134">
        <ele>139</ele>
        <time>2013-01-26T23:49:08.000Z</time>
      </trkpt>
      <trkpt lat="48.82957" lon="2.11336">
        <ele>138.39999389648</ele>
        <time>2013-01-26T23:49:19.000Z</time>
      </trkpt>
      <trkpt lat="48.82972" lon="2.11332">
        <ele>138</ele>
        <time>2013-01-26T23:49:29.000Z</time>
      </trkpt>
      <trkpt lat="48.82984" lon="2.11328">
        <ele>137.39999389648</ele>
        <time>2013-01-26T23:49:38.000Z</time>
      </trkpt>
      <trkpt lat="48.82997" lon="2.11325">
        <ele>137</ele>
        <time>2013-01-26T23:49:47.000Z</time>
      </trkpt>
      <trkpt lat="48.83006" lon="2.11323">
        <ele>136.60000610352</ele>
        <time>2013-01-26T23:49:52.000Z</time>
      </trkpt>
      <trkpt lat="48.83022" lon="2.11315">
        <ele>136.19999694824</ele>
        <time>2013-01-26T23:50:03.000Z</time>
      </trkpt>
      <trkpt lat="48.83037" lon="2.11312">
        <ele>135.80000305176</ele>
        <time>2013-01-26T23:50:13.000Z</time>
      </trkpt>
      <trkpt lat="48.8305" lon="2.11309">
        <ele>135.39999389648</ele>
        <time>2013-01-26T23:50:22.000Z</time>
      </trkpt>
      <trkpt lat="48.83061" lon="2.11307">
        <ele>135.19999694824</ele>
        <time>2013-01-26T23:50:30.000Z</time>
      </trkpt>
      <trkpt lat="48.83065" lon="2.11306">
        <ele>135</ele>
        <time>2013-01-26T23:50:34.000Z</time>
      </trkpt>
      <trkpt lat="48.83076" lon="2.11303">
        <ele>134.80000305176</ele>
        <time>2013-01-26T23:50:42.000Z</time>
      </trkpt>
      <trkpt lat="48.83087" lon="2.11302">
        <ele>134.60000610352</ele>
        <time>2013-01-26T23:50:50.000Z</time>
      </trkpt>
      <trkpt lat="48.83095" lon="2.113">
        <ele>134.80000305176</ele>
        <time>2013-01-26T23:50:55.000Z</time>
      </trkpt>
      <trkpt lat="48.83107" lon="2.11298">
        <ele>135</ele>
        <time>2013-01-26T23:51:03.000Z</time>
      </trkpt>
      <trkpt lat="48.83131" lon="2.11293">
        <ele>135.60000610352</ele>
        <time>2013-01-26T23:51:20.000Z</time>
      </trkpt>
      <trkpt lat="48.83143" lon="2.11288">
        <ele>135.80000305176</ele>
        <time>2013-01-26T23:51:29.000Z</time>
      </trkpt>
      <trkpt lat="48.83153" lon="2.11287">
        <ele>136</ele>
        <time>2013-01-26T23:51:36.000Z</time>
      </trkpt>
      <trkpt lat="48.83158" lon="2.1129">
        <ele>136.19999694824</ele>
        <time>2013-01-26T23:51:42.000Z</time>
      </trkpt>
      <trkpt lat="48.83159" lon="2.11289">
        <ele>136.19999694824</ele>
        <time>2013-01-26T23:51:43.000Z</time>
      </trkpt>
      <trkpt lat="48.83172" lon="2.11285">
        <ele>136.39999389648</ele>
        <time>2013-01-26T23:51:51.000Z</time>
      </trkpt>
      <trkpt lat="48.83184" lon="2.11282">
        <ele>136.39999389648</ele>
        <time>2013-01-26T23:51:59.000Z</time>
      </trkpt>
      <trkpt lat="48.83199" lon="2.1128">
        <ele>136.60000610352</ele>
        <time>2013-01-26T23:52:09.000Z</time>
      </trkpt>
      <trkpt lat="48.83203" lon="2.11279">
        <ele>136.60000610352</ele>
        <time>2013-01-26T23:52:12.000Z</time>
      </trkpt>
      <trkpt lat="48.83212" lon="2.11277">
        <ele>136.60000610352</ele>
        <time>2013-01-26T23:52:18.000Z</time>
      </trkpt>
      <trkpt lat="48.83219" lon="2.11276">
        <ele>136.60000610352</ele>
        <time>2013-01-26T23:52:23.000Z</time>
      </trkpt>
      <trkpt lat="48.83233" lon="2.11273">
        <ele>136.80000305176</ele>
        <time>2013-01-26T23:52:32.000Z</time>
      </trkpt>
      <trkpt lat="48.83244" lon="2.11271">
        <ele>136.80000305176</ele>
        <time>2013-01-26T23:52:40.000Z</time>
      </trkpt>
      <trkpt lat="48.83257" lon="2.11269">
        <ele>136.80000305176</ele>
        <time>2013-01-26T23:52:49.000Z</time>
      </trkpt>
      <trkpt lat="48.83269" lon="2.11267">
        <ele>136.80000305176</ele>
        <time>2013-01-26T23:52:57.000Z</time>
      </trkpt>
      <trkpt lat="48.83278" lon="2.11264">
        <ele>136.60000610352</ele>
        <time>2013-01-26T23:53:03.000Z</time>
      </trkpt>
      <trkpt lat="48.8329" lon="2.11261">
        <ele>136.60000610352</ele>
        <time>2013-01-26T23:53:11.000Z</time>
      </trkpt>
      <trkpt lat="48.83303" lon="2.11258">
        <ele>136.39999389648</ele>
        <time>2013-01-26T23:53:20.000Z</time>
      </trkpt>
      <trkpt lat="48.83314" lon="2.11256">
        <ele>136.19999694824</ele>
        <time>2013-01-26T23:53:28.000Z</time>
      </trkpt>
      <trkpt lat="48.83323" lon="2.11255">
        <ele>136.19999694824</ele>
        <time>2013-01-26T23:53:34.000Z</time>
      </trkpt>
      <trkpt lat="48.83333" lon="2.11253">
        <ele>136</ele>
        <time>2013-01-26T23:53:41.000Z</time>
      </trkpt>
      <trkpt lat="48.83341" lon="2.11251">
        <ele>136.19999694824</ele>
        <time>2013-01-26T23:53:47.000Z</time>
      </trkpt>
      <trkpt lat="48.83344" lon="2.11251">
        <ele>136.19999694824</ele>
        <time>2013-01-26T23:53:50.000Z</time>
      </trkpt>
      <trkpt lat="48.83349" lon="2.11249">
        <ele>136.19999694824</ele>
        <time>2013-01-26T23:53:54.000Z</time>
      </trkpt>
      <trkpt lat="48.83365" lon="2.11245">
        <ele>136.60000610352</ele>
        <time>2013-01-26T23:54:05.000Z</time>
      </trkpt>
      <trkpt lat="48.83381" lon="2.1124">
        <ele>137</ele>
        <time>2013-01-26T23:54:17.000Z</time>
      </trkpt>
      <trkpt lat="48.83396" lon="2.11242">
        <ele>137.39999389648</ele>
        <time>2013-01-26T23:54:27.000Z</time>
      </trkpt>
      <trkpt lat="48.83409" lon="2.11252">
        <ele>137.80000305176</ele>
        <time>2013-01-26T23:54:36.000Z</time>
      </trkpt>
      <trkpt lat="48.83417" lon="2.11267">
        <ele>138.19999694824</ele>
        <time>2013-01-26T23:54:45.000Z</time>
      </trkpt>
      <trkpt lat="48.83423" lon="2.11282">
        <ele>138.39999389648</ele>
        <time>2013-01-26T23:54:54.000Z</time>
      </trkpt>
      <trkpt lat="48.83431" lon="2.11282">
        <ele>138.60000610352</ele>
        <time>2013-01-26T23:55:00.000Z</time>
      </trkpt>
      <trkpt lat="48.83432" lon="2.11279">
        <ele>138.60000610352</ele>
        <time>2013-01-26T23:55:04.000Z</time>
      </trkpt>
      <trkpt lat="48.83432" lon="2.11278">
        <ele>138.60000610352</ele>
        <time>2013-01-26T23:55:05.000Z</time>
      </trkpt>
      <trkpt lat="48.83438" lon="2.11264">
        <ele>138.60000610352</ele>
        <time>2013-01-26T23:55:13.000Z</time>
      </trkpt>
      <trkpt lat="48.83459" lon="2.1126">
        <ele>139</ele>
        <time>2013-01-26T23:55:26.000Z</time>
      </trkpt>
      <trkpt lat="48.83464" lon="2.11257">
        <ele>139.19999694824</ele>
        <time>2013-01-26T23:55:30.000Z</time>
      </trkpt>
      <trkpt lat="48.83472" lon="2.11249">
        <ele>139.19999694824</ele>
        <time>2013-01-26T23:55:39.000Z</time>
      </trkpt>
      <trkpt lat="48.83484" lon="2.11242">
        <ele>139.60000610352</ele>
        <time>2013-01-26T23:55:49.000Z</time>
      </trkpt>
      <trkpt lat="48.83496" lon="2.11236">
        <ele>139.80000305176</ele>
        <time>2013-01-26T23:55:58.000Z</time>
      </trkpt>
      <trkpt lat="48.83508" lon="2.11233">
        <ele>140.39999389648</ele>
        <time>2013-01-26T23:56:07.000Z</time>
      </trkpt>
      <trkpt lat="48.83519" lon="2.11229">
        <ele>141</ele>
        <time>2013-01-26T23:56:16.000Z</time>
      </trkpt>
      <trkpt lat="48.83524" lon="2.11226">
        <ele>141.39999389648</ele>
        <time>2013-01-26T23:56:23.000Z</time>
      </trkpt>
      <trkpt lat="48.83528" lon="2.11222">
        <ele>141.60000610352</ele>
        <time>2013-01-26T23:56:32.000Z</time>
      </trkpt>
      <trkpt lat="48.83531" lon="2.11211">
        <ele>141.80000305176</ele>
        <time>2013-01-26T23:56:41.000Z</time>
      </trkpt>
      <trkpt lat="48.83534" lon="2.11205">
        <ele>142</ele>
        <time>2013-01-26T23:56:46.000Z</time>
      </trkpt>
      <trkpt lat="48.83534" lon="2.11203">
        <ele>142</ele>
        <time>2013-01-26T23:56:49.000Z</time>
      </trkpt>
      <trkpt lat="48.83549" lon="2.11202">
        <ele>142.80000305176</ele>
        <time>2013-01-26T23:56:56.000Z</time>
      </trkpt>
      <trkpt lat="48.83559" lon="2.11192">
        <ele>143.39999389648</ele>
        <time>2013-01-26T23:57:01.000Z</time>
      </trkpt>
      <trkpt lat="48.83553" lon="2.11189">
        <ele>143</ele>
        <time>2013-01-26T23:57:05.000Z</time>
      </trkpt>
      <trkpt lat="48.83551" lon="2.11187">
        <ele>143</ele>
        <time>2013-01-26T23:57:06.000Z</time>
      </trkpt>
      <trkpt lat="48.8354" lon="2.11178">
        <ele>142.39999389648</ele>
        <time>2013-01-26T23:57:09.000Z</time>
      </trkpt>
      <trkpt lat="48.83533" lon="2.11165">
        <ele>141.80000305176</ele>
        <time>2013-01-26T23:57:14.000Z</time>
      </trkpt>
      <trkpt lat="48.83531" lon="2.11166">
        <ele>141.80000305176</ele>
        <time>2013-01-26T23:57:18.000Z</time>
      </trkpt>
      <trkpt lat="48.83533" lon="2.11174">
        <ele>141.80000305176</ele>
        <time>2013-01-26T23:57:27.000Z</time>
      </trkpt>
      <trkpt lat="48.83545" lon="2.11172">
        <ele>142.60000610352</ele>
        <time>2013-01-26T23:57:37.000Z</time>
      </trkpt>
      <trkpt lat="48.83556" lon="2.11169">
        <ele>143.19999694824</ele>
        <time>2013-01-26T23:57:45.000Z</time>
      </trkpt>
      <trkpt lat="48.83567" lon="2.11167">
        <ele>144</ele>
        <time>2013-01-26T23:57:54.000Z</time>
      </trkpt>
      <trkpt lat="48.83569" lon="2.11166">
        <ele>144</ele>
        <time>2013-01-26T23:57:56.000Z</time>
      </trkpt>
      <trkpt lat="48.83574" lon="2.11158">
        <ele>144.19999694824</ele>
        <time>2013-01-26T23:58:05.000Z</time>
      </trkpt>
      <trkpt lat="48.83576" lon="2.11156">
        <ele>144.19999694824</ele>
        <time>2013-01-26T23:58:07.000Z</time>
      </trkpt>
      <trkpt lat="48.83581" lon="2.11143">
        <ele>144.19999694824</ele>
        <time>2013-01-26T23:58:16.000Z</time>
      </trkpt>
      <trkpt lat="48.83594" lon="2.11138">
        <ele>144.80000305176</ele>
        <time>2013-01-26T23:58:28.000Z</time>
      </trkpt>
      <trkpt lat="48.83602" lon="2.11145">
        <ele>145.60000610352</ele>
        <time>2013-01-26T23:58:38.000Z</time>
      </trkpt>
      <trkpt lat="48.83608" lon="2.11148">
        <ele>146</ele>
        <time>2013-01-26T23:58:45.000Z</time>
      </trkpt>
      <trkpt lat="48.83615" lon="2.11151">
        <ele>146.39999389648</ele>
        <time>2013-01-26T23:58:52.000Z</time>
      </trkpt>
      <trkpt lat="48.8362" lon="2.11152">
        <ele>146.80000305176</ele>
        <time>2013-01-26T23:58:59.000Z</time>
      </trkpt>
      <trkpt lat="48.83621" lon="2.11152">
        <ele>146.80000305176</ele>
        <time>2013-01-26T23:59:00.000Z</time>
      </trkpt>
      <trkpt lat="48.83628" lon="2.11152">
        <ele>147.19999694824</ele>
        <time>2013-01-26T23:59:07.000Z</time>
      </trkpt>
      <trkpt lat="48.83641" lon="2.1115">
        <ele>148</ele>
        <time>2013-01-26T23:59:17.000Z</time>
      </trkpt>
      <trkpt lat="48.83651" lon="2.11148">
        <ele>148.60000610352</ele>
        <time>2013-01-26T23:59:26.000Z</time>
      </trkpt>
      <trkpt lat="48.83656" lon="2.11148">
        <ele>148.80000305176</ele>
        <time>2013-01-26T23:59:32.000Z</time>
      </trkpt>
      <trkpt lat="48.83657" lon="2.11149">
        <ele>148.80000305176</ele>
        <time>2013-01-26T23:59:33.000Z</time>
      </trkpt>
      <trkpt lat="48.8366" lon="2.11149">
        <ele>149</ele>
        <time>2013-01-26T23:59:39.000Z</time>
      </trkpt>
      <trkpt lat="48.83667" lon="2.11146">
        <ele>149.39999389648</ele>
        <time>2013-01-26T23:59:45.000Z</time>
      </trkpt>
      <trkpt lat="48.8368" lon="2.11143">
        <ele>150.19999694824</ele>
        <time>2013-01-26T23:59:54.000Z</time>
      </trkpt>
      <trkpt lat="48.83689" lon="2.11141">
        <ele>150.80000305176</ele>
        <time>2013-01-27T00:00:01.000Z</time>
      </trkpt>
      <trkpt lat="48.83695" lon="2.1114">
        <ele>151.19999694824</ele>
        <time>2013-01-27T00:00:07.000Z</time>
      </trkpt>
      <trkpt lat="48.83697" lon="2.1114">
        <ele>151.39999389648</ele>
        <time>2013-01-27T00:00:09.000Z</time>
      </trkpt>
      <trkpt lat="48.837" lon="2.1114">
        <ele>151.60000610352</ele>
        <time>2013-01-27T00:00:11.000Z</time>
      </trkpt>
      <trkpt lat="48.83706" lon="2.11135">
        <ele>151.80000305176</ele>
        <time>2013-01-27T00:00:18.000Z</time>
      </trkpt>
      <trkpt lat="48.8371" lon="2.11131">
        <ele>152</ele>
        <time>2013-01-27T00:00:23.000Z</time>
      </trkpt>
      <trkpt lat="48.83713" lon="2.1113">
        <ele>152</ele>
        <time>2013-01-27T00:00:25.000Z</time>
      </trkpt>
      <trkpt lat="48.83715" lon="2.11129">
        <ele>152.19999694824</ele>
        <time>2013-01-27T00:00:29.000Z</time>
      </trkpt>
      <trkpt lat="48.83721" lon="2.11127">
        <ele>152.60000610352</ele>
        <time>2013-01-27T00:00:33.000Z</time>
      </trkpt>
      <trkpt lat="48.83727" lon="2.11122">
        <ele>152.80000305176</ele>
        <time>2013-01-27T00:00:40.000Z</time>
      </trkpt>
      <trkpt lat="48.83728" lon="2.11121">
        <ele>152.80000305176</ele>
        <time>2013-01-27T00:00:41.000Z</time>
      </trkpt>
      <trkpt lat="48.83735" lon="2.11117">
        <ele>153.19999694824</ele>
        <time>2013-01-27T00:00:46.000Z</time>
      </trkpt>
      <trkpt lat="48.83743" lon="2.11107">
        <ele>153.39999389648</ele>
        <time>2013-01-27T00:00:54.000Z</time>
      </trkpt>
      <trkpt lat="48.83744" lon="2.11106">
        <ele>153.39999389648</ele>
        <time>2013-01-27T00:00:55.000Z</time>
      </trkpt>
      <trkpt lat="48.83747" lon="2.11101">
        <ele>153.39999389648</ele>
        <time>2013-01-27T00:00:58.000Z</time>
      </trkpt>
      <trkpt lat="48.83755" lon="2.11084">
        <ele>153.39999389648</ele>
        <time>2013-01-27T00:01:06.000Z</time>
      </trkpt>
      <trkpt lat="48.83757" lon="2.11078">
        <ele>153.80000305176</ele>
        <time>2013-01-27T00:01:10.000Z</time>
      </trkpt>
      <trkpt lat="48.83759" lon="2.11075">
        <ele>154.19999694824</ele>
        <time>2013-01-27T00:01:12.000Z</time>
      </trkpt>
      <trkpt lat="48.83761" lon="2.11065">
        <ele>154.60000610352</ele>
        <time>2013-01-27T00:01:18.000Z</time>
      </trkpt>
      <trkpt lat="48.83761" lon="2.11063">
        <ele>154.80000305176</ele>
        <time>2013-01-27T00:01:19.000Z</time>
      </trkpt>
      <trkpt lat="48.8377" lon="2.11047">
        <ele>156</ele>
        <time>2013-01-27T00:01:27.000Z</time>
      </trkpt>
      <trkpt lat="48.83771" lon="2.11046">
        <ele>156.19999694824</ele>
        <time>2013-01-27T00:01:28.000Z</time>
      </trkpt>
      <trkpt lat="48.8378" lon="2.11045">
        <ele>157</ele>
        <time>2013-01-27T00:01:35.000Z</time>
      </trkpt>
      <trkpt lat="48.83783" lon="2.11045">
        <ele>157.39999389648</ele>
        <time>2013-01-27T00:01:38.000Z</time>
      </trkpt>
      <trkpt lat="48.83785" lon="2.11039">
        <ele>157.60000610352</ele>
        <time>2013-01-27T00:01:43.000Z</time>
      </trkpt>
      <trkpt lat="48.83786" lon="2.11012">
        <ele>158.19999694824</ele>
        <time>2013-01-27T00:01:55.000Z</time>
      </trkpt>
      <trkpt lat="48.83788" lon="2.10992">
        <ele>158.60000610352</ele>
        <time>2013-01-27T00:02:01.000Z</time>
      </trkpt>
      <trkpt lat="48.8379" lon="2.10975">
        <ele>158.80000305176</ele>
        <time>2013-01-27T00:02:08.000Z</time>
      </trkpt>
      <trkpt lat="48.83794" lon="2.10947">
        <ele>159.19999694824</ele>
        <time>2013-01-27T00:02:20.000Z</time>
      </trkpt>
      <trkpt lat="48.83795" lon="2.10935">
        <ele>159.19999694824</ele>
        <time>2013-01-27T00:02:26.000Z</time>
      </trkpt>
      <trkpt lat="48.83796" lon="2.10921">
        <ele>159.39999389648</ele>
        <time>2013-01-27T00:02:33.000Z</time>
      </trkpt>
      <trkpt lat="48.83797" lon="2.10903">
        <ele>159.19999694824</ele>
        <time>2013-01-27T00:02:42.000Z</time>
      </trkpt>
      <trkpt lat="48.838" lon="2.10886">
        <ele>159</ele>
        <time>2013-01-27T00:02:50.000Z</time>
      </trkpt>
      <trkpt lat="48.83801" lon="2.10869">
        <ele>158.80000305176</ele>
        <time>2013-01-27T00:02:58.000Z</time>
      </trkpt>
      <trkpt lat="48.83803" lon="2.10852">
        <ele>158.60000610352</ele>
        <time>2013-01-27T00:03:06.000Z</time>
      </trkpt>
      <trkpt lat="48.83805" lon="2.10834">
        <ele>158.19999694824</ele>
        <time>2013-01-27T00:03:14.000Z</time>
      </trkpt>
      <trkpt lat="48.83807" lon="2.1082">
        <ele>157.80000305176</ele>
        <time>2013-01-27T00:03:21.000Z</time>
      </trkpt>
      <trkpt lat="48.83809" lon="2.10806">
        <ele>157.19999694824</ele>
        <time>2013-01-27T00:03:28.000Z</time>
      </trkpt>
      <trkpt lat="48.8381" lon="2.10789">
        <ele>156.39999389648</ele>
        <time>2013-01-27T00:03:36.000Z</time>
      </trkpt>
      <trkpt lat="48.83811" lon="2.10771">
        <ele>155.60000610352</ele>
        <time>2013-01-27T00:03:44.000Z</time>
      </trkpt>
      <trkpt lat="48.83812" lon="2.10761">
        <ele>155.19999694824</ele>
        <time>2013-01-27T00:03:49.000Z</time>
      </trkpt>
      <trkpt lat="48.83812" lon="2.10756">
        <ele>155</ele>
        <time>2013-01-27T00:03:51.000Z</time>
      </trkpt>
      <trkpt lat="48.83812" lon="2.10749">
        <ele>154.60000610352</ele>
        <time>2013-01-27T00:03:55.000Z</time>
      </trkpt>
      <trkpt lat="48.83813" lon="2.10735">
        <ele>153.80000305176</ele>
        <time>2013-01-27T00:04:02.000Z</time>
      </trkpt>
      <trkpt lat="48.83814" lon="2.10717">
        <ele>153</ele>
        <time>2013-01-27T00:04:10.000Z</time>
      </trkpt>
      <trkpt lat="48.83815" lon="2.10697">
        <ele>152</ele>
        <time>2013-01-27T00:04:19.000Z</time>
      </trkpt>
      <trkpt lat="48.83817" lon="2.10679">
        <ele>151</ele>
        <time>2013-01-27T00:04:27.000Z</time>
      </trkpt>
      <trkpt lat="48.83818" lon="2.10664">
        <ele>150.19999694824</ele>
        <time>2013-01-27T00:04:34.000Z</time>
      </trkpt>
      <trkpt lat="48.8382" lon="2.10648">
        <ele>149.60000610352</ele>
        <time>2013-01-27T00:04:42.000Z</time>
      </trkpt>
      <trkpt lat="48.83819" lon="2.10635">
        <ele>149</ele>
        <time>2013-01-27T00:04:48.000Z</time>
      </trkpt>
      <trkpt lat="48.83818" lon="2.10618">
        <ele>148.19999694824</ele>
        <time>2013-01-27T00:04:56.000Z</time>
      </trkpt>
      <trkpt lat="48.83817" lon="2.10601">
        <ele>147.39999389648</ele>
        <time>2013-01-27T00:05:04.000Z</time>
      </trkpt>
      <trkpt lat="48.83817" lon="2.10596">
        <ele>147.19999694824</ele>
        <time>2013-01-27T00:05:07.000Z</time>
      </trkpt>
      <trkpt lat="48.83817" lon="2.10582">
        <ele>146.60000610352</ele>
        <time>2013-01-27T00:05:14.000Z</time>
      </trkpt>
      <trkpt lat="48.83817" lon="2.10567">
        <ele>146.60000610352</ele>
        <time>2013-01-27T00:05:21.000Z</time>
      </trkpt>
      <trkpt lat="48.83816" lon="2.10557">
        <ele>146.39999389648</ele>
        <time>2013-01-27T00:05:26.000Z</time>
      </trkpt>
      <trkpt lat="48.83816" lon="2.1054">
        <ele>146.39999389648</ele>
        <time>2013-01-27T00:05:34.000Z</time>
      </trkpt>
      <trkpt lat="48.83816" lon="2.10525">
        <ele>146.19999694824</ele>
        <time>2013-01-27T00:05:41.000Z</time>
      </trkpt>
      <trkpt lat="48.83816" lon="2.10507">
        <ele>146</ele>
        <time>2013-01-27T00:05:50.000Z</time>
      </trkpt>
      <trkpt lat="48.83817" lon="2.10494">
        <ele>146.19999694824</ele>
        <time>2013-01-27T00:05:56.000Z</time>
      </trkpt>
      <trkpt lat="48.83816" lon="2.10488">
        <ele>146.39999389648</ele>
        <time>2013-01-27T00:05:59.000Z</time>
      </trkpt>
      <trkpt lat="48.83816" lon="2.1048">
        <ele>146.60000610352</ele>
        <time>2013-01-27T00:06:03.000Z</time>
      </trkpt>
      <trkpt lat="48.83817" lon="2.10461">
        <ele>147</ele>
        <time>2013-01-27T00:06:12.000Z</time>
      </trkpt>
      <trkpt lat="48.83817" lon="2.10442">
        <ele>147.39999389648</ele>
        <time>2013-01-27T00:06:20.000Z</time>
      </trkpt>
      <trkpt lat="48.83817" lon="2.10428">
        <ele>147.80000305176</ele>
        <time>2013-01-27T00:06:27.000Z</time>
      </trkpt>
      <trkpt lat="48.83817" lon="2.10415">
        <ele>148.19999694824</ele>
        <time>2013-01-27T00:06:33.000Z</time>
      </trkpt>
      <trkpt lat="48.83818" lon="2.104">
        <ele>148.39999389648</ele>
        <time>2013-01-27T00:06:40.000Z</time>
      </trkpt>
      <trkpt lat="48.83817" lon="2.10383">
        <ele>148.60000610352</ele>
        <time>2013-01-27T00:06:48.000Z</time>
      </trkpt>
      <trkpt lat="48.83818" lon="2.10365">
        <ele>149</ele>
        <time>2013-01-27T00:06:56.000Z</time>
      </trkpt>
      <trkpt lat="48.83818" lon="2.10351">
        <ele>149.19999694824</ele>
        <time>2013-01-27T00:07:03.000Z</time>
      </trkpt>
      <trkpt lat="48.83818" lon="2.10349">
        <ele>149.19999694824</ele>
        <time>2013-01-27T00:07:04.000Z</time>
      </trkpt>
      <trkpt lat="48.83819" lon="2.10338">
        <ele>149.39999389648</ele>
        <time>2013-01-27T00:07:09.000Z</time>
      </trkpt>
      <trkpt lat="48.8382" lon="2.10322">
        <ele>149.80000305176</ele>
        <time>2013-01-27T00:07:17.000Z</time>
      </trkpt>
      <trkpt lat="48.8382" lon="2.10304">
        <ele>150</ele>
        <time>2013-01-27T00:07:24.000Z</time>
      </trkpt>
      <trkpt lat="48.8382" lon="2.10292">
        <ele>150</ele>
        <time>2013-01-27T00:07:29.000Z</time>
      </trkpt>
      <trkpt lat="48.8382" lon="2.10276">
        <ele>150.19999694824</ele>
        <time>2013-01-27T00:07:36.000Z</time>
      </trkpt>
      <trkpt lat="48.83821" lon="2.10262">
        <ele>150.39999389648</ele>
        <time>2013-01-27T00:07:43.000Z</time>
      </trkpt>
      <trkpt lat="48.83821" lon="2.10246">
        <ele>150.60000610352</ele>
        <time>2013-01-27T00:07:50.000Z</time>
      </trkpt>
      <trkpt lat="48.83821" lon="2.10235">
        <ele>150.39999389648</ele>
        <time>2013-01-27T00:07:55.000Z</time>
      </trkpt>
      <trkpt lat="48.83821" lon="2.10225">
        <ele>150.39999389648</ele>
        <time>2013-01-27T00:08:00.000Z</time>
      </trkpt>
      <trkpt lat="48.83822" lon="2.1021">
        <ele>150.39999389648</ele>
        <time>2013-01-27T00:08:07.000Z</time>
      </trkpt>
      <trkpt lat="48.83824" lon="2.10194">
        <ele>150.39999389648</ele>
        <time>2013-01-27T00:08:15.000Z</time>
      </trkpt>
      <trkpt lat="48.83825" lon="2.10178">
        <ele>150.39999389648</ele>
        <time>2013-01-27T00:08:23.000Z</time>
      </trkpt>
      <trkpt lat="48.83827" lon="2.10166">
        <ele>150.39999389648</ele>
        <time>2013-01-27T00:08:29.000Z</time>
      </trkpt>
      <trkpt lat="48.83829" lon="2.10151">
        <ele>150.39999389648</ele>
        <time>2013-01-27T00:08:36.000Z</time>
      </trkpt>
      <trkpt lat="48.8383" lon="2.10137">
        <ele>150.39999389648</ele>
        <time>2013-01-27T00:08:43.000Z</time>
      </trkpt>
      <trkpt lat="48.83832" lon="2.10123">
        <ele>150.19999694824</ele>
        <time>2013-01-27T00:08:50.000Z</time>
      </trkpt>
      <trkpt lat="48.83833" lon="2.10104">
        <ele>150.19999694824</ele>
        <time>2013-01-27T00:08:58.000Z</time>
      </trkpt>
      <trkpt lat="48.83835" lon="2.10092">
        <ele>150.19999694824</ele>
        <time>2013-01-27T00:09:04.000Z</time>
      </trkpt>
      <trkpt lat="48.83837" lon="2.10076">
        <ele>150.39999389648</ele>
        <time>2013-01-27T00:09:12.000Z</time>
      </trkpt>
      <trkpt lat="48.83839" lon="2.10056">
        <ele>150.80000305176</ele>
        <time>2013-01-27T00:09:22.000Z</time>
      </trkpt>
      <trkpt lat="48.8384" lon="2.10044">
        <ele>151</ele>
        <time>2013-01-27T00:09:28.000Z</time>
      </trkpt>
      <trkpt lat="48.83843" lon="2.10035">
        <ele>151.39999389648</ele>
        <time>2013-01-27T00:09:32.000Z</time>
      </trkpt>
      <trkpt lat="48.83844" lon="2.10027">
        <ele>151.39999389648</ele>
        <time>2013-01-27T00:09:36.000Z</time>
      </trkpt>
      <trkpt lat="48.83845" lon="2.1002">
        <ele>151.60000610352</ele>
        <time>2013-01-27T00:09:39.000Z</time>
      </trkpt>
      <trkpt lat="48.83846" lon="2.10012">
        <ele>151.80000305176</ele>
        <time>2013-01-27T00:09:43.000Z</time>
      </trkpt>
      <trkpt lat="48.83849" lon="2.09992">
        <ele>151.80000305176</ele>
        <time>2013-01-27T00:09:52.000Z</time>
      </trkpt>
      <trkpt lat="48.83851" lon="2.09978">
        <ele>151.39999389648</ele>
        <time>2013-01-27T00:09:59.000Z</time>
      </trkpt>
      <trkpt lat="48.83853" lon="2.09963">
        <ele>151</ele>
        <time>2013-01-27T00:10:06.000Z</time>
      </trkpt>
      <trkpt lat="48.83854" lon="2.09947">
        <ele>150.39999389648</ele>
        <time>2013-01-27T00:10:13.000Z</time>
      </trkpt>
      <trkpt lat="48.83855" lon="2.0993">
        <ele>150</ele>
        <time>2013-01-27T00:10:20.000Z</time>
      </trkpt>
      <trkpt lat="48.83856" lon="2.09914">
        <ele>149.39999389648</ele>
        <time>2013-01-27T00:10:27.000Z</time>
      </trkpt>
      <trkpt lat="48.83857" lon="2.09897">
        <ele>149</ele>
        <time>2013-01-27T00:10:35.000Z</time>
      </trkpt>
      <trkpt lat="48.83858" lon="2.09879">
        <ele>148.39999389648</ele>
        <time>2013-01-27T00:10:43.000Z</time>
      </trkpt>
      <trkpt lat="48.83859" lon="2.0986">
        <ele>148</ele>
        <time>2013-01-27T00:10:51.000Z</time>
      </trkpt>
      <trkpt lat="48.8386" lon="2.09845">
        <ele>147.60000610352</ele>
        <time>2013-01-27T00:10:58.000Z</time>
      </trkpt>
      <trkpt lat="48.83861" lon="2.09831">
        <ele>147.19999694824</ele>
        <time>2013-01-27T00:11:05.000Z</time>
      </trkpt>
      <trkpt lat="48.83861" lon="2.09817">
        <ele>146.80000305176</ele>
        <time>2013-01-27T00:11:12.000Z</time>
      </trkpt>
      <trkpt lat="48.83861" lon="2.09801">
        <ele>146.60000610352</ele>
        <time>2013-01-27T00:11:19.000Z</time>
      </trkpt>
      <trkpt lat="48.83861" lon="2.09786">
        <ele>146.19999694824</ele>
        <time>2013-01-27T00:11:26.000Z</time>
      </trkpt>
      <trkpt lat="48.83861" lon="2.09772">
        <ele>146</ele>
        <time>2013-01-27T00:11:33.000Z</time>
      </trkpt>
      <trkpt lat="48.83861" lon="2.09762">
        <ele>145.80000305176</ele>
        <time>2013-01-27T00:11:38.000Z</time>
      </trkpt>
      <trkpt lat="48.83862" lon="2.09751">
        <ele>145.60000610352</ele>
        <time>2013-01-27T00:11:43.000Z</time>
      </trkpt>
      <trkpt lat="48.83862" lon="2.09735">
        <ele>145.19999694824</ele>
        <time>2013-01-27T00:11:51.000Z</time>
      </trkpt>
      <trkpt lat="48.83862" lon="2.09723">
        <ele>145</ele>
        <time>2013-01-27T00:11:57.000Z</time>
      </trkpt>
      <trkpt lat="48.83861" lon="2.09708">
        <ele>144.60000610352</ele>
        <time>2013-01-27T00:12:04.000Z</time>
      </trkpt>
      <trkpt lat="48.8386" lon="2.0969">
        <ele>144</ele>
        <time>2013-01-27T00:12:12.000Z</time>
      </trkpt>
      <trkpt lat="48.8386" lon="2.09674">
        <ele>143.60000610352</ele>
        <time>2013-01-27T00:12:19.000Z</time>
      </trkpt>
      <trkpt lat="48.8386" lon="2.09656">
        <ele>143.19999694824</ele>
        <time>2013-01-27T00:12:27.000Z</time>
      </trkpt>
      <trkpt lat="48.8386" lon="2.09636">
        <ele>142.60000610352</ele>
        <time>2013-01-27T00:12:36.000Z</time>
      </trkpt>
      <trkpt lat="48.83858" lon="2.09621">
        <ele>142.19999694824</ele>
        <time>2013-01-27T00:12:43.000Z</time>
      </trkpt>
      <trkpt lat="48.83856" lon="2.09603">
        <ele>141.39999389648</ele>
        <time>2013-01-27T00:12:51.000Z</time>
      </trkpt>
      <trkpt lat="48.83853" lon="2.09586">
        <ele>140.60000610352</ele>
        <time>2013-01-27T00:12:59.000Z</time>
      </trkpt>
      <trkpt lat="48.83851" lon="2.09573">
        <ele>139.80000305176</ele>
        <time>2013-01-27T00:13:05.000Z</time>
      </trkpt>
      <trkpt lat="48.8385" lon="2.0957">
        <ele>139.60000610352</ele>
        <time>2013-01-27T00:13:07.000Z</time>
      </trkpt>
      <trkpt lat="48.83847" lon="2.09561">
        <ele>139</ele>
        <time>2013-01-27T00:13:11.000Z</time>
      </trkpt>
      <trkpt lat="48.83847" lon="2.09556">
        <ele>138.80000305176</ele>
        <time>2013-01-27T00:13:13.000Z</time>
      </trkpt>
      <trkpt lat="48.83846" lon="2.09544">
        <ele>138.19999694824</ele>
        <time>2013-01-27T00:13:18.000Z</time>
      </trkpt>
      <trkpt lat="48.83845" lon="2.09539">
        <ele>138</ele>
        <time>2013-01-27T00:13:20.000Z</time>
      </trkpt>
      <trkpt lat="48.83844" lon="2.09524">
        <ele>137.19999694824</ele>
        <time>2013-01-27T00:13:27.000Z</time>
      </trkpt>
      <trkpt lat="48.83843" lon="2.0951">
        <ele>136.60000610352</ele>
        <time>2013-01-27T00:13:34.000Z</time>
      </trkpt>
      <trkpt lat="48.8384" lon="2.09494">
        <ele>135.80000305176</ele>
        <time>2013-01-27T00:13:42.000Z</time>
      </trkpt>
      <trkpt lat="48.83837" lon="2.09474">
        <ele>135.39999389648</ele>
        <time>2013-01-27T00:13:51.000Z</time>
      </trkpt>
      <trkpt lat="48.83835" lon="2.09453">
        <ele>135</ele>
        <time>2013-01-27T00:14:00.000Z</time>
      </trkpt>
      <trkpt lat="48.83835" lon="2.09439">
        <ele>135</ele>
        <time>2013-01-27T00:14:07.000Z</time>
      </trkpt>
      <trkpt lat="48.83835" lon="2.09423">
        <ele>135</ele>
        <time>2013-01-27T00:14:15.000Z</time>
      </trkpt>
      <trkpt lat="48.83836" lon="2.09408">
        <ele>135.60000610352</ele>
        <time>2013-01-27T00:14:20.000Z</time>
      </trkpt>
      <trkpt lat="48.83838" lon="2.09397">
        <ele>136.19999694824</ele>
        <time>2013-01-27T00:14:25.000Z</time>
      </trkpt>
      <trkpt lat="48.83842" lon="2.09382">
        <ele>137.19999694824</ele>
        <time>2013-01-27T00:14:33.000Z</time>
      </trkpt>
      <trkpt lat="48.83849" lon="2.0937">
        <ele>138.60000610352</ele>
        <time>2013-01-27T00:14:41.000Z</time>
      </trkpt>
      <trkpt lat="48.83858" lon="2.09361">
        <ele>140.19999694824</ele>
        <time>2013-01-27T00:14:49.000Z</time>
      </trkpt>
      <trkpt lat="48.83867" lon="2.09356">
        <ele>141.60000610352</ele>
        <time>2013-01-27T00:14:57.000Z</time>
      </trkpt>
      <trkpt lat="48.83878" lon="2.09353">
        <ele>143.19999694824</ele>
        <time>2013-01-27T00:15:06.000Z</time>
      </trkpt>
      <trkpt lat="48.83882" lon="2.09353">
        <ele>143.80000305176</ele>
        <time>2013-01-27T00:15:10.000Z</time>
      </trkpt>
      <trkpt lat="48.83894" lon="2.09348">
        <ele>145.80000305176</ele>
        <time>2013-01-27T00:15:20.000Z</time>
      </trkpt>
      <trkpt lat="48.83901" lon="2.09342">
        <ele>147</ele>
        <time>2013-01-27T00:15:27.000Z</time>
      </trkpt>
      <trkpt lat="48.83929" lon="2.09297">
        <ele>152</ele>
        <time>2013-01-27T00:15:43.000Z</time>
      </trkpt>
      <trkpt lat="48.83935" lon="2.09289">
        <ele>152.80000305176</ele>
        <time>2013-01-27T00:15:48.000Z</time>
      </trkpt>
      <trkpt lat="48.83939" lon="2.09277">
        <ele>153.39999389648</ele>
        <time>2013-01-27T00:15:55.000Z</time>
      </trkpt>
      <trkpt lat="48.83939" lon="2.09275">
        <ele>153.60000610352</ele>
        <time>2013-01-27T00:15:56.000Z</time>
      </trkpt>
      <trkpt lat="48.8394" lon="2.09269">
        <ele>153.80000305176</ele>
        <time>2013-01-27T00:16:00.000Z</time>
      </trkpt>
      <trkpt lat="48.8394" lon="2.09266">
        <ele>153.80000305176</ele>
        <time>2013-01-27T00:16:02.000Z</time>
      </trkpt>
      <trkpt lat="48.8394" lon="2.09262">
        <ele>154</ele>
        <time>2013-01-27T00:16:07.000Z</time>
      </trkpt>
      <trkpt lat="48.83933" lon="2.092">
        <ele>150.39999389648</ele>
        <time>2013-01-27T00:16:28.000Z</time>
      </trkpt>
      <trkpt lat="48.83939" lon="2.0919">
        <ele>150.19999694824</ele>
        <time>2013-01-27T00:16:34.000Z</time>
      </trkpt>
      <trkpt lat="48.8394" lon="2.09172">
        <ele>149.19999694824</ele>
        <time>2013-01-27T00:16:44.000Z</time>
      </trkpt>
      <trkpt lat="48.83939" lon="2.09156">
        <ele>148.80000305176</ele>
        <time>2013-01-27T00:16:52.000Z</time>
      </trkpt>
      <trkpt lat="48.83939" lon="2.09145">
        <ele>148.60000610352</ele>
        <time>2013-01-27T00:16:58.000Z</time>
      </trkpt>
      <trkpt lat="48.83938" lon="2.0913">
        <ele>148.39999389648</ele>
        <time>2013-01-27T00:17:06.000Z</time>
      </trkpt>
      <trkpt lat="48.83938" lon="2.09123">
        <ele>148.19999694824</ele>
        <time>2013-01-27T00:17:10.000Z</time>
      </trkpt>
      <trkpt lat="48.83939" lon="2.09111">
        <ele>148.39999389648</ele>
        <time>2013-01-27T00:17:18.000Z</time>
      </trkpt>
      <trkpt lat="48.8394" lon="2.09103">
        <ele>148.19999694824</ele>
        <time>2013-01-27T00:17:23.000Z</time>
      </trkpt>
      <trkpt lat="48.83939" lon="2.09093">
        <ele>148.19999694824</ele>
        <time>2013-01-27T00:17:29.000Z</time>
      </trkpt>
      <trkpt lat="48.83939" lon="2.09091">
        <ele>148.19999694824</ele>
        <time>2013-01-27T00:17:30.000Z</time>
      </trkpt>
      <trkpt lat="48.8394" lon="2.09084">
        <ele>148.19999694824</ele>
        <time>2013-01-27T00:17:34.000Z</time>
      </trkpt>
      <trkpt lat="48.83941" lon="2.09075">
        <ele>148.19999694824</ele>
        <time>2013-01-27T00:17:38.000Z</time>
      </trkpt>
      <trkpt lat="48.83942" lon="2.09059">
        <ele>148.39999389648</ele>
        <time>2013-01-27T00:17:46.000Z</time>
      </trkpt>
      <trkpt lat="48.83944" lon="2.09048">
        <ele>148.39999389648</ele>
        <time>2013-01-27T00:17:52.000Z</time>
      </trkpt>
      <trkpt lat="48.83946" lon="2.09036">
        <ele>148.80000305176</ele>
        <time>2013-01-27T00:17:59.000Z</time>
      </trkpt>
      <trkpt lat="48.8395" lon="2.09021">
        <ele>149</ele>
        <time>2013-01-27T00:18:07.000Z</time>
      </trkpt>
      <trkpt lat="48.83953" lon="2.09004">
        <ele>149.39999389648</ele>
        <time>2013-01-27T00:18:16.000Z</time>
      </trkpt>
      <trkpt lat="48.83954" lon="2.08993">
        <ele>149.39999389648</ele>
        <time>2013-01-27T00:18:21.000Z</time>
      </trkpt>
      <trkpt lat="48.83957" lon="2.08975">
        <ele>149.39999389648</ele>
        <time>2013-01-27T00:18:30.000Z</time>
      </trkpt>
      <trkpt lat="48.83962" lon="2.08958">
        <ele>149.80000305176</ele>
        <time>2013-01-27T00:18:38.000Z</time>
      </trkpt>
      <trkpt lat="48.83969" lon="2.08941">
        <ele>150.19999694824</ele>
        <time>2013-01-27T00:18:47.000Z</time>
      </trkpt>
      <trkpt lat="48.83975" lon="2.08925">
        <ele>150.60000610352</ele>
        <time>2013-01-27T00:18:53.000Z</time>
      </trkpt>
      <trkpt lat="48.83987" lon="2.089">
        <ele>151.60000610352</ele>
        <time>2013-01-27T00:19:00.000Z</time>
      </trkpt>
      <trkpt lat="48.83998" lon="2.08875">
        <ele>152.80000305176</ele>
        <time>2013-01-27T00:19:07.000Z</time>
      </trkpt>
      <trkpt lat="48.84008" lon="2.08856">
        <ele>153.39999389648</ele>
        <time>2013-01-27T00:19:13.000Z</time>
      </trkpt>
      <trkpt lat="48.84014" lon="2.08845">
        <ele>153.80000305176</ele>
        <time>2013-01-27T00:19:19.000Z</time>
      </trkpt>
      <trkpt lat="48.84024" lon="2.08826">
        <ele>154.19999694824</ele>
        <time>2013-01-27T00:19:30.000Z</time>
      </trkpt>
      <trkpt lat="48.84033" lon="2.08814">
        <ele>154.39999389648</ele>
        <time>2013-01-27T00:19:39.000Z</time>
      </trkpt>
      <trkpt lat="48.8404" lon="2.08804">
        <ele>154.39999389648</ele>
        <time>2013-01-27T00:19:47.000Z</time>
      </trkpt>
      <trkpt lat="48.84046" lon="2.08797">
        <ele>154.39999389648</ele>
        <time>2013-01-27T00:19:54.000Z</time>
      </trkpt>
      <trkpt lat="48.84054" lon="2.08791">
        <ele>154.60000610352</ele>
        <time>2013-01-27T00:20:02.000Z</time>
      </trkpt>
      <trkpt lat="48.84057" lon="2.08782">
        <ele>154.39999389648</ele>
        <time>2013-01-27T00:20:09.000Z</time>
      </trkpt>
      <trkpt lat="48.8406" lon="2.08774">
        <ele>154.19999694824</ele>
        <time>2013-01-27T00:20:14.000Z</time>
      </trkpt>
      <trkpt lat="48.84065" lon="2.08772">
        <ele>154.39999389648</ele>
        <time>2013-01-27T00:20:18.000Z</time>
      </trkpt>
      <trkpt lat="48.84075" lon="2.08771">
        <ele>154.60000610352</ele>
        <time>2013-01-27T00:20:27.000Z</time>
      </trkpt>
      <trkpt lat="48.8408" lon="2.08767">
        <ele>154.60000610352</ele>
        <time>2013-01-27T00:20:32.000Z</time>
      </trkpt>
      <trkpt lat="48.84091" lon="2.08757">
        <ele>154.60000610352</ele>
        <time>2013-01-27T00:20:42.000Z</time>
      </trkpt>
      <trkpt lat="48.84096" lon="2.08751">
        <ele>154.60000610352</ele>
        <time>2013-01-27T00:20:49.000Z</time>
      </trkpt>
      <trkpt lat="48.84104" lon="2.08745">
        <ele>154.80000305176</ele>
        <time>2013-01-27T00:20:57.000Z</time>
      </trkpt>
      <trkpt lat="48.84107" lon="2.08743">
        <ele>154.80000305176</ele>
        <time>2013-01-27T00:20:59.000Z</time>
      </trkpt>
      <trkpt lat="48.84116" lon="2.08735">
        <ele>155</ele>
        <time>2013-01-27T00:21:08.000Z</time>
      </trkpt>
      <trkpt lat="48.84129" lon="2.08725">
        <ele>155.19999694824</ele>
        <time>2013-01-27T00:21:18.000Z</time>
      </trkpt>
      <trkpt lat="48.84136" lon="2.08721">
        <ele>155.19999694824</ele>
        <time>2013-01-27T00:21:24.000Z</time>
      </trkpt>
      <trkpt lat="48.84148" lon="2.08707">
        <ele>155</ele>
        <time>2013-01-27T00:21:34.000Z</time>
      </trkpt>
      <trkpt lat="48.84158" lon="2.08693">
        <ele>154.39999389648</ele>
        <time>2013-01-27T00:21:43.000Z</time>
      </trkpt>
      <trkpt lat="48.84163" lon="2.08686">
        <ele>154</ele>
        <time>2013-01-27T00:21:48.000Z</time>
      </trkpt>
      <trkpt lat="48.8417" lon="2.08673">
        <ele>153.39999389648</ele>
        <time>2013-01-27T00:21:56.000Z</time>
      </trkpt>
      <trkpt lat="48.8418" lon="2.08661">
        <ele>152.80000305176</ele>
        <time>2013-01-27T00:22:07.000Z</time>
      </trkpt>
      <trkpt lat="48.84182" lon="2.08659">
        <ele>152.80000305176</ele>
        <time>2013-01-27T00:22:09.000Z</time>
      </trkpt>
      <trkpt lat="48.8419" lon="2.0865">
        <ele>152.39999389648</ele>
        <time>2013-01-27T00:22:16.000Z</time>
      </trkpt>
      <trkpt lat="48.84197" lon="2.08643">
        <ele>152.19999694824</ele>
        <time>2013-01-27T00:22:22.000Z</time>
      </trkpt>
      <trkpt lat="48.84206" lon="2.08637">
        <ele>152.39999389648</ele>
        <time>2013-01-27T00:22:29.000Z</time>
      </trkpt>
      <trkpt lat="48.84213" lon="2.08631">
        <ele>152.39999389648</ele>
        <time>2013-01-27T00:22:35.000Z</time>
      </trkpt>
      <trkpt lat="48.84222" lon="2.08622">
        <ele>152.60000610352</ele>
        <time>2013-01-27T00:22:43.000Z</time>
      </trkpt>
      <trkpt lat="48.84229" lon="2.08616">
        <ele>152.80000305176</ele>
        <time>2013-01-27T00:22:49.000Z</time>
      </trkpt>
      <trkpt lat="48.84233" lon="2.0861">
        <ele>153</ele>
        <time>2013-01-27T00:22:54.000Z</time>
      </trkpt>
      <trkpt lat="48.8424" lon="2.08597">
        <ele>153.19999694824</ele>
        <time>2013-01-27T00:23:03.000Z</time>
      </trkpt>
      <trkpt lat="48.84246" lon="2.08586">
        <ele>153.60000610352</ele>
        <time>2013-01-27T00:23:10.000Z</time>
      </trkpt>
      <trkpt lat="48.84251" lon="2.08575">
        <ele>154</ele>
        <time>2013-01-27T00:23:17.000Z</time>
      </trkpt>
      <trkpt lat="48.84252" lon="2.08572">
        <ele>154.19999694824</ele>
        <time>2013-01-27T00:23:19.000Z</time>
      </trkpt>
      <trkpt lat="48.84256" lon="2.08565">
        <ele>154.60000610352</ele>
        <time>2013-01-27T00:23:23.000Z</time>
      </trkpt>
      <trkpt lat="48.84263" lon="2.08551">
        <ele>155.60000610352</ele>
        <time>2013-01-27T00:23:31.000Z</time>
      </trkpt>
      <trkpt lat="48.84268" lon="2.08536">
        <ele>156.19999694824</ele>
        <time>2013-01-27T00:23:39.000Z</time>
      </trkpt>
      <trkpt lat="48.84275" lon="2.08523">
        <ele>156.80000305176</ele>
        <time>2013-01-27T00:23:46.000Z</time>
      </trkpt>
      <trkpt lat="48.84275" lon="2.08522">
        <ele>156.80000305176</ele>
        <time>2013-01-27T00:23:47.000Z</time>
      </trkpt>
      <trkpt lat="48.8428" lon="2.08512">
        <ele>157.19999694824</ele>
        <time>2013-01-27T00:23:53.000Z</time>
      </trkpt>
      <trkpt lat="48.84284" lon="2.08501">
        <ele>157.60000610352</ele>
        <time>2013-01-27T00:23:59.000Z</time>
      </trkpt>
      <trkpt lat="48.84289" lon="2.08488">
        <ele>157.19999694824</ele>
        <time>2013-01-27T00:24:06.000Z</time>
      </trkpt>
      <trkpt lat="48.8429" lon="2.08487">
        <ele>157.19999694824</ele>
        <time>2013-01-27T00:24:07.000Z</time>
      </trkpt>
      <trkpt lat="48.84296" lon="2.08478">
        <ele>157.19999694824</ele>
        <time>2013-01-27T00:24:14.000Z</time>
      </trkpt>
      <trkpt lat="48.84296" lon="2.08476">
        <ele>157.19999694824</ele>
        <time>2013-01-27T00:24:15.000Z</time>
      </trkpt>
      <trkpt lat="48.843" lon="2.08475">
        <ele>157.19999694824</ele>
        <time>2013-01-27T00:24:18.000Z</time>
      </trkpt>
      <trkpt lat="48.84305" lon="2.08475">
        <ele>157.80000305176</ele>
        <time>2013-01-27T00:24:23.000Z</time>
      </trkpt>
      <trkpt lat="48.84307" lon="2.08464">
        <ele>157</ele>
        <time>2013-01-27T00:25:35.000Z</time>
      </trkpt>
      <trkpt lat="48.84305" lon="2.08462">
        <ele>156.60000610352</ele>
        <time>2013-01-27T00:25:37.000Z</time>
      </trkpt>
      <trkpt lat="48.84303" lon="2.08455">
        <ele>156</ele>
        <time>2013-01-27T00:25:41.000Z</time>
      </trkpt>
      <trkpt lat="48.84308" lon="2.08444">
        <ele>155.39999389648</ele>
        <time>2013-01-27T00:25:51.000Z</time>
      </trkpt>
      <trkpt lat="48.84311" lon="2.08438">
        <ele>155</ele>
        <time>2013-01-27T00:25:55.000Z</time>
      </trkpt>
      <trkpt lat="48.84315" lon="2.08425">
        <ele>154</ele>
        <time>2013-01-27T00:26:03.000Z</time>
      </trkpt>
      <trkpt lat="48.84317" lon="2.08419">
        <ele>153.60000610352</ele>
        <time>2013-01-27T00:26:06.000Z</time>
      </trkpt>
      <trkpt lat="48.84319" lon="2.08414">
        <ele>153.19999694824</ele>
        <time>2013-01-27T00:26:09.000Z</time>
      </trkpt>
      <trkpt lat="48.84324" lon="2.08398">
        <ele>152.80000305176</ele>
        <time>2013-01-27T00:26:18.000Z</time>
      </trkpt>
      <trkpt lat="48.84327" lon="2.08383">
        <ele>152</ele>
        <time>2013-01-27T00:26:25.000Z</time>
      </trkpt>
      <trkpt lat="48.8433" lon="2.08371">
        <ele>151.60000610352</ele>
        <time>2013-01-27T00:26:30.000Z</time>
      </trkpt>
      <trkpt lat="48.84334" lon="2.08353">
        <ele>151</ele>
        <time>2013-01-27T00:26:39.000Z</time>
      </trkpt>
      <trkpt lat="48.84335" lon="2.0835">
        <ele>151</ele>
        <time>2013-01-27T00:26:41.000Z</time>
      </trkpt>
      <trkpt lat="48.84339" lon="2.08335">
        <ele>150.80000305176</ele>
        <time>2013-01-27T00:26:48.000Z</time>
      </trkpt>
      <trkpt lat="48.84341" lon="2.08327">
        <ele>150.80000305176</ele>
        <time>2013-01-27T00:26:52.000Z</time>
      </trkpt>
      <trkpt lat="48.84343" lon="2.08317">
        <ele>151</ele>
        <time>2013-01-27T00:26:57.000Z</time>
      </trkpt>
      <trkpt lat="48.84347" lon="2.08305">
        <ele>151.19999694824</ele>
        <time>2013-01-27T00:27:03.000Z</time>
      </trkpt>
      <trkpt lat="48.84351" lon="2.0829">
        <ele>151.39999389648</ele>
        <time>2013-01-27T00:27:11.000Z</time>
      </trkpt>
      <trkpt lat="48.84355" lon="2.08278">
        <ele>151.60000610352</ele>
        <time>2013-01-27T00:27:19.000Z</time>
      </trkpt>
      <trkpt lat="48.84358" lon="2.08268">
        <ele>151.80000305176</ele>
        <time>2013-01-27T00:27:25.000Z</time>
      </trkpt>
      <trkpt lat="48.84363" lon="2.08255">
        <ele>152.39999389648</ele>
        <time>2013-01-27T00:27:33.000Z</time>
      </trkpt>
      <trkpt lat="48.84366" lon="2.08245">
        <ele>152.60000610352</ele>
        <time>2013-01-27T00:27:39.000Z</time>
      </trkpt>
      <trkpt lat="48.8437" lon="2.08234">
        <ele>153.19999694824</ele>
        <time>2013-01-27T00:27:45.000Z</time>
      </trkpt>
      <trkpt lat="48.84374" lon="2.0822">
        <ele>154</ele>
        <time>2013-01-27T00:27:52.000Z</time>
      </trkpt>
      <trkpt lat="48.84379" lon="2.08208">
        <ele>154.60000610352</ele>
        <time>2013-01-27T00:27:59.000Z</time>
      </trkpt>
      <trkpt lat="48.8438" lon="2.08205">
        <ele>154.80000305176</ele>
        <time>2013-01-27T00:28:01.000Z</time>
      </trkpt>
      <trkpt lat="48.84383" lon="2.08197">
        <ele>155.19999694824</ele>
        <time>2013-01-27T00:28:06.000Z</time>
      </trkpt>
      <trkpt lat="48.84384" lon="2.08193">
        <ele>155.39999389648</ele>
        <time>2013-01-27T00:28:08.000Z</time>
      </trkpt>
      <trkpt lat="48.84384" lon="2.08185">
        <ele>155.39999389648</ele>
        <time>2013-01-27T00:28:12.000Z</time>
      </trkpt>
      <trkpt lat="48.84384" lon="2.08181">
        <ele>155.39999389648</ele>
        <time>2013-01-27T00:28:14.000Z</time>
      </trkpt>
      <trkpt lat="48.84384" lon="2.08175">
        <ele>155.39999389648</ele>
        <time>2013-01-27T00:28:17.000Z</time>
      </trkpt>
      <trkpt lat="48.84384" lon="2.08172">
        <ele>155.39999389648</ele>
        <time>2013-01-27T00:28:19.000Z</time>
      </trkpt>
      <trkpt lat="48.84382" lon="2.0816">
        <ele>155.19999694824</ele>
        <time>2013-01-27T00:28:25.000Z</time>
      </trkpt>
      <trkpt lat="48.84382" lon="2.08146">
        <ele>154.60000610352</ele>
        <time>2013-01-27T00:28:32.000Z</time>
      </trkpt>
      <trkpt lat="48.84383" lon="2.08132">
        <ele>154</ele>
        <time>2013-01-27T00:28:39.000Z</time>
      </trkpt>
      <trkpt lat="48.84383" lon="2.08118">
        <ele>153.60000610352</ele>
        <time>2013-01-27T00:28:46.000Z</time>
      </trkpt>
      <trkpt lat="48.84383" lon="2.08108">
        <ele>153</ele>
        <time>2013-01-27T00:28:51.000Z</time>
      </trkpt>
      <trkpt lat="48.84383" lon="2.08104">
        <ele>153</ele>
        <time>2013-01-27T00:28:53.000Z</time>
      </trkpt>
      <trkpt lat="48.84383" lon="2.08095">
        <ele>152.60000610352</ele>
        <time>2013-01-27T00:28:59.000Z</time>
      </trkpt>
      <trkpt lat="48.84385" lon="2.0808">
        <ele>152.19999694824</ele>
        <time>2013-01-27T00:29:05.000Z</time>
      </trkpt>
      <trkpt lat="48.84385" lon="2.08078">
        <ele>152.19999694824</ele>
        <time>2013-01-27T00:29:06.000Z</time>
      </trkpt>
      <trkpt lat="48.84384" lon="2.08066">
        <ele>152.19999694824</ele>
        <time>2013-01-27T00:29:11.000Z</time>
      </trkpt>
      <trkpt lat="48.84385" lon="2.08063">
        <ele>152.19999694824</ele>
        <time>2013-01-27T00:29:12.000Z</time>
      </trkpt>
      <trkpt lat="48.84385" lon="2.08047">
        <ele>152.19999694824</ele>
        <time>2013-01-27T00:29:19.000Z</time>
      </trkpt>
      <trkpt lat="48.84386" lon="2.08043">
        <ele>152.19999694824</ele>
        <time>2013-01-27T00:29:21.000Z</time>
      </trkpt>
      <trkpt lat="48.84385" lon="2.08034">
        <ele>152</ele>
        <time>2013-01-27T00:29:25.000Z</time>
      </trkpt>
      <trkpt lat="48.84387" lon="2.08018">
        <ele>152.19999694824</ele>
        <time>2013-01-27T00:29:33.000Z</time>
      </trkpt>
      <trkpt lat="48.84388" lon="2.08004">
        <ele>152.19999694824</ele>
        <time>2013-01-27T00:29:40.000Z</time>
      </trkpt>
      <trkpt lat="48.84389" lon="2.0799">
        <ele>152.19999694824</ele>
        <time>2013-01-27T00:29:47.000Z</time>
      </trkpt>
      <trkpt lat="48.8439" lon="2.07976">
        <ele>152.19999694824</ele>
        <time>2013-01-27T00:29:54.000Z</time>
      </trkpt>
      <trkpt lat="48.84392" lon="2.07959">
        <ele>152.19999694824</ele>
        <time>2013-01-27T00:30:02.000Z</time>
      </trkpt>
      <trkpt lat="48.84392" lon="2.07943">
        <ele>152</ele>
        <time>2013-01-27T00:30:09.000Z</time>
      </trkpt>
      <trkpt lat="48.84392" lon="2.07923">
        <ele>152</ele>
        <time>2013-01-27T00:30:18.000Z</time>
      </trkpt>
      <trkpt lat="48.84393" lon="2.07913">
        <ele>152</ele>
        <time>2013-01-27T00:30:23.000Z</time>
      </trkpt>
      <trkpt lat="48.84393" lon="2.07904">
        <ele>152.19999694824</ele>
        <time>2013-01-27T00:30:27.000Z</time>
      </trkpt>
      <trkpt lat="48.84394" lon="2.07888">
        <ele>152.80000305176</ele>
        <time>2013-01-27T00:30:34.000Z</time>
      </trkpt>
      <trkpt lat="48.84393" lon="2.07873">
        <ele>153.19999694824</ele>
        <time>2013-01-27T00:30:40.000Z</time>
      </trkpt>
      <trkpt lat="48.84394" lon="2.07862">
        <ele>153.39999389648</ele>
        <time>2013-01-27T00:30:45.000Z</time>
      </trkpt>
      <trkpt lat="48.84395" lon="2.07845">
        <ele>154</ele>
        <time>2013-01-27T00:30:53.000Z</time>
      </trkpt>
      <trkpt lat="48.84396" lon="2.07826">
        <ele>154.60000610352</ele>
        <time>2013-01-27T00:31:02.000Z</time>
      </trkpt>
      <trkpt lat="48.84397" lon="2.07812">
        <ele>155</ele>
        <time>2013-01-27T00:31:08.000Z</time>
      </trkpt>
      <trkpt lat="48.84398" lon="2.07797">
        <ele>155.39999389648</ele>
        <time>2013-01-27T00:31:15.000Z</time>
      </trkpt>
      <trkpt lat="48.84399" lon="2.07784">
        <ele>155.80000305176</ele>
        <time>2013-01-27T00:31:22.000Z</time>
      </trkpt>
      <trkpt lat="48.844" lon="2.0777">
        <ele>156.19999694824</ele>
        <time>2013-01-27T00:31:30.000Z</time>
      </trkpt>
      <trkpt lat="48.844" lon="2.07754">
        <ele>156.60000610352</ele>
        <time>2013-01-27T00:31:38.000Z</time>
      </trkpt>
      <trkpt lat="48.84401" lon="2.07742">
        <ele>157</ele>
        <time>2013-01-27T00:31:44.000Z</time>
      </trkpt>
      <trkpt lat="48.84402" lon="2.07726">
        <ele>157.19999694824</ele>
        <time>2013-01-27T00:31:51.000Z</time>
      </trkpt>
      <trkpt lat="48.84402" lon="2.07712">
        <ele>157.60000610352</ele>
        <time>2013-01-27T00:31:58.000Z</time>
      </trkpt>
      <trkpt lat="48.84402" lon="2.07697">
        <ele>157.80000305176</ele>
        <time>2013-01-27T00:32:05.000Z</time>
      </trkpt>
      <trkpt lat="48.84402" lon="2.07695">
        <ele>157.80000305176</ele>
        <time>2013-01-27T00:32:06.000Z</time>
      </trkpt>
      <trkpt lat="48.84402" lon="2.0769">
        <ele>158</ele>
        <time>2013-01-27T00:32:09.000Z</time>
      </trkpt>
      <trkpt lat="48.84404" lon="2.07672">
        <ele>158.60000610352</ele>
        <time>2013-01-27T00:32:17.000Z</time>
      </trkpt>
      <trkpt lat="48.84404" lon="2.0767">
        <ele>158.60000610352</ele>
        <time>2013-01-27T00:32:18.000Z</time>
      </trkpt>
      <trkpt lat="48.84407" lon="2.07651">
        <ele>158.19999694824</ele>
        <time>2013-01-27T00:32:26.000Z</time>
      </trkpt>
      <trkpt lat="48.84408" lon="2.07636">
        <ele>157.60000610352</ele>
        <time>2013-01-27T00:32:32.000Z</time>
      </trkpt>
      <trkpt lat="48.84409" lon="2.07624">
        <ele>157.19999694824</ele>
        <time>2013-01-27T00:32:38.000Z</time>
      </trkpt>
      <trkpt lat="48.84411" lon="2.0761">
        <ele>156.80000305176</ele>
        <time>2013-01-27T00:32:44.000Z</time>
      </trkpt>
      <trkpt lat="48.84411" lon="2.07608">
        <ele>156.60000610352</ele>
        <time>2013-01-27T00:32:45.000Z</time>
      </trkpt>
      <trkpt lat="48.84411" lon="2.07594">
        <ele>156</ele>
        <time>2013-01-27T00:32:52.000Z</time>
      </trkpt>
      <trkpt lat="48.84413" lon="2.0758">
        <ele>155.39999389648</ele>
        <time>2013-01-27T00:32:59.000Z</time>
      </trkpt>
      <trkpt lat="48.84416" lon="2.07563">
        <ele>154.19999694824</ele>
        <time>2013-01-27T00:33:07.000Z</time>
      </trkpt>
      <trkpt lat="48.84419" lon="2.07545">
        <ele>152.80000305176</ele>
        <time>2013-01-27T00:33:15.000Z</time>
      </trkpt>
      <trkpt lat="48.8442" lon="2.07533">
        <ele>152</ele>
        <time>2013-01-27T00:33:21.000Z</time>
      </trkpt>
      <trkpt lat="48.84421" lon="2.07518">
        <ele>150.80000305176</ele>
        <time>2013-01-27T00:33:27.000Z</time>
      </trkpt>
      <trkpt lat="48.84423" lon="2.07499">
        <ele>149.39999389648</ele>
        <time>2013-01-27T00:33:35.000Z</time>
      </trkpt>
      <trkpt lat="48.84424" lon="2.07487">
        <ele>149</ele>
        <time>2013-01-27T00:33:41.000Z</time>
      </trkpt>
      <trkpt lat="48.84426" lon="2.0747">
        <ele>148.39999389648</ele>
        <time>2013-01-27T00:33:49.000Z</time>
      </trkpt>
      <trkpt lat="48.84428" lon="2.07454">
        <ele>148</ele>
        <time>2013-01-27T00:33:57.000Z</time>
      </trkpt>
      <trkpt lat="48.84429" lon="2.07441">
        <ele>147.60000610352</ele>
        <time>2013-01-27T00:34:03.000Z</time>
      </trkpt>
      <trkpt lat="48.84432" lon="2.07425">
        <ele>147</ele>
        <time>2013-01-27T00:34:10.000Z</time>
      </trkpt>
      <trkpt lat="48.84434" lon="2.07422">
        <ele>147</ele>
        <time>2013-01-27T00:34:11.000Z</time>
      </trkpt>
      <trkpt lat="48.84436" lon="2.07402">
        <ele>146.60000610352</ele>
        <time>2013-01-27T00:34:18.000Z</time>
      </trkpt>
      <trkpt lat="48.84437" lon="2.07386">
        <ele>146.39999389648</ele>
        <time>2013-01-27T00:34:25.000Z</time>
      </trkpt>
      <trkpt lat="48.84437" lon="2.07377">
        <ele>146.19999694824</ele>
        <time>2013-01-27T00:34:29.000Z</time>
      </trkpt>
      <trkpt lat="48.84439" lon="2.07361">
        <ele>146.19999694824</ele>
        <time>2013-01-27T00:34:36.000Z</time>
      </trkpt>
      <trkpt lat="48.84441" lon="2.07349">
        <ele>146.19999694824</ele>
        <time>2013-01-27T00:34:42.000Z</time>
      </trkpt>
      <trkpt lat="48.84442" lon="2.07343">
        <ele>146.19999694824</ele>
        <time>2013-01-27T00:34:45.000Z</time>
      </trkpt>
      <trkpt lat="48.84442" lon="2.07332">
        <ele>146</ele>
        <time>2013-01-27T00:34:50.000Z</time>
      </trkpt>
      <trkpt lat="48.84443" lon="2.07313">
        <ele>146.39999389648</ele>
        <time>2013-01-27T00:34:58.000Z</time>
      </trkpt>
      <trkpt lat="48.84444" lon="2.07297">
        <ele>146.80000305176</ele>
        <time>2013-01-27T00:35:06.000Z</time>
      </trkpt>
      <trkpt lat="48.84444" lon="2.07289">
        <ele>146.80000305176</ele>
        <time>2013-01-27T00:35:10.000Z</time>
      </trkpt>
      <trkpt lat="48.84443" lon="2.07281">
        <ele>147</ele>
        <time>2013-01-27T00:35:14.000Z</time>
      </trkpt>
      <trkpt lat="48.84443" lon="2.07266">
        <ele>147.19999694824</ele>
        <time>2013-01-27T00:35:21.000Z</time>
      </trkpt>
      <trkpt lat="48.84444" lon="2.07254">
        <ele>147.39999389648</ele>
        <time>2013-01-27T00:35:27.000Z</time>
      </trkpt>
      <trkpt lat="48.84444" lon="2.07239">
        <ele>147.80000305176</ele>
        <time>2013-01-27T00:35:34.000Z</time>
      </trkpt>
      <trkpt lat="48.84446" lon="2.07225">
        <ele>148</ele>
        <time>2013-01-27T00:35:40.000Z</time>
      </trkpt>
      <trkpt lat="48.84447" lon="2.0721">
        <ele>148.39999389648</ele>
        <time>2013-01-27T00:35:47.000Z</time>
      </trkpt>
      <trkpt lat="48.84447" lon="2.07204">
        <ele>148.60000610352</ele>
        <time>2013-01-27T00:35:50.000Z</time>
      </trkpt>
      <trkpt lat="48.84448" lon="2.07193">
        <ele>148.80000305176</ele>
        <time>2013-01-27T00:35:56.000Z</time>
      </trkpt>
      <trkpt lat="48.84448" lon="2.07184">
        <ele>149</ele>
        <time>2013-01-27T00:36:01.000Z</time>
      </trkpt>
      <trkpt lat="48.84448" lon="2.0718">
        <ele>149</ele>
        <time>2013-01-27T00:36:03.000Z</time>
      </trkpt>
      <trkpt lat="48.8445" lon="2.07163">
        <ele>149.60000610352</ele>
        <time>2013-01-27T00:36:11.000Z</time>
      </trkpt>
      <trkpt lat="48.84453" lon="2.07147">
        <ele>150.19999694824</ele>
        <time>2013-01-27T00:36:19.000Z</time>
      </trkpt>
      <trkpt lat="48.84455" lon="2.07131">
        <ele>150.80000305176</ele>
        <time>2013-01-27T00:36:26.000Z</time>
      </trkpt>
      <trkpt lat="48.84456" lon="2.07122">
        <ele>151.19999694824</ele>
        <time>2013-01-27T00:36:30.000Z</time>
      </trkpt>
      <trkpt lat="48.84458" lon="2.07108">
        <ele>151.80000305176</ele>
        <time>2013-01-27T00:36:37.000Z</time>
      </trkpt>
      <trkpt lat="48.8446" lon="2.07095">
        <ele>152.19999694824</ele>
        <time>2013-01-27T00:36:43.000Z</time>
      </trkpt>
      <trkpt lat="48.84463" lon="2.07079">
        <ele>153</ele>
        <time>2013-01-27T00:36:51.000Z</time>
      </trkpt>
      <trkpt lat="48.84463" lon="2.07067">
        <ele>153.60000610352</ele>
        <time>2013-01-27T00:36:57.000Z</time>
      </trkpt>
      <trkpt lat="48.84464" lon="2.07049">
        <ele>154.19999694824</ele>
        <time>2013-01-27T00:37:05.000Z</time>
      </trkpt>
      <trkpt lat="48.84464" lon="2.07038">
        <ele>154.60000610352</ele>
        <time>2013-01-27T00:37:10.000Z</time>
      </trkpt>
      <trkpt lat="48.84465" lon="2.07026">
        <ele>155.19999694824</ele>
        <time>2013-01-27T00:37:15.000Z</time>
      </trkpt>
      <trkpt lat="48.84467" lon="2.0702">
        <ele>155.39999389648</ele>
        <time>2013-01-27T00:37:18.000Z</time>
      </trkpt>
      <trkpt lat="48.84469" lon="2.07006">
        <ele>156</ele>
        <time>2013-01-27T00:37:24.000Z</time>
      </trkpt>
      <trkpt lat="48.8447" lon="2.0699">
        <ele>156.60000610352</ele>
        <time>2013-01-27T00:37:32.000Z</time>
      </trkpt>
      <trkpt lat="48.84472" lon="2.0698">
        <ele>156.80000305176</ele>
        <time>2013-01-27T00:37:38.000Z</time>
      </trkpt>
      <trkpt lat="48.84474" lon="2.0697">
        <ele>157.19999694824</ele>
        <time>2013-01-27T00:37:43.000Z</time>
      </trkpt>
      <trkpt lat="48.84475" lon="2.06955">
        <ele>157.60000610352</ele>
        <time>2013-01-27T00:37:50.000Z</time>
      </trkpt>
      <trkpt lat="48.84478" lon="2.06943">
        <ele>158</ele>
        <time>2013-01-27T00:37:56.000Z</time>
      </trkpt>
      <trkpt lat="48.8448" lon="2.06926">
        <ele>158.60000610352</ele>
        <time>2013-01-27T00:38:04.000Z</time>
      </trkpt>
      <trkpt lat="48.84482" lon="2.06903">
        <ele>158.80000305176</ele>
        <time>2013-01-27T00:38:15.000Z</time>
      </trkpt>
      <trkpt lat="48.84484" lon="2.06891">
        <ele>159</ele>
        <time>2013-01-27T00:38:21.000Z</time>
      </trkpt>
      <trkpt lat="48.84485" lon="2.06875">
        <ele>159</ele>
        <time>2013-01-27T00:38:30.000Z</time>
      </trkpt>
      <trkpt lat="48.84489" lon="2.06857">
        <ele>159</ele>
        <time>2013-01-27T00:38:39.000Z</time>
      </trkpt>
      <trkpt lat="48.84495" lon="2.06844">
        <ele>159.60000610352</ele>
        <time>2013-01-27T00:38:47.000Z</time>
      </trkpt>
      <trkpt lat="48.84502" lon="2.06831">
        <ele>160</ele>
        <time>2013-01-27T00:38:56.000Z</time>
      </trkpt>
      <trkpt lat="48.84507" lon="2.06823">
        <ele>160.19999694824</ele>
        <time>2013-01-27T00:39:01.000Z</time>
      </trkpt>
      <trkpt lat="48.84513" lon="2.06811">
        <ele>160.60000610352</ele>
        <time>2013-01-27T00:39:09.000Z</time>
      </trkpt>
      <trkpt lat="48.84522" lon="2.06798">
        <ele>161.19999694824</ele>
        <time>2013-01-27T00:39:17.000Z</time>
      </trkpt>
      <trkpt lat="48.8453" lon="2.06786">
        <ele>162</ele>
        <time>2013-01-27T00:39:25.000Z</time>
      </trkpt>
      <trkpt lat="48.84536" lon="2.06775">
        <ele>162.60000610352</ele>
        <time>2013-01-27T00:39:32.000Z</time>
      </trkpt>
      <trkpt lat="48.84542" lon="2.06767">
        <ele>163.39999389648</ele>
        <time>2013-01-27T00:39:38.000Z</time>
      </trkpt>
      <trkpt lat="48.84548" lon="2.06755">
        <ele>164.19999694824</ele>
        <time>2013-01-27T00:39:46.000Z</time>
      </trkpt>
      <trkpt lat="48.84554" lon="2.06743">
        <ele>164.80000305176</ele>
        <time>2013-01-27T00:39:55.000Z</time>
      </trkpt>
      <trkpt lat="48.84561" lon="2.06733">
        <ele>165.19999694824</ele>
        <time>2013-01-27T00:40:02.000Z</time>
      </trkpt>
      <trkpt lat="48.84571" lon="2.06724">
        <ele>165.80000305176</ele>
        <time>2013-01-27T00:40:10.000Z</time>
      </trkpt>
      <trkpt lat="48.84583" lon="2.06717">
        <ele>166.80000305176</ele>
        <time>2013-01-27T00:40:20.000Z</time>
      </trkpt>
      <trkpt lat="48.84592" lon="2.06719">
        <ele>168</ele>
        <time>2013-01-27T00:40:27.000Z</time>
      </trkpt>
      <trkpt lat="48.84602" lon="2.06723">
        <ele>169.19999694824</ele>
        <time>2013-01-27T00:40:35.000Z</time>
      </trkpt>
      <trkpt lat="48.84611" lon="2.06725">
        <ele>170.19999694824</ele>
        <time>2013-01-27T00:40:43.000Z</time>
      </trkpt>
      <trkpt lat="48.8462" lon="2.06727">
        <ele>171.19999694824</ele>
        <time>2013-01-27T00:40:51.000Z</time>
      </trkpt>
      <trkpt lat="48.84629" lon="2.06731">
        <ele>172.39999389648</ele>
        <time>2013-01-27T00:40:59.000Z</time>
      </trkpt>
      <trkpt lat="48.84631" lon="2.06731">
        <ele>172.60000610352</ele>
        <time>2013-01-27T00:41:01.000Z</time>
      </trkpt>
      <trkpt lat="48.84636" lon="2.06731">
        <ele>173</ele>
        <time>2013-01-27T00:41:06.000Z</time>
      </trkpt>
      <trkpt lat="48.84644" lon="2.06733">
        <ele>174</ele>
        <time>2013-01-27T00:41:13.000Z</time>
      </trkpt>
      <trkpt lat="48.84653" lon="2.06735">
        <ele>175</ele>
        <time>2013-01-27T00:41:20.000Z</time>
      </trkpt>
      <trkpt lat="48.84661" lon="2.06737">
        <ele>175.80000305176</ele>
        <time>2013-01-27T00:41:26.000Z</time>
      </trkpt>
      <trkpt lat="48.84662" lon="2.06738">
        <ele>176</ele>
        <time>2013-01-27T00:41:27.000Z</time>
      </trkpt>
      <trkpt lat="48.84663" lon="2.0674">
        <ele>176.19999694824</ele>
        <time>2013-01-27T00:41:29.000Z</time>
      </trkpt>
      <trkpt lat="48.84672" lon="2.06741">
        <ele>177.19999694824</ele>
        <time>2013-01-27T00:41:36.000Z</time>
      </trkpt>
      <trkpt lat="48.84677" lon="2.06742">
        <ele>177.80000305176</ele>
        <time>2013-01-27T00:41:40.000Z</time>
      </trkpt>
      <trkpt lat="48.84686" lon="2.06743">
        <ele>179</ele>
        <time>2013-01-27T00:41:47.000Z</time>
      </trkpt>
      <trkpt lat="48.84696" lon="2.06746">
        <ele>180.19999694824</ele>
        <time>2013-01-27T00:41:55.000Z</time>
      </trkpt>
      <trkpt lat="48.84703" lon="2.06747">
        <ele>181.19999694824</ele>
        <time>2013-01-27T00:42:00.000Z</time>
      </trkpt>
      <trkpt lat="48.84707" lon="2.0675">
        <ele>181.80000305176</ele>
        <time>2013-01-27T00:42:04.000Z</time>
      </trkpt>
      <trkpt lat="48.84712" lon="2.06753">
        <ele>182.39999389648</ele>
        <time>2013-01-27T00:42:09.000Z</time>
      </trkpt>
      <trkpt lat="48.84714" lon="2.06754">
        <ele>182.60000610352</ele>
        <time>2013-01-27T00:42:10.000Z</time>
      </trkpt>
      <trkpt lat="48.8472" lon="2.06762">
        <ele>183.39999389648</ele>
        <time>2013-01-27T00:42:16.000Z</time>
      </trkpt>
      <trkpt lat="48.84722" lon="2.06772">
        <ele>184</ele>
        <time>2013-01-27T00:42:21.000Z</time>
      </trkpt>
      <trkpt lat="48.84722" lon="2.06774">
        <ele>184</ele>
        <time>2013-01-27T00:42:22.000Z</time>
      </trkpt>
      <trkpt lat="48.84722" lon="2.06778">
        <ele>184</ele>
        <time>2013-01-27T00:42:24.000Z</time>
      </trkpt>
      <trkpt lat="48.84721" lon="2.06788">
        <ele>184.19999694824</ele>
        <time>2013-01-27T00:42:28.000Z</time>
      </trkpt>
      <trkpt lat="48.8472" lon="2.068">
        <ele>184.19999694824</ele>
        <time>2013-01-27T00:42:32.000Z</time>
      </trkpt>
      <trkpt lat="48.84719" lon="2.06807">
        <ele>184.19999694824</ele>
        <time>2013-01-27T00:42:34.000Z</time>
      </trkpt>
      <trkpt lat="48.84718" lon="2.06825">
        <ele>184.39999389648</ele>
        <time>2013-01-27T00:42:39.000Z</time>
      </trkpt>
      <trkpt lat="48.84718" lon="2.06844">
        <ele>184.39999389648</ele>
        <time>2013-01-27T00:42:44.000Z</time>
      </trkpt>
      <trkpt lat="48.84718" lon="2.06861">
        <ele>184</ele>
        <time>2013-01-27T00:42:49.000Z</time>
      </trkpt>
      <trkpt lat="48.84718" lon="2.06873">
        <ele>183.80000305176</ele>
        <time>2013-01-27T00:42:53.000Z</time>
      </trkpt>
      <trkpt lat="48.84719" lon="2.06875">
        <ele>184</ele>
        <time>2013-01-27T00:42:54.000Z</time>
      </trkpt>
      <trkpt lat="48.84721" lon="2.06879">
        <ele>184.39999389648</ele>
        <time>2013-01-27T00:42:57.000Z</time>
      </trkpt>
      <trkpt lat="48.84727" lon="2.06888">
        <ele>185</ele>
        <time>2013-01-27T00:43:04.000Z</time>
      </trkpt>
      <trkpt lat="48.84731" lon="2.06897">
        <ele>185.60000610352</ele>
        <time>2013-01-27T00:43:10.000Z</time>
      </trkpt>
      <trkpt lat="48.84737" lon="2.06907">
        <ele>186.19999694824</ele>
        <time>2013-01-27T00:43:16.000Z</time>
      </trkpt>
      <trkpt lat="48.84738" lon="2.06908">
        <ele>186.19999694824</ele>
        <time>2013-01-27T00:43:17.000Z</time>
      </trkpt>
      <trkpt lat="48.84739" lon="2.0691">
        <ele>186.39999389648</ele>
        <time>2013-01-27T00:43:19.000Z</time>
      </trkpt>
      <trkpt lat="48.84741" lon="2.06915">
        <ele>186.60000610352</ele>
        <time>2013-01-27T00:43:23.000Z</time>
      </trkpt>
      <trkpt lat="48.84751" lon="2.0693">
        <ele>187.19999694824</ele>
        <time>2013-01-27T00:43:31.000Z</time>
      </trkpt>
      <trkpt lat="48.84752" lon="2.06932">
        <ele>187.19999694824</ele>
        <time>2013-01-27T00:43:32.000Z</time>
      </trkpt>
      <trkpt lat="48.8476" lon="2.06945">
        <ele>187</ele>
        <time>2013-01-27T00:43:37.000Z</time>
      </trkpt>
      <trkpt lat="48.84762" lon="2.06948">
        <ele>187</ele>
        <time>2013-01-27T00:43:38.000Z</time>
      </trkpt>
      <trkpt lat="48.84768" lon="2.06958">
        <ele>186.80000305176</ele>
        <time>2013-01-27T00:43:43.000Z</time>
      </trkpt>
      <trkpt lat="48.8477" lon="2.06962">
        <ele>186.80000305176</ele>
        <time>2013-01-27T00:43:45.000Z</time>
      </trkpt>
      <trkpt lat="48.84776" lon="2.06974">
        <ele>187</ele>
        <time>2013-01-27T00:43:52.000Z</time>
      </trkpt>
      <trkpt lat="48.84783" lon="2.06986">
        <ele>187.19999694824</ele>
        <time>2013-01-27T00:43:59.000Z</time>
      </trkpt>
      <trkpt lat="48.84783" lon="2.06987">
        <ele>187.19999694824</ele>
        <time>2013-01-27T00:44:00.000Z</time>
      </trkpt>
      <trkpt lat="48.84789" lon="2.06998">
        <ele>187.60000610352</ele>
        <time>2013-01-27T00:44:06.000Z</time>
      </trkpt>
      <trkpt lat="48.84794" lon="2.07004">
        <ele>188</ele>
        <time>2013-01-27T00:44:10.000Z</time>
      </trkpt>
      <trkpt lat="48.84804" lon="2.07022">
        <ele>188</ele>
        <time>2013-01-27T00:44:20.000Z</time>
      </trkpt>
      <trkpt lat="48.84814" lon="2.07036">
        <ele>188.39999389648</ele>
        <time>2013-01-27T00:44:29.000Z</time>
      </trkpt>
      <trkpt lat="48.84822" lon="2.07046">
        <ele>189</ele>
        <time>2013-01-27T00:44:36.000Z</time>
      </trkpt>
      <trkpt lat="48.84829" lon="2.07054">
        <ele>189.39999389648</ele>
        <time>2013-01-27T00:44:42.000Z</time>
      </trkpt>
      <trkpt lat="48.8483" lon="2.07056">
        <ele>189.60000610352</ele>
        <time>2013-01-27T00:44:43.000Z</time>
      </trkpt>
      <trkpt lat="48.84839" lon="2.0707">
        <ele>189.39999389648</ele>
        <time>2013-01-27T00:44:52.000Z</time>
      </trkpt>
      <trkpt lat="48.84843" lon="2.07077">
        <ele>189.19999694824</ele>
        <time>2013-01-27T00:44:57.000Z</time>
      </trkpt>
      <trkpt lat="48.84854" lon="2.07081">
        <ele>189.19999694824</ele>
        <time>2013-01-27T00:45:04.000Z</time>
      </trkpt>
      <trkpt lat="48.84861" lon="2.07087">
        <ele>189.19999694824</ele>
        <time>2013-01-27T00:45:10.000Z</time>
      </trkpt>
      <trkpt lat="48.84866" lon="2.07093">
        <ele>189.19999694824</ele>
        <time>2013-01-27T00:45:15.000Z</time>
      </trkpt>
      <trkpt lat="48.84869" lon="2.07096">
        <ele>189.19999694824</ele>
        <time>2013-01-27T00:45:19.000Z</time>
      </trkpt>
      <trkpt lat="48.84875" lon="2.07096">
        <ele>189.39999389648</ele>
        <time>2013-01-27T00:45:23.000Z</time>
      </trkpt>
      <trkpt lat="48.84877" lon="2.07096">
        <ele>189.39999389648</ele>
        <time>2013-01-27T00:45:25.000Z</time>
      </trkpt>
      <trkpt lat="48.84881" lon="2.0709">
        <ele>189.39999389648</ele>
        <time>2013-01-27T00:45:31.000Z</time>
      </trkpt>
      <trkpt lat="48.84889" lon="2.07078">
        <ele>189.60000610352</ele>
        <time>2013-01-27T00:45:38.000Z</time>
      </trkpt>
      <trkpt lat="48.84894" lon="2.07069">
        <ele>189.80000305176</ele>
        <time>2013-01-27T00:45:43.000Z</time>
      </trkpt>
      <trkpt lat="48.84898" lon="2.07062">
        <ele>189.80000305176</ele>
        <time>2013-01-27T00:45:47.000Z</time>
      </trkpt>
      <trkpt lat="48.84907" lon="2.07051">
        <ele>190</ele>
        <time>2013-01-27T00:45:53.000Z</time>
      </trkpt>
      <trkpt lat="48.84909" lon="2.07049">
        <ele>190</ele>
        <time>2013-01-27T00:45:54.000Z</time>
      </trkpt>
      <trkpt lat="48.84916" lon="2.07038">
        <ele>190</ele>
        <time>2013-01-27T00:45:58.000Z</time>
      </trkpt>
      <trkpt lat="48.84917" lon="2.07035">
        <ele>189.80000305176</ele>
        <time>2013-01-27T00:45:59.000Z</time>
      </trkpt>
      <trkpt lat="48.84927" lon="2.07018">
        <ele>189.80000305176</ele>
        <time>2013-01-27T00:46:05.000Z</time>
      </trkpt>
      <trkpt lat="48.84937" lon="2.07003">
        <ele>189.60000610352</ele>
        <time>2013-01-27T00:46:11.000Z</time>
      </trkpt>
      <trkpt lat="48.84947" lon="2.0699">
        <ele>189.39999389648</ele>
        <time>2013-01-27T00:46:16.000Z</time>
      </trkpt>
      <trkpt lat="48.84954" lon="2.06976">
        <ele>189.19999694824</ele>
        <time>2013-01-27T00:46:21.000Z</time>
      </trkpt>
      <trkpt lat="48.84967" lon="2.06957">
        <ele>188.80000305176</ele>
        <time>2013-01-27T00:46:28.000Z</time>
      </trkpt>
      <trkpt lat="48.84969" lon="2.06955">
        <ele>188.80000305176</ele>
        <time>2013-01-27T00:46:29.000Z</time>
      </trkpt>
      <trkpt lat="48.84972" lon="2.06942">
        <ele>188.60000610352</ele>
        <time>2013-01-27T00:46:33.000Z</time>
      </trkpt>
      <trkpt lat="48.84979" lon="2.06927">
        <ele>188.19999694824</ele>
        <time>2013-01-27T00:46:38.000Z</time>
      </trkpt>
      <trkpt lat="48.8498" lon="2.06924">
        <ele>188.19999694824</ele>
        <time>2013-01-27T00:46:39.000Z</time>
      </trkpt>
      <trkpt lat="48.84989" lon="2.06903">
        <ele>188.19999694824</ele>
        <time>2013-01-27T00:46:46.000Z</time>
      </trkpt>
      <trkpt lat="48.84997" lon="2.06884">
        <ele>188.39999389648</ele>
        <time>2013-01-27T00:46:52.000Z</time>
      </trkpt>
      <trkpt lat="48.85005" lon="2.06867">
        <ele>188.39999389648</ele>
        <time>2013-01-27T00:46:58.000Z</time>
      </trkpt>
      <trkpt lat="48.85013" lon="2.0685">
        <ele>188.60000610352</ele>
        <time>2013-01-27T00:47:04.000Z</time>
      </trkpt>
      <trkpt lat="48.85017" lon="2.06837">
        <ele>188.39999389648</ele>
        <time>2013-01-27T00:47:08.000Z</time>
      </trkpt>
      <trkpt lat="48.85018" lon="2.06834">
        <ele>188.39999389648</ele>
        <time>2013-01-27T00:47:09.000Z</time>
      </trkpt>
      <trkpt lat="48.85027" lon="2.06814">
        <ele>188</ele>
        <time>2013-01-27T00:47:16.000Z</time>
      </trkpt>
      <trkpt lat="48.85034" lon="2.068">
        <ele>187.60000610352</ele>
        <time>2013-01-27T00:47:22.000Z</time>
      </trkpt>
      <trkpt lat="48.85039" lon="2.06791">
        <ele>187.39999389648</ele>
        <time>2013-01-27T00:47:28.000Z</time>
      </trkpt>
      <trkpt lat="48.8504" lon="2.06789">
        <ele>187.39999389648</ele>
        <time>2013-01-27T00:47:29.000Z</time>
      </trkpt>
      <trkpt lat="48.85045" lon="2.06779">
        <ele>187.19999694824</ele>
        <time>2013-01-27T00:47:34.000Z</time>
      </trkpt>
      <trkpt lat="48.85046" lon="2.06776">
        <ele>187.19999694824</ele>
        <time>2013-01-27T00:47:35.000Z</time>
      </trkpt>
      <trkpt lat="48.85052" lon="2.06763">
        <ele>186.80000305176</ele>
        <time>2013-01-27T00:47:40.000Z</time>
      </trkpt>
      <trkpt lat="48.85064" lon="2.06742">
        <ele>186.19999694824</ele>
        <time>2013-01-27T00:47:48.000Z</time>
      </trkpt>
      <trkpt lat="48.85071" lon="2.06725">
        <ele>185.80000305176</ele>
        <time>2013-01-27T00:47:54.000Z</time>
      </trkpt>
      <trkpt lat="48.85077" lon="2.0671">
        <ele>185.39999389648</ele>
        <time>2013-01-27T00:47:59.000Z</time>
      </trkpt>
      <trkpt lat="48.85086" lon="2.0669">
        <ele>185.19999694824</ele>
        <time>2013-01-27T00:48:06.000Z</time>
      </trkpt>
      <trkpt lat="48.85094" lon="2.06676">
        <ele>185.39999389648</ele>
        <time>2013-01-27T00:48:11.000Z</time>
      </trkpt>
      <trkpt lat="48.85105" lon="2.06653">
        <ele>185.80000305176</ele>
        <time>2013-01-27T00:48:19.000Z</time>
      </trkpt>
      <trkpt lat="48.85111" lon="2.06642">
        <ele>186</ele>
        <time>2013-01-27T00:48:23.000Z</time>
      </trkpt>
      <trkpt lat="48.85118" lon="2.06624">
        <ele>186.39999389648</ele>
        <time>2013-01-27T00:48:29.000Z</time>
      </trkpt>
      <trkpt lat="48.85125" lon="2.06608">
        <ele>186.80000305176</ele>
        <time>2013-01-27T00:48:35.000Z</time>
      </trkpt>
      <trkpt lat="48.85135" lon="2.06589">
        <ele>187.19999694824</ele>
        <time>2013-01-27T00:48:41.000Z</time>
      </trkpt>
      <trkpt lat="48.85141" lon="2.06576">
        <ele>187</ele>
        <time>2013-01-27T00:48:45.000Z</time>
      </trkpt>
      <trkpt lat="48.85148" lon="2.06563">
        <ele>186.80000305176</ele>
        <time>2013-01-27T00:48:50.000Z</time>
      </trkpt>
      <trkpt lat="48.85157" lon="2.06542">
        <ele>186.19999694824</ele>
        <time>2013-01-27T00:48:57.000Z</time>
      </trkpt>
      <trkpt lat="48.85164" lon="2.06525">
        <ele>185.80000305176</ele>
        <time>2013-01-27T00:49:03.000Z</time>
      </trkpt>
      <trkpt lat="48.8517" lon="2.0651">
        <ele>185.19999694824</ele>
        <time>2013-01-27T00:49:08.000Z</time>
      </trkpt>
      <trkpt lat="48.85177" lon="2.06491">
        <ele>184</ele>
        <time>2013-01-27T00:49:14.000Z</time>
      </trkpt>
      <trkpt lat="48.85178" lon="2.06488">
        <ele>183.80000305176</ele>
        <time>2013-01-27T00:49:15.000Z</time>
      </trkpt>
      <trkpt lat="48.85182" lon="2.06481">
        <ele>183</ele>
        <time>2013-01-27T00:49:18.000Z</time>
      </trkpt>
      <trkpt lat="48.85183" lon="2.06475">
        <ele>182.60000610352</ele>
        <time>2013-01-27T00:49:21.000Z</time>
      </trkpt>
      <trkpt lat="48.85189" lon="2.06464">
        <ele>181.39999389648</ele>
        <time>2013-01-27T00:49:27.000Z</time>
      </trkpt>
      <trkpt lat="48.85194" lon="2.06449">
        <ele>180</ele>
        <time>2013-01-27T00:49:32.000Z</time>
      </trkpt>
      <trkpt lat="48.85199" lon="2.0644">
        <ele>179</ele>
        <time>2013-01-27T00:49:37.000Z</time>
      </trkpt>
      <trkpt lat="48.852" lon="2.06438">
        <ele>179</ele>
        <time>2013-01-27T00:49:38.000Z</time>
      </trkpt>
      <trkpt lat="48.85203" lon="2.06436">
        <ele>178.80000305176</ele>
        <time>2013-01-27T00:49:40.000Z</time>
      </trkpt>
      <trkpt lat="48.85205" lon="2.06432">
        <ele>178.39999389648</ele>
        <time>2013-01-27T00:49:43.000Z</time>
      </trkpt>
      <trkpt lat="48.85218" lon="2.06425">
        <ele>178</ele>
        <time>2013-01-27T00:49:52.000Z</time>
      </trkpt>
      <trkpt lat="48.85249" lon="2.06449">
        <ele>181</ele>
        <time>2013-01-27T00:50:07.000Z</time>
      </trkpt>
      <trkpt lat="48.85261" lon="2.06435">
        <ele>180.39999389648</ele>
        <time>2013-01-27T00:50:13.000Z</time>
      </trkpt>
      <trkpt lat="48.8527" lon="2.06419">
        <ele>179.80000305176</ele>
        <time>2013-01-27T00:50:21.000Z</time>
      </trkpt>
      <trkpt lat="48.85274" lon="2.06403">
        <ele>179.19999694824</ele>
        <time>2013-01-27T00:50:26.000Z</time>
      </trkpt>
      <trkpt lat="48.85281" lon="2.06386">
        <ele>179.19999694824</ele>
        <time>2013-01-27T00:50:32.000Z</time>
      </trkpt>
      <trkpt lat="48.85288" lon="2.0637">
        <ele>179.39999389648</ele>
        <time>2013-01-27T00:50:38.000Z</time>
      </trkpt>
      <trkpt lat="48.85295" lon="2.06358">
        <ele>179.60000610352</ele>
        <time>2013-01-27T00:50:44.000Z</time>
      </trkpt>
      <trkpt lat="48.85301" lon="2.06348">
        <ele>180</ele>
        <time>2013-01-27T00:50:50.000Z</time>
      </trkpt>
      <trkpt lat="48.85307" lon="2.06335">
        <ele>180.39999389648</ele>
        <time>2013-01-27T00:50:57.000Z</time>
      </trkpt>
      <trkpt lat="48.85309" lon="2.06331">
        <ele>180.60000610352</ele>
        <time>2013-01-27T00:50:59.000Z</time>
      </trkpt>
      <trkpt lat="48.85316" lon="2.06317">
        <ele>180.60000610352</ele>
        <time>2013-01-27T00:51:04.000Z</time>
      </trkpt>
      <trkpt lat="48.85319" lon="2.06311">
        <ele>180.60000610352</ele>
        <time>2013-01-27T00:51:06.000Z</time>
      </trkpt>
      <trkpt lat="48.85326" lon="2.06299">
        <ele>180.80000305176</ele>
        <time>2013-01-27T00:51:13.000Z</time>
      </trkpt>
      <trkpt lat="48.85333" lon="2.06287">
        <ele>181.19999694824</ele>
        <time>2013-01-27T00:51:21.000Z</time>
      </trkpt>
      <trkpt lat="48.85339" lon="2.06279">
        <ele>181.19999694824</ele>
        <time>2013-01-27T00:51:27.000Z</time>
      </trkpt>
      <trkpt lat="48.85345" lon="2.0627">
        <ele>181.19999694824</ele>
        <time>2013-01-27T00:51:33.000Z</time>
      </trkpt>
      <trkpt lat="48.85351" lon="2.06257">
        <ele>181</ele>
        <time>2013-01-27T00:51:40.000Z</time>
      </trkpt>
      <trkpt lat="48.85355" lon="2.06249">
        <ele>180.80000305176</ele>
        <time>2013-01-27T00:51:45.000Z</time>
      </trkpt>
      <trkpt lat="48.85361" lon="2.06236">
        <ele>180.60000610352</ele>
        <time>2013-01-27T00:51:51.000Z</time>
      </trkpt>
      <trkpt lat="48.85368" lon="2.06221">
        <ele>180.39999389648</ele>
        <time>2013-01-27T00:51:56.000Z</time>
      </trkpt>
      <trkpt lat="48.85381" lon="2.062">
        <ele>180.60000610352</ele>
        <time>2013-01-27T00:52:02.000Z</time>
      </trkpt>
      <trkpt lat="48.85395" lon="2.06176">
        <ele>180.80000305176</ele>
        <time>2013-01-27T00:52:09.000Z</time>
      </trkpt>
      <trkpt lat="48.85403" lon="2.06157">
        <ele>181</ele>
        <time>2013-01-27T00:52:15.000Z</time>
      </trkpt>
      <trkpt lat="48.85407" lon="2.06148">
        <ele>181.19999694824</ele>
        <time>2013-01-27T00:52:20.000Z</time>
      </trkpt>
      <trkpt lat="48.85414" lon="2.06135">
        <ele>181.39999389648</ele>
        <time>2013-01-27T00:52:25.000Z</time>
      </trkpt>
      <trkpt lat="48.85422" lon="2.06119">
        <ele>181.60000610352</ele>
        <time>2013-01-27T00:52:31.000Z</time>
      </trkpt>
      <trkpt lat="48.85427" lon="2.06106">
        <ele>181.39999389648</ele>
        <time>2013-01-27T00:52:35.000Z</time>
      </trkpt>
      <trkpt lat="48.85433" lon="2.06095">
        <ele>181.39999389648</ele>
        <time>2013-01-27T00:52:39.000Z</time>
      </trkpt>
      <trkpt lat="48.85441" lon="2.0608">
        <ele>181.60000610352</ele>
        <time>2013-01-27T00:52:44.000Z</time>
      </trkpt>
      <trkpt lat="48.85449" lon="2.06066">
        <ele>182.19999694824</ele>
        <time>2013-01-27T00:52:49.000Z</time>
      </trkpt>
      <trkpt lat="48.85456" lon="2.06051">
        <ele>182.80000305176</ele>
        <time>2013-01-27T00:52:54.000Z</time>
      </trkpt>
      <trkpt lat="48.85463" lon="2.06041">
        <ele>183.19999694824</ele>
        <time>2013-01-27T00:52:58.000Z</time>
      </trkpt>
      <trkpt lat="48.85472" lon="2.06025">
        <ele>183.60000610352</ele>
        <time>2013-01-27T00:53:04.000Z</time>
      </trkpt>
      <trkpt lat="48.85473" lon="2.06023">
        <ele>183.80000305176</ele>
        <time>2013-01-27T00:53:05.000Z</time>
      </trkpt>
      <trkpt lat="48.85477" lon="2.06014">
        <ele>183.80000305176</ele>
        <time>2013-01-27T00:53:08.000Z</time>
      </trkpt>
      <trkpt lat="48.85489" lon="2.05992">
        <ele>184</ele>
        <time>2013-01-27T00:53:16.000Z</time>
      </trkpt>
      <trkpt lat="48.85492" lon="2.05986">
        <ele>184</ele>
        <time>2013-01-27T00:53:18.000Z</time>
      </trkpt>
      <trkpt lat="48.855" lon="2.05968">
        <ele>183.39999389648</ele>
        <time>2013-01-27T00:53:24.000Z</time>
      </trkpt>
      <trkpt lat="48.85508" lon="2.05952">
        <ele>182.80000305176</ele>
        <time>2013-01-27T00:53:30.000Z</time>
      </trkpt>
      <trkpt lat="48.85518" lon="2.05936">
        <ele>182.39999389648</ele>
        <time>2013-01-27T00:53:36.000Z</time>
      </trkpt>
      <trkpt lat="48.85528" lon="2.05921">
        <ele>182.39999389648</ele>
        <time>2013-01-27T00:53:44.000Z</time>
      </trkpt>
      <trkpt lat="48.85533" lon="2.0591">
        <ele>182.39999389648</ele>
        <time>2013-01-27T00:53:50.000Z</time>
      </trkpt>
      <trkpt lat="48.85542" lon="2.05893">
        <ele>182.39999389648</ele>
        <time>2013-01-27T00:53:59.000Z</time>
      </trkpt>
      <trkpt lat="48.85551" lon="2.0588">
        <ele>182.39999389648</ele>
        <time>2013-01-27T00:54:07.000Z</time>
      </trkpt>
      <trkpt lat="48.85555" lon="2.05875">
        <ele>182.60000610352</ele>
        <time>2013-01-27T00:54:11.000Z</time>
      </trkpt>
      <trkpt lat="48.85565" lon="2.05859">
        <ele>182.60000610352</ele>
        <time>2013-01-27T00:54:21.000Z</time>
      </trkpt>
      <trkpt lat="48.85566" lon="2.05858">
        <ele>182.60000610352</ele>
        <time>2013-01-27T00:54:22.000Z</time>
      </trkpt>
      <trkpt lat="48.85574" lon="2.0584">
        <ele>182.60000610352</ele>
        <time>2013-01-27T00:54:31.000Z</time>
      </trkpt>
      <trkpt lat="48.85578" lon="2.05833">
        <ele>182.60000610352</ele>
        <time>2013-01-27T00:54:35.000Z</time>
      </trkpt>
      <trkpt lat="48.85582" lon="2.05825">
        <ele>182.39999389648</ele>
        <time>2013-01-27T00:54:39.000Z</time>
      </trkpt>
      <trkpt lat="48.85589" lon="2.0581">
        <ele>182</ele>
        <time>2013-01-27T00:54:46.000Z</time>
      </trkpt>
      <trkpt lat="48.85591" lon="2.05807">
        <ele>182</ele>
        <time>2013-01-27T00:54:48.000Z</time>
      </trkpt>
      <trkpt lat="48.856" lon="2.05791">
        <ele>181.80000305176</ele>
        <time>2013-01-27T00:54:57.000Z</time>
      </trkpt>
      <trkpt lat="48.85604" lon="2.05785">
        <ele>181.80000305176</ele>
        <time>2013-01-27T00:55:00.000Z</time>
      </trkpt>
      <trkpt lat="48.85607" lon="2.05779">
        <ele>181.60000610352</ele>
        <time>2013-01-27T00:55:02.000Z</time>
      </trkpt>
      <trkpt lat="48.85615" lon="2.05767">
        <ele>181.60000610352</ele>
        <time>2013-01-27T00:55:08.000Z</time>
      </trkpt>
      <trkpt lat="48.85626" lon="2.05749">
        <ele>181.39999389648</ele>
        <time>2013-01-27T00:55:17.000Z</time>
      </trkpt>
      <trkpt lat="48.85635" lon="2.05728">
        <ele>181.60000610352</ele>
        <time>2013-01-27T00:55:23.000Z</time>
      </trkpt>
      <trkpt lat="48.85641" lon="2.05718">
        <ele>181.80000305176</ele>
        <time>2013-01-27T00:55:27.000Z</time>
      </trkpt>
      <trkpt lat="48.85651" lon="2.05704">
        <ele>182.19999694824</ele>
        <time>2013-01-27T00:55:32.000Z</time>
      </trkpt>
      <trkpt lat="48.8566" lon="2.05687">
        <ele>182.60000610352</ele>
        <time>2013-01-27T00:55:38.000Z</time>
      </trkpt>
      <trkpt lat="48.8567" lon="2.0567">
        <ele>183.19999694824</ele>
        <time>2013-01-27T00:55:44.000Z</time>
      </trkpt>
      <trkpt lat="48.85677" lon="2.05655">
        <ele>183.19999694824</ele>
        <time>2013-01-27T00:55:49.000Z</time>
      </trkpt>
      <trkpt lat="48.85684" lon="2.0564">
        <ele>183.19999694824</ele>
        <time>2013-01-27T00:55:54.000Z</time>
      </trkpt>
      <trkpt lat="48.85691" lon="2.0563">
        <ele>183.39999389648</ele>
        <time>2013-01-27T00:55:58.000Z</time>
      </trkpt>
      <trkpt lat="48.857" lon="2.0561">
        <ele>183.19999694824</ele>
        <time>2013-01-27T00:56:05.000Z</time>
      </trkpt>
      <trkpt lat="48.85707" lon="2.05596">
        <ele>183.19999694824</ele>
        <time>2013-01-27T00:56:10.000Z</time>
      </trkpt>
      <trkpt lat="48.85708" lon="2.05593">
        <ele>183.19999694824</ele>
        <time>2013-01-27T00:56:11.000Z</time>
      </trkpt>
      <trkpt lat="48.85715" lon="2.0558">
        <ele>183.19999694824</ele>
        <time>2013-01-27T00:56:16.000Z</time>
      </trkpt>
      <trkpt lat="48.85721" lon="2.0557">
        <ele>183</ele>
        <time>2013-01-27T00:56:20.000Z</time>
      </trkpt>
      <trkpt lat="48.85723" lon="2.05565">
        <ele>183</ele>
        <time>2013-01-27T00:56:22.000Z</time>
      </trkpt>
      <trkpt lat="48.85729" lon="2.0555">
        <ele>183</ele>
        <time>2013-01-27T00:56:27.000Z</time>
      </trkpt>
      <trkpt lat="48.85737" lon="2.05535">
        <ele>183.19999694824</ele>
        <time>2013-01-27T00:56:32.000Z</time>
      </trkpt>
      <trkpt lat="48.85746" lon="2.05523">
        <ele>183.80000305176</ele>
        <time>2013-01-27T00:56:37.000Z</time>
      </trkpt>
      <trkpt lat="48.85754" lon="2.05515">
        <ele>184</ele>
        <time>2013-01-27T00:56:41.000Z</time>
      </trkpt>
      <trkpt lat="48.85761" lon="2.055">
        <ele>183.60000610352</ele>
        <time>2013-01-27T00:56:46.000Z</time>
      </trkpt>
      <trkpt lat="48.85769" lon="2.05487">
        <ele>182.80000305176</ele>
        <time>2013-01-27T00:56:51.000Z</time>
      </trkpt>
      <trkpt lat="48.85779" lon="2.05471">
        <ele>182</ele>
        <time>2013-01-27T00:56:57.000Z</time>
      </trkpt>
      <trkpt lat="48.85787" lon="2.05453">
        <ele>181.19999694824</ele>
        <time>2013-01-27T00:57:03.000Z</time>
      </trkpt>
      <trkpt lat="48.85795" lon="2.05438">
        <ele>180.80000305176</ele>
        <time>2013-01-27T00:57:08.000Z</time>
      </trkpt>
      <trkpt lat="48.85803" lon="2.05425">
        <ele>180.39999389648</ele>
        <time>2013-01-27T00:57:13.000Z</time>
      </trkpt>
      <trkpt lat="48.85815" lon="2.05406">
        <ele>180.39999389648</ele>
        <time>2013-01-27T00:57:20.000Z</time>
      </trkpt>
      <trkpt lat="48.85822" lon="2.05392">
        <ele>180.39999389648</ele>
        <time>2013-01-27T00:57:25.000Z</time>
      </trkpt>
      <trkpt lat="48.85828" lon="2.0538">
        <ele>180.60000610352</ele>
        <time>2013-01-27T00:57:29.000Z</time>
      </trkpt>
      <trkpt lat="48.85831" lon="2.05374">
        <ele>180.80000305176</ele>
        <time>2013-01-27T00:57:31.000Z</time>
      </trkpt>
      <trkpt lat="48.85838" lon="2.05363">
        <ele>180.60000610352</ele>
        <time>2013-01-27T00:57:35.000Z</time>
      </trkpt>
      <trkpt lat="48.85839" lon="2.0536">
        <ele>180.39999389648</ele>
        <time>2013-01-27T00:57:36.000Z</time>
      </trkpt>
      <trkpt lat="48.85847" lon="2.0535">
        <ele>180</ele>
        <time>2013-01-27T00:57:40.000Z</time>
      </trkpt>
      <trkpt lat="48.85849" lon="2.05348">
        <ele>179.80000305176</ele>
        <time>2013-01-27T00:57:41.000Z</time>
      </trkpt>
      <trkpt lat="48.8585" lon="2.05344">
        <ele>179.80000305176</ele>
        <time>2013-01-27T00:57:42.000Z</time>
      </trkpt>
      <trkpt lat="48.8586" lon="2.05324">
        <ele>179.19999694824</ele>
        <time>2013-01-27T00:57:49.000Z</time>
      </trkpt>
      <trkpt lat="48.85869" lon="2.05304">
        <ele>178.39999389648</ele>
        <time>2013-01-27T00:57:56.000Z</time>
      </trkpt>
      <trkpt lat="48.85874" lon="2.05295">
        <ele>178.19999694824</ele>
        <time>2013-01-27T00:57:59.000Z</time>
      </trkpt>
      <trkpt lat="48.85883" lon="2.0528">
        <ele>178</ele>
        <time>2013-01-27T00:58:05.000Z</time>
      </trkpt>
      <trkpt lat="48.85891" lon="2.05267">
        <ele>177.80000305176</ele>
        <time>2013-01-27T00:58:10.000Z</time>
      </trkpt>
      <trkpt lat="48.85902" lon="2.05247">
        <ele>177.80000305176</ele>
        <time>2013-01-27T00:58:17.000Z</time>
      </trkpt>
      <trkpt lat="48.85908" lon="2.05234">
        <ele>177.60000610352</ele>
        <time>2013-01-27T00:58:22.000Z</time>
      </trkpt>
      <trkpt lat="48.85913" lon="2.0522">
        <ele>177.39999389648</ele>
        <time>2013-01-27T00:58:27.000Z</time>
      </trkpt>
      <trkpt lat="48.85917" lon="2.05204">
        <ele>177.39999389648</ele>
        <time>2013-01-27T00:58:32.000Z</time>
      </trkpt>
      <trkpt lat="48.85919" lon="2.05188">
        <ele>176.80000305176</ele>
        <time>2013-01-27T00:58:37.000Z</time>
      </trkpt>
      <trkpt lat="48.85924" lon="2.05173">
        <ele>175.80000305176</ele>
        <time>2013-01-27T00:58:42.000Z</time>
      </trkpt>
      <trkpt lat="48.85928" lon="2.05161">
        <ele>175.19999694824</ele>
        <time>2013-01-27T00:58:46.000Z</time>
      </trkpt>
      <trkpt lat="48.85933" lon="2.05141">
        <ele>174.60000610352</ele>
        <time>2013-01-27T00:58:52.000Z</time>
      </trkpt>
      <trkpt lat="48.85939" lon="2.05126">
        <ele>173.80000305176</ele>
        <time>2013-01-27T00:58:57.000Z</time>
      </trkpt>
      <trkpt lat="48.85946" lon="2.0511">
        <ele>173.19999694824</ele>
        <time>2013-01-27T00:59:03.000Z</time>
      </trkpt>
      <trkpt lat="48.85946" lon="2.05099">
        <ele>173.39999389648</ele>
        <time>2013-01-27T00:59:07.000Z</time>
      </trkpt>
      <trkpt lat="48.85947" lon="2.05091">
        <ele>173.19999694824</ele>
        <time>2013-01-27T00:59:09.000Z</time>
      </trkpt>
      <trkpt lat="48.85953" lon="2.05069">
        <ele>172.80000305176</ele>
        <time>2013-01-27T00:59:16.000Z</time>
      </trkpt>
      <trkpt lat="48.85954" lon="2.05066">
        <ele>172.80000305176</ele>
        <time>2013-01-27T00:59:17.000Z</time>
      </trkpt>
      <trkpt lat="48.85958" lon="2.05057">
        <ele>172.60000610352</ele>
        <time>2013-01-27T00:59:20.000Z</time>
      </trkpt>
      <trkpt lat="48.85963" lon="2.05035">
        <ele>172.60000610352</ele>
        <time>2013-01-27T00:59:26.000Z</time>
      </trkpt>
      <trkpt lat="48.85967" lon="2.05017">
        <ele>172.60000610352</ele>
        <time>2013-01-27T00:59:31.000Z</time>
      </trkpt>
      <trkpt lat="48.85968" lon="2.0501">
        <ele>172.80000305176</ele>
        <time>2013-01-27T00:59:33.000Z</time>
      </trkpt>
      <trkpt lat="48.85974" lon="2.04991">
        <ele>172.80000305176</ele>
        <time>2013-01-27T00:59:39.000Z</time>
      </trkpt>
      <trkpt lat="48.85979" lon="2.04972">
        <ele>172.39999389648</ele>
        <time>2013-01-27T00:59:45.000Z</time>
      </trkpt>
      <trkpt lat="48.8598" lon="2.04967">
        <ele>172.39999389648</ele>
        <time>2013-01-27T00:59:47.000Z</time>
      </trkpt>
      <trkpt lat="48.85985" lon="2.04955">
        <ele>172.60000610352</ele>
        <time>2013-01-27T00:59:51.000Z</time>
      </trkpt>
      <trkpt lat="48.85991" lon="2.04936">
        <ele>173</ele>
        <time>2013-01-27T00:59:57.000Z</time>
      </trkpt>
      <trkpt lat="48.85993" lon="2.04925">
        <ele>173.19999694824</ele>
        <time>2013-01-27T01:00:00.000Z</time>
      </trkpt>
      <trkpt lat="48.85995" lon="2.04914">
        <ele>173.39999389648</ele>
        <time>2013-01-27T01:00:04.000Z</time>
      </trkpt>
      <trkpt lat="48.85999" lon="2.0489">
        <ele>173.19999694824</ele>
        <time>2013-01-27T01:00:11.000Z</time>
      </trkpt>
      <trkpt lat="48.86008" lon="2.04863">
        <ele>172.19999694824</ele>
        <time>2013-01-27T01:00:19.000Z</time>
      </trkpt>
      <trkpt lat="48.86015" lon="2.04845">
        <ele>171.60000610352</ele>
        <time>2013-01-27T01:00:25.000Z</time>
      </trkpt>
      <trkpt lat="48.86025" lon="2.04827">
        <ele>171.39999389648</ele>
        <time>2013-01-27T01:00:31.000Z</time>
      </trkpt>
      <trkpt lat="48.86028" lon="2.04822">
        <ele>171.39999389648</ele>
        <time>2013-01-27T01:00:33.000Z</time>
      </trkpt>
      <trkpt lat="48.86038" lon="2.04807">
        <ele>171.60000610352</ele>
        <time>2013-01-27T01:00:39.000Z</time>
      </trkpt>
      <trkpt lat="48.86048" lon="2.04791">
        <ele>172</ele>
        <time>2013-01-27T01:00:45.000Z</time>
      </trkpt>
      <trkpt lat="48.86056" lon="2.04777">
        <ele>172.39999389648</ele>
        <time>2013-01-27T01:00:50.000Z</time>
      </trkpt>
      <trkpt lat="48.86064" lon="2.04764">
        <ele>173</ele>
        <time>2013-01-27T01:00:55.000Z</time>
      </trkpt>
      <trkpt lat="48.86074" lon="2.04747">
        <ele>173.80000305176</ele>
        <time>2013-01-27T01:01:01.000Z</time>
      </trkpt>
      <trkpt lat="48.86084" lon="2.04733">
        <ele>174.39999389648</ele>
        <time>2013-01-27T01:01:07.000Z</time>
      </trkpt>
      <trkpt lat="48.86085" lon="2.0473">
        <ele>174.39999389648</ele>
        <time>2013-01-27T01:01:08.000Z</time>
      </trkpt>
      <trkpt lat="48.86093" lon="2.04716">
        <ele>174.60000610352</ele>
        <time>2013-01-27T01:01:13.000Z</time>
      </trkpt>
      <trkpt lat="48.86099" lon="2.0471">
        <ele>174.80000305176</ele>
        <time>2013-01-27T01:01:16.000Z</time>
      </trkpt>
      <trkpt lat="48.86113" lon="2.04691">
        <ele>175.80000305176</ele>
        <time>2013-01-27T01:01:24.000Z</time>
      </trkpt>
      <trkpt lat="48.86124" lon="2.04682">
        <ele>176.39999389648</ele>
        <time>2013-01-27T01:01:29.000Z</time>
      </trkpt>
      <trkpt lat="48.86126" lon="2.0468">
        <ele>176.60000610352</ele>
        <time>2013-01-27T01:01:30.000Z</time>
      </trkpt>
      <trkpt lat="48.86133" lon="2.04669">
        <ele>177.39999389648</ele>
        <time>2013-01-27T01:01:35.000Z</time>
      </trkpt>
      <trkpt lat="48.86146" lon="2.04658">
        <ele>178.39999389648</ele>
        <time>2013-01-27T01:01:41.000Z</time>
      </trkpt>
      <trkpt lat="48.86153" lon="2.04653">
        <ele>178.60000610352</ele>
        <time>2013-01-27T01:01:45.000Z</time>
      </trkpt>
      <trkpt lat="48.86164" lon="2.04647">
        <ele>179.19999694824</ele>
        <time>2013-01-27T01:01:50.000Z</time>
      </trkpt>
      <trkpt lat="48.86175" lon="2.04643">
        <ele>179.80000305176</ele>
        <time>2013-01-27T01:01:55.000Z</time>
      </trkpt>
      <trkpt lat="48.86182" lon="2.04639">
        <ele>180.19999694824</ele>
        <time>2013-01-27T01:01:59.000Z</time>
      </trkpt>
      <trkpt lat="48.86193" lon="2.04634">
        <ele>180.60000610352</ele>
        <time>2013-01-27T01:02:04.000Z</time>
      </trkpt>
      <trkpt lat="48.86205" lon="2.04627">
        <ele>181.19999694824</ele>
        <time>2013-01-27T01:02:10.000Z</time>
      </trkpt>
      <trkpt lat="48.86215" lon="2.04621">
        <ele>181.80000305176</ele>
        <time>2013-01-27T01:02:15.000Z</time>
      </trkpt>
      <trkpt lat="48.86224" lon="2.04616">
        <ele>182.19999694824</ele>
        <time>2013-01-27T01:02:19.000Z</time>
      </trkpt>
      <trkpt lat="48.8623" lon="2.0461">
        <ele>182.60000610352</ele>
        <time>2013-01-27T01:02:22.000Z</time>
      </trkpt>
      <trkpt lat="48.86238" lon="2.046">
        <ele>183</ele>
        <time>2013-01-27T01:02:27.000Z</time>
      </trkpt>
      <trkpt lat="48.86247" lon="2.04591">
        <ele>183.60000610352</ele>
        <time>2013-01-27T01:02:32.000Z</time>
      </trkpt>
      <trkpt lat="48.86249" lon="2.0459">
        <ele>183.80000305176</ele>
        <time>2013-01-27T01:02:33.000Z</time>
      </trkpt>
      <trkpt lat="48.86257" lon="2.0458">
        <ele>184</ele>
        <time>2013-01-27T01:02:40.000Z</time>
      </trkpt>
      <trkpt lat="48.86265" lon="2.0457">
        <ele>184</ele>
        <time>2013-01-27T01:02:46.000Z</time>
      </trkpt>
      <trkpt lat="48.86274" lon="2.0456">
        <ele>184</ele>
        <time>2013-01-27T01:02:52.000Z</time>
      </trkpt>
      <trkpt lat="48.86283" lon="2.04547">
        <ele>184</ele>
        <time>2013-01-27T01:03:00.000Z</time>
      </trkpt>
      <trkpt lat="48.86292" lon="2.04534">
        <ele>184</ele>
        <time>2013-01-27T01:03:07.000Z</time>
      </trkpt>
      <trkpt lat="48.86296" lon="2.04526">
        <ele>184</ele>
        <time>2013-01-27T01:03:11.000Z</time>
      </trkpt>
      <trkpt lat="48.86299" lon="2.04522">
        <ele>184</ele>
        <time>2013-01-27T01:03:14.000Z</time>
      </trkpt>
      <trkpt lat="48.86307" lon="2.04511">
        <ele>184</ele>
        <time>2013-01-27T01:03:18.000Z</time>
      </trkpt>
      <trkpt lat="48.86315" lon="2.04495">
        <ele>184</ele>
        <time>2013-01-27T01:03:26.000Z</time>
      </trkpt>
      <trkpt lat="48.86321" lon="2.04486">
        <ele>184</ele>
        <time>2013-01-27T01:03:33.000Z</time>
      </trkpt>
      <trkpt lat="48.86329" lon="2.04473">
        <ele>184.19999694824</ele>
        <time>2013-01-27T01:03:40.000Z</time>
      </trkpt>
      <trkpt lat="48.86334" lon="2.04462">
        <ele>184.39999389648</ele>
        <time>2013-01-27T01:03:46.000Z</time>
      </trkpt>
      <trkpt lat="48.86339" lon="2.04453">
        <ele>184.39999389648</ele>
        <time>2013-01-27T01:03:51.000Z</time>
      </trkpt>
      <trkpt lat="48.86347" lon="2.04441">
        <ele>184.60000610352</ele>
        <time>2013-01-27T01:03:59.000Z</time>
      </trkpt>
      <trkpt lat="48.86354" lon="2.04432">
        <ele>184.60000610352</ele>
        <time>2013-01-27T01:04:05.000Z</time>
      </trkpt>
      <trkpt lat="48.86357" lon="2.04428">
        <ele>184.80000305176</ele>
        <time>2013-01-27T01:04:08.000Z</time>
      </trkpt>
      <trkpt lat="48.8636" lon="2.04421">
        <ele>184.80000305176</ele>
        <time>2013-01-27T01:04:12.000Z</time>
      </trkpt>
      <trkpt lat="48.86365" lon="2.04414">
        <ele>184.80000305176</ele>
        <time>2013-01-27T01:04:16.000Z</time>
      </trkpt>
      <trkpt lat="48.86374" lon="2.04399">
        <ele>184</ele>
        <time>2013-01-27T01:04:25.000Z</time>
      </trkpt>
      <trkpt lat="48.86381" lon="2.04383">
        <ele>183.19999694824</ele>
        <time>2013-01-27T01:04:34.000Z</time>
      </trkpt>
      <trkpt lat="48.86388" lon="2.04372">
        <ele>182.80000305176</ele>
        <time>2013-01-27T01:04:41.000Z</time>
      </trkpt>
      <trkpt lat="48.86392" lon="2.04365">
        <ele>182.39999389648</ele>
        <time>2013-01-27T01:04:46.000Z</time>
      </trkpt>
      <trkpt lat="48.86398" lon="2.04354">
        <ele>181.80000305176</ele>
        <time>2013-01-27T01:04:53.000Z</time>
      </trkpt>
      <trkpt lat="48.86405" lon="2.04338">
        <ele>181.19999694824</ele>
        <time>2013-01-27T01:05:01.000Z</time>
      </trkpt>
      <trkpt lat="48.86411" lon="2.04324">
        <ele>180.60000610352</ele>
        <time>2013-01-27T01:05:07.000Z</time>
      </trkpt>
      <trkpt lat="48.86419" lon="2.04307">
        <ele>180.39999389648</ele>
        <time>2013-01-27T01:05:16.000Z</time>
      </trkpt>
      <trkpt lat="48.86426" lon="2.04294">
        <ele>180.39999389648</ele>
        <time>2013-01-27T01:05:23.000Z</time>
      </trkpt>
      <trkpt lat="48.86435" lon="2.04281">
        <ele>180.39999389648</ele>
        <time>2013-01-27T01:05:31.000Z</time>
      </trkpt>
      <trkpt lat="48.86443" lon="2.04268">
        <ele>180.39999389648</ele>
        <time>2013-01-27T01:05:39.000Z</time>
      </trkpt>
      <trkpt lat="48.86451" lon="2.04252">
        <ele>180.60000610352</ele>
        <time>2013-01-27T01:05:47.000Z</time>
      </trkpt>
      <trkpt lat="48.86456" lon="2.04241">
        <ele>180.80000305176</ele>
        <time>2013-01-27T01:05:53.000Z</time>
      </trkpt>
      <trkpt lat="48.86463" lon="2.0423">
        <ele>181.19999694824</ele>
        <time>2013-01-27T01:05:59.000Z</time>
      </trkpt>
      <trkpt lat="48.86468" lon="2.0422">
        <ele>181.39999389648</ele>
        <time>2013-01-27T01:06:05.000Z</time>
      </trkpt>
      <trkpt lat="48.86476" lon="2.04205">
        <ele>181.60000610352</ele>
        <time>2013-01-27T01:06:13.000Z</time>
      </trkpt>
      <trkpt lat="48.86477" lon="2.04204">
        <ele>181.60000610352</ele>
        <time>2013-01-27T01:06:14.000Z</time>
      </trkpt>
      <trkpt lat="48.86486" lon="2.04187">
        <ele>181.80000305176</ele>
        <time>2013-01-27T01:06:23.000Z</time>
      </trkpt>
      <trkpt lat="48.86494" lon="2.04174">
        <ele>182</ele>
        <time>2013-01-27T01:06:31.000Z</time>
      </trkpt>
      <trkpt lat="48.86501" lon="2.04163">
        <ele>182</ele>
        <time>2013-01-27T01:06:38.000Z</time>
      </trkpt>
      <trkpt lat="48.86507" lon="2.04149">
        <ele>182.19999694824</ele>
        <time>2013-01-27T01:06:45.000Z</time>
      </trkpt>
      <trkpt lat="48.86508" lon="2.04147">
        <ele>182.39999389648</ele>
        <time>2013-01-27T01:06:46.000Z</time>
      </trkpt>
      <trkpt lat="48.86514" lon="2.04139">
        <ele>182.60000610352</ele>
        <time>2013-01-27T01:06:51.000Z</time>
      </trkpt>
      <trkpt lat="48.86515" lon="2.04136">
        <ele>182.60000610352</ele>
        <time>2013-01-27T01:06:52.000Z</time>
      </trkpt>
      <trkpt lat="48.86523" lon="2.04119">
        <ele>183</ele>
        <time>2013-01-27T01:07:01.000Z</time>
      </trkpt>
      <trkpt lat="48.86524" lon="2.04116">
        <ele>183</ele>
        <time>2013-01-27T01:07:03.000Z</time>
      </trkpt>
      <trkpt lat="48.8653" lon="2.04104">
        <ele>183.39999389648</ele>
        <time>2013-01-27T01:07:10.000Z</time>
      </trkpt>
      <trkpt lat="48.86535" lon="2.04094">
        <ele>183.60000610352</ele>
        <time>2013-01-27T01:07:16.000Z</time>
      </trkpt>
      <trkpt lat="48.86544" lon="2.04075">
        <ele>184</ele>
        <time>2013-01-27T01:07:28.000Z</time>
      </trkpt>
      <trkpt lat="48.86552" lon="2.0406">
        <ele>184.39999389648</ele>
        <time>2013-01-27T01:07:36.000Z</time>
      </trkpt>
      <trkpt lat="48.86562" lon="2.04042">
        <ele>184.80000305176</ele>
        <time>2013-01-27T01:07:45.000Z</time>
      </trkpt>
      <trkpt lat="48.8657" lon="2.04019">
        <ele>185.19999694824</ele>
        <time>2013-01-27T01:07:52.000Z</time>
      </trkpt>
      <trkpt lat="48.8657" lon="2.04016">
        <ele>185.19999694824</ele>
        <time>2013-01-27T01:07:53.000Z</time>
      </trkpt>
      <trkpt lat="48.86582" lon="2.03993">
        <ele>186</ele>
        <time>2013-01-27T01:08:01.000Z</time>
      </trkpt>
      <trkpt lat="48.86589" lon="2.03978">
        <ele>186.19999694824</ele>
        <time>2013-01-27T01:08:06.000Z</time>
      </trkpt>
      <trkpt lat="48.86598" lon="2.0396">
        <ele>186.19999694824</ele>
        <time>2013-01-27T01:08:12.000Z</time>
      </trkpt>
      <trkpt lat="48.86605" lon="2.03945">
        <ele>186.39999389648</ele>
        <time>2013-01-27T01:08:17.000Z</time>
      </trkpt>
      <trkpt lat="48.86617" lon="2.03921">
        <ele>186.39999389648</ele>
        <time>2013-01-27T01:08:25.000Z</time>
      </trkpt>
      <trkpt lat="48.86624" lon="2.03907">
        <ele>186.19999694824</ele>
        <time>2013-01-27T01:08:30.000Z</time>
      </trkpt>
      <trkpt lat="48.86631" lon="2.03894">
        <ele>185.80000305176</ele>
        <time>2013-01-27T01:08:35.000Z</time>
      </trkpt>
      <trkpt lat="48.86636" lon="2.0388">
        <ele>185.39999389648</ele>
        <time>2013-01-27T01:08:40.000Z</time>
      </trkpt>
      <trkpt lat="48.86638" lon="2.03877">
        <ele>185.39999389648</ele>
        <time>2013-01-27T01:08:41.000Z</time>
      </trkpt>
      <trkpt lat="48.86644" lon="2.0386">
        <ele>185.19999694824</ele>
        <time>2013-01-27T01:08:47.000Z</time>
      </trkpt>
      <trkpt lat="48.86652" lon="2.03847">
        <ele>185</ele>
        <time>2013-01-27T01:08:52.000Z</time>
      </trkpt>
      <trkpt lat="48.86659" lon="2.03835">
        <ele>184.80000305176</ele>
        <time>2013-01-27T01:08:58.000Z</time>
      </trkpt>
      <trkpt lat="48.86667" lon="2.03824">
        <ele>185</ele>
        <time>2013-01-27T01:09:06.000Z</time>
      </trkpt>
      <trkpt lat="48.86672" lon="2.0381">
        <ele>185</ele>
        <time>2013-01-27T01:09:11.000Z</time>
      </trkpt>
      <trkpt lat="48.8668" lon="2.03793">
        <ele>185</ele>
        <time>2013-01-27T01:09:17.000Z</time>
      </trkpt>
      <trkpt lat="48.86681" lon="2.0379">
        <ele>185</ele>
        <time>2013-01-27T01:09:18.000Z</time>
      </trkpt>
      <trkpt lat="48.86687" lon="2.03778">
        <ele>185</ele>
        <time>2013-01-27T01:09:23.000Z</time>
      </trkpt>
      <trkpt lat="48.86693" lon="2.03766">
        <ele>185</ele>
        <time>2013-01-27T01:09:27.000Z</time>
      </trkpt>
      <trkpt lat="48.86695" lon="2.03764">
        <ele>185</ele>
        <time>2013-01-27T01:09:28.000Z</time>
      </trkpt>
      <trkpt lat="48.86706" lon="2.03748">
        <ele>184.80000305176</ele>
        <time>2013-01-27T01:09:34.000Z</time>
      </trkpt>
      <trkpt lat="48.86716" lon="2.0373">
        <ele>184.19999694824</ele>
        <time>2013-01-27T01:09:41.000Z</time>
      </trkpt>
      <trkpt lat="48.86724" lon="2.03718">
        <ele>183.80000305176</ele>
        <time>2013-01-27T01:09:49.000Z</time>
      </trkpt>
      <trkpt lat="48.86733" lon="2.037">
        <ele>182.80000305176</ele>
        <time>2013-01-27T01:09:57.000Z</time>
      </trkpt>
      <trkpt lat="48.86737" lon="2.03689">
        <ele>182.39999389648</ele>
        <time>2013-01-27T01:10:00.000Z</time>
      </trkpt>
      <trkpt lat="48.86742" lon="2.03677">
        <ele>181.60000610352</ele>
        <time>2013-01-27T01:10:04.000Z</time>
      </trkpt>
      <trkpt lat="48.86749" lon="2.03665">
        <ele>181</ele>
        <time>2013-01-27T01:10:11.000Z</time>
      </trkpt>
      <trkpt lat="48.8676" lon="2.03652">
        <ele>182</ele>
        <time>2013-01-27T01:10:19.000Z</time>
      </trkpt>
      <trkpt lat="48.86772" lon="2.03636">
        <ele>183.19999694824</ele>
        <time>2013-01-27T01:10:27.000Z</time>
      </trkpt>
      <trkpt lat="48.86781" lon="2.03619">
        <ele>184</ele>
        <time>2013-01-27T01:10:33.000Z</time>
      </trkpt>
      <trkpt lat="48.86785" lon="2.03607">
        <ele>184.60000610352</ele>
        <time>2013-01-27T01:10:38.000Z</time>
      </trkpt>
      <trkpt lat="48.86788" lon="2.036">
        <ele>184.80000305176</ele>
        <time>2013-01-27T01:10:42.000Z</time>
      </trkpt>
      <trkpt lat="48.86789" lon="2.03596">
        <ele>185</ele>
        <time>2013-01-27T01:10:50.000Z</time>
      </trkpt>
      <trkpt lat="48.86794" lon="2.03596">
        <ele>185.39999389648</ele>
        <time>2013-01-27T01:11:11.000Z</time>
      </trkpt>
      <trkpt lat="48.86798" lon="2.03593">
        <ele>185.60000610352</ele>
        <time>2013-01-27T01:11:26.000Z</time>
      </trkpt>
      <trkpt lat="48.86798" lon="2.0359">
        <ele>185.60000610352</ele>
        <time>2013-01-27T01:11:32.000Z</time>
      </trkpt>
      <trkpt lat="48.86798" lon="2.03589">
        <ele>185.60000610352</ele>
        <time>2013-01-27T01:11:37.000Z</time>
      </trkpt>
      <trkpt lat="48.868" lon="2.03587">
        <ele>185.80000305176</ele>
        <time>2013-01-27T01:11:41.000Z</time>
      </trkpt>
      <trkpt lat="48.86806" lon="2.03577">
        <ele>186.19999694824</ele>
        <time>2013-01-27T01:11:48.000Z</time>
      </trkpt>
      <trkpt lat="48.86807" lon="2.03576">
        <ele>186.39999389648</ele>
        <time>2013-01-27T01:11:49.000Z</time>
      </trkpt>
      <trkpt lat="48.86811" lon="2.0357">
        <ele>186.60000610352</ele>
        <time>2013-01-27T01:11:53.000Z</time>
      </trkpt>
      <trkpt lat="48.86813" lon="2.03564">
        <ele>186.60000610352</ele>
        <time>2013-01-27T01:11:57.000Z</time>
      </trkpt>
      <trkpt lat="48.86816" lon="2.03561">
        <ele>186.80000305176</ele>
        <time>2013-01-27T01:11:59.000Z</time>
      </trkpt>
      <trkpt lat="48.86817" lon="2.03558">
        <ele>186.80000305176</ele>
        <time>2013-01-27T01:12:01.000Z</time>
      </trkpt>
      <trkpt lat="48.86825" lon="2.03545">
        <ele>187.19999694824</ele>
        <time>2013-01-27T01:12:07.000Z</time>
      </trkpt>
      <trkpt lat="48.86831" lon="2.03533">
        <ele>187.19999694824</ele>
        <time>2013-01-27T01:12:12.000Z</time>
      </trkpt>
      <trkpt lat="48.86838" lon="2.03521">
        <ele>187.19999694824</ele>
        <time>2013-01-27T01:12:17.000Z</time>
      </trkpt>
      <trkpt lat="48.86839" lon="2.03515">
        <ele>187.19999694824</ele>
        <time>2013-01-27T01:12:20.000Z</time>
      </trkpt>
      <trkpt lat="48.86847" lon="2.03499">
        <ele>187.19999694824</ele>
        <time>2013-01-27T01:12:28.000Z</time>
      </trkpt>
      <trkpt lat="48.86852" lon="2.03487">
        <ele>187.19999694824</ele>
        <time>2013-01-27T01:12:34.000Z</time>
      </trkpt>
      <trkpt lat="48.86854" lon="2.03482">
        <ele>187.19999694824</ele>
        <time>2013-01-27T01:12:36.000Z</time>
      </trkpt>
      <trkpt lat="48.86857" lon="2.03471">
        <ele>187</ele>
        <time>2013-01-27T01:12:41.000Z</time>
      </trkpt>
      <trkpt lat="48.86862" lon="2.0346">
        <ele>187</ele>
        <time>2013-01-27T01:12:47.000Z</time>
      </trkpt>
      <trkpt lat="48.86871" lon="2.03442">
        <ele>186.80000305176</ele>
        <time>2013-01-27T01:12:56.000Z</time>
      </trkpt>
      <trkpt lat="48.86881" lon="2.03423">
        <ele>186.60000610352</ele>
        <time>2013-01-27T01:13:06.000Z</time>
      </trkpt>
      <trkpt lat="48.86888" lon="2.03408">
        <ele>186.39999389648</ele>
        <time>2013-01-27T01:13:14.000Z</time>
      </trkpt>
      <trkpt lat="48.86893" lon="2.03399">
        <ele>186</ele>
        <time>2013-01-27T01:13:19.000Z</time>
      </trkpt>
      <trkpt lat="48.86901" lon="2.03387">
        <ele>185.60000610352</ele>
        <time>2013-01-27T01:13:26.000Z</time>
      </trkpt>
      <trkpt lat="48.86907" lon="2.03375">
        <ele>185</ele>
        <time>2013-01-27T01:13:33.000Z</time>
      </trkpt>
      <trkpt lat="48.86912" lon="2.03365">
        <ele>184.60000610352</ele>
        <time>2013-01-27T01:13:39.000Z</time>
      </trkpt>
      <trkpt lat="48.86914" lon="2.0336">
        <ele>184.19999694824</ele>
        <time>2013-01-27T01:13:42.000Z</time>
      </trkpt>
      <trkpt lat="48.8692" lon="2.03348">
        <ele>183.80000305176</ele>
        <time>2013-01-27T01:13:49.000Z</time>
      </trkpt>
      <trkpt lat="48.86927" lon="2.03341">
        <ele>184</ele>
        <time>2013-01-27T01:13:54.000Z</time>
      </trkpt>
      <trkpt lat="48.8693" lon="2.03334">
        <ele>183.80000305176</ele>
        <time>2013-01-27T01:13:58.000Z</time>
      </trkpt>
      <trkpt lat="48.86931" lon="2.03332">
        <ele>184</ele>
        <time>2013-01-27T01:13:59.000Z</time>
      </trkpt>
      <trkpt lat="48.86932" lon="2.0333">
        <ele>184</ele>
        <time>2013-01-27T01:14:00.000Z</time>
      </trkpt>
      <trkpt lat="48.86935" lon="2.03323">
        <ele>184.39999389648</ele>
        <time>2013-01-27T01:14:04.000Z</time>
      </trkpt>
      <trkpt lat="48.8694" lon="2.03317">
        <ele>184.60000610352</ele>
        <time>2013-01-27T01:14:09.000Z</time>
      </trkpt>
      <trkpt lat="48.86942" lon="2.03313">
        <ele>184.80000305176</ele>
        <time>2013-01-27T01:14:11.000Z</time>
      </trkpt>
      <trkpt lat="48.86943" lon="2.0331">
        <ele>185</ele>
        <time>2013-01-27T01:14:13.000Z</time>
      </trkpt>
      <trkpt lat="48.86946" lon="2.03305">
        <ele>185.19999694824</ele>
        <time>2013-01-27T01:14:16.000Z</time>
      </trkpt>
      <trkpt lat="48.86952" lon="2.03297">
        <ele>185.60000610352</ele>
        <time>2013-01-27T01:14:21.000Z</time>
      </trkpt>
      <trkpt lat="48.86956" lon="2.03291">
        <ele>185.80000305176</ele>
        <time>2013-01-27T01:14:26.000Z</time>
      </trkpt>
      <trkpt lat="48.86957" lon="2.03289">
        <ele>185.80000305176</ele>
        <time>2013-01-27T01:14:27.000Z</time>
      </trkpt>
      <trkpt lat="48.86962" lon="2.03284">
        <ele>186</ele>
        <time>2013-01-27T01:14:31.000Z</time>
      </trkpt>
      <trkpt lat="48.86969" lon="2.03271">
        <ele>186.39999389648</ele>
        <time>2013-01-27T01:14:38.000Z</time>
      </trkpt>
      <trkpt lat="48.86972" lon="2.03259">
        <ele>186.60000610352</ele>
        <time>2013-01-27T01:14:44.000Z</time>
      </trkpt>
      <trkpt lat="48.86975" lon="2.0325">
        <ele>186.60000610352</ele>
        <time>2013-01-27T01:14:48.000Z</time>
      </trkpt>
      <trkpt lat="48.8698" lon="2.03245">
        <ele>187</ele>
        <time>2013-01-27T01:14:52.000Z</time>
      </trkpt>
      <trkpt lat="48.86986" lon="2.03232">
        <ele>187.19999694824</ele>
        <time>2013-01-27T01:14:59.000Z</time>
      </trkpt>
      <trkpt lat="48.86994" lon="2.03221">
        <ele>187.39999389648</ele>
        <time>2013-01-27T01:15:06.000Z</time>
      </trkpt>
      <trkpt lat="48.86998" lon="2.03213">
        <ele>187.39999389648</ele>
        <time>2013-01-27T01:15:12.000Z</time>
      </trkpt>
      <trkpt lat="48.87003" lon="2.03202">
        <ele>187.39999389648</ele>
        <time>2013-01-27T01:15:17.000Z</time>
      </trkpt>
      <trkpt lat="48.87004" lon="2.032">
        <ele>187.39999389648</ele>
        <time>2013-01-27T01:15:18.000Z</time>
      </trkpt>
      <trkpt lat="48.87006" lon="2.03197">
        <ele>187.39999389648</ele>
        <time>2013-01-27T01:15:20.000Z</time>
      </trkpt>
      <trkpt lat="48.87016" lon="2.03181">
        <ele>187.60000610352</ele>
        <time>2013-01-27T01:15:28.000Z</time>
      </trkpt>
      <trkpt lat="48.87017" lon="2.03179">
        <ele>187.60000610352</ele>
        <time>2013-01-27T01:15:29.000Z</time>
      </trkpt>
      <trkpt lat="48.87024" lon="2.03168">
        <ele>187.39999389648</ele>
        <time>2013-01-27T01:15:35.000Z</time>
      </trkpt>
      <trkpt lat="48.87027" lon="2.03157">
        <ele>187.60000610352</ele>
        <time>2013-01-27T01:15:40.000Z</time>
      </trkpt>
      <trkpt lat="48.87034" lon="2.03142">
        <ele>187.80000305176</ele>
        <time>2013-01-27T01:15:48.000Z</time>
      </trkpt>
      <trkpt lat="48.87038" lon="2.03133">
        <ele>187.80000305176</ele>
        <time>2013-01-27T01:15:54.000Z</time>
      </trkpt>
      <trkpt lat="48.87048" lon="2.03119">
        <ele>188</ele>
        <time>2013-01-27T01:16:03.000Z</time>
      </trkpt>
      <trkpt lat="48.87053" lon="2.03109">
        <ele>188</ele>
        <time>2013-01-27T01:16:10.000Z</time>
      </trkpt>
      <trkpt lat="48.87059" lon="2.03098">
        <ele>188</ele>
        <time>2013-01-27T01:16:18.000Z</time>
      </trkpt>
      <trkpt lat="48.87066" lon="2.03086">
        <ele>188</ele>
        <time>2013-01-27T01:16:26.000Z</time>
      </trkpt>
      <trkpt lat="48.87072" lon="2.03075">
        <ele>187.80000305176</ele>
        <time>2013-01-27T01:16:33.000Z</time>
      </trkpt>
      <trkpt lat="48.8708" lon="2.03062">
        <ele>187.60000610352</ele>
        <time>2013-01-27T01:16:41.000Z</time>
      </trkpt>
      <trkpt lat="48.87083" lon="2.03058">
        <ele>187.60000610352</ele>
        <time>2013-01-27T01:16:44.000Z</time>
      </trkpt>
      <trkpt lat="48.87089" lon="2.03047">
        <ele>187.60000610352</ele>
        <time>2013-01-27T01:16:51.000Z</time>
      </trkpt>
      <trkpt lat="48.87092" lon="2.03039">
        <ele>187.60000610352</ele>
        <time>2013-01-27T01:16:56.000Z</time>
      </trkpt>
      <trkpt lat="48.87098" lon="2.03026">
        <ele>187.60000610352</ele>
        <time>2013-01-27T01:17:04.000Z</time>
      </trkpt>
      <trkpt lat="48.87105" lon="2.03014">
        <ele>187.60000610352</ele>
        <time>2013-01-27T01:17:12.000Z</time>
      </trkpt>
      <trkpt lat="48.8711" lon="2.03005">
        <ele>187.60000610352</ele>
        <time>2013-01-27T01:17:18.000Z</time>
      </trkpt>
      <trkpt lat="48.87118" lon="2.02993">
        <ele>187.80000305176</ele>
        <time>2013-01-27T01:17:26.000Z</time>
      </trkpt>
      <trkpt lat="48.87122" lon="2.02986">
        <ele>188</ele>
        <time>2013-01-27T01:17:30.000Z</time>
      </trkpt>
      <trkpt lat="48.8713" lon="2.0297">
        <ele>188.60000610352</ele>
        <time>2013-01-27T01:17:39.000Z</time>
      </trkpt>
      <trkpt lat="48.87135" lon="2.02961">
        <ele>188.80000305176</ele>
        <time>2013-01-27T01:17:44.000Z</time>
      </trkpt>
      <trkpt lat="48.8714" lon="2.02951">
        <ele>189</ele>
        <time>2013-01-27T01:17:50.000Z</time>
      </trkpt>
      <trkpt lat="48.87146" lon="2.02938">
        <ele>189.39999389648</ele>
        <time>2013-01-27T01:17:57.000Z</time>
      </trkpt>
      <trkpt lat="48.87148" lon="2.02934">
        <ele>189.39999389648</ele>
        <time>2013-01-27T01:17:59.000Z</time>
      </trkpt>
      <trkpt lat="48.87154" lon="2.0292">
        <ele>189.80000305176</ele>
        <time>2013-01-27T01:18:05.000Z</time>
      </trkpt>
      <trkpt lat="48.87155" lon="2.02917">
        <ele>189.80000305176</ele>
        <time>2013-01-27T01:18:06.000Z</time>
      </trkpt>
      <trkpt lat="48.87162" lon="2.02901">
        <ele>189.39999389648</ele>
        <time>2013-01-27T01:18:12.000Z</time>
      </trkpt>
      <trkpt lat="48.87168" lon="2.02887">
        <ele>189.19999694824</ele>
        <time>2013-01-27T01:18:17.000Z</time>
      </trkpt>
      <trkpt lat="48.87171" lon="2.02882">
        <ele>189</ele>
        <time>2013-01-27T01:18:19.000Z</time>
      </trkpt>
      <trkpt lat="48.87174" lon="2.0287">
        <ele>188.80000305176</ele>
        <time>2013-01-27T01:18:23.000Z</time>
      </trkpt>
      <trkpt lat="48.87178" lon="2.02864">
        <ele>188.60000610352</ele>
        <time>2013-01-27T01:18:25.000Z</time>
      </trkpt>
      <trkpt lat="48.87182" lon="2.02856">
        <ele>188.39999389648</ele>
        <time>2013-01-27T01:18:28.000Z</time>
      </trkpt>
      <trkpt lat="48.87189" lon="2.0284">
        <ele>188</ele>
        <time>2013-01-27T01:18:34.000Z</time>
      </trkpt>
      <trkpt lat="48.87193" lon="2.02828">
        <ele>187.80000305176</ele>
        <time>2013-01-27T01:18:38.000Z</time>
      </trkpt>
      <trkpt lat="48.87199" lon="2.02817">
        <ele>187.60000610352</ele>
        <time>2013-01-27T01:18:43.000Z</time>
      </trkpt>
      <trkpt lat="48.872" lon="2.02816">
        <ele>187.60000610352</ele>
        <time>2013-01-27T01:18:44.000Z</time>
      </trkpt>
      <trkpt lat="48.87203" lon="2.02809">
        <ele>187.39999389648</ele>
        <time>2013-01-27T01:18:48.000Z</time>
      </trkpt>
      <trkpt lat="48.87213" lon="2.02796">
        <ele>187.19999694824</ele>
        <time>2013-01-27T01:18:55.000Z</time>
      </trkpt>
      <trkpt lat="48.87214" lon="2.02793">
        <ele>187.19999694824</ele>
        <time>2013-01-27T01:18:56.000Z</time>
      </trkpt>
      <trkpt lat="48.87222" lon="2.02777">
        <ele>187.19999694824</ele>
        <time>2013-01-27T01:19:02.000Z</time>
      </trkpt>
      <trkpt lat="48.87222" lon="2.02774">
        <ele>187.19999694824</ele>
        <time>2013-01-27T01:19:03.000Z</time>
      </trkpt>
      <trkpt lat="48.87233" lon="2.02757">
        <ele>187.39999389648</ele>
        <time>2013-01-27T01:19:10.000Z</time>
      </trkpt>
      <trkpt lat="48.87238" lon="2.02746">
        <ele>187.39999389648</ele>
        <time>2013-01-27T01:19:14.000Z</time>
      </trkpt>
      <trkpt lat="48.87243" lon="2.02733">
        <ele>187.39999389648</ele>
        <time>2013-01-27T01:19:19.000Z</time>
      </trkpt>
      <trkpt lat="48.87253" lon="2.02714">
        <ele>187.60000610352</ele>
        <time>2013-01-27T01:19:26.000Z</time>
      </trkpt>
      <trkpt lat="48.87255" lon="2.02708">
        <ele>187.39999389648</ele>
        <time>2013-01-27T01:19:28.000Z</time>
      </trkpt>
      <trkpt lat="48.87258" lon="2.02703">
        <ele>187.39999389648</ele>
        <time>2013-01-27T01:19:30.000Z</time>
      </trkpt>
      <trkpt lat="48.87264" lon="2.0269">
        <ele>187.19999694824</ele>
        <time>2013-01-27T01:19:35.000Z</time>
      </trkpt>
      <trkpt lat="48.87266" lon="2.02684">
        <ele>187.19999694824</ele>
        <time>2013-01-27T01:19:37.000Z</time>
      </trkpt>
      <trkpt lat="48.87272" lon="2.02674">
        <ele>187</ele>
        <time>2013-01-27T01:19:41.000Z</time>
      </trkpt>
      <trkpt lat="48.87283" lon="2.02655">
        <ele>187.19999694824</ele>
        <time>2013-01-27T01:19:49.000Z</time>
      </trkpt>
      <trkpt lat="48.87285" lon="2.02652">
        <ele>187.19999694824</ele>
        <time>2013-01-27T01:19:50.000Z</time>
      </trkpt>
      <trkpt lat="48.87293" lon="2.02636">
        <ele>187.60000610352</ele>
        <time>2013-01-27T01:19:56.000Z</time>
      </trkpt>
      <trkpt lat="48.87296" lon="2.02628">
        <ele>187.80000305176</ele>
        <time>2013-01-27T01:19:59.000Z</time>
      </trkpt>
      <trkpt lat="48.87302" lon="2.02613">
        <ele>188.39999389648</ele>
        <time>2013-01-27T01:20:04.000Z</time>
      </trkpt>
      <trkpt lat="48.87309" lon="2.02601">
        <ele>188.80000305176</ele>
        <time>2013-01-27T01:20:09.000Z</time>
      </trkpt>
      <trkpt lat="48.8731" lon="2.02598">
        <ele>189</ele>
        <time>2013-01-27T01:20:10.000Z</time>
      </trkpt>
      <trkpt lat="48.87317" lon="2.02587">
        <ele>189.39999389648</ele>
        <time>2013-01-27T01:20:15.000Z</time>
      </trkpt>
      <trkpt lat="48.8732" lon="2.02585">
        <ele>189.60000610352</ele>
        <time>2013-01-27T01:20:16.000Z</time>
      </trkpt>
      <trkpt lat="48.87327" lon="2.02568">
        <ele>189.39999389648</ele>
        <time>2013-01-27T01:20:22.000Z</time>
      </trkpt>
      <trkpt lat="48.87328" lon="2.02566">
        <ele>189.39999389648</ele>
        <time>2013-01-27T01:20:23.000Z</time>
      </trkpt>
      <trkpt lat="48.87337" lon="2.02552">
        <ele>189.19999694824</ele>
        <time>2013-01-27T01:20:29.000Z</time>
      </trkpt>
      <trkpt lat="48.87341" lon="2.02549">
        <ele>189.19999694824</ele>
        <time>2013-01-27T01:20:31.000Z</time>
      </trkpt>
      <trkpt lat="48.87348" lon="2.02542">
        <ele>189.19999694824</ele>
        <time>2013-01-27T01:20:35.000Z</time>
      </trkpt>
      <trkpt lat="48.87357" lon="2.02532">
        <ele>189.19999694824</ele>
        <time>2013-01-27T01:20:41.000Z</time>
      </trkpt>
      <trkpt lat="48.87363" lon="2.02525">
        <ele>189.19999694824</ele>
        <time>2013-01-27T01:20:46.000Z</time>
      </trkpt>
      <trkpt lat="48.87367" lon="2.02521">
        <ele>189.19999694824</ele>
        <time>2013-01-27T01:20:49.000Z</time>
      </trkpt>
      <trkpt lat="48.87376" lon="2.02514">
        <ele>189.19999694824</ele>
        <time>2013-01-27T01:20:55.000Z</time>
      </trkpt>
      <trkpt lat="48.87383" lon="2.02508">
        <ele>189.19999694824</ele>
        <time>2013-01-27T01:21:01.000Z</time>
      </trkpt>
      <trkpt lat="48.8739" lon="2.02505">
        <ele>189.39999389648</ele>
        <time>2013-01-27T01:21:05.000Z</time>
      </trkpt>
      <trkpt lat="48.87398" lon="2.02497">
        <ele>189.39999389648</ele>
        <time>2013-01-27T01:21:11.000Z</time>
      </trkpt>
      <trkpt lat="48.87407" lon="2.02489">
        <ele>189.60000610352</ele>
        <time>2013-01-27T01:21:18.000Z</time>
      </trkpt>
      <trkpt lat="48.87415" lon="2.02482">
        <ele>189.60000610352</ele>
        <time>2013-01-27T01:21:24.000Z</time>
      </trkpt>
      <trkpt lat="48.87424" lon="2.02474">
        <ele>189.80000305176</ele>
        <time>2013-01-27T01:21:31.000Z</time>
      </trkpt>
      <trkpt lat="48.87433" lon="2.02465">
        <ele>189.80000305176</ele>
        <time>2013-01-27T01:21:39.000Z</time>
      </trkpt>
      <trkpt lat="48.87442" lon="2.02457">
        <ele>189.80000305176</ele>
        <time>2013-01-27T01:21:46.000Z</time>
      </trkpt>
      <trkpt lat="48.87451" lon="2.02448">
        <ele>189.80000305176</ele>
        <time>2013-01-27T01:21:53.000Z</time>
      </trkpt>
      <trkpt lat="48.87462" lon="2.02441">
        <ele>189.80000305176</ele>
        <time>2013-01-27T01:22:00.000Z</time>
      </trkpt>
      <trkpt lat="48.8747" lon="2.02434">
        <ele>189.80000305176</ele>
        <time>2013-01-27T01:22:06.000Z</time>
      </trkpt>
      <trkpt lat="48.87477" lon="2.02429">
        <ele>189.80000305176</ele>
        <time>2013-01-27T01:22:11.000Z</time>
      </trkpt>
      <trkpt lat="48.87481" lon="2.02421">
        <ele>189.80000305176</ele>
        <time>2013-01-27T01:22:15.000Z</time>
      </trkpt>
      <trkpt lat="48.87489" lon="2.02411">
        <ele>189.60000610352</ele>
        <time>2013-01-27T01:22:20.000Z</time>
      </trkpt>
      <trkpt lat="48.87494" lon="2.02405">
        <ele>189.39999389648</ele>
        <time>2013-01-27T01:22:24.000Z</time>
      </trkpt>
      <trkpt lat="48.875" lon="2.02402">
        <ele>189.39999389648</ele>
        <time>2013-01-27T01:22:26.000Z</time>
      </trkpt>
      <trkpt lat="48.8751" lon="2.0239">
        <ele>189</ele>
        <time>2013-01-27T01:22:32.000Z</time>
      </trkpt>
      <trkpt lat="48.87514" lon="2.02386">
        <ele>188.80000305176</ele>
        <time>2013-01-27T01:22:34.000Z</time>
      </trkpt>
      <trkpt lat="48.87524" lon="2.02373">
        <ele>188.60000610352</ele>
        <time>2013-01-27T01:22:40.000Z</time>
      </trkpt>
      <trkpt lat="48.8753" lon="2.02367">
        <ele>188.60000610352</ele>
        <time>2013-01-27T01:22:45.000Z</time>
      </trkpt>
      <trkpt lat="48.87538" lon="2.0236">
        <ele>188.60000610352</ele>
        <time>2013-01-27T01:22:51.000Z</time>
      </trkpt>
      <trkpt lat="48.8754" lon="2.02359">
        <ele>188.60000610352</ele>
        <time>2013-01-27T01:22:52.000Z</time>
      </trkpt>
      <trkpt lat="48.87543" lon="2.02357">
        <ele>188.80000305176</ele>
        <time>2013-01-27T01:22:54.000Z</time>
      </trkpt>
      <trkpt lat="48.87552" lon="2.0235">
        <ele>188.80000305176</ele>
        <time>2013-01-27T01:23:01.000Z</time>
      </trkpt>
      <trkpt lat="48.87558" lon="2.02346">
        <ele>189</ele>
        <time>2013-01-27T01:23:04.000Z</time>
      </trkpt>
      <trkpt lat="48.87565" lon="2.02341">
        <ele>189.19999694824</ele>
        <time>2013-01-27T01:23:09.000Z</time>
      </trkpt>
      <trkpt lat="48.87568" lon="2.02338">
        <ele>189.39999389648</ele>
        <time>2013-01-27T01:23:12.000Z</time>
      </trkpt>
      <trkpt lat="48.87572" lon="2.02334">
        <ele>189.39999389648</ele>
        <time>2013-01-27T01:23:16.000Z</time>
      </trkpt>
      <trkpt lat="48.87579" lon="2.02329">
        <ele>189.60000610352</ele>
        <time>2013-01-27T01:23:22.000Z</time>
      </trkpt>
      <trkpt lat="48.87584" lon="2.02324">
        <ele>189.80000305176</ele>
        <time>2013-01-27T01:23:26.000Z</time>
      </trkpt>
      <trkpt lat="48.87593" lon="2.02319">
        <ele>189.39999389648</ele>
        <time>2013-01-27T01:23:32.000Z</time>
      </trkpt>
      <trkpt lat="48.87599" lon="2.02313">
        <ele>189.19999694824</ele>
        <time>2013-01-27T01:23:37.000Z</time>
      </trkpt>
      <trkpt lat="48.876" lon="2.02312">
        <ele>189.19999694824</ele>
        <time>2013-01-27T01:23:38.000Z</time>
      </trkpt>
      <trkpt lat="48.87608" lon="2.02307">
        <ele>189</ele>
        <time>2013-01-27T01:23:44.000Z</time>
      </trkpt>
      <trkpt lat="48.87617" lon="2.02302">
        <ele>189</ele>
        <time>2013-01-27T01:23:51.000Z</time>
      </trkpt>
      <trkpt lat="48.87626" lon="2.02296">
        <ele>188.80000305176</ele>
        <time>2013-01-27T01:23:57.000Z</time>
      </trkpt>
      <trkpt lat="48.8764" lon="2.02286">
        <ele>188.80000305176</ele>
        <time>2013-01-27T01:24:05.000Z</time>
      </trkpt>
      <trkpt lat="48.87643" lon="2.02283">
        <ele>188.80000305176</ele>
        <time>2013-01-27T01:24:07.000Z</time>
      </trkpt>
      <trkpt lat="48.8765" lon="2.02277">
        <ele>189</ele>
        <time>2013-01-27T01:24:12.000Z</time>
      </trkpt>
      <trkpt lat="48.87657" lon="2.02269">
        <ele>189.19999694824</ele>
        <time>2013-01-27T01:24:18.000Z</time>
      </trkpt>
      <trkpt lat="48.87665" lon="2.02261">
        <ele>189.39999389648</ele>
        <time>2013-01-27T01:24:24.000Z</time>
      </trkpt>
      <trkpt lat="48.87673" lon="2.02252">
        <ele>190</ele>
        <time>2013-01-27T01:24:31.000Z</time>
      </trkpt>
      <trkpt lat="48.87675" lon="2.0225">
        <ele>190</ele>
        <time>2013-01-27T01:24:33.000Z</time>
      </trkpt>
      <trkpt lat="48.87685" lon="2.0224">
        <ele>190.39999389648</ele>
        <time>2013-01-27T01:24:39.000Z</time>
      </trkpt>
      <trkpt lat="48.8769" lon="2.02233">
        <ele>190.60000610352</ele>
        <time>2013-01-27T01:24:42.000Z</time>
      </trkpt>
      <trkpt lat="48.87702" lon="2.0222">
        <ele>190.60000610352</ele>
        <time>2013-01-27T01:24:50.000Z</time>
      </trkpt>
      <trkpt lat="48.87705" lon="2.02216">
        <ele>190.60000610352</ele>
        <time>2013-01-27T01:24:53.000Z</time>
      </trkpt>
      <trkpt lat="48.8771" lon="2.02213">
        <ele>190.60000610352</ele>
        <time>2013-01-27T01:24:56.000Z</time>
      </trkpt>
      <trkpt lat="48.87719" lon="2.02207">
        <ele>190.60000610352</ele>
        <time>2013-01-27T01:25:01.000Z</time>
      </trkpt>
      <trkpt lat="48.87726" lon="2.02199">
        <ele>190.60000610352</ele>
        <time>2013-01-27T01:25:07.000Z</time>
      </trkpt>
      <trkpt lat="48.87736" lon="2.0219">
        <ele>190.39999389648</ele>
        <time>2013-01-27T01:25:14.000Z</time>
      </trkpt>
      <trkpt lat="48.87738" lon="2.02188">
        <ele>190.39999389648</ele>
        <time>2013-01-27T01:25:16.000Z</time>
      </trkpt>
      <trkpt lat="48.87746" lon="2.02182">
        <ele>190.19999694824</ele>
        <time>2013-01-27T01:25:20.000Z</time>
      </trkpt>
      <trkpt lat="48.8775" lon="2.02176">
        <ele>190.19999694824</ele>
        <time>2013-01-27T01:25:25.000Z</time>
      </trkpt>
      <trkpt lat="48.87752" lon="2.02172">
        <ele>190</ele>
        <time>2013-01-27T01:25:27.000Z</time>
      </trkpt>
      <trkpt lat="48.87755" lon="2.0217">
        <ele>190</ele>
        <time>2013-01-27T01:25:29.000Z</time>
      </trkpt>
      <trkpt lat="48.87758" lon="2.02167">
        <ele>190</ele>
        <time>2013-01-27T01:25:32.000Z</time>
      </trkpt>
      <trkpt lat="48.87769" lon="2.0216">
        <ele>189.80000305176</ele>
        <time>2013-01-27T01:25:39.000Z</time>
      </trkpt>
      <trkpt lat="48.87772" lon="2.02156">
        <ele>189.80000305176</ele>
        <time>2013-01-27T01:25:42.000Z</time>
      </trkpt>
      <trkpt lat="48.87781" lon="2.02149">
        <ele>189.80000305176</ele>
        <time>2013-01-27T01:25:48.000Z</time>
      </trkpt>
      <trkpt lat="48.87789" lon="2.0214">
        <ele>189.80000305176</ele>
        <time>2013-01-27T01:25:54.000Z</time>
      </trkpt>
      <trkpt lat="48.87797" lon="2.02134">
        <ele>189.80000305176</ele>
        <time>2013-01-27T01:25:59.000Z</time>
      </trkpt>
      <trkpt lat="48.87801" lon="2.02129">
        <ele>189.80000305176</ele>
        <time>2013-01-27T01:26:02.000Z</time>
      </trkpt>
      <trkpt lat="48.87806" lon="2.02126">
        <ele>189.80000305176</ele>
        <time>2013-01-27T01:26:05.000Z</time>
      </trkpt>
      <trkpt lat="48.87811" lon="2.02121">
        <ele>189.80000305176</ele>
        <time>2013-01-27T01:26:09.000Z</time>
      </trkpt>
      <trkpt lat="48.87818" lon="2.02114">
        <ele>189.80000305176</ele>
        <time>2013-01-27T01:26:15.000Z</time>
      </trkpt>
      <trkpt lat="48.87826" lon="2.02107">
        <ele>189.80000305176</ele>
        <time>2013-01-27T01:26:21.000Z</time>
      </trkpt>
      <trkpt lat="48.87832" lon="2.02101">
        <ele>189.80000305176</ele>
        <time>2013-01-27T01:26:26.000Z</time>
      </trkpt>
      <trkpt lat="48.87839" lon="2.02097">
        <ele>189.60000610352</ele>
        <time>2013-01-27T01:26:30.000Z</time>
      </trkpt>
      <trkpt lat="48.8785" lon="2.02086">
        <ele>189.19999694824</ele>
        <time>2013-01-27T01:26:38.000Z</time>
      </trkpt>
      <trkpt lat="48.87858" lon="2.02082">
        <ele>188.80000305176</ele>
        <time>2013-01-27T01:26:42.000Z</time>
      </trkpt>
      <trkpt lat="48.87862" lon="2.02076">
        <ele>188.60000610352</ele>
        <time>2013-01-27T01:26:46.000Z</time>
      </trkpt>
      <trkpt lat="48.87867" lon="2.02068">
        <ele>188.19999694824</ele>
        <time>2013-01-27T01:26:51.000Z</time>
      </trkpt>
      <trkpt lat="48.87875" lon="2.0206">
        <ele>188</ele>
        <time>2013-01-27T01:26:57.000Z</time>
      </trkpt>
      <trkpt lat="48.87876" lon="2.02058">
        <ele>187.80000305176</ele>
        <time>2013-01-27T01:26:58.000Z</time>
      </trkpt>
      <trkpt lat="48.8788" lon="2.02052">
        <ele>187.60000610352</ele>
        <time>2013-01-27T01:27:02.000Z</time>
      </trkpt>
      <trkpt lat="48.87886" lon="2.02046">
        <ele>187.39999389648</ele>
        <time>2013-01-27T01:27:07.000Z</time>
      </trkpt>
      <trkpt lat="48.87892" lon="2.02042">
        <ele>187</ele>
        <time>2013-01-27T01:27:11.000Z</time>
      </trkpt>
      <trkpt lat="48.87906" lon="2.02035">
        <ele>186.39999389648</ele>
        <time>2013-01-27T01:27:18.000Z</time>
      </trkpt>
      <trkpt lat="48.8791" lon="2.02029">
        <ele>186.19999694824</ele>
        <time>2013-01-27T01:27:22.000Z</time>
      </trkpt>
      <trkpt lat="48.87916" lon="2.02024">
        <ele>186</ele>
        <time>2013-01-27T01:27:27.000Z</time>
      </trkpt>
      <trkpt lat="48.87923" lon="2.0202">
        <ele>186</ele>
        <time>2013-01-27T01:27:31.000Z</time>
      </trkpt>
      <trkpt lat="48.87928" lon="2.02015">
        <ele>186</ele>
        <time>2013-01-27T01:27:35.000Z</time>
      </trkpt>
      <trkpt lat="48.87929" lon="2.02013">
        <ele>186</ele>
        <time>2013-01-27T01:27:36.000Z</time>
      </trkpt>
      <trkpt lat="48.87934" lon="2.0201">
        <ele>186</ele>
        <time>2013-01-27T01:27:39.000Z</time>
      </trkpt>
      <trkpt lat="48.8794" lon="2.01998">
        <ele>186</ele>
        <time>2013-01-27T01:27:47.000Z</time>
      </trkpt>
      <trkpt lat="48.8794" lon="2.01996">
        <ele>186</ele>
        <time>2013-01-27T01:27:48.000Z</time>
      </trkpt>
      <trkpt lat="48.87943" lon="2.01993">
        <ele>186</ele>
        <time>2013-01-27T01:27:50.000Z</time>
      </trkpt>
      <trkpt lat="48.87951" lon="2.01983">
        <ele>186.19999694824</ele>
        <time>2013-01-27T01:27:57.000Z</time>
      </trkpt>
      <trkpt lat="48.87954" lon="2.01979">
        <ele>186.39999389648</ele>
        <time>2013-01-27T01:28:00.000Z</time>
      </trkpt>
      <trkpt lat="48.87961" lon="2.01972">
        <ele>186.39999389648</ele>
        <time>2013-01-27T01:28:05.000Z</time>
      </trkpt>
      <trkpt lat="48.87969" lon="2.01966">
        <ele>186.39999389648</ele>
        <time>2013-01-27T01:28:10.000Z</time>
      </trkpt>
      <trkpt lat="48.87973" lon="2.01962">
        <ele>186.39999389648</ele>
        <time>2013-01-27T01:28:13.000Z</time>
      </trkpt>
      <trkpt lat="48.87977" lon="2.01961">
        <ele>186.19999694824</ele>
        <time>2013-01-27T01:28:15.000Z</time>
      </trkpt>
      <trkpt lat="48.8799" lon="2.01953">
        <ele>186.19999694824</ele>
        <time>2013-01-27T01:28:22.000Z</time>
      </trkpt>
      <trkpt lat="48.87993" lon="2.01949">
        <ele>186</ele>
        <time>2013-01-27T01:28:25.000Z</time>
      </trkpt>
      <trkpt lat="48.87997" lon="2.01944">
        <ele>186</ele>
        <time>2013-01-27T01:28:28.000Z</time>
      </trkpt>
      <trkpt lat="48.88006" lon="2.01937">
        <ele>185.80000305176</ele>
        <time>2013-01-27T01:28:34.000Z</time>
      </trkpt>
      <trkpt lat="48.88011" lon="2.01932">
        <ele>185.80000305176</ele>
        <time>2013-01-27T01:28:38.000Z</time>
      </trkpt>
      <trkpt lat="48.8802" lon="2.01925">
        <ele>185.39999389648</ele>
        <time>2013-01-27T01:28:44.000Z</time>
      </trkpt>
      <trkpt lat="48.88025" lon="2.01917">
        <ele>185.39999389648</ele>
        <time>2013-01-27T01:28:49.000Z</time>
      </trkpt>
      <trkpt lat="48.88029" lon="2.01911">
        <ele>185.19999694824</ele>
        <time>2013-01-27T01:28:52.000Z</time>
      </trkpt>
      <trkpt lat="48.88035" lon="2.01903">
        <ele>185</ele>
        <time>2013-01-27T01:28:58.000Z</time>
      </trkpt>
      <trkpt lat="48.88044" lon="2.01892">
        <ele>184.80000305176</ele>
        <time>2013-01-27T01:29:06.000Z</time>
      </trkpt>
      <trkpt lat="48.8805" lon="2.01883">
        <ele>184.60000610352</ele>
        <time>2013-01-27T01:29:12.000Z</time>
      </trkpt>
      <trkpt lat="48.88059" lon="2.01875">
        <ele>184.19999694824</ele>
        <time>2013-01-27T01:29:19.000Z</time>
      </trkpt>
      <trkpt lat="48.88066" lon="2.01869">
        <ele>184</ele>
        <time>2013-01-27T01:29:25.000Z</time>
      </trkpt>
      <trkpt lat="48.88073" lon="2.01868">
        <ele>183.80000305176</ele>
        <time>2013-01-27T01:29:30.000Z</time>
      </trkpt>
      <trkpt lat="48.88081" lon="2.01875">
        <ele>183.39999389648</ele>
        <time>2013-01-27T01:29:37.000Z</time>
      </trkpt>
      <trkpt lat="48.88086" lon="2.01878">
        <ele>183.39999389648</ele>
        <time>2013-01-27T01:29:41.000Z</time>
      </trkpt>
      <trkpt lat="48.88097" lon="2.01887">
        <ele>183.19999694824</ele>
        <time>2013-01-27T01:29:48.000Z</time>
      </trkpt>
      <trkpt lat="48.88098" lon="2.01889">
        <ele>183.19999694824</ele>
        <time>2013-01-27T01:29:49.000Z</time>
      </trkpt>
      <trkpt lat="48.88109" lon="2.01897">
        <ele>183.19999694824</ele>
        <time>2013-01-27T01:29:55.000Z</time>
      </trkpt>
      <trkpt lat="48.88117" lon="2.01905">
        <ele>183</ele>
        <time>2013-01-27T01:30:00.000Z</time>
      </trkpt>
      <trkpt lat="48.88129" lon="2.01913">
        <ele>182.80000305176</ele>
        <time>2013-01-27T01:30:07.000Z</time>
      </trkpt>
      <trkpt lat="48.88137" lon="2.01921">
        <ele>182.80000305176</ele>
        <time>2013-01-27T01:30:13.000Z</time>
      </trkpt>
      <trkpt lat="48.88146" lon="2.01929">
        <ele>182.80000305176</ele>
        <time>2013-01-27T01:30:20.000Z</time>
      </trkpt>
      <trkpt lat="48.88155" lon="2.01937">
        <ele>183</ele>
        <time>2013-01-27T01:30:27.000Z</time>
      </trkpt>
      <trkpt lat="48.88164" lon="2.01947">
        <ele>183</ele>
        <time>2013-01-27T01:30:34.000Z</time>
      </trkpt>
      <trkpt lat="48.88174" lon="2.01955">
        <ele>182.39999389648</ele>
        <time>2013-01-27T01:30:41.000Z</time>
      </trkpt>
      <trkpt lat="48.88181" lon="2.01961">
        <ele>181.60000610352</ele>
        <time>2013-01-27T01:30:47.000Z</time>
      </trkpt>
      <trkpt lat="48.88188" lon="2.01961">
        <ele>180.60000610352</ele>
        <time>2013-01-27T01:30:53.000Z</time>
      </trkpt>
      <trkpt lat="48.88192" lon="2.01956">
        <ele>179.80000305176</ele>
        <time>2013-01-27T01:30:57.000Z</time>
      </trkpt>
      <trkpt lat="48.88194" lon="2.01947">
        <ele>179.19999694824</ele>
        <time>2013-01-27T01:31:02.000Z</time>
      </trkpt>
      <trkpt lat="48.88197" lon="2.0194">
        <ele>178.60000610352</ele>
        <time>2013-01-27T01:31:06.000Z</time>
      </trkpt>
      <trkpt lat="48.88197" lon="2.0192">
        <ele>178</ele>
        <time>2013-01-27T01:31:15.000Z</time>
      </trkpt>
      <trkpt lat="48.88198" lon="2.01905">
        <ele>178</ele>
        <time>2013-01-27T01:31:21.000Z</time>
      </trkpt>
      <trkpt lat="48.88194" lon="2.01882">
        <ele>179</ele>
        <time>2013-01-27T01:31:27.000Z</time>
      </trkpt>
      <trkpt lat="48.88195" lon="2.01862">
        <ele>179.19999694824</ele>
        <time>2013-01-27T01:31:33.000Z</time>
      </trkpt>
      <trkpt lat="48.88198" lon="2.01842">
        <ele>179.39999389648</ele>
        <time>2013-01-27T01:31:39.000Z</time>
      </trkpt>
      <trkpt lat="48.88201" lon="2.01818">
        <ele>179.80000305176</ele>
        <time>2013-01-27T01:31:46.000Z</time>
      </trkpt>
      <trkpt lat="48.88202" lon="2.01812">
        <ele>179.80000305176</ele>
        <time>2013-01-27T01:31:48.000Z</time>
      </trkpt>
      <trkpt lat="48.88205" lon="2.01793">
        <ele>180</ele>
        <time>2013-01-27T01:31:54.000Z</time>
      </trkpt>
      <trkpt lat="48.88209" lon="2.01776">
        <ele>180.19999694824</ele>
        <time>2013-01-27T01:31:59.000Z</time>
      </trkpt>
      <trkpt lat="48.88215" lon="2.01759">
        <ele>180.39999389648</ele>
        <time>2013-01-27T01:32:05.000Z</time>
      </trkpt>
      <trkpt lat="48.88222" lon="2.01744">
        <ele>180.60000610352</ele>
        <time>2013-01-27T01:32:11.000Z</time>
      </trkpt>
      <trkpt lat="48.88227" lon="2.01735">
        <ele>181</ele>
        <time>2013-01-27T01:32:17.000Z</time>
      </trkpt>
      <trkpt lat="48.88234" lon="2.01727">
        <ele>181.19999694824</ele>
        <time>2013-01-27T01:32:24.000Z</time>
      </trkpt>
      <trkpt lat="48.88242" lon="2.0172">
        <ele>181.39999389648</ele>
        <time>2013-01-27T01:32:31.000Z</time>
      </trkpt>
      <trkpt lat="48.88248" lon="2.01714">
        <ele>181.60000610352</ele>
        <time>2013-01-27T01:32:37.000Z</time>
      </trkpt>
      <trkpt lat="48.88257" lon="2.01708">
        <ele>181.80000305176</ele>
        <time>2013-01-27T01:32:42.000Z</time>
      </trkpt>
      <trkpt lat="48.88267" lon="2.01703">
        <ele>181.60000610352</ele>
        <time>2013-01-27T01:32:49.000Z</time>
      </trkpt>
      <trkpt lat="48.88277" lon="2.01699">
        <ele>181.60000610352</ele>
        <time>2013-01-27T01:32:56.000Z</time>
      </trkpt>
      <trkpt lat="48.88293" lon="2.01693">
        <ele>181.19999694824</ele>
        <time>2013-01-27T01:33:07.000Z</time>
      </trkpt>
      <trkpt lat="48.88316" lon="2.01687">
        <ele>180.60000610352</ele>
        <time>2013-01-27T01:33:22.000Z</time>
      </trkpt>
      <trkpt lat="48.88327" lon="2.01685">
        <ele>180.19999694824</ele>
        <time>2013-01-27T01:33:27.000Z</time>
      </trkpt>
      <trkpt lat="48.88342" lon="2.01681">
        <ele>179.80000305176</ele>
        <time>2013-01-27T01:33:34.000Z</time>
      </trkpt>
      <trkpt lat="48.88353" lon="2.01676">
        <ele>179.80000305176</ele>
        <time>2013-01-27T01:33:40.000Z</time>
      </trkpt>
      <trkpt lat="48.88355" lon="2.01675">
        <ele>179.60000610352</ele>
        <time>2013-01-27T01:33:41.000Z</time>
      </trkpt>
      <trkpt lat="48.88362" lon="2.01668">
        <ele>179.80000305176</ele>
        <time>2013-01-27T01:33:47.000Z</time>
      </trkpt>
      <trkpt lat="48.88364" lon="2.01667">
        <ele>179.80000305176</ele>
        <time>2013-01-27T01:33:48.000Z</time>
      </trkpt>
      <trkpt lat="48.88371" lon="2.01657">
        <ele>179.60000610352</ele>
        <time>2013-01-27T01:33:55.000Z</time>
      </trkpt>
      <trkpt lat="48.88372" lon="2.01654">
        <ele>179.60000610352</ele>
        <time>2013-01-27T01:33:56.000Z</time>
      </trkpt>
      <trkpt lat="48.88376" lon="2.01647">
        <ele>179.39999389648</ele>
        <time>2013-01-27T01:33:59.000Z</time>
      </trkpt>
      <trkpt lat="48.88386" lon="2.01629">
        <ele>179.19999694824</ele>
        <time>2013-01-27T01:34:06.000Z</time>
      </trkpt>
      <trkpt lat="48.88402" lon="2.01596">
        <ele>178.60000610352</ele>
        <time>2013-01-27T01:34:18.000Z</time>
      </trkpt>
      <trkpt lat="48.88407" lon="2.01582">
        <ele>178.39999389648</ele>
        <time>2013-01-27T01:34:23.000Z</time>
      </trkpt>
      <trkpt lat="48.88414" lon="2.01565">
        <ele>178.39999389648</ele>
        <time>2013-01-27T01:34:29.000Z</time>
      </trkpt>
      <trkpt lat="48.88422" lon="2.01548">
        <ele>178.39999389648</ele>
        <time>2013-01-27T01:34:35.000Z</time>
      </trkpt>
      <trkpt lat="48.8843" lon="2.01527">
        <ele>178.60000610352</ele>
        <time>2013-01-27T01:34:42.000Z</time>
      </trkpt>
      <trkpt lat="48.88436" lon="2.01514">
        <ele>178.60000610352</ele>
        <time>2013-01-27T01:34:47.000Z</time>
      </trkpt>
      <trkpt lat="48.88442" lon="2.01502">
        <ele>178.60000610352</ele>
        <time>2013-01-27T01:34:52.000Z</time>
      </trkpt>
      <trkpt lat="48.88451" lon="2.01484">
        <ele>178.39999389648</ele>
        <time>2013-01-27T01:34:59.000Z</time>
      </trkpt>
      <trkpt lat="48.88463" lon="2.01472">
        <ele>178</ele>
        <time>2013-01-27T01:35:06.000Z</time>
      </trkpt>
      <trkpt lat="48.88486" lon="2.01454">
        <ele>176.80000305176</ele>
        <time>2013-01-27T01:35:18.000Z</time>
      </trkpt>
      <trkpt lat="48.88498" lon="2.01445">
        <ele>176</ele>
        <time>2013-01-27T01:35:24.000Z</time>
      </trkpt>
      <trkpt lat="48.88512" lon="2.01431">
        <ele>174.60000610352</ele>
        <time>2013-01-27T01:35:31.000Z</time>
      </trkpt>
      <trkpt lat="48.8852" lon="2.0142">
        <ele>173.60000610352</ele>
        <time>2013-01-27T01:35:36.000Z</time>
      </trkpt>
      <trkpt lat="48.88528" lon="2.01411">
        <ele>172.60000610352</ele>
        <time>2013-01-27T01:35:41.000Z</time>
      </trkpt>
      <trkpt lat="48.88538" lon="2.01401">
        <ele>171.39999389648</ele>
        <time>2013-01-27T01:35:47.000Z</time>
      </trkpt>
      <trkpt lat="48.88548" lon="2.0139">
        <ele>170.60000610352</ele>
        <time>2013-01-27T01:35:53.000Z</time>
      </trkpt>
      <trkpt lat="48.88552" lon="2.01383">
        <ele>170.19999694824</ele>
        <time>2013-01-27T01:35:56.000Z</time>
      </trkpt>
      <trkpt lat="48.88558" lon="2.01375">
        <ele>169.80000305176</ele>
        <time>2013-01-27T01:36:00.000Z</time>
      </trkpt>
      <trkpt lat="48.88564" lon="2.01364">
        <ele>169.60000610352</ele>
        <time>2013-01-27T01:36:05.000Z</time>
      </trkpt>
      <trkpt lat="48.88575" lon="2.01351">
        <ele>169</ele>
        <time>2013-01-27T01:36:12.000Z</time>
      </trkpt>
      <trkpt lat="48.88575" lon="2.01349">
        <ele>169</ele>
        <time>2013-01-27T01:36:13.000Z</time>
      </trkpt>
      <trkpt lat="48.88593" lon="2.01321">
        <ele>169.39999389648</ele>
        <time>2013-01-27T01:36:25.000Z</time>
      </trkpt>
      <trkpt lat="48.88603" lon="2.01299">
        <ele>170.39999389648</ele>
        <time>2013-01-27T01:36:33.000Z</time>
      </trkpt>
      <trkpt lat="48.88605" lon="2.01293">
        <ele>170.60000610352</ele>
        <time>2013-01-27T01:36:35.000Z</time>
      </trkpt>
      <trkpt lat="48.88606" lon="2.01279">
        <ele>171.39999389648</ele>
        <time>2013-01-27T01:36:40.000Z</time>
      </trkpt>
      <trkpt lat="48.88607" lon="2.01276">
        <ele>171.60000610352</ele>
        <time>2013-01-27T01:36:41.000Z</time>
      </trkpt>
      <trkpt lat="48.88607" lon="2.01273">
        <ele>171.80000305176</ele>
        <time>2013-01-27T01:36:42.000Z</time>
      </trkpt>
      <trkpt lat="48.8861" lon="2.01253">
        <ele>172.80000305176</ele>
        <time>2013-01-27T01:36:49.000Z</time>
      </trkpt>
      <trkpt lat="48.8861" lon="2.01241">
        <ele>173.60000610352</ele>
        <time>2013-01-27T01:36:54.000Z</time>
      </trkpt>
      <trkpt lat="48.88615" lon="2.01229">
        <ele>174.19999694824</ele>
        <time>2013-01-27T01:36:58.000Z</time>
      </trkpt>
      <trkpt lat="48.88617" lon="2.01217">
        <ele>174.80000305176</ele>
        <time>2013-01-27T01:37:03.000Z</time>
      </trkpt>
      <trkpt lat="48.88613" lon="2.01199">
        <ele>176.39999389648</ele>
        <time>2013-01-27T01:37:07.000Z</time>
      </trkpt>
      <trkpt lat="48.88611" lon="2.01186">
        <ele>177.60000610352</ele>
        <time>2013-01-27T01:37:11.000Z</time>
      </trkpt>
      <trkpt lat="48.88612" lon="2.01179">
        <ele>178</ele>
        <time>2013-01-27T01:37:14.000Z</time>
      </trkpt>
      <trkpt lat="48.88613" lon="2.01176">
        <ele>178</ele>
        <time>2013-01-27T01:37:15.000Z</time>
      </trkpt>
      <trkpt lat="48.88616" lon="2.0117">
        <ele>178.39999389648</ele>
        <time>2013-01-27T01:37:17.000Z</time>
      </trkpt>
      <trkpt lat="48.88622" lon="2.01159">
        <ele>178.39999389648</ele>
        <time>2013-01-27T01:37:22.000Z</time>
      </trkpt>
      <trkpt lat="48.88622" lon="2.01149">
        <ele>178.60000610352</ele>
        <time>2013-01-27T01:37:26.000Z</time>
      </trkpt>
      <trkpt lat="48.88624" lon="2.01143">
        <ele>178.80000305176</ele>
        <time>2013-01-27T01:37:28.000Z</time>
      </trkpt>
      <trkpt lat="48.88623" lon="2.01124">
        <ele>179.19999694824</ele>
        <time>2013-01-27T01:37:35.000Z</time>
      </trkpt>
      <trkpt lat="48.88626" lon="2.01112">
        <ele>179.60000610352</ele>
        <time>2013-01-27T01:37:39.000Z</time>
      </trkpt>
      <trkpt lat="48.88625" lon="2.01096">
        <ele>180</ele>
        <time>2013-01-27T01:37:44.000Z</time>
      </trkpt>
      <trkpt lat="48.88624" lon="2.01083">
        <ele>180.39999389648</ele>
        <time>2013-01-27T01:37:48.000Z</time>
      </trkpt>
      <trkpt lat="48.88624" lon="2.0108">
        <ele>180.39999389648</ele>
        <time>2013-01-27T01:37:49.000Z</time>
      </trkpt>
      <trkpt lat="48.88624" lon="2.01054">
        <ele>179.80000305176</ele>
        <time>2013-01-27T01:37:57.000Z</time>
      </trkpt>
      <trkpt lat="48.88624" lon="2.01034">
        <ele>179.19999694824</ele>
        <time>2013-01-27T01:38:03.000Z</time>
      </trkpt>
      <trkpt lat="48.88628" lon="2.01017">
        <ele>178.60000610352</ele>
        <time>2013-01-27T01:38:09.000Z</time>
      </trkpt>
      <trkpt lat="48.88632" lon="2.01009">
        <ele>178.39999389648</ele>
        <time>2013-01-27T01:38:12.000Z</time>
      </trkpt>
      <trkpt lat="48.88638" lon="2.00991">
        <ele>178</ele>
        <time>2013-01-27T01:38:19.000Z</time>
      </trkpt>
      <trkpt lat="48.88645" lon="2.00979">
        <ele>177.60000610352</ele>
        <time>2013-01-27T01:38:24.000Z</time>
      </trkpt>
      <trkpt lat="48.88654" lon="2.00962">
        <ele>177.39999389648</ele>
        <time>2013-01-27T01:38:31.000Z</time>
      </trkpt>
      <trkpt lat="48.88663" lon="2.00944">
        <ele>177</ele>
        <time>2013-01-27T01:38:38.000Z</time>
      </trkpt>
      <trkpt lat="48.88668" lon="2.00932">
        <ele>176.80000305176</ele>
        <time>2013-01-27T01:38:43.000Z</time>
      </trkpt>
      <trkpt lat="48.88674" lon="2.00916">
        <ele>176.80000305176</ele>
        <time>2013-01-27T01:38:49.000Z</time>
      </trkpt>
      <trkpt lat="48.88675" lon="2.00911">
        <ele>177</ele>
        <time>2013-01-27T01:38:51.000Z</time>
      </trkpt>
      <trkpt lat="48.88682" lon="2.00895">
        <ele>177.19999694824</ele>
        <time>2013-01-27T01:38:57.000Z</time>
      </trkpt>
      <trkpt lat="48.88689" lon="2.00884">
        <ele>177.39999389648</ele>
        <time>2013-01-27T01:39:02.000Z</time>
      </trkpt>
      <trkpt lat="48.88695" lon="2.0087">
        <ele>177.39999389648</ele>
        <time>2013-01-27T01:39:07.000Z</time>
      </trkpt>
      <trkpt lat="48.88701" lon="2.00853">
        <ele>177.60000610352</ele>
        <time>2013-01-27T01:39:13.000Z</time>
      </trkpt>
      <trkpt lat="48.88707" lon="2.00836">
        <ele>177.39999389648</ele>
        <time>2013-01-27T01:39:19.000Z</time>
      </trkpt>
      <trkpt lat="48.88708" lon="2.00833">
        <ele>177.39999389648</ele>
        <time>2013-01-27T01:39:20.000Z</time>
      </trkpt>
      <trkpt lat="48.88715" lon="2.00814">
        <ele>177</ele>
        <time>2013-01-27T01:39:27.000Z</time>
      </trkpt>
      <trkpt lat="48.88722" lon="2.00797">
        <ele>176.80000305176</ele>
        <time>2013-01-27T01:39:33.000Z</time>
      </trkpt>
      <trkpt lat="48.88723" lon="2.00793">
        <ele>176.80000305176</ele>
        <time>2013-01-27T01:39:34.000Z</time>
      </trkpt>
      <trkpt lat="48.88727" lon="2.00782">
        <ele>176.60000610352</ele>
        <time>2013-01-27T01:39:38.000Z</time>
      </trkpt>
      <trkpt lat="48.88736" lon="2.00762">
        <ele>176.39999389648</ele>
        <time>2013-01-27T01:39:45.000Z</time>
      </trkpt>
      <trkpt lat="48.88741" lon="2.00748">
        <ele>176.19999694824</ele>
        <time>2013-01-27T01:39:50.000Z</time>
      </trkpt>
      <trkpt lat="48.88749" lon="2.00732">
        <ele>175.80000305176</ele>
        <time>2013-01-27T01:39:56.000Z</time>
      </trkpt>
      <trkpt lat="48.8875" lon="2.00729">
        <ele>175.60000610352</ele>
        <time>2013-01-27T01:39:57.000Z</time>
      </trkpt>
      <trkpt lat="48.88761" lon="2.00708">
        <ele>175.39999389648</ele>
        <time>2013-01-27T01:40:05.000Z</time>
      </trkpt>
      <trkpt lat="48.88768" lon="2.00692">
        <ele>175.39999389648</ele>
        <time>2013-01-27T01:40:11.000Z</time>
      </trkpt>
      <trkpt lat="48.88774" lon="2.00675">
        <ele>175.39999389648</ele>
        <time>2013-01-27T01:40:17.000Z</time>
      </trkpt>
      <trkpt lat="48.88777" lon="2.00665">
        <ele>175.60000610352</ele>
        <time>2013-01-27T01:40:21.000Z</time>
      </trkpt>
      <trkpt lat="48.88786" lon="2.00649">
        <ele>175.80000305176</ele>
        <time>2013-01-27T01:40:27.000Z</time>
      </trkpt>
      <trkpt lat="48.8879" lon="2.00636">
        <ele>175.80000305176</ele>
        <time>2013-01-27T01:40:32.000Z</time>
      </trkpt>
      <trkpt lat="48.88797" lon="2.00617">
        <ele>176</ele>
        <time>2013-01-27T01:40:39.000Z</time>
      </trkpt>
      <trkpt lat="48.88802" lon="2.00602">
        <ele>176.19999694824</ele>
        <time>2013-01-27T01:40:44.000Z</time>
      </trkpt>
      <trkpt lat="48.88807" lon="2.00585">
        <ele>176.19999694824</ele>
        <time>2013-01-27T01:40:50.000Z</time>
      </trkpt>
      <trkpt lat="48.88813" lon="2.00575">
        <ele>176.19999694824</ele>
        <time>2013-01-27T01:40:54.000Z</time>
      </trkpt>
      <trkpt lat="48.88815" lon="2.00569">
        <ele>176.19999694824</ele>
        <time>2013-01-27T01:40:56.000Z</time>
      </trkpt>
      <trkpt lat="48.88819" lon="2.00555">
        <ele>176</ele>
        <time>2013-01-27T01:41:01.000Z</time>
      </trkpt>
      <trkpt lat="48.88824" lon="2.00539">
        <ele>175.80000305176</ele>
        <time>2013-01-27T01:41:07.000Z</time>
      </trkpt>
      <trkpt lat="48.88828" lon="2.00524">
        <ele>175.39999389648</ele>
        <time>2013-01-27T01:41:12.000Z</time>
      </trkpt>
      <trkpt lat="48.8883" lon="2.00521">
        <ele>175.39999389648</ele>
        <time>2013-01-27T01:41:13.000Z</time>
      </trkpt>
      <trkpt lat="48.88836" lon="2.00511">
        <ele>175.19999694824</ele>
        <time>2013-01-27T01:41:17.000Z</time>
      </trkpt>
      <trkpt lat="48.88844" lon="2.00489">
        <ele>175.60000610352</ele>
        <time>2013-01-27T01:41:24.000Z</time>
      </trkpt>
      <trkpt lat="48.88846" lon="2.00486">
        <ele>175.80000305176</ele>
        <time>2013-01-27T01:41:25.000Z</time>
      </trkpt>
      <trkpt lat="48.88854" lon="2.00469">
        <ele>176.19999694824</ele>
        <time>2013-01-27T01:41:31.000Z</time>
      </trkpt>
      <trkpt lat="48.88862" lon="2.00452">
        <ele>176.60000610352</ele>
        <time>2013-01-27T01:41:37.000Z</time>
      </trkpt>
      <trkpt lat="48.88868" lon="2.00435">
        <ele>176.80000305176</ele>
        <time>2013-01-27T01:41:43.000Z</time>
      </trkpt>
      <trkpt lat="48.88871" lon="2.00426">
        <ele>176.80000305176</ele>
        <time>2013-01-27T01:41:46.000Z</time>
      </trkpt>
      <trkpt lat="48.88876" lon="2.00409">
        <ele>176.80000305176</ele>
        <time>2013-01-27T01:41:52.000Z</time>
      </trkpt>
      <trkpt lat="48.88878" lon="2.00407">
        <ele>176.80000305176</ele>
        <time>2013-01-27T01:41:53.000Z</time>
      </trkpt>
      <trkpt lat="48.88886" lon="2.00392">
        <ele>176.80000305176</ele>
        <time>2013-01-27T01:41:59.000Z</time>
      </trkpt>
      <trkpt lat="48.88896" lon="2.00371">
        <ele>176.39999389648</ele>
        <time>2013-01-27T01:42:07.000Z</time>
      </trkpt>
      <trkpt lat="48.88898" lon="2.00369">
        <ele>176.39999389648</ele>
        <time>2013-01-27T01:42:08.000Z</time>
      </trkpt>
      <trkpt lat="48.88902" lon="2.00362">
        <ele>176.39999389648</ele>
        <time>2013-01-27T01:42:11.000Z</time>
      </trkpt>
      <trkpt lat="48.88906" lon="2.00341">
        <ele>176.19999694824</ele>
        <time>2013-01-27T01:42:17.000Z</time>
      </trkpt>
      <trkpt lat="48.88907" lon="2.00339">
        <ele>176</ele>
        <time>2013-01-27T01:42:18.000Z</time>
      </trkpt>
      <trkpt lat="48.88914" lon="2.00326">
        <ele>175.80000305176</ele>
        <time>2013-01-27T01:42:23.000Z</time>
      </trkpt>
      <trkpt lat="48.88923" lon="2.00314">
        <ele>175.39999389648</ele>
        <time>2013-01-27T01:42:28.000Z</time>
      </trkpt>
      <trkpt lat="48.88926" lon="2.00305">
        <ele>175.19999694824</ele>
        <time>2013-01-27T01:42:31.000Z</time>
      </trkpt>
      <trkpt lat="48.88935" lon="2.00279">
        <ele>174.39999389648</ele>
        <time>2013-01-27T01:42:39.000Z</time>
      </trkpt>
      <trkpt lat="48.88941" lon="2.00263">
        <ele>174</ele>
        <time>2013-01-27T01:42:44.000Z</time>
      </trkpt>
      <trkpt lat="48.88942" lon="2.00261">
        <ele>173.80000305176</ele>
        <time>2013-01-27T01:42:45.000Z</time>
      </trkpt>
      <trkpt lat="48.88949" lon="2.00242">
        <ele>173.39999389648</ele>
        <time>2013-01-27T01:42:51.000Z</time>
      </trkpt>
      <trkpt lat="48.8895" lon="2.0024">
        <ele>173.19999694824</ele>
        <time>2013-01-27T01:42:52.000Z</time>
      </trkpt>
      <trkpt lat="48.88955" lon="2.00229">
        <ele>173</ele>
        <time>2013-01-27T01:42:56.000Z</time>
      </trkpt>
      <trkpt lat="48.88959" lon="2.00207">
        <ele>172.60000610352</ele>
        <time>2013-01-27T01:43:03.000Z</time>
      </trkpt>
      <trkpt lat="48.88956" lon="2.0019">
        <ele>172.60000610352</ele>
        <time>2013-01-27T01:43:08.000Z</time>
      </trkpt>
      <trkpt lat="48.88951" lon="2.00179">
        <ele>172.80000305176</ele>
        <time>2013-01-27T01:43:12.000Z</time>
      </trkpt>
      <trkpt lat="48.88947" lon="2.00163">
        <ele>173</ele>
        <time>2013-01-27T01:43:18.000Z</time>
      </trkpt>
      <trkpt lat="48.88944" lon="2.00153">
        <ele>172.80000305176</ele>
        <time>2013-01-27T01:43:21.000Z</time>
      </trkpt>
      <trkpt lat="48.88942" lon="2.00137">
        <ele>172.60000610352</ele>
        <time>2013-01-27T01:43:26.000Z</time>
      </trkpt>
      <trkpt lat="48.88937" lon="2.00122">
        <ele>172.39999389648</ele>
        <time>2013-01-27T01:43:31.000Z</time>
      </trkpt>
      <trkpt lat="48.88934" lon="2.00108">
        <ele>172</ele>
        <time>2013-01-27T01:43:35.000Z</time>
      </trkpt>
      <trkpt lat="48.88932" lon="2.00092">
        <ele>171.60000610352</ele>
        <time>2013-01-27T01:43:40.000Z</time>
      </trkpt>
      <trkpt lat="48.88931" lon="2.00089">
        <ele>171.60000610352</ele>
        <time>2013-01-27T01:43:41.000Z</time>
      </trkpt>
      <trkpt lat="48.8893" lon="2.00072">
        <ele>171.39999389648</ele>
        <time>2013-01-27T01:43:46.000Z</time>
      </trkpt>
      <trkpt lat="48.8893" lon="2.00058">
        <ele>171.60000610352</ele>
        <time>2013-01-27T01:43:51.000Z</time>
      </trkpt>
      <trkpt lat="48.88927" lon="2.00042">
        <ele>171.60000610352</ele>
        <time>2013-01-27T01:43:56.000Z</time>
      </trkpt>
      <trkpt lat="48.88926" lon="2.00036">
        <ele>171.60000610352</ele>
        <time>2013-01-27T01:43:58.000Z</time>
      </trkpt>
      <trkpt lat="48.88926" lon="2.00015">
        <ele>171.80000305176</ele>
        <time>2013-01-27T01:44:05.000Z</time>
      </trkpt>
      <trkpt lat="48.88926" lon="2.00012">
        <ele>171.80000305176</ele>
        <time>2013-01-27T01:44:07.000Z</time>
      </trkpt>
      <trkpt lat="48.88923" lon="2.00003">
        <ele>171.80000305176</ele>
        <time>2013-01-27T01:44:11.000Z</time>
      </trkpt>
      <trkpt lat="48.8892" lon="1.99998">
        <ele>171.80000305176</ele>
        <time>2013-01-27T01:44:13.000Z</time>
      </trkpt>
      <trkpt lat="48.88918" lon="1.99986">
        <ele>171.80000305176</ele>
        <time>2013-01-27T01:44:18.000Z</time>
      </trkpt>
      <trkpt lat="48.88917" lon="1.99981">
        <ele>171.80000305176</ele>
        <time>2013-01-27T01:44:20.000Z</time>
      </trkpt>
      <trkpt lat="48.88915" lon="1.99964">
        <ele>172</ele>
        <time>2013-01-27T01:44:28.000Z</time>
      </trkpt>
      <trkpt lat="48.88914" lon="1.99961">
        <ele>172</ele>
        <time>2013-01-27T01:44:29.000Z</time>
      </trkpt>
      <trkpt lat="48.88912" lon="1.99951">
        <ele>172.60000610352</ele>
        <time>2013-01-27T01:44:33.000Z</time>
      </trkpt>
      <trkpt lat="48.88912" lon="1.99947">
        <ele>172.60000610352</ele>
        <time>2013-01-27T01:44:35.000Z</time>
      </trkpt>
      <trkpt lat="48.88912" lon="1.99935">
        <ele>172.80000305176</ele>
        <time>2013-01-27T01:44:40.000Z</time>
      </trkpt>
      <trkpt lat="48.88906" lon="1.99921">
        <ele>173</ele>
        <time>2013-01-27T01:44:46.000Z</time>
      </trkpt>
      <trkpt lat="48.88905" lon="1.99911">
        <ele>173.19999694824</ele>
        <time>2013-01-27T01:44:51.000Z</time>
      </trkpt>
      <trkpt lat="48.88905" lon="1.99909">
        <ele>173.19999694824</ele>
        <time>2013-01-27T01:44:52.000Z</time>
      </trkpt>
      <trkpt lat="48.88901" lon="1.9989">
        <ele>173.39999389648</ele>
        <time>2013-01-27T01:45:00.000Z</time>
      </trkpt>
      <trkpt lat="48.88901" lon="1.99888">
        <ele>173.39999389648</ele>
        <time>2013-01-27T01:45:01.000Z</time>
      </trkpt>
      <trkpt lat="48.88897" lon="1.99877">
        <ele>173.60000610352</ele>
        <time>2013-01-27T01:45:06.000Z</time>
      </trkpt>
      <trkpt lat="48.88894" lon="1.99856">
        <ele>173.80000305176</ele>
        <time>2013-01-27T01:45:15.000Z</time>
      </trkpt>
      <trkpt lat="48.88891" lon="1.99842">
        <ele>174.19999694824</ele>
        <time>2013-01-27T01:45:21.000Z</time>
      </trkpt>
      <trkpt lat="48.88889" lon="1.99832">
        <ele>174.19999694824</ele>
        <time>2013-01-27T01:45:26.000Z</time>
      </trkpt>
      <trkpt lat="48.88886" lon="1.99817">
        <ele>174.39999389648</ele>
        <time>2013-01-27T01:45:33.000Z</time>
      </trkpt>
      <trkpt lat="48.88883" lon="1.99801">
        <ele>174.39999389648</ele>
        <time>2013-01-27T01:45:40.000Z</time>
      </trkpt>
      <trkpt lat="48.88882" lon="1.99798">
        <ele>174.60000610352</ele>
        <time>2013-01-27T01:45:41.000Z</time>
      </trkpt>
      <trkpt lat="48.88879" lon="1.99786">
        <ele>174.60000610352</ele>
        <time>2013-01-27T01:45:46.000Z</time>
      </trkpt>
      <trkpt lat="48.88878" lon="1.99773">
        <ele>174.80000305176</ele>
        <time>2013-01-27T01:45:52.000Z</time>
      </trkpt>
      <trkpt lat="48.88877" lon="1.99765">
        <ele>174.80000305176</ele>
        <time>2013-01-27T01:45:56.000Z</time>
      </trkpt>
      <trkpt lat="48.88876" lon="1.99763">
        <ele>174.80000305176</ele>
        <time>2013-01-27T01:45:57.000Z</time>
      </trkpt>
      <trkpt lat="48.88872" lon="1.99752">
        <ele>175</ele>
        <time>2013-01-27T01:46:02.000Z</time>
      </trkpt>
      <trkpt lat="48.8887" lon="1.99741">
        <ele>174.80000305176</ele>
        <time>2013-01-27T01:46:07.000Z</time>
      </trkpt>
      <trkpt lat="48.88869" lon="1.99732">
        <ele>174.80000305176</ele>
        <time>2013-01-27T01:46:12.000Z</time>
      </trkpt>
      <trkpt lat="48.88867" lon="1.99717">
        <ele>174.60000610352</ele>
        <time>2013-01-27T01:46:18.000Z</time>
      </trkpt>
      <trkpt lat="48.88867" lon="1.99714">
        <ele>174.60000610352</ele>
        <time>2013-01-27T01:46:20.000Z</time>
      </trkpt>
      <trkpt lat="48.88867" lon="1.99704">
        <ele>174.39999389648</ele>
        <time>2013-01-27T01:46:24.000Z</time>
      </trkpt>
      <trkpt lat="48.88871" lon="1.99692">
        <ele>174</ele>
        <time>2013-01-27T01:46:31.000Z</time>
      </trkpt>
      <trkpt lat="48.88874" lon="1.99687">
        <ele>173.80000305176</ele>
        <time>2013-01-27T01:46:35.000Z</time>
      </trkpt>
      <trkpt lat="48.88888" lon="1.99678">
        <ele>172.80000305176</ele>
        <time>2013-01-27T01:47:12.000Z</time>
      </trkpt>
      <trkpt lat="48.88889" lon="1.99675">
        <ele>172.80000305176</ele>
        <time>2013-01-27T01:47:52.000Z</time>
      </trkpt>
      <trkpt lat="48.8888" lon="1.99674">
        <ele>173.19999694824</ele>
        <time>2013-01-27T01:47:59.000Z</time>
      </trkpt>
      <trkpt lat="48.88877" lon="1.9967">
        <ele>173.39999389648</ele>
        <time>2013-01-27T01:48:02.000Z</time>
      </trkpt>
      <trkpt lat="48.88865" lon="1.99657">
        <ele>174</ele>
        <time>2013-01-27T01:48:08.000Z</time>
      </trkpt>
      <trkpt lat="48.88856" lon="1.99647">
        <ele>174.39999389648</ele>
        <time>2013-01-27T01:48:15.000Z</time>
      </trkpt>
      <trkpt lat="48.88847" lon="1.99637">
        <ele>175</ele>
        <time>2013-01-27T01:48:20.000Z</time>
      </trkpt>
      <trkpt lat="48.88837" lon="1.99625">
        <ele>175.60000610352</ele>
        <time>2013-01-27T01:48:26.000Z</time>
      </trkpt>
      <trkpt lat="48.8883" lon="1.99614">
        <ele>176</ele>
        <time>2013-01-27T01:48:31.000Z</time>
      </trkpt>
      <trkpt lat="48.88824" lon="1.99607">
        <ele>176.19999694824</ele>
        <time>2013-01-27T01:48:35.000Z</time>
      </trkpt>
      <trkpt lat="48.88818" lon="1.99597">
        <ele>176.19999694824</ele>
        <time>2013-01-27T01:48:40.000Z</time>
      </trkpt>
      <trkpt lat="48.88814" lon="1.99592">
        <ele>176.39999389648</ele>
        <time>2013-01-27T01:48:43.000Z</time>
      </trkpt>
      <trkpt lat="48.88805" lon="1.9958">
        <ele>176.60000610352</ele>
        <time>2013-01-27T01:48:50.000Z</time>
      </trkpt>
      <trkpt lat="48.88802" lon="1.99575">
        <ele>176.60000610352</ele>
        <time>2013-01-27T01:48:53.000Z</time>
      </trkpt>
      <trkpt lat="48.88796" lon="1.99566">
        <ele>176.80000305176</ele>
        <time>2013-01-27T01:48:59.000Z</time>
      </trkpt>
      <trkpt lat="48.8879" lon="1.99554">
        <ele>177.19999694824</ele>
        <time>2013-01-27T01:49:05.000Z</time>
      </trkpt>
      <trkpt lat="48.88785" lon="1.99546">
        <ele>177.39999389648</ele>
        <time>2013-01-27T01:49:10.000Z</time>
      </trkpt>
      <trkpt lat="48.88783" lon="1.99543">
        <ele>177.39999389648</ele>
        <time>2013-01-27T01:49:12.000Z</time>
      </trkpt>
      <trkpt lat="48.88778" lon="1.99534">
        <ele>177.60000610352</ele>
        <time>2013-01-27T01:49:17.000Z</time>
      </trkpt>
      <trkpt lat="48.88771" lon="1.99521">
        <ele>178</ele>
        <time>2013-01-27T01:49:23.000Z</time>
      </trkpt>
      <trkpt lat="48.88769" lon="1.99513">
        <ele>178</ele>
        <time>2013-01-27T01:49:27.000Z</time>
      </trkpt>
      <trkpt lat="48.88764" lon="1.99504">
        <ele>178.39999389648</ele>
        <time>2013-01-27T01:49:32.000Z</time>
      </trkpt>
      <trkpt lat="48.88763" lon="1.99502">
        <ele>178.39999389648</ele>
        <time>2013-01-27T01:49:33.000Z</time>
      </trkpt>
      <trkpt lat="48.88757" lon="1.99487">
        <ele>178.60000610352</ele>
        <time>2013-01-27T01:49:40.000Z</time>
      </trkpt>
      <trkpt lat="48.88755" lon="1.99483">
        <ele>178.80000305176</ele>
        <time>2013-01-27T01:49:42.000Z</time>
      </trkpt>
      <trkpt lat="48.88749" lon="1.99471">
        <ele>179</ele>
        <time>2013-01-27T01:49:48.000Z</time>
      </trkpt>
      <trkpt lat="48.88748" lon="1.9947">
        <ele>179</ele>
        <time>2013-01-27T01:49:49.000Z</time>
      </trkpt>
      <trkpt lat="48.88741" lon="1.99455">
        <ele>179.19999694824</ele>
        <time>2013-01-27T01:49:56.000Z</time>
      </trkpt>
      <trkpt lat="48.88735" lon="1.99439">
        <ele>179.19999694824</ele>
        <time>2013-01-27T01:50:04.000Z</time>
      </trkpt>
      <trkpt lat="48.88734" lon="1.99438">
        <ele>179.19999694824</ele>
        <time>2013-01-27T01:50:05.000Z</time>
      </trkpt>
      <trkpt lat="48.88731" lon="1.99432">
        <ele>179.39999389648</ele>
        <time>2013-01-27T01:50:08.000Z</time>
      </trkpt>
      <trkpt lat="48.88724" lon="1.9942">
        <ele>179.60000610352</ele>
        <time>2013-01-27T01:50:17.000Z</time>
      </trkpt>
      <trkpt lat="48.8872" lon="1.99414">
        <ele>179.60000610352</ele>
        <time>2013-01-27T01:50:21.000Z</time>
      </trkpt>
      <trkpt lat="48.88713" lon="1.99405">
        <ele>179.60000610352</ele>
        <time>2013-01-27T01:50:28.000Z</time>
      </trkpt>
      <trkpt lat="48.88706" lon="1.99397">
        <ele>179.80000305176</ele>
        <time>2013-01-27T01:50:35.000Z</time>
      </trkpt>
      <trkpt lat="48.88701" lon="1.9939">
        <ele>179.80000305176</ele>
        <time>2013-01-27T01:50:39.000Z</time>
      </trkpt>
      <trkpt lat="48.88695" lon="1.99381">
        <ele>179.80000305176</ele>
        <time>2013-01-27T01:50:45.000Z</time>
      </trkpt>
      <trkpt lat="48.88694" lon="1.99379">
        <ele>179.80000305176</ele>
        <time>2013-01-27T01:50:46.000Z</time>
      </trkpt>
      <trkpt lat="48.88688" lon="1.99371">
        <ele>179.80000305176</ele>
        <time>2013-01-27T01:50:51.000Z</time>
      </trkpt>
      <trkpt lat="48.88677" lon="1.99356">
        <ele>180</ele>
        <time>2013-01-27T01:50:58.000Z</time>
      </trkpt>
      <trkpt lat="48.8867" lon="1.99345">
        <ele>180</ele>
        <time>2013-01-27T01:51:03.000Z</time>
      </trkpt>
      <trkpt lat="48.88669" lon="1.99342">
        <ele>180</ele>
        <time>2013-01-27T01:51:04.000Z</time>
      </trkpt>
      <trkpt lat="48.88661" lon="1.99326">
        <ele>180.19999694824</ele>
        <time>2013-01-27T01:51:10.000Z</time>
      </trkpt>
      <trkpt lat="48.88655" lon="1.99315">
        <ele>180.39999389648</ele>
        <time>2013-01-27T01:51:15.000Z</time>
      </trkpt>
      <trkpt lat="48.88646" lon="1.99297">
        <ele>180.80000305176</ele>
        <time>2013-01-27T01:51:21.000Z</time>
      </trkpt>
      <trkpt lat="48.88644" lon="1.99294">
        <ele>181</ele>
        <time>2013-01-27T01:51:22.000Z</time>
      </trkpt>
      <trkpt lat="48.88639" lon="1.99282">
        <ele>181.19999694824</ele>
        <time>2013-01-27T01:51:27.000Z</time>
      </trkpt>
      <trkpt lat="48.88636" lon="1.99274">
        <ele>181.19999694824</ele>
        <time>2013-01-27T01:51:30.000Z</time>
      </trkpt>
      <trkpt lat="48.88626" lon="1.99258">
        <ele>181.39999389648</ele>
        <time>2013-01-27T01:51:37.000Z</time>
      </trkpt>
      <trkpt lat="48.88618" lon="1.99244">
        <ele>181.39999389648</ele>
        <time>2013-01-27T01:51:42.000Z</time>
      </trkpt>
      <trkpt lat="48.88617" lon="1.99242">
        <ele>181.39999389648</ele>
        <time>2013-01-27T01:51:43.000Z</time>
      </trkpt>
      <trkpt lat="48.8861" lon="1.99229">
        <ele>181.39999389648</ele>
        <time>2013-01-27T01:51:48.000Z</time>
      </trkpt>
      <trkpt lat="48.88608" lon="1.99226">
        <ele>181.39999389648</ele>
        <time>2013-01-27T01:51:49.000Z</time>
      </trkpt>
      <trkpt lat="48.88601" lon="1.99214">
        <ele>181.60000610352</ele>
        <time>2013-01-27T01:51:55.000Z</time>
      </trkpt>
      <trkpt lat="48.88591" lon="1.99195">
        <ele>181.60000610352</ele>
        <time>2013-01-27T01:52:01.000Z</time>
      </trkpt>
      <trkpt lat="48.88585" lon="1.99182">
        <ele>181.80000305176</ele>
        <time>2013-01-27T01:52:06.000Z</time>
      </trkpt>
      <trkpt lat="48.88577" lon="1.99166">
        <ele>181.60000610352</ele>
        <time>2013-01-27T01:52:11.000Z</time>
      </trkpt>
      <trkpt lat="48.88574" lon="1.99156">
        <ele>181.39999389648</ele>
        <time>2013-01-27T01:52:15.000Z</time>
      </trkpt>
      <trkpt lat="48.88569" lon="1.99142">
        <ele>180.80000305176</ele>
        <time>2013-01-27T01:52:20.000Z</time>
      </trkpt>
      <trkpt lat="48.88564" lon="1.99127">
        <ele>180.39999389648</ele>
        <time>2013-01-27T01:52:25.000Z</time>
      </trkpt>
      <trkpt lat="48.88557" lon="1.99113">
        <ele>179.80000305176</ele>
        <time>2013-01-27T01:52:30.000Z</time>
      </trkpt>
      <trkpt lat="48.88552" lon="1.99098">
        <ele>179.39999389648</ele>
        <time>2013-01-27T01:52:35.000Z</time>
      </trkpt>
      <trkpt lat="48.88537" lon="1.99073">
        <ele>178.39999389648</ele>
        <time>2013-01-27T01:52:45.000Z</time>
      </trkpt>
      <trkpt lat="48.88528" lon="1.9906">
        <ele>177.80000305176</ele>
        <time>2013-01-27T01:52:50.000Z</time>
      </trkpt>
      <trkpt lat="48.88516" lon="1.99051">
        <ele>177.60000610352</ele>
        <time>2013-01-27T01:52:57.000Z</time>
      </trkpt>
      <trkpt lat="48.88505" lon="1.99046">
        <ele>177.39999389648</ele>
        <time>2013-01-27T01:53:02.000Z</time>
      </trkpt>
      <trkpt lat="48.88503" lon="1.99044">
        <ele>177.39999389648</ele>
        <time>2013-01-27T01:53:03.000Z</time>
      </trkpt>
      <trkpt lat="48.88494" lon="1.99039">
        <ele>177.39999389648</ele>
        <time>2013-01-27T01:53:08.000Z</time>
      </trkpt>
      <trkpt lat="48.88484" lon="1.99031">
        <ele>177.39999389648</ele>
        <time>2013-01-27T01:53:13.000Z</time>
      </trkpt>
      <trkpt lat="48.88471" lon="1.99027">
        <ele>177.60000610352</ele>
        <time>2013-01-27T01:53:18.000Z</time>
      </trkpt>
      <trkpt lat="48.88469" lon="1.99025">
        <ele>177.60000610352</ele>
        <time>2013-01-27T01:53:19.000Z</time>
      </trkpt>
      <trkpt lat="48.88458" lon="1.99016">
        <ele>177.39999389648</ele>
        <time>2013-01-27T01:53:25.000Z</time>
      </trkpt>
      <trkpt lat="48.88447" lon="1.99004">
        <ele>177</ele>
        <time>2013-01-27T01:53:31.000Z</time>
      </trkpt>
      <trkpt lat="48.88437" lon="1.98993">
        <ele>176.80000305176</ele>
        <time>2013-01-27T01:53:37.000Z</time>
      </trkpt>
      <trkpt lat="48.88429" lon="1.98986">
        <ele>176.80000305176</ele>
        <time>2013-01-27T01:53:41.000Z</time>
      </trkpt>
      <trkpt lat="48.88418" lon="1.98974">
        <ele>176.60000610352</ele>
        <time>2013-01-27T01:53:47.000Z</time>
      </trkpt>
      <trkpt lat="48.88406" lon="1.98965">
        <ele>176.80000305176</ele>
        <time>2013-01-27T01:53:53.000Z</time>
      </trkpt>
      <trkpt lat="48.88404" lon="1.98963">
        <ele>176.80000305176</ele>
        <time>2013-01-27T01:53:55.000Z</time>
      </trkpt>
      <trkpt lat="48.88398" lon="1.98957">
        <ele>176.80000305176</ele>
        <time>2013-01-27T01:54:00.000Z</time>
      </trkpt>
      <trkpt lat="48.88391" lon="1.98947">
        <ele>176.80000305176</ele>
        <time>2013-01-27T01:54:08.000Z</time>
      </trkpt>
      <trkpt lat="48.88388" lon="1.98943">
        <ele>176.80000305176</ele>
        <time>2013-01-27T01:54:12.000Z</time>
      </trkpt>
      <trkpt lat="48.88376" lon="1.98918">
        <ele>176.39999389648</ele>
        <time>2013-01-27T01:54:25.000Z</time>
      </trkpt>
      <trkpt lat="48.88373" lon="1.98902">
        <ele>176.60000610352</ele>
        <time>2013-01-27T01:54:32.000Z</time>
      </trkpt>
      <trkpt lat="48.88371" lon="1.98882">
        <ele>176.80000305176</ele>
        <time>2013-01-27T01:54:40.000Z</time>
      </trkpt>
      <trkpt lat="48.88366" lon="1.98858">
        <ele>177.19999694824</ele>
        <time>2013-01-27T01:54:47.000Z</time>
      </trkpt>
      <trkpt lat="48.88364" lon="1.98841">
        <ele>177.39999389648</ele>
        <time>2013-01-27T01:54:52.000Z</time>
      </trkpt>
      <trkpt lat="48.8836" lon="1.9882">
        <ele>177.80000305176</ele>
        <time>2013-01-27T01:54:58.000Z</time>
      </trkpt>
      <trkpt lat="48.88356" lon="1.988">
        <ele>178.19999694824</ele>
        <time>2013-01-27T01:55:04.000Z</time>
      </trkpt>
      <trkpt lat="48.88352" lon="1.98779">
        <ele>178.39999389648</ele>
        <time>2013-01-27T01:55:10.000Z</time>
      </trkpt>
      <trkpt lat="48.88347" lon="1.98757">
        <ele>178.80000305176</ele>
        <time>2013-01-27T01:55:17.000Z</time>
      </trkpt>
      <trkpt lat="48.88344" lon="1.98735">
        <ele>179</ele>
        <time>2013-01-27T01:55:24.000Z</time>
      </trkpt>
      <trkpt lat="48.8834" lon="1.9871">
        <ele>179.39999389648</ele>
        <time>2013-01-27T01:55:32.000Z</time>
      </trkpt>
      <trkpt lat="48.88337" lon="1.98688">
        <ele>179.60000610352</ele>
        <time>2013-01-27T01:55:39.000Z</time>
      </trkpt>
      <trkpt lat="48.88333" lon="1.98669">
        <ele>179.80000305176</ele>
        <time>2013-01-27T01:55:45.000Z</time>
      </trkpt>
      <trkpt lat="48.88329" lon="1.98648">
        <ele>179.60000610352</ele>
        <time>2013-01-27T01:55:52.000Z</time>
      </trkpt>
      <trkpt lat="48.88326" lon="1.98629">
        <ele>179.60000610352</ele>
        <time>2013-01-27T01:55:58.000Z</time>
      </trkpt>
      <trkpt lat="48.88325" lon="1.9861">
        <ele>179.39999389648</ele>
        <time>2013-01-27T01:56:04.000Z</time>
      </trkpt>
      <trkpt lat="48.88323" lon="1.98596">
        <ele>179.19999694824</ele>
        <time>2013-01-27T01:56:09.000Z</time>
      </trkpt>
      <trkpt lat="48.88322" lon="1.98592">
        <ele>179.19999694824</ele>
        <time>2013-01-27T01:56:10.000Z</time>
      </trkpt>
      <trkpt lat="48.8832" lon="1.9858">
        <ele>179</ele>
        <time>2013-01-27T01:56:14.000Z</time>
      </trkpt>
      <trkpt lat="48.88316" lon="1.98557">
        <ele>177.39999389648</ele>
        <time>2013-01-27T01:56:21.000Z</time>
      </trkpt>
      <trkpt lat="48.88312" lon="1.98533">
        <ele>176</ele>
        <time>2013-01-27T01:56:28.000Z</time>
      </trkpt>
      <trkpt lat="48.88307" lon="1.98517">
        <ele>175</ele>
        <time>2013-01-27T01:56:33.000Z</time>
      </trkpt>
      <trkpt lat="48.88299" lon="1.98503">
        <ele>174.39999389648</ele>
        <time>2013-01-27T01:56:38.000Z</time>
      </trkpt>
      <trkpt lat="48.88293" lon="1.98492">
        <ele>174.39999389648</ele>
        <time>2013-01-27T01:56:42.000Z</time>
      </trkpt>
      <trkpt lat="48.88292" lon="1.98485">
        <ele>174.60000610352</ele>
        <time>2013-01-27T01:56:44.000Z</time>
      </trkpt>
      <trkpt lat="48.88294" lon="1.98465">
        <ele>174.80000305176</ele>
        <time>2013-01-27T01:56:50.000Z</time>
      </trkpt>
      <trkpt lat="48.88299" lon="1.98446">
        <ele>175</ele>
        <time>2013-01-27T01:56:56.000Z</time>
      </trkpt>
      <trkpt lat="48.88305" lon="1.98427">
        <ele>175.19999694824</ele>
        <time>2013-01-27T01:57:02.000Z</time>
      </trkpt>
      <trkpt lat="48.88311" lon="1.98408">
        <ele>175.19999694824</ele>
        <time>2013-01-27T01:57:08.000Z</time>
      </trkpt>
      <trkpt lat="48.88319" lon="1.98386">
        <ele>175.60000610352</ele>
        <time>2013-01-27T01:57:15.000Z</time>
      </trkpt>
      <trkpt lat="48.88324" lon="1.98368">
        <ele>176</ele>
        <time>2013-01-27T01:57:21.000Z</time>
      </trkpt>
      <trkpt lat="48.8833" lon="1.98343">
        <ele>176.60000610352</ele>
        <time>2013-01-27T01:57:28.000Z</time>
      </trkpt>
      <trkpt lat="48.88336" lon="1.98323">
        <ele>177</ele>
        <time>2013-01-27T01:57:34.000Z</time>
      </trkpt>
      <trkpt lat="48.88343" lon="1.98302">
        <ele>177.39999389648</ele>
        <time>2013-01-27T01:57:41.000Z</time>
      </trkpt>
      <trkpt lat="48.8835" lon="1.9828">
        <ele>177.60000610352</ele>
        <time>2013-01-27T01:57:48.000Z</time>
      </trkpt>
      <trkpt lat="48.88357" lon="1.98267">
        <ele>177.39999389648</ele>
        <time>2013-01-27T01:57:53.000Z</time>
      </trkpt>
      <trkpt lat="48.88369" lon="1.9826">
        <ele>177</ele>
        <time>2013-01-27T01:57:58.000Z</time>
      </trkpt>
      <trkpt lat="48.88381" lon="1.98265">
        <ele>176.39999389648</ele>
        <time>2013-01-27T01:58:03.000Z</time>
      </trkpt>
      <trkpt lat="48.88395" lon="1.98269">
        <ele>175.80000305176</ele>
        <time>2013-01-27T01:58:09.000Z</time>
      </trkpt>
      <trkpt lat="48.8841" lon="1.98267">
        <ele>175.19999694824</ele>
        <time>2013-01-27T01:58:15.000Z</time>
      </trkpt>
      <trkpt lat="48.88424" lon="1.98261">
        <ele>174.60000610352</ele>
        <time>2013-01-27T01:58:21.000Z</time>
      </trkpt>
      <trkpt lat="48.88434" lon="1.98246">
        <ele>174.39999389648</ele>
        <time>2013-01-27T01:58:27.000Z</time>
      </trkpt>
      <trkpt lat="48.88444" lon="1.98229">
        <ele>174</ele>
        <time>2013-01-27T01:58:33.000Z</time>
      </trkpt>
      <trkpt lat="48.88457" lon="1.98222">
        <ele>173.60000610352</ele>
        <time>2013-01-27T01:58:39.000Z</time>
      </trkpt>
      <trkpt lat="48.88471" lon="1.98228">
        <ele>173.19999694824</ele>
        <time>2013-01-27T01:58:45.000Z</time>
      </trkpt>
      <trkpt lat="48.88481" lon="1.98244">
        <ele>172.60000610352</ele>
        <time>2013-01-27T01:58:51.000Z</time>
      </trkpt>
      <trkpt lat="48.8849" lon="1.98262">
        <ele>172.39999389648</ele>
        <time>2013-01-27T01:58:57.000Z</time>
      </trkpt>
      <trkpt lat="48.88498" lon="1.98285">
        <ele>172.39999389648</ele>
        <time>2013-01-27T01:59:04.000Z</time>
      </trkpt>
      <trkpt lat="48.88506" lon="1.98308">
        <ele>172.39999389648</ele>
        <time>2013-01-27T01:59:11.000Z</time>
      </trkpt>
      <trkpt lat="48.88518" lon="1.98327">
        <ele>172.39999389648</ele>
        <time>2013-01-27T01:59:18.000Z</time>
      </trkpt>
      <trkpt lat="48.88533" lon="1.98338">
        <ele>172</ele>
        <time>2013-01-27T01:59:25.000Z</time>
      </trkpt>
      <trkpt lat="48.8855" lon="1.98337">
        <ele>171.60000610352</ele>
        <time>2013-01-27T01:59:32.000Z</time>
      </trkpt>
      <trkpt lat="48.88566" lon="1.98329">
        <ele>171.39999389648</ele>
        <time>2013-01-27T01:59:39.000Z</time>
      </trkpt>
      <trkpt lat="48.88577" lon="1.98321">
        <ele>171.19999694824</ele>
        <time>2013-01-27T01:59:44.000Z</time>
      </trkpt>
      <trkpt lat="48.88585" lon="1.98302">
        <ele>171.19999694824</ele>
        <time>2013-01-27T01:59:50.000Z</time>
      </trkpt>
      <trkpt lat="48.88593" lon="1.98279">
        <ele>171.39999389648</ele>
        <time>2013-01-27T01:59:57.000Z</time>
      </trkpt>
      <trkpt lat="48.88594" lon="1.98275">
        <ele>171.39999389648</ele>
        <time>2013-01-27T01:59:58.000Z</time>
      </trkpt>
      <trkpt lat="48.88603" lon="1.98247">
        <ele>171.39999389648</ele>
        <time>2013-01-27T02:00:06.000Z</time>
      </trkpt>
      <trkpt lat="48.8861" lon="1.98224">
        <ele>171.39999389648</ele>
        <time>2013-01-27T02:00:13.000Z</time>
      </trkpt>
      <trkpt lat="48.88618" lon="1.98199">
        <ele>171.39999389648</ele>
        <time>2013-01-27T02:00:21.000Z</time>
      </trkpt>
      <trkpt lat="48.88625" lon="1.98175">
        <ele>171.39999389648</ele>
        <time>2013-01-27T02:00:28.000Z</time>
      </trkpt>
      <trkpt lat="48.8863" lon="1.9816">
        <ele>171.39999389648</ele>
        <time>2013-01-27T02:00:33.000Z</time>
      </trkpt>
      <trkpt lat="48.88638" lon="1.98134">
        <ele>171.39999389648</ele>
        <time>2013-01-27T02:00:41.000Z</time>
      </trkpt>
      <trkpt lat="48.88647" lon="1.98108">
        <ele>171.60000610352</ele>
        <time>2013-01-27T02:00:49.000Z</time>
      </trkpt>
      <trkpt lat="48.88654" lon="1.98083">
        <ele>172</ele>
        <time>2013-01-27T02:00:57.000Z</time>
      </trkpt>
      <trkpt lat="48.88661" lon="1.98061">
        <ele>172</ele>
        <time>2013-01-27T02:01:04.000Z</time>
      </trkpt>
      <trkpt lat="48.88669" lon="1.98037">
        <ele>171.80000305176</ele>
        <time>2013-01-27T02:01:12.000Z</time>
      </trkpt>
      <trkpt lat="48.88678" lon="1.98012">
        <ele>171.80000305176</ele>
        <time>2013-01-27T02:01:20.000Z</time>
      </trkpt>
      <trkpt lat="48.88686" lon="1.97991">
        <ele>171.60000610352</ele>
        <time>2013-01-27T02:01:27.000Z</time>
      </trkpt>
      <trkpt lat="48.88691" lon="1.97972">
        <ele>171.60000610352</ele>
        <time>2013-01-27T02:01:33.000Z</time>
      </trkpt>
      <trkpt lat="48.88699" lon="1.97946">
        <ele>171.60000610352</ele>
        <time>2013-01-27T02:01:41.000Z</time>
      </trkpt>
      <trkpt lat="48.88707" lon="1.97925">
        <ele>171.39999389648</ele>
        <time>2013-01-27T02:01:48.000Z</time>
      </trkpt>
      <trkpt lat="48.88713" lon="1.97906">
        <ele>171.39999389648</ele>
        <time>2013-01-27T02:01:55.000Z</time>
      </trkpt>
      <trkpt lat="48.8872" lon="1.97886">
        <ele>171.39999389648</ele>
        <time>2013-01-27T02:02:00.000Z</time>
      </trkpt>
      <trkpt lat="48.88729" lon="1.97861">
        <ele>171.39999389648</ele>
        <time>2013-01-27T02:02:08.000Z</time>
      </trkpt>
      <trkpt lat="48.88734" lon="1.97844">
        <ele>171.60000610352</ele>
        <time>2013-01-27T02:02:14.000Z</time>
      </trkpt>
      <trkpt lat="48.8874" lon="1.97824">
        <ele>171.80000305176</ele>
        <time>2013-01-27T02:02:20.000Z</time>
      </trkpt>
      <trkpt lat="48.88747" lon="1.97804">
        <ele>172.19999694824</ele>
        <time>2013-01-27T02:02:27.000Z</time>
      </trkpt>
      <trkpt lat="48.88756" lon="1.97779">
        <ele>172.39999389648</ele>
        <time>2013-01-27T02:02:35.000Z</time>
      </trkpt>
      <trkpt lat="48.88762" lon="1.97761">
        <ele>172.39999389648</ele>
        <time>2013-01-27T02:02:41.000Z</time>
      </trkpt>
      <trkpt lat="48.8877" lon="1.97737">
        <ele>172</ele>
        <time>2013-01-27T02:02:49.000Z</time>
      </trkpt>
      <trkpt lat="48.88776" lon="1.97718">
        <ele>171.80000305176</ele>
        <time>2013-01-27T02:02:55.000Z</time>
      </trkpt>
      <trkpt lat="48.88783" lon="1.97697">
        <ele>171.60000610352</ele>
        <time>2013-01-27T02:03:02.000Z</time>
      </trkpt>
      <trkpt lat="48.88791" lon="1.97673">
        <ele>171.39999389648</ele>
        <time>2013-01-27T02:03:10.000Z</time>
      </trkpt>
      <trkpt lat="48.88799" lon="1.97649">
        <ele>171.60000610352</ele>
        <time>2013-01-27T02:03:18.000Z</time>
      </trkpt>
      <trkpt lat="48.88806" lon="1.97628">
        <ele>172</ele>
        <time>2013-01-27T02:03:25.000Z</time>
      </trkpt>
      <trkpt lat="48.88814" lon="1.97603">
        <ele>172.39999389648</ele>
        <time>2013-01-27T02:03:33.000Z</time>
      </trkpt>
      <trkpt lat="48.8882" lon="1.97584">
        <ele>172.80000305176</ele>
        <time>2013-01-27T02:03:39.000Z</time>
      </trkpt>
      <trkpt lat="48.88826" lon="1.97566">
        <ele>172.80000305176</ele>
        <time>2013-01-27T02:03:45.000Z</time>
      </trkpt>
      <trkpt lat="48.88833" lon="1.97543">
        <ele>172.39999389648</ele>
        <time>2013-01-27T02:03:52.000Z</time>
      </trkpt>
      <trkpt lat="48.8884" lon="1.97522">
        <ele>172.19999694824</ele>
        <time>2013-01-27T02:03:59.000Z</time>
      </trkpt>
      <trkpt lat="48.88846" lon="1.97504">
        <ele>172</ele>
        <time>2013-01-27T02:04:05.000Z</time>
      </trkpt>
      <trkpt lat="48.88852" lon="1.97489">
        <ele>172</ele>
        <time>2013-01-27T02:04:10.000Z</time>
      </trkpt>
      <trkpt lat="48.88861" lon="1.97465">
        <ele>172</ele>
        <time>2013-01-27T02:04:18.000Z</time>
      </trkpt>
      <trkpt lat="48.88869" lon="1.9744">
        <ele>172</ele>
        <time>2013-01-27T02:04:26.000Z</time>
      </trkpt>
      <trkpt lat="48.88878" lon="1.97415">
        <ele>171.80000305176</ele>
        <time>2013-01-27T02:04:34.000Z</time>
      </trkpt>
      <trkpt lat="48.88885" lon="1.97393">
        <ele>171.60000610352</ele>
        <time>2013-01-27T02:04:41.000Z</time>
      </trkpt>
      <trkpt lat="48.88894" lon="1.97367">
        <ele>171.39999389648</ele>
        <time>2013-01-27T02:04:49.000Z</time>
      </trkpt>
      <trkpt lat="48.889" lon="1.97349">
        <ele>171</ele>
        <time>2013-01-27T02:04:55.000Z</time>
      </trkpt>
      <trkpt lat="48.88908" lon="1.97325">
        <ele>171</ele>
        <time>2013-01-27T02:05:03.000Z</time>
      </trkpt>
      <trkpt lat="48.88915" lon="1.97303">
        <ele>171</ele>
        <time>2013-01-27T02:05:10.000Z</time>
      </trkpt>
      <trkpt lat="48.88922" lon="1.97281">
        <ele>171</ele>
        <time>2013-01-27T02:05:17.000Z</time>
      </trkpt>
      <trkpt lat="48.8893" lon="1.97257">
        <ele>171</ele>
        <time>2013-01-27T02:05:25.000Z</time>
      </trkpt>
      <trkpt lat="48.88939" lon="1.97231">
        <ele>171.19999694824</ele>
        <time>2013-01-27T02:05:33.000Z</time>
      </trkpt>
      <trkpt lat="48.88946" lon="1.97209">
        <ele>171.60000610352</ele>
        <time>2013-01-27T02:05:40.000Z</time>
      </trkpt>
      <trkpt lat="48.88954" lon="1.97187">
        <ele>171.80000305176</ele>
        <time>2013-01-27T02:05:47.000Z</time>
      </trkpt>
      <trkpt lat="48.88961" lon="1.97164">
        <ele>171.80000305176</ele>
        <time>2013-01-27T02:05:54.000Z</time>
      </trkpt>
      <trkpt lat="48.88968" lon="1.97142">
        <ele>172.19999694824</ele>
        <time>2013-01-27T02:06:01.000Z</time>
      </trkpt>
      <trkpt lat="48.88976" lon="1.9712">
        <ele>172.39999389648</ele>
        <time>2013-01-27T02:06:08.000Z</time>
      </trkpt>
      <trkpt lat="48.88982" lon="1.97098">
        <ele>172.80000305176</ele>
        <time>2013-01-27T02:06:15.000Z</time>
      </trkpt>
      <trkpt lat="48.8899" lon="1.97075">
        <ele>173</ele>
        <time>2013-01-27T02:06:22.000Z</time>
      </trkpt>
      <trkpt lat="48.88995" lon="1.97062">
        <ele>173</ele>
        <time>2013-01-27T02:06:26.000Z</time>
      </trkpt>
      <trkpt lat="48.88999" lon="1.97049">
        <ele>173</ele>
        <time>2013-01-27T02:06:30.000Z</time>
      </trkpt>
      <trkpt lat="48.89006" lon="1.97027">
        <ele>173</ele>
        <time>2013-01-27T02:06:37.000Z</time>
      </trkpt>
      <trkpt lat="48.89014" lon="1.97005">
        <ele>173</ele>
        <time>2013-01-27T02:06:44.000Z</time>
      </trkpt>
      <trkpt lat="48.89021" lon="1.96984">
        <ele>173.19999694824</ele>
        <time>2013-01-27T02:06:51.000Z</time>
      </trkpt>
      <trkpt lat="48.89029" lon="1.96963">
        <ele>173.60000610352</ele>
        <time>2013-01-27T02:06:58.000Z</time>
      </trkpt>
      <trkpt lat="48.89037" lon="1.96939">
        <ele>173.80000305176</ele>
        <time>2013-01-27T02:07:06.000Z</time>
      </trkpt>
      <trkpt lat="48.89044" lon="1.96918">
        <ele>173.80000305176</ele>
        <time>2013-01-27T02:07:13.000Z</time>
      </trkpt>
      <trkpt lat="48.89052" lon="1.96894">
        <ele>173.80000305176</ele>
        <time>2013-01-27T02:07:21.000Z</time>
      </trkpt>
      <trkpt lat="48.89059" lon="1.96869">
        <ele>173.80000305176</ele>
        <time>2013-01-27T02:07:29.000Z</time>
      </trkpt>
      <trkpt lat="48.89065" lon="1.96851">
        <ele>173.80000305176</ele>
        <time>2013-01-27T02:07:35.000Z</time>
      </trkpt>
      <trkpt lat="48.8907" lon="1.96831">
        <ele>173.80000305176</ele>
        <time>2013-01-27T02:07:41.000Z</time>
      </trkpt>
      <trkpt lat="48.89076" lon="1.96813">
        <ele>173.80000305176</ele>
        <time>2013-01-27T02:07:47.000Z</time>
      </trkpt>
      <trkpt lat="48.89084" lon="1.96789">
        <ele>174</ele>
        <time>2013-01-27T02:07:55.000Z</time>
      </trkpt>
      <trkpt lat="48.8909" lon="1.9677">
        <ele>174</ele>
        <time>2013-01-27T02:08:01.000Z</time>
      </trkpt>
      <trkpt lat="48.89096" lon="1.96752">
        <ele>174</ele>
        <time>2013-01-27T02:08:07.000Z</time>
      </trkpt>
      <trkpt lat="48.89103" lon="1.96729">
        <ele>174</ele>
        <time>2013-01-27T02:08:15.000Z</time>
      </trkpt>
      <trkpt lat="48.89112" lon="1.96703">
        <ele>174</ele>
        <time>2013-01-27T02:08:23.000Z</time>
      </trkpt>
      <trkpt lat="48.89119" lon="1.96681">
        <ele>174</ele>
        <time>2013-01-27T02:08:30.000Z</time>
      </trkpt>
      <trkpt lat="48.89126" lon="1.96664">
        <ele>174</ele>
        <time>2013-01-27T02:08:36.000Z</time>
      </trkpt>
      <trkpt lat="48.89133" lon="1.96643">
        <ele>174.19999694824</ele>
        <time>2013-01-27T02:08:43.000Z</time>
      </trkpt>
      <trkpt lat="48.8914" lon="1.96625">
        <ele>174.39999389648</ele>
        <time>2013-01-27T02:08:49.000Z</time>
      </trkpt>
      <trkpt lat="48.89149" lon="1.96599">
        <ele>174.80000305176</ele>
        <time>2013-01-27T02:08:58.000Z</time>
      </trkpt>
      <trkpt lat="48.89157" lon="1.96576">
        <ele>175</ele>
        <time>2013-01-27T02:09:06.000Z</time>
      </trkpt>
      <trkpt lat="48.89162" lon="1.96559">
        <ele>175</ele>
        <time>2013-01-27T02:09:12.000Z</time>
      </trkpt>
      <trkpt lat="48.89169" lon="1.96537">
        <ele>174.80000305176</ele>
        <time>2013-01-27T02:09:19.000Z</time>
      </trkpt>
      <trkpt lat="48.89176" lon="1.96515">
        <ele>174.80000305176</ele>
        <time>2013-01-27T02:09:27.000Z</time>
      </trkpt>
      <trkpt lat="48.89184" lon="1.96492">
        <ele>175</ele>
        <time>2013-01-27T02:09:34.000Z</time>
      </trkpt>
      <trkpt lat="48.89191" lon="1.96471">
        <ele>175.39999389648</ele>
        <time>2013-01-27T02:09:41.000Z</time>
      </trkpt>
      <trkpt lat="48.89197" lon="1.9645">
        <ele>175.80000305176</ele>
        <time>2013-01-27T02:09:48.000Z</time>
      </trkpt>
      <trkpt lat="48.89203" lon="1.96429">
        <ele>176.19999694824</ele>
        <time>2013-01-27T02:09:55.000Z</time>
      </trkpt>
      <trkpt lat="48.8921" lon="1.96408">
        <ele>176.39999389648</ele>
        <time>2013-01-27T02:10:02.000Z</time>
      </trkpt>
      <trkpt lat="48.89215" lon="1.96389">
        <ele>176.39999389648</ele>
        <time>2013-01-27T02:10:08.000Z</time>
      </trkpt>
      <trkpt lat="48.89221" lon="1.96369">
        <ele>176.60000610352</ele>
        <time>2013-01-27T02:10:15.000Z</time>
      </trkpt>
      <trkpt lat="48.89235" lon="1.96327">
        <ele>176.60000610352</ele>
        <time>2013-01-27T02:10:29.000Z</time>
      </trkpt>
      <trkpt lat="48.89242" lon="1.96309">
        <ele>176.60000610352</ele>
        <time>2013-01-27T02:10:35.000Z</time>
      </trkpt>
      <trkpt lat="48.89247" lon="1.9629">
        <ele>176.39999389648</ele>
        <time>2013-01-27T02:10:41.000Z</time>
      </trkpt>
      <trkpt lat="48.89254" lon="1.96271">
        <ele>176.19999694824</ele>
        <time>2013-01-27T02:10:47.000Z</time>
      </trkpt>
      <trkpt lat="48.8926" lon="1.96252">
        <ele>176</ele>
        <time>2013-01-27T02:10:53.000Z</time>
      </trkpt>
      <trkpt lat="48.89269" lon="1.96227">
        <ele>175.60000610352</ele>
        <time>2013-01-27T02:11:01.000Z</time>
      </trkpt>
      <trkpt lat="48.89277" lon="1.96205">
        <ele>175.60000610352</ele>
        <time>2013-01-27T02:11:08.000Z</time>
      </trkpt>
      <trkpt lat="48.89283" lon="1.96189">
        <ele>175.39999389648</ele>
        <time>2013-01-27T02:11:13.000Z</time>
      </trkpt>
      <trkpt lat="48.8929" lon="1.96172">
        <ele>175.39999389648</ele>
        <time>2013-01-27T02:11:19.000Z</time>
      </trkpt>
      <trkpt lat="48.89294" lon="1.96155">
        <ele>175.60000610352</ele>
        <time>2013-01-27T02:11:25.000Z</time>
      </trkpt>
      <trkpt lat="48.89302" lon="1.96131">
        <ele>176</ele>
        <time>2013-01-27T02:11:32.000Z</time>
      </trkpt>
      <trkpt lat="48.89309" lon="1.96108">
        <ele>176.39999389648</ele>
        <time>2013-01-27T02:11:39.000Z</time>
      </trkpt>
      <trkpt lat="48.89317" lon="1.96086">
        <ele>176.60000610352</ele>
        <time>2013-01-27T02:11:46.000Z</time>
      </trkpt>
      <trkpt lat="48.89324" lon="1.96067">
        <ele>176.80000305176</ele>
        <time>2013-01-27T02:11:52.000Z</time>
      </trkpt>
      <trkpt lat="48.89332" lon="1.96046">
        <ele>176.80000305176</ele>
        <time>2013-01-27T02:11:59.000Z</time>
      </trkpt>
      <trkpt lat="48.89339" lon="1.96025">
        <ele>176.80000305176</ele>
        <time>2013-01-27T02:12:06.000Z</time>
      </trkpt>
      <trkpt lat="48.89345" lon="1.96007">
        <ele>176.80000305176</ele>
        <time>2013-01-27T02:12:12.000Z</time>
      </trkpt>
      <trkpt lat="48.89352" lon="1.95985">
        <ele>176.60000610352</ele>
        <time>2013-01-27T02:12:19.000Z</time>
      </trkpt>
      <trkpt lat="48.8936" lon="1.95962">
        <ele>176.39999389648</ele>
        <time>2013-01-27T02:12:27.000Z</time>
      </trkpt>
      <trkpt lat="48.89368" lon="1.95937">
        <ele>176.39999389648</ele>
        <time>2013-01-27T02:12:35.000Z</time>
      </trkpt>
      <trkpt lat="48.89375" lon="1.95915">
        <ele>176.39999389648</ele>
        <time>2013-01-27T02:12:42.000Z</time>
      </trkpt>
      <trkpt lat="48.89383" lon="1.95894">
        <ele>176.80000305176</ele>
        <time>2013-01-27T02:12:49.000Z</time>
      </trkpt>
      <trkpt lat="48.89388" lon="1.95879">
        <ele>177.19999694824</ele>
        <time>2013-01-27T02:12:54.000Z</time>
      </trkpt>
      <trkpt lat="48.89394" lon="1.95861">
        <ele>177.60000610352</ele>
        <time>2013-01-27T02:13:00.000Z</time>
      </trkpt>
      <trkpt lat="48.89399" lon="1.95846">
        <ele>178</ele>
        <time>2013-01-27T02:13:05.000Z</time>
      </trkpt>
      <trkpt lat="48.89401" lon="1.9584">
        <ele>178.19999694824</ele>
        <time>2013-01-27T02:13:07.000Z</time>
      </trkpt>
      <trkpt lat="48.89416" lon="1.95798">
        <ele>178.39999389648</ele>
        <time>2013-01-27T02:13:21.000Z</time>
      </trkpt>
      <trkpt lat="48.89424" lon="1.95776">
        <ele>178.19999694824</ele>
        <time>2013-01-27T02:13:29.000Z</time>
      </trkpt>
      <trkpt lat="48.8943" lon="1.95756">
        <ele>177.80000305176</ele>
        <time>2013-01-27T02:13:36.000Z</time>
      </trkpt>
      <trkpt lat="48.89437" lon="1.95734">
        <ele>177.60000610352</ele>
        <time>2013-01-27T02:13:43.000Z</time>
      </trkpt>
      <trkpt lat="48.89445" lon="1.95707">
        <ele>177.39999389648</ele>
        <time>2013-01-27T02:13:52.000Z</time>
      </trkpt>
      <trkpt lat="48.89452" lon="1.95685">
        <ele>177.39999389648</ele>
        <time>2013-01-27T02:13:59.000Z</time>
      </trkpt>
      <trkpt lat="48.89457" lon="1.95673">
        <ele>177.39999389648</ele>
        <time>2013-01-27T02:14:05.000Z</time>
      </trkpt>
      <trkpt lat="48.89463" lon="1.95657">
        <ele>177.39999389648</ele>
        <time>2013-01-27T02:14:13.000Z</time>
      </trkpt>
      <trkpt lat="48.8947" lon="1.95637">
        <ele>177.60000610352</ele>
        <time>2013-01-27T02:14:23.000Z</time>
      </trkpt>
      <trkpt lat="48.89478" lon="1.95614">
        <ele>177.60000610352</ele>
        <time>2013-01-27T02:14:34.000Z</time>
      </trkpt>
      <trkpt lat="48.89484" lon="1.95595">
        <ele>177.80000305176</ele>
        <time>2013-01-27T02:14:43.000Z</time>
      </trkpt>
      <trkpt lat="48.8949" lon="1.95577">
        <ele>177.80000305176</ele>
        <time>2013-01-27T02:14:52.000Z</time>
      </trkpt>
      <trkpt lat="48.89494" lon="1.95565">
        <ele>177.80000305176</ele>
        <time>2013-01-27T02:14:58.000Z</time>
      </trkpt>
      <trkpt lat="48.89499" lon="1.95551">
        <ele>177.80000305176</ele>
        <time>2013-01-27T02:15:05.000Z</time>
      </trkpt>
      <trkpt lat="48.89504" lon="1.95536">
        <ele>177.80000305176</ele>
        <time>2013-01-27T02:15:13.000Z</time>
      </trkpt>
      <trkpt lat="48.89512" lon="1.95512">
        <ele>177.80000305176</ele>
        <time>2013-01-27T02:15:25.000Z</time>
      </trkpt>
      <trkpt lat="48.89519" lon="1.95489">
        <ele>177.60000610352</ele>
        <time>2013-01-27T02:15:36.000Z</time>
      </trkpt>
      <trkpt lat="48.89525" lon="1.95469">
        <ele>177.80000305176</ele>
        <time>2013-01-27T02:15:46.000Z</time>
      </trkpt>
      <trkpt lat="48.89533" lon="1.95448">
        <ele>177.80000305176</ele>
        <time>2013-01-27T02:15:57.000Z</time>
      </trkpt>
      <trkpt lat="48.89538" lon="1.95434">
        <ele>177.80000305176</ele>
        <time>2013-01-27T02:16:04.000Z</time>
      </trkpt>
      <trkpt lat="48.89545" lon="1.95414">
        <ele>178</ele>
        <time>2013-01-27T02:16:15.000Z</time>
      </trkpt>
      <trkpt lat="48.89562" lon="1.95378">
        <ele>178</ele>
        <time>2013-01-27T02:16:34.000Z</time>
      </trkpt>
      <trkpt lat="48.89572" lon="1.95361">
        <ele>178</ele>
        <time>2013-01-27T02:16:44.000Z</time>
      </trkpt>
      <trkpt lat="48.89581" lon="1.95345">
        <ele>178</ele>
        <time>2013-01-27T02:16:53.000Z</time>
      </trkpt>
      <trkpt lat="48.89592" lon="1.95325">
        <ele>178.19999694824</ele>
        <time>2013-01-27T02:17:05.000Z</time>
      </trkpt>
      <trkpt lat="48.89622" lon="1.95269">
        <ele>178.80000305176</ele>
        <time>2013-01-27T02:17:37.000Z</time>
      </trkpt>
      <trkpt lat="48.8963" lon="1.95254">
        <ele>179</ele>
        <time>2013-01-27T02:17:46.000Z</time>
      </trkpt>
      <trkpt lat="48.89637" lon="1.95242">
        <ele>179</ele>
        <time>2013-01-27T02:17:53.000Z</time>
      </trkpt>
      <trkpt lat="48.89645" lon="1.95227">
        <ele>179</ele>
        <time>2013-01-27T02:18:01.000Z</time>
      </trkpt>
      <trkpt lat="48.89654" lon="1.9521">
        <ele>179</ele>
        <time>2013-01-27T02:18:11.000Z</time>
      </trkpt>
      <trkpt lat="48.89663" lon="1.95195">
        <ele>179</ele>
        <time>2013-01-27T02:18:20.000Z</time>
      </trkpt>
      <trkpt lat="48.89671" lon="1.95179">
        <ele>179</ele>
        <time>2013-01-27T02:18:29.000Z</time>
      </trkpt>
      <trkpt lat="48.89682" lon="1.9516">
        <ele>179</ele>
        <time>2013-01-27T02:18:40.000Z</time>
      </trkpt>
      <trkpt lat="48.89688" lon="1.9515">
        <ele>179</ele>
        <time>2013-01-27T02:18:46.000Z</time>
      </trkpt>
      <trkpt lat="48.89695" lon="1.95135">
        <ele>179</ele>
        <time>2013-01-27T02:18:54.000Z</time>
      </trkpt>
      <trkpt lat="48.89706" lon="1.95115">
        <ele>179</ele>
        <time>2013-01-27T02:19:06.000Z</time>
      </trkpt>
      <trkpt lat="48.89715" lon="1.95099">
        <ele>179</ele>
        <time>2013-01-27T02:19:15.000Z</time>
      </trkpt>
      <trkpt lat="48.89724" lon="1.95083">
        <ele>179</ele>
        <time>2013-01-27T02:19:24.000Z</time>
      </trkpt>
      <trkpt lat="48.89731" lon="1.9507">
        <ele>178.80000305176</ele>
        <time>2013-01-27T02:19:31.000Z</time>
      </trkpt>
      <trkpt lat="48.89742" lon="1.9505">
        <ele>178.60000610352</ele>
        <time>2013-01-27T02:19:42.000Z</time>
      </trkpt>
      <trkpt lat="48.8975" lon="1.95036">
        <ele>178.39999389648</ele>
        <time>2013-01-27T02:19:50.000Z</time>
      </trkpt>
      <trkpt lat="48.89762" lon="1.95015">
        <ele>178</ele>
        <time>2013-01-27T02:20:01.000Z</time>
      </trkpt>
      <trkpt lat="48.89773" lon="1.94996">
        <ele>177.60000610352</ele>
        <time>2013-01-27T02:20:11.000Z</time>
      </trkpt>
      <trkpt lat="48.89796" lon="1.94957">
        <ele>177.19999694824</ele>
        <time>2013-01-27T02:20:32.000Z</time>
      </trkpt>
      <trkpt lat="48.89808" lon="1.94934">
        <ele>177</ele>
        <time>2013-01-27T02:20:44.000Z</time>
      </trkpt>
      <trkpt lat="48.89819" lon="1.94914">
        <ele>176.80000305176</ele>
        <time>2013-01-27T02:20:55.000Z</time>
      </trkpt>
      <trkpt lat="48.89831" lon="1.94894">
        <ele>176.80000305176</ele>
        <time>2013-01-27T02:21:06.000Z</time>
      </trkpt>
      <trkpt lat="48.89841" lon="1.94876">
        <ele>177</ele>
        <time>2013-01-27T02:21:17.000Z</time>
      </trkpt>
      <trkpt lat="48.89852" lon="1.94857">
        <ele>177</ele>
        <time>2013-01-27T02:21:27.000Z</time>
      </trkpt>
      <trkpt lat="48.89859" lon="1.94842">
        <ele>177</ele>
        <time>2013-01-27T02:21:35.000Z</time>
      </trkpt>
      <trkpt lat="48.89867" lon="1.94828">
        <ele>177</ele>
        <time>2013-01-27T02:21:44.000Z</time>
      </trkpt>
      <trkpt lat="48.89879" lon="1.94806">
        <ele>177</ele>
        <time>2013-01-27T02:21:55.000Z</time>
      </trkpt>
      <trkpt lat="48.8989" lon="1.94787">
        <ele>177</ele>
        <time>2013-01-27T02:22:06.000Z</time>
      </trkpt>
      <trkpt lat="48.89902" lon="1.94765">
        <ele>177</ele>
        <time>2013-01-27T02:22:19.000Z</time>
      </trkpt>
      <trkpt lat="48.89914" lon="1.94743">
        <ele>176.80000305176</ele>
        <time>2013-01-27T02:22:30.000Z</time>
      </trkpt>
      <trkpt lat="48.89915" lon="1.94741">
        <ele>176.80000305176</ele>
        <time>2013-01-27T02:22:32.000Z</time>
      </trkpt>
      <trkpt lat="48.89924" lon="1.94727">
        <ele>176.80000305176</ele>
        <time>2013-01-27T02:22:39.000Z</time>
      </trkpt>
      <trkpt lat="48.89936" lon="1.94705">
        <ele>176.60000610352</ele>
        <time>2013-01-27T02:22:51.000Z</time>
      </trkpt>
      <trkpt lat="48.89945" lon="1.94689">
        <ele>176.39999389648</ele>
        <time>2013-01-27T02:23:00.000Z</time>
      </trkpt>
      <trkpt lat="48.89955" lon="1.94671">
        <ele>176.39999389648</ele>
        <time>2013-01-27T02:23:10.000Z</time>
      </trkpt>
      <trkpt lat="48.89964" lon="1.94653">
        <ele>176.39999389648</ele>
        <time>2013-01-27T02:23:20.000Z</time>
      </trkpt>
      <trkpt lat="48.89974" lon="1.94635">
        <ele>176.60000610352</ele>
        <time>2013-01-27T02:23:30.000Z</time>
      </trkpt>
      <trkpt lat="48.89986" lon="1.94613">
        <ele>176.80000305176</ele>
        <time>2013-01-27T02:23:41.000Z</time>
      </trkpt>
      <trkpt lat="48.89998" lon="1.9459">
        <ele>176.80000305176</ele>
        <time>2013-01-27T02:23:53.000Z</time>
      </trkpt>
      <trkpt lat="48.90009" lon="1.94569">
        <ele>177</ele>
        <time>2013-01-27T02:24:04.000Z</time>
      </trkpt>
      <trkpt lat="48.90027" lon="1.94535">
        <ele>177.39999389648</ele>
        <time>2013-01-27T02:24:22.000Z</time>
      </trkpt>
      <trkpt lat="48.90038" lon="1.94515">
        <ele>177.80000305176</ele>
        <time>2013-01-27T02:24:33.000Z</time>
      </trkpt>
      <trkpt lat="48.90048" lon="1.94496">
        <ele>178</ele>
        <time>2013-01-27T02:24:43.000Z</time>
      </trkpt>
      <trkpt lat="48.9006" lon="1.94475">
        <ele>177.80000305176</ele>
        <time>2013-01-27T02:24:55.000Z</time>
      </trkpt>
      <trkpt lat="48.90068" lon="1.9446">
        <ele>177.60000610352</ele>
        <time>2013-01-27T02:25:03.000Z</time>
      </trkpt>
      <trkpt lat="48.9008" lon="1.94441">
        <ele>177.39999389648</ele>
        <time>2013-01-27T02:25:14.000Z</time>
      </trkpt>
      <trkpt lat="48.90091" lon="1.94421">
        <ele>177</ele>
        <time>2013-01-27T02:25:25.000Z</time>
      </trkpt>
      <trkpt lat="48.90097" lon="1.94412">
        <ele>177</ele>
        <time>2013-01-27T02:25:30.000Z</time>
      </trkpt>
      <trkpt lat="48.90103" lon="1.94396">
        <ele>177.19999694824</ele>
        <time>2013-01-27T02:25:38.000Z</time>
      </trkpt>
      <trkpt lat="48.90113" lon="1.9438">
        <ele>177.19999694824</ele>
        <time>2013-01-27T02:25:47.000Z</time>
      </trkpt>
      <trkpt lat="48.9012" lon="1.94369">
        <ele>177.39999389648</ele>
        <time>2013-01-27T02:25:55.000Z</time>
      </trkpt>
      <trkpt lat="48.90127" lon="1.94357">
        <ele>177.39999389648</ele>
        <time>2013-01-27T02:26:01.000Z</time>
      </trkpt>
      <trkpt lat="48.90134" lon="1.94344">
        <ele>177.60000610352</ele>
        <time>2013-01-27T02:26:08.000Z</time>
      </trkpt>
      <trkpt lat="48.90142" lon="1.94328">
        <ele>177.60000610352</ele>
        <time>2013-01-27T02:26:17.000Z</time>
      </trkpt>
      <trkpt lat="48.90145" lon="1.94322">
        <ele>177.60000610352</ele>
        <time>2013-01-27T02:26:20.000Z</time>
      </trkpt>
      <trkpt lat="48.90147" lon="1.94319">
        <ele>177.60000610352</ele>
        <time>2013-01-27T02:26:26.000Z</time>
      </trkpt>
      <trkpt lat="48.90153" lon="1.94309">
        <ele>177.39999389648</ele>
        <time>2013-01-27T02:26:32.000Z</time>
      </trkpt>
      <trkpt lat="48.90163" lon="1.9429">
        <ele>177.39999389648</ele>
        <time>2013-01-27T02:26:42.000Z</time>
      </trkpt>
      <trkpt lat="48.90173" lon="1.94271">
        <ele>177.19999694824</ele>
        <time>2013-01-27T02:26:52.000Z</time>
      </trkpt>
      <trkpt lat="48.90183" lon="1.94253">
        <ele>177.19999694824</ele>
        <time>2013-01-27T02:27:02.000Z</time>
      </trkpt>
      <trkpt lat="48.90192" lon="1.94239">
        <ele>177.19999694824</ele>
        <time>2013-01-27T02:27:10.000Z</time>
      </trkpt>
      <trkpt lat="48.90212" lon="1.94202">
        <ele>177</ele>
        <time>2013-01-27T02:27:30.000Z</time>
      </trkpt>
      <trkpt lat="48.90221" lon="1.94183">
        <ele>176.80000305176</ele>
        <time>2013-01-27T02:27:40.000Z</time>
      </trkpt>
      <trkpt lat="48.90229" lon="1.94162">
        <ele>176.19999694824</ele>
        <time>2013-01-27T02:27:50.000Z</time>
      </trkpt>
      <trkpt lat="48.90236" lon="1.94143">
        <ele>175.60000610352</ele>
        <time>2013-01-27T02:28:00.000Z</time>
      </trkpt>
      <trkpt lat="48.90241" lon="1.94125">
        <ele>175</ele>
        <time>2013-01-27T02:28:08.000Z</time>
      </trkpt>
      <trkpt lat="48.90248" lon="1.94102">
        <ele>174.39999389648</ele>
        <time>2013-01-27T02:28:18.000Z</time>
      </trkpt>
      <trkpt lat="48.90255" lon="1.94078">
        <ele>174</ele>
        <time>2013-01-27T02:28:29.000Z</time>
      </trkpt>
      <trkpt lat="48.90261" lon="1.94057">
        <ele>173.80000305176</ele>
        <time>2013-01-27T02:28:39.000Z</time>
      </trkpt>
      <trkpt lat="48.90268" lon="1.94036">
        <ele>173.60000610352</ele>
        <time>2013-01-27T02:28:49.000Z</time>
      </trkpt>
      <trkpt lat="48.90274" lon="1.94016">
        <ele>173.39999389648</ele>
        <time>2013-01-27T02:28:57.000Z</time>
      </trkpt>
      <trkpt lat="48.9028" lon="1.93994">
        <ele>173.19999694824</ele>
        <time>2013-01-27T02:29:08.000Z</time>
      </trkpt>
      <trkpt lat="48.90287" lon="1.93971">
        <ele>173.19999694824</ele>
        <time>2013-01-27T02:29:18.000Z</time>
      </trkpt>
      <trkpt lat="48.90295" lon="1.93946">
        <ele>173</ele>
        <time>2013-01-27T02:29:28.000Z</time>
      </trkpt>
      <trkpt lat="48.90301" lon="1.93921">
        <ele>173</ele>
        <time>2013-01-27T02:29:39.000Z</time>
      </trkpt>
      <trkpt lat="48.90308" lon="1.93896">
        <ele>172.80000305176</ele>
        <time>2013-01-27T02:29:50.000Z</time>
      </trkpt>
      <trkpt lat="48.90314" lon="1.93876">
        <ele>172.80000305176</ele>
        <time>2013-01-27T02:29:59.000Z</time>
      </trkpt>
      <trkpt lat="48.90322" lon="1.93849">
        <ele>172.80000305176</ele>
        <time>2013-01-27T02:30:11.000Z</time>
      </trkpt>
      <trkpt lat="48.90328" lon="1.9383">
        <ele>172.80000305176</ele>
        <time>2013-01-27T02:30:20.000Z</time>
      </trkpt>
      <trkpt lat="48.90336" lon="1.93806">
        <ele>172.80000305176</ele>
        <time>2013-01-27T02:30:31.000Z</time>
      </trkpt>
      <trkpt lat="48.90343" lon="1.93783">
        <ele>172.80000305176</ele>
        <time>2013-01-27T02:30:41.000Z</time>
      </trkpt>
      <trkpt lat="48.90348" lon="1.93763">
        <ele>172.60000610352</ele>
        <time>2013-01-27T02:30:50.000Z</time>
      </trkpt>
      <trkpt lat="48.90353" lon="1.93742">
        <ele>172.39999389648</ele>
        <time>2013-01-27T02:31:00.000Z</time>
      </trkpt>
      <trkpt lat="48.9036" lon="1.93718">
        <ele>172.19999694824</ele>
        <time>2013-01-27T02:31:10.000Z</time>
      </trkpt>
      <trkpt lat="48.90366" lon="1.93696">
        <ele>172</ele>
        <time>2013-01-27T02:31:20.000Z</time>
      </trkpt>
      <trkpt lat="48.9037" lon="1.9368">
        <ele>172</ele>
        <time>2013-01-27T02:31:27.000Z</time>
      </trkpt>
      <trkpt lat="48.90375" lon="1.93659">
        <ele>172</ele>
        <time>2013-01-27T02:31:37.000Z</time>
      </trkpt>
      <trkpt lat="48.90381" lon="1.93639">
        <ele>172</ele>
        <time>2013-01-27T02:31:45.000Z</time>
      </trkpt>
      <trkpt lat="48.90386" lon="1.9362">
        <ele>172.19999694824</ele>
        <time>2013-01-27T02:31:54.000Z</time>
      </trkpt>
      <trkpt lat="48.90391" lon="1.93601">
        <ele>172.19999694824</ele>
        <time>2013-01-27T02:32:03.000Z</time>
      </trkpt>
      <trkpt lat="48.90392" lon="1.93597">
        <ele>172.19999694824</ele>
        <time>2013-01-27T02:32:05.000Z</time>
      </trkpt>
      <trkpt lat="48.904" lon="1.93571">
        <ele>172</ele>
        <time>2013-01-27T02:32:17.000Z</time>
      </trkpt>
      <trkpt lat="48.90407" lon="1.93548">
        <ele>172</ele>
        <time>2013-01-27T02:32:27.000Z</time>
      </trkpt>
      <trkpt lat="48.90415" lon="1.93522">
        <ele>172</ele>
        <time>2013-01-27T02:32:39.000Z</time>
      </trkpt>
      <trkpt lat="48.90421" lon="1.93501">
        <ele>172</ele>
        <time>2013-01-27T02:32:48.000Z</time>
      </trkpt>
      <trkpt lat="48.90428" lon="1.9348">
        <ele>172.19999694824</ele>
        <time>2013-01-27T02:32:57.000Z</time>
      </trkpt>
      <trkpt lat="48.90437" lon="1.93459">
        <ele>172.39999389648</ele>
        <time>2013-01-27T02:33:08.000Z</time>
      </trkpt>
      <trkpt lat="48.90446" lon="1.9344">
        <ele>172.60000610352</ele>
        <time>2013-01-27T02:33:18.000Z</time>
      </trkpt>
      <trkpt lat="48.90458" lon="1.93426">
        <ele>172.80000305176</ele>
        <time>2013-01-27T02:33:27.000Z</time>
      </trkpt>
      <trkpt lat="48.90472" lon="1.9341">
        <ele>172.80000305176</ele>
        <time>2013-01-27T02:33:39.000Z</time>
      </trkpt>
      <trkpt lat="48.90485" lon="1.93397">
        <ele>172.60000610352</ele>
        <time>2013-01-27T02:33:49.000Z</time>
      </trkpt>
      <trkpt lat="48.90499" lon="1.93381">
        <ele>172.39999389648</ele>
        <time>2013-01-27T02:34:00.000Z</time>
      </trkpt>
      <trkpt lat="48.90513" lon="1.93367">
        <ele>172.60000610352</ele>
        <time>2013-01-27T02:34:10.000Z</time>
      </trkpt>
      <trkpt lat="48.90526" lon="1.93352">
        <ele>172.60000610352</ele>
        <time>2013-01-27T02:34:20.000Z</time>
      </trkpt>
      <trkpt lat="48.90537" lon="1.93338">
        <ele>172.80000305176</ele>
        <time>2013-01-27T02:34:27.000Z</time>
      </trkpt>
      <trkpt lat="48.9055" lon="1.93323">
        <ele>173.19999694824</ele>
        <time>2013-01-27T02:34:33.000Z</time>
      </trkpt>
      <trkpt lat="48.90563" lon="1.93308">
        <ele>173.80000305176</ele>
        <time>2013-01-27T02:34:40.000Z</time>
      </trkpt>
      <trkpt lat="48.90577" lon="1.93293">
        <ele>174.19999694824</ele>
        <time>2013-01-27T02:34:48.000Z</time>
      </trkpt>
      <trkpt lat="48.90586" lon="1.93282">
        <ele>174.60000610352</ele>
        <time>2013-01-27T02:34:53.000Z</time>
      </trkpt>
      <trkpt lat="48.90597" lon="1.93269">
        <ele>174.80000305176</ele>
        <time>2013-01-27T02:34:59.000Z</time>
      </trkpt>
      <trkpt lat="48.90609" lon="1.93256">
        <ele>175.19999694824</ele>
        <time>2013-01-27T02:35:05.000Z</time>
      </trkpt>
      <trkpt lat="48.90622" lon="1.93242">
        <ele>175.39999389648</ele>
        <time>2013-01-27T02:35:12.000Z</time>
      </trkpt>
      <trkpt lat="48.90636" lon="1.93226">
        <ele>175.80000305176</ele>
        <time>2013-01-27T02:35:19.000Z</time>
      </trkpt>
      <trkpt lat="48.90649" lon="1.93211">
        <ele>176.19999694824</ele>
        <time>2013-01-27T02:35:25.000Z</time>
      </trkpt>
      <trkpt lat="48.9066" lon="1.93197">
        <ele>176.39999389648</ele>
        <time>2013-01-27T02:35:32.000Z</time>
      </trkpt>
      <trkpt lat="48.90674" lon="1.93182">
        <ele>176.80000305176</ele>
        <time>2013-01-27T02:35:39.000Z</time>
      </trkpt>
      <trkpt lat="48.90686" lon="1.93167">
        <ele>177</ele>
        <time>2013-01-27T02:35:45.000Z</time>
      </trkpt>
      <trkpt lat="48.90702" lon="1.9315">
        <ele>177.19999694824</ele>
        <time>2013-01-27T02:35:54.000Z</time>
      </trkpt>
      <trkpt lat="48.90716" lon="1.93133">
        <ele>177.60000610352</ele>
        <time>2013-01-27T02:36:02.000Z</time>
      </trkpt>
      <trkpt lat="48.90729" lon="1.93118">
        <ele>178.19999694824</ele>
        <time>2013-01-27T02:36:09.000Z</time>
      </trkpt>
      <trkpt lat="48.90769" lon="1.93076">
        <ele>179.80000305176</ele>
        <time>2013-01-27T02:36:29.000Z</time>
      </trkpt>
      <trkpt lat="48.90782" lon="1.93063">
        <ele>179.39999389648</ele>
        <time>2013-01-27T02:36:35.000Z</time>
      </trkpt>
      <trkpt lat="48.90794" lon="1.93047">
        <ele>179.19999694824</ele>
        <time>2013-01-27T02:36:42.000Z</time>
      </trkpt>
      <trkpt lat="48.90806" lon="1.93033">
        <ele>179</ele>
        <time>2013-01-27T02:36:48.000Z</time>
      </trkpt>
      <trkpt lat="48.9082" lon="1.93016">
        <ele>179</ele>
        <time>2013-01-27T02:36:55.000Z</time>
      </trkpt>
      <trkpt lat="48.90836" lon="1.93">
        <ele>178.80000305176</ele>
        <time>2013-01-27T02:37:03.000Z</time>
      </trkpt>
      <trkpt lat="48.90847" lon="1.92986">
        <ele>178.60000610352</ele>
        <time>2013-01-27T02:37:09.000Z</time>
      </trkpt>
      <trkpt lat="48.9086" lon="1.9297">
        <ele>178.39999389648</ele>
        <time>2013-01-27T02:37:15.000Z</time>
      </trkpt>
      <trkpt lat="48.90871" lon="1.92959">
        <ele>178.19999694824</ele>
        <time>2013-01-27T02:37:21.000Z</time>
      </trkpt>
      <trkpt lat="48.90886" lon="1.92942">
        <ele>178</ele>
        <time>2013-01-27T02:37:29.000Z</time>
      </trkpt>
      <trkpt lat="48.90899" lon="1.92927">
        <ele>178</ele>
        <time>2013-01-27T02:37:35.000Z</time>
      </trkpt>
      <trkpt lat="48.90913" lon="1.92909">
        <ele>177.80000305176</ele>
        <time>2013-01-27T02:37:43.000Z</time>
      </trkpt>
      <trkpt lat="48.90928" lon="1.92894">
        <ele>177.80000305176</ele>
        <time>2013-01-27T02:37:50.000Z</time>
      </trkpt>
      <trkpt lat="48.90939" lon="1.92881">
        <ele>177.60000610352</ele>
        <time>2013-01-27T02:37:56.000Z</time>
      </trkpt>
      <trkpt lat="48.90951" lon="1.92867">
        <ele>177.19999694824</ele>
        <time>2013-01-27T02:38:02.000Z</time>
      </trkpt>
      <trkpt lat="48.90963" lon="1.92854">
        <ele>177</ele>
        <time>2013-01-27T02:38:08.000Z</time>
      </trkpt>
      <trkpt lat="48.90975" lon="1.9284">
        <ele>176.60000610352</ele>
        <time>2013-01-27T02:38:14.000Z</time>
      </trkpt>
      <trkpt lat="48.90988" lon="1.92824">
        <ele>176</ele>
        <time>2013-01-27T02:38:21.000Z</time>
      </trkpt>
      <trkpt lat="48.91002" lon="1.92808">
        <ele>175.60000610352</ele>
        <time>2013-01-27T02:38:28.000Z</time>
      </trkpt>
      <trkpt lat="48.91017" lon="1.92792">
        <ele>176</ele>
        <time>2013-01-27T02:38:35.000Z</time>
      </trkpt>
      <trkpt lat="48.9103" lon="1.92777">
        <ele>176.19999694824</ele>
        <time>2013-01-27T02:38:42.000Z</time>
      </trkpt>
      <trkpt lat="48.91042" lon="1.92764">
        <ele>176.60000610352</ele>
        <time>2013-01-27T02:38:48.000Z</time>
      </trkpt>
      <trkpt lat="48.91057" lon="1.92748">
        <ele>177</ele>
        <time>2013-01-27T02:38:55.000Z</time>
      </trkpt>
      <trkpt lat="48.91069" lon="1.92735">
        <ele>177.60000610352</ele>
        <time>2013-01-27T02:39:01.000Z</time>
      </trkpt>
      <trkpt lat="48.91073" lon="1.92731">
        <ele>177.80000305176</ele>
        <time>2013-01-27T02:39:03.000Z</time>
      </trkpt>
      <trkpt lat="48.91085" lon="1.92717">
        <ele>178.19999694824</ele>
        <time>2013-01-27T02:39:09.000Z</time>
      </trkpt>
      <trkpt lat="48.91099" lon="1.92701">
        <ele>178.39999389648</ele>
        <time>2013-01-27T02:39:16.000Z</time>
      </trkpt>
      <trkpt lat="48.91113" lon="1.92686">
        <ele>178.39999389648</ele>
        <time>2013-01-27T02:39:23.000Z</time>
      </trkpt>
      <trkpt lat="48.91125" lon="1.92672">
        <ele>178.39999389648</ele>
        <time>2013-01-27T02:39:29.000Z</time>
      </trkpt>
      <trkpt lat="48.91141" lon="1.92654">
        <ele>178.60000610352</ele>
        <time>2013-01-27T02:39:37.000Z</time>
      </trkpt>
      <trkpt lat="48.91156" lon="1.92639">
        <ele>178.60000610352</ele>
        <time>2013-01-27T02:39:44.000Z</time>
      </trkpt>
      <trkpt lat="48.91168" lon="1.92627">
        <ele>178.80000305176</ele>
        <time>2013-01-27T02:39:50.000Z</time>
      </trkpt>
      <trkpt lat="48.9118" lon="1.92614">
        <ele>179</ele>
        <time>2013-01-27T02:39:56.000Z</time>
      </trkpt>
      <trkpt lat="48.91193" lon="1.926">
        <ele>179</ele>
        <time>2013-01-27T02:40:03.000Z</time>
      </trkpt>
      <trkpt lat="48.91199" lon="1.92591">
        <ele>179</ele>
        <time>2013-01-27T02:40:08.000Z</time>
      </trkpt>
      <trkpt lat="48.91206" lon="1.92582">
        <ele>179</ele>
        <time>2013-01-27T02:40:15.000Z</time>
      </trkpt>
      <trkpt lat="48.91211" lon="1.92574">
        <ele>178.80000305176</ele>
        <time>2013-01-27T02:40:20.000Z</time>
      </trkpt>
      <trkpt lat="48.91205" lon="1.92566">
        <ele>179</ele>
        <time>2013-01-27T02:40:27.000Z</time>
      </trkpt>
      <trkpt lat="48.91198" lon="1.92555">
        <ele>179.19999694824</ele>
        <time>2013-01-27T02:40:34.000Z</time>
      </trkpt>
      <trkpt lat="48.91198" lon="1.92552">
        <ele>179.19999694824</ele>
        <time>2013-01-27T02:40:36.000Z</time>
      </trkpt>
      <trkpt lat="48.91193" lon="1.92545">
        <ele>179.39999389648</ele>
        <time>2013-01-27T02:40:44.000Z</time>
      </trkpt>
      <trkpt lat="48.91185" lon="1.9254">
        <ele>179.60000610352</ele>
        <time>2013-01-27T02:40:50.000Z</time>
      </trkpt>
      <trkpt lat="48.91176" lon="1.92532">
        <ele>179.80000305176</ele>
        <time>2013-01-27T02:40:58.000Z</time>
      </trkpt>
      <trkpt lat="48.91171" lon="1.92528">
        <ele>179.80000305176</ele>
        <time>2013-01-27T02:41:04.000Z</time>
      </trkpt>
      <trkpt lat="48.9117" lon="1.92525">
        <ele>179.80000305176</ele>
        <time>2013-01-27T02:41:13.000Z</time>
      </trkpt>
      <trkpt lat="48.9117" lon="1.92522">
        <ele>179.80000305176</ele>
        <time>2013-01-27T02:41:24.000Z</time>
      </trkpt>
      <trkpt lat="48.91165" lon="1.92518">
        <ele>180</ele>
        <time>2013-01-27T02:42:08.000Z</time>
      </trkpt>
      <trkpt lat="48.91167" lon="1.92523">
        <ele>180</ele>
        <time>2013-01-27T02:42:24.000Z</time>
      </trkpt>
      <trkpt lat="48.91169" lon="1.92526">
        <ele>179.80000305176</ele>
        <time>2013-01-27T02:42:30.000Z</time>
      </trkpt>
      <trkpt lat="48.91172" lon="1.92529">
        <ele>179.80000305176</ele>
        <time>2013-01-27T02:42:37.000Z</time>
      </trkpt>
      <trkpt lat="48.91178" lon="1.92533">
        <ele>179.80000305176</ele>
        <time>2013-01-27T02:42:44.000Z</time>
      </trkpt>
      <trkpt lat="48.91183" lon="1.92537">
        <ele>179.60000610352</ele>
        <time>2013-01-27T02:42:50.000Z</time>
      </trkpt>
      <trkpt lat="48.91186" lon="1.9254">
        <ele>179.60000610352</ele>
        <time>2013-01-27T02:42:53.000Z</time>
      </trkpt>
      <trkpt lat="48.91188" lon="1.92544">
        <ele>179.60000610352</ele>
        <time>2013-01-27T02:42:57.000Z</time>
      </trkpt>
      <trkpt lat="48.91195" lon="1.92551">
        <ele>179.39999389648</ele>
        <time>2013-01-27T02:43:04.000Z</time>
      </trkpt>
      <trkpt lat="48.912" lon="1.92558">
        <ele>179.19999694824</ele>
        <time>2013-01-27T02:43:10.000Z</time>
      </trkpt>
      <trkpt lat="48.91207" lon="1.92568">
        <ele>179</ele>
        <time>2013-01-27T02:43:17.000Z</time>
      </trkpt>
      <trkpt lat="48.91208" lon="1.9257">
        <ele>179</ele>
        <time>2013-01-27T02:43:19.000Z</time>
      </trkpt>
      <trkpt lat="48.91221" lon="1.92567">
        <ele>178.80000305176</ele>
        <time>2013-01-27T02:43:28.000Z</time>
      </trkpt>
      <trkpt lat="48.91222" lon="1.92565">
        <ele>178.80000305176</ele>
        <time>2013-01-27T02:43:29.000Z</time>
      </trkpt>
      <trkpt lat="48.91233" lon="1.92552">
        <ele>178.60000610352</ele>
        <time>2013-01-27T02:43:39.000Z</time>
      </trkpt>
      <trkpt lat="48.91244" lon="1.92541">
        <ele>178.60000610352</ele>
        <time>2013-01-27T02:43:48.000Z</time>
      </trkpt>
      <trkpt lat="48.91259" lon="1.92525">
        <ele>178.80000305176</ele>
        <time>2013-01-27T02:44:00.000Z</time>
      </trkpt>
      <trkpt lat="48.91267" lon="1.92515">
        <ele>179</ele>
        <time>2013-01-27T02:44:07.000Z</time>
      </trkpt>
      <trkpt lat="48.91277" lon="1.92504">
        <ele>179.19999694824</ele>
        <time>2013-01-27T02:44:15.000Z</time>
      </trkpt>
      <trkpt lat="48.9129" lon="1.92489">
        <ele>179.60000610352</ele>
        <time>2013-01-27T02:44:26.000Z</time>
      </trkpt>
      <trkpt lat="48.91306" lon="1.92472">
        <ele>180</ele>
        <time>2013-01-27T02:44:38.000Z</time>
      </trkpt>
      <trkpt lat="48.91314" lon="1.92461">
        <ele>180.19999694824</ele>
        <time>2013-01-27T02:44:45.000Z</time>
      </trkpt>
      <trkpt lat="48.91322" lon="1.92453">
        <ele>180.39999389648</ele>
        <time>2013-01-27T02:44:51.000Z</time>
      </trkpt>
      <trkpt lat="48.91336" lon="1.92439">
        <ele>180.60000610352</ele>
        <time>2013-01-27T02:45:02.000Z</time>
      </trkpt>
      <trkpt lat="48.91343" lon="1.92428">
        <ele>180.60000610352</ele>
        <time>2013-01-27T02:45:09.000Z</time>
      </trkpt>
      <trkpt lat="48.91344" lon="1.92415">
        <ele>180.60000610352</ele>
        <time>2013-01-27T02:45:15.000Z</time>
      </trkpt>
      <trkpt lat="48.91341" lon="1.92398">
        <ele>181</ele>
        <time>2013-01-27T02:45:23.000Z</time>
      </trkpt>
      <trkpt lat="48.91339" lon="1.92391">
        <ele>181</ele>
        <time>2013-01-27T02:45:27.000Z</time>
      </trkpt>
      <trkpt lat="48.91337" lon="1.92375">
        <ele>181.19999694824</ele>
        <time>2013-01-27T02:45:34.000Z</time>
      </trkpt>
      <trkpt lat="48.91337" lon="1.92351">
        <ele>181.60000610352</ele>
        <time>2013-01-27T02:45:44.000Z</time>
      </trkpt>
      <trkpt lat="48.91336" lon="1.92336">
        <ele>181.80000305176</ele>
        <time>2013-01-27T02:45:51.000Z</time>
      </trkpt>
      <trkpt lat="48.91333" lon="1.92312">
        <ele>181.60000610352</ele>
        <time>2013-01-27T02:46:01.000Z</time>
      </trkpt>
      <trkpt lat="48.91332" lon="1.92293">
        <ele>181.39999389648</ele>
        <time>2013-01-27T02:46:09.000Z</time>
      </trkpt>
      <trkpt lat="48.91331" lon="1.92276">
        <ele>181.19999694824</ele>
        <time>2013-01-27T02:46:17.000Z</time>
      </trkpt>
      <trkpt lat="48.91328" lon="1.92261">
        <ele>181</ele>
        <time>2013-01-27T02:46:24.000Z</time>
      </trkpt>
      <trkpt lat="48.91323" lon="1.92235">
        <ele>181.19999694824</ele>
        <time>2013-01-27T02:46:35.000Z</time>
      </trkpt>
      <trkpt lat="48.91321" lon="1.92221">
        <ele>181.60000610352</ele>
        <time>2013-01-27T02:46:41.000Z</time>
      </trkpt>
      <trkpt lat="48.91321" lon="1.92207">
        <ele>182</ele>
        <time>2013-01-27T02:46:47.000Z</time>
      </trkpt>
      <trkpt lat="48.9132" lon="1.92188">
        <ele>182.39999389648</ele>
        <time>2013-01-27T02:46:55.000Z</time>
      </trkpt>
      <trkpt lat="48.91323" lon="1.92172">
        <ele>182.80000305176</ele>
        <time>2013-01-27T02:47:03.000Z</time>
      </trkpt>
      <trkpt lat="48.91329" lon="1.9215">
        <ele>183</ele>
        <time>2013-01-27T02:47:13.000Z</time>
      </trkpt>
      <trkpt lat="48.91333" lon="1.92137">
        <ele>183</ele>
        <time>2013-01-27T02:47:19.000Z</time>
      </trkpt>
      <trkpt lat="48.91334" lon="1.92134">
        <ele>182.80000305176</ele>
        <time>2013-01-27T02:47:20.000Z</time>
      </trkpt>
      <trkpt lat="48.9134" lon="1.92112">
        <ele>182.80000305176</ele>
        <time>2013-01-27T02:47:30.000Z</time>
      </trkpt>
      <trkpt lat="48.91344" lon="1.92096">
        <ele>182.80000305176</ele>
        <time>2013-01-27T02:47:37.000Z</time>
      </trkpt>
      <trkpt lat="48.91349" lon="1.92076">
        <ele>182.80000305176</ele>
        <time>2013-01-27T02:47:46.000Z</time>
      </trkpt>
      <trkpt lat="48.91354" lon="1.9205">
        <ele>183.19999694824</ele>
        <time>2013-01-27T02:47:57.000Z</time>
      </trkpt>
      <trkpt lat="48.91359" lon="1.92028">
        <ele>183.39999389648</ele>
        <time>2013-01-27T02:48:07.000Z</time>
      </trkpt>
      <trkpt lat="48.91363" lon="1.92008">
        <ele>183.80000305176</ele>
        <time>2013-01-27T02:48:15.000Z</time>
      </trkpt>
      <trkpt lat="48.91368" lon="1.9199">
        <ele>184</ele>
        <time>2013-01-27T02:48:23.000Z</time>
      </trkpt>
      <trkpt lat="48.91371" lon="1.91973">
        <ele>184</ele>
        <time>2013-01-27T02:48:29.000Z</time>
      </trkpt>
      <trkpt lat="48.91374" lon="1.91953">
        <ele>184</ele>
        <time>2013-01-27T02:48:37.000Z</time>
      </trkpt>
      <trkpt lat="48.9138" lon="1.91932">
        <ele>184</ele>
        <time>2013-01-27T02:48:47.000Z</time>
      </trkpt>
      <trkpt lat="48.91381" lon="1.91927">
        <ele>184</ele>
        <time>2013-01-27T02:48:49.000Z</time>
      </trkpt>
      <trkpt lat="48.91387" lon="1.91915">
        <ele>183.80000305176</ele>
        <time>2013-01-27T02:48:55.000Z</time>
      </trkpt>
      <trkpt lat="48.9139" lon="1.91908">
        <ele>183.80000305176</ele>
        <time>2013-01-27T02:48:59.000Z</time>
      </trkpt>
      <trkpt lat="48.91395" lon="1.91894">
        <ele>183.60000610352</ele>
        <time>2013-01-27T02:49:06.000Z</time>
      </trkpt>
      <trkpt lat="48.914" lon="1.91856">
        <ele>183.19999694824</ele>
        <time>2013-01-27T02:49:24.000Z</time>
      </trkpt>
      <trkpt lat="48.91393" lon="1.91842">
        <ele>183</ele>
        <time>2013-01-27T02:49:31.000Z</time>
      </trkpt>
      <trkpt lat="48.91385" lon="1.91826">
        <ele>183</ele>
        <time>2013-01-27T02:49:39.000Z</time>
      </trkpt>
      <trkpt lat="48.91377" lon="1.91813">
        <ele>183.19999694824</ele>
        <time>2013-01-27T02:49:44.000Z</time>
      </trkpt>
      <trkpt lat="48.91373" lon="1.91807">
        <ele>183.19999694824</ele>
        <time>2013-01-27T02:49:46.000Z</time>
      </trkpt>
      <trkpt lat="48.91365" lon="1.91796">
        <ele>183.39999389648</ele>
        <time>2013-01-27T02:49:50.000Z</time>
      </trkpt>
      <trkpt lat="48.91351" lon="1.91777">
        <ele>183.60000610352</ele>
        <time>2013-01-27T02:49:57.000Z</time>
      </trkpt>
      <trkpt lat="48.91339" lon="1.91764">
        <ele>183.80000305176</ele>
        <time>2013-01-27T02:50:02.000Z</time>
      </trkpt>
      <trkpt lat="48.91327" lon="1.91749">
        <ele>183.80000305176</ele>
        <time>2013-01-27T02:50:08.000Z</time>
      </trkpt>
      <trkpt lat="48.91326" lon="1.91741">
        <ele>183.80000305176</ele>
        <time>2013-01-27T02:50:10.000Z</time>
      </trkpt>
      <trkpt lat="48.91344" lon="1.91708">
        <ele>183.39999389648</ele>
        <time>2013-01-27T02:50:24.000Z</time>
      </trkpt>
      <trkpt lat="48.91354" lon="1.91691">
        <ele>183.19999694824</ele>
        <time>2013-01-27T02:50:33.000Z</time>
      </trkpt>
      <trkpt lat="48.91363" lon="1.91673">
        <ele>183</ele>
        <time>2013-01-27T02:50:42.000Z</time>
      </trkpt>
      <trkpt lat="48.91372" lon="1.91649">
        <ele>183.19999694824</ele>
        <time>2013-01-27T02:50:53.000Z</time>
      </trkpt>
      <trkpt lat="48.91377" lon="1.91626">
        <ele>183.39999389648</ele>
        <time>2013-01-27T02:51:03.000Z</time>
      </trkpt>
      <trkpt lat="48.91378" lon="1.91606">
        <ele>183.60000610352</ele>
        <time>2013-01-27T02:51:12.000Z</time>
      </trkpt>
      <trkpt lat="48.91378" lon="1.91585">
        <ele>183.80000305176</ele>
        <time>2013-01-27T02:51:21.000Z</time>
      </trkpt>
      <trkpt lat="48.91378" lon="1.91559">
        <ele>184</ele>
        <time>2013-01-27T02:51:32.000Z</time>
      </trkpt>
      <trkpt lat="48.91378" lon="1.91536">
        <ele>184.19999694824</ele>
        <time>2013-01-27T02:51:42.000Z</time>
      </trkpt>
      <trkpt lat="48.91378" lon="1.91508">
        <ele>184.39999389648</ele>
        <time>2013-01-27T02:51:54.000Z</time>
      </trkpt>
      <trkpt lat="48.91378" lon="1.91485">
        <ele>184.19999694824</ele>
        <time>2013-01-27T02:52:04.000Z</time>
      </trkpt>
      <trkpt lat="48.91379" lon="1.91433">
        <ele>183.60000610352</ele>
        <time>2013-01-27T02:52:26.000Z</time>
      </trkpt>
      <trkpt lat="48.91379" lon="1.91415">
        <ele>183.39999389648</ele>
        <time>2013-01-27T02:52:34.000Z</time>
      </trkpt>
      <trkpt lat="48.91378" lon="1.91388">
        <ele>183.39999389648</ele>
        <time>2013-01-27T02:52:45.000Z</time>
      </trkpt>
      <trkpt lat="48.91379" lon="1.91371">
        <ele>183.39999389648</ele>
        <time>2013-01-27T02:52:52.000Z</time>
      </trkpt>
      <trkpt lat="48.91381" lon="1.91345">
        <ele>183.39999389648</ele>
        <time>2013-01-27T02:53:03.000Z</time>
      </trkpt>
      <trkpt lat="48.9138" lon="1.91326">
        <ele>183.60000610352</ele>
        <time>2013-01-27T02:53:11.000Z</time>
      </trkpt>
      <trkpt lat="48.91379" lon="1.91298">
        <ele>183.60000610352</ele>
        <time>2013-01-27T02:53:23.000Z</time>
      </trkpt>
      <trkpt lat="48.91378" lon="1.91269">
        <ele>183.80000305176</ele>
        <time>2013-01-27T02:53:35.000Z</time>
      </trkpt>
      <trkpt lat="48.91378" lon="1.91244">
        <ele>183.80000305176</ele>
        <time>2013-01-27T02:53:46.000Z</time>
      </trkpt>
      <trkpt lat="48.91378" lon="1.91222">
        <ele>183.60000610352</ele>
        <time>2013-01-27T02:53:55.000Z</time>
      </trkpt>
      <trkpt lat="48.91376" lon="1.91195">
        <ele>183.19999694824</ele>
        <time>2013-01-27T02:54:07.000Z</time>
      </trkpt>
      <trkpt lat="48.91374" lon="1.91169">
        <ele>183</ele>
        <time>2013-01-27T02:54:18.000Z</time>
      </trkpt>
      <trkpt lat="48.91375" lon="1.91143">
        <ele>182.80000305176</ele>
        <time>2013-01-27T02:54:29.000Z</time>
      </trkpt>
      <trkpt lat="48.91376" lon="1.9112">
        <ele>182.60000610352</ele>
        <time>2013-01-27T02:54:39.000Z</time>
      </trkpt>
      <trkpt lat="48.91374" lon="1.911">
        <ele>182.60000610352</ele>
        <time>2013-01-27T02:54:47.000Z</time>
      </trkpt>
      <trkpt lat="48.91371" lon="1.9108">
        <ele>182.39999389648</ele>
        <time>2013-01-27T02:54:56.000Z</time>
      </trkpt>
      <trkpt lat="48.91374" lon="1.91063">
        <ele>182.39999389648</ele>
        <time>2013-01-27T02:55:03.000Z</time>
      </trkpt>
      <trkpt lat="48.91375" lon="1.91043">
        <ele>182.39999389648</ele>
        <time>2013-01-27T02:55:11.000Z</time>
      </trkpt>
      <trkpt lat="48.91372" lon="1.91014">
        <ele>182.39999389648</ele>
        <time>2013-01-27T02:55:23.000Z</time>
      </trkpt>
      <trkpt lat="48.91369" lon="1.90993">
        <ele>182.19999694824</ele>
        <time>2013-01-27T02:55:32.000Z</time>
      </trkpt>
      <trkpt lat="48.91368" lon="1.90964">
        <ele>181.80000305176</ele>
        <time>2013-01-27T02:55:43.000Z</time>
      </trkpt>
      <trkpt lat="48.91367" lon="1.90939">
        <ele>181.60000610352</ele>
        <time>2013-01-27T02:55:53.000Z</time>
      </trkpt>
      <trkpt lat="48.91366" lon="1.90913">
        <ele>181.39999389648</ele>
        <time>2013-01-27T02:56:03.000Z</time>
      </trkpt>
      <trkpt lat="48.91366" lon="1.90885">
        <ele>181.60000610352</ele>
        <time>2013-01-27T02:56:15.000Z</time>
      </trkpt>
      <trkpt lat="48.91367" lon="1.90857">
        <ele>181.80000305176</ele>
        <time>2013-01-27T02:56:27.000Z</time>
      </trkpt>
      <trkpt lat="48.91369" lon="1.9083">
        <ele>181.80000305176</ele>
        <time>2013-01-27T02:56:38.000Z</time>
      </trkpt>
      <trkpt lat="48.91373" lon="1.90801">
        <ele>181.60000610352</ele>
        <time>2013-01-27T02:56:51.000Z</time>
      </trkpt>
      <trkpt lat="48.91379" lon="1.90775">
        <ele>181.60000610352</ele>
        <time>2013-01-27T02:57:02.000Z</time>
      </trkpt>
      <trkpt lat="48.91384" lon="1.90749">
        <ele>181.60000610352</ele>
        <time>2013-01-27T02:57:14.000Z</time>
      </trkpt>
      <trkpt lat="48.91389" lon="1.90722">
        <ele>181.19999694824</ele>
        <time>2013-01-27T02:57:25.000Z</time>
      </trkpt>
      <trkpt lat="48.91395" lon="1.90695">
        <ele>180.80000305176</ele>
        <time>2013-01-27T02:57:37.000Z</time>
      </trkpt>
      <trkpt lat="48.91399" lon="1.90673">
        <ele>180.39999389648</ele>
        <time>2013-01-27T02:57:47.000Z</time>
      </trkpt>
      <trkpt lat="48.91402" lon="1.90658">
        <ele>180.39999389648</ele>
        <time>2013-01-27T02:57:53.000Z</time>
      </trkpt>
      <trkpt lat="48.91405" lon="1.90642">
        <ele>180.60000610352</ele>
        <time>2013-01-27T02:58:00.000Z</time>
      </trkpt>
      <trkpt lat="48.91419" lon="1.90574">
        <ele>181</ele>
        <time>2013-01-27T02:58:31.000Z</time>
      </trkpt>
      <trkpt lat="48.91424" lon="1.90551">
        <ele>181</ele>
        <time>2013-01-27T02:58:41.000Z</time>
      </trkpt>
      <trkpt lat="48.91428" lon="1.9053">
        <ele>181.19999694824</ele>
        <time>2013-01-27T02:58:50.000Z</time>
      </trkpt>
      <trkpt lat="48.91431" lon="1.90518">
        <ele>181.19999694824</ele>
        <time>2013-01-27T02:58:55.000Z</time>
      </trkpt>
      <trkpt lat="48.91434" lon="1.90504">
        <ele>181.39999389648</ele>
        <time>2013-01-27T02:59:01.000Z</time>
      </trkpt>
      <trkpt lat="48.91439" lon="1.90482">
        <ele>181.19999694824</ele>
        <time>2013-01-27T02:59:11.000Z</time>
      </trkpt>
      <trkpt lat="48.91444" lon="1.90458">
        <ele>180.80000305176</ele>
        <time>2013-01-27T02:59:22.000Z</time>
      </trkpt>
      <trkpt lat="48.91447" lon="1.90437">
        <ele>180.60000610352</ele>
        <time>2013-01-27T02:59:31.000Z</time>
      </trkpt>
      <trkpt lat="48.91453" lon="1.90411">
        <ele>180.19999694824</ele>
        <time>2013-01-27T02:59:42.000Z</time>
      </trkpt>
      <trkpt lat="48.91458" lon="1.90385">
        <ele>180</ele>
        <time>2013-01-27T02:59:53.000Z</time>
      </trkpt>
      <trkpt lat="48.91463" lon="1.90358">
        <ele>179.80000305176</ele>
        <time>2013-01-27T03:00:01.000Z</time>
      </trkpt>
      <trkpt lat="48.91468" lon="1.90334">
        <ele>179.60000610352</ele>
        <time>2013-01-27T03:00:08.000Z</time>
      </trkpt>
      <trkpt lat="48.91474" lon="1.90307">
        <ele>179.39999389648</ele>
        <time>2013-01-27T03:00:16.000Z</time>
      </trkpt>
      <trkpt lat="48.9148" lon="1.90278">
        <ele>179.39999389648</ele>
        <time>2013-01-27T03:00:24.000Z</time>
      </trkpt>
      <trkpt lat="48.91484" lon="1.90255">
        <ele>179.60000610352</ele>
        <time>2013-01-27T03:00:31.000Z</time>
      </trkpt>
      <trkpt lat="48.9149" lon="1.90227">
        <ele>179.60000610352</ele>
        <time>2013-01-27T03:00:39.000Z</time>
      </trkpt>
      <trkpt lat="48.91495" lon="1.90204">
        <ele>179.80000305176</ele>
        <time>2013-01-27T03:00:46.000Z</time>
      </trkpt>
      <trkpt lat="48.91499" lon="1.90182">
        <ele>179.80000305176</ele>
        <time>2013-01-27T03:00:52.000Z</time>
      </trkpt>
      <trkpt lat="48.91504" lon="1.90157">
        <ele>179.80000305176</ele>
        <time>2013-01-27T03:00:59.000Z</time>
      </trkpt>
      <trkpt lat="48.91508" lon="1.90133">
        <ele>179</ele>
        <time>2013-01-27T03:01:06.000Z</time>
      </trkpt>
      <trkpt lat="48.91514" lon="1.9012">
        <ele>179</ele>
        <time>2013-01-27T03:01:10.000Z</time>
      </trkpt>
      <trkpt lat="48.91523" lon="1.90073">
        <ele>178</ele>
        <time>2013-01-27T03:01:23.000Z</time>
      </trkpt>
      <trkpt lat="48.91528" lon="1.90049">
        <ele>178.39999389648</ele>
        <time>2013-01-27T03:01:30.000Z</time>
      </trkpt>
      <trkpt lat="48.91533" lon="1.90024">
        <ele>178.80000305176</ele>
        <time>2013-01-27T03:01:37.000Z</time>
      </trkpt>
      <trkpt lat="48.91538" lon="1.89999">
        <ele>179.19999694824</ele>
        <time>2013-01-27T03:01:44.000Z</time>
      </trkpt>
      <trkpt lat="48.91543" lon="1.89974">
        <ele>178.60000610352</ele>
        <time>2013-01-27T03:01:51.000Z</time>
      </trkpt>
      <trkpt lat="48.91548" lon="1.89954">
        <ele>178</ele>
        <time>2013-01-27T03:01:57.000Z</time>
      </trkpt>
      <trkpt lat="48.91554" lon="1.8993">
        <ele>177.39999389648</ele>
        <time>2013-01-27T03:02:04.000Z</time>
      </trkpt>
      <trkpt lat="48.91559" lon="1.89906">
        <ele>177</ele>
        <time>2013-01-27T03:02:11.000Z</time>
      </trkpt>
      <trkpt lat="48.91564" lon="1.89885">
        <ele>177</ele>
        <time>2013-01-27T03:02:17.000Z</time>
      </trkpt>
      <trkpt lat="48.91568" lon="1.89866">
        <ele>176.80000305176</ele>
        <time>2013-01-27T03:02:22.000Z</time>
      </trkpt>
      <trkpt lat="48.91574" lon="1.8984">
        <ele>176.80000305176</ele>
        <time>2013-01-27T03:02:30.000Z</time>
      </trkpt>
      <trkpt lat="48.91579" lon="1.89812">
        <ele>177.39999389648</ele>
        <time>2013-01-27T03:02:38.000Z</time>
      </trkpt>
      <trkpt lat="48.91584" lon="1.89787">
        <ele>178</ele>
        <time>2013-01-27T03:02:45.000Z</time>
      </trkpt>
      <trkpt lat="48.91587" lon="1.89762">
        <ele>178.60000610352</ele>
        <time>2013-01-27T03:02:52.000Z</time>
      </trkpt>
      <trkpt lat="48.91588" lon="1.89735">
        <ele>178.60000610352</ele>
        <time>2013-01-27T03:02:59.000Z</time>
      </trkpt>
      <trkpt lat="48.91589" lon="1.89706">
        <ele>178</ele>
        <time>2013-01-27T03:03:07.000Z</time>
      </trkpt>
      <trkpt lat="48.91587" lon="1.89685">
        <ele>177.39999389648</ele>
        <time>2013-01-27T03:03:13.000Z</time>
      </trkpt>
      <trkpt lat="48.91584" lon="1.89658">
        <ele>177</ele>
        <time>2013-01-27T03:03:20.000Z</time>
      </trkpt>
      <trkpt lat="48.91579" lon="1.89628">
        <ele>177.39999389648</ele>
        <time>2013-01-27T03:03:29.000Z</time>
      </trkpt>
      <trkpt lat="48.91574" lon="1.896">
        <ele>177.60000610352</ele>
        <time>2013-01-27T03:03:37.000Z</time>
      </trkpt>
      <trkpt lat="48.9157" lon="1.8958">
        <ele>178</ele>
        <time>2013-01-27T03:03:43.000Z</time>
      </trkpt>
      <trkpt lat="48.91566" lon="1.89557">
        <ele>178</ele>
        <time>2013-01-27T03:03:49.000Z</time>
      </trkpt>
      <trkpt lat="48.91562" lon="1.89531">
        <ele>178.19999694824</ele>
        <time>2013-01-27T03:03:57.000Z</time>
      </trkpt>
      <trkpt lat="48.91558" lon="1.89506">
        <ele>178.19999694824</ele>
        <time>2013-01-27T03:04:04.000Z</time>
      </trkpt>
      <trkpt lat="48.91554" lon="1.89481">
        <ele>178</ele>
        <time>2013-01-27T03:04:11.000Z</time>
      </trkpt>
      <trkpt lat="48.91549" lon="1.89439">
        <ele>177.60000610352</ele>
        <time>2013-01-27T03:04:23.000Z</time>
      </trkpt>
      <trkpt lat="48.91545" lon="1.89411">
        <ele>177.60000610352</ele>
        <time>2013-01-27T03:04:31.000Z</time>
      </trkpt>
      <trkpt lat="48.91541" lon="1.89387">
        <ele>178.19999694824</ele>
        <time>2013-01-27T03:04:38.000Z</time>
      </trkpt>
      <trkpt lat="48.91537" lon="1.89358">
        <ele>178.80000305176</ele>
        <time>2013-01-27T03:04:46.000Z</time>
      </trkpt>
      <trkpt lat="48.91534" lon="1.89343">
        <ele>179</ele>
        <time>2013-01-27T03:04:51.000Z</time>
      </trkpt>
      <trkpt lat="48.91531" lon="1.89318">
        <ele>179.19999694824</ele>
        <time>2013-01-27T03:04:58.000Z</time>
      </trkpt>
      <trkpt lat="48.91527" lon="1.89297">
        <ele>179</ele>
        <time>2013-01-27T03:05:04.000Z</time>
      </trkpt>
      <trkpt lat="48.91523" lon="1.89273">
        <ele>178.80000305176</ele>
        <time>2013-01-27T03:05:11.000Z</time>
      </trkpt>
      <trkpt lat="48.91521" lon="1.89248">
        <ele>178.60000610352</ele>
        <time>2013-01-27T03:05:18.000Z</time>
      </trkpt>
      <trkpt lat="48.91516" lon="1.8922">
        <ele>178.39999389648</ele>
        <time>2013-01-27T03:05:26.000Z</time>
      </trkpt>
      <trkpt lat="48.91514" lon="1.89205">
        <ele>178.39999389648</ele>
        <time>2013-01-27T03:05:30.000Z</time>
      </trkpt>
      <trkpt lat="48.91514" lon="1.89196">
        <ele>178.19999694824</ele>
        <time>2013-01-27T03:05:33.000Z</time>
      </trkpt>
      <trkpt lat="48.91511" lon="1.89175">
        <ele>178.19999694824</ele>
        <time>2013-01-27T03:05:39.000Z</time>
      </trkpt>
      <trkpt lat="48.91506" lon="1.89152">
        <ele>178</ele>
        <time>2013-01-27T03:05:46.000Z</time>
      </trkpt>
      <trkpt lat="48.91503" lon="1.89124">
        <ele>178</ele>
        <time>2013-01-27T03:05:54.000Z</time>
      </trkpt>
      <trkpt lat="48.91499" lon="1.89096">
        <ele>177.80000305176</ele>
        <time>2013-01-27T03:06:02.000Z</time>
      </trkpt>
      <trkpt lat="48.91496" lon="1.89069">
        <ele>177.80000305176</ele>
        <time>2013-01-27T03:06:10.000Z</time>
      </trkpt>
      <trkpt lat="48.91493" lon="1.89043">
        <ele>177.80000305176</ele>
        <time>2013-01-27T03:06:17.000Z</time>
      </trkpt>
      <trkpt lat="48.9149" lon="1.89013">
        <ele>177.80000305176</ele>
        <time>2013-01-27T03:06:25.000Z</time>
      </trkpt>
      <trkpt lat="48.91489" lon="1.88983">
        <ele>177.80000305176</ele>
        <time>2013-01-27T03:06:34.000Z</time>
      </trkpt>
      <trkpt lat="48.91488" lon="1.88958">
        <ele>177.80000305176</ele>
        <time>2013-01-27T03:06:41.000Z</time>
      </trkpt>
      <trkpt lat="48.91487" lon="1.88933">
        <ele>177.80000305176</ele>
        <time>2013-01-27T03:06:48.000Z</time>
      </trkpt>
      <trkpt lat="48.91486" lon="1.88912">
        <ele>178</ele>
        <time>2013-01-27T03:06:54.000Z</time>
      </trkpt>
      <trkpt lat="48.91485" lon="1.88884">
        <ele>178.19999694824</ele>
        <time>2013-01-27T03:07:02.000Z</time>
      </trkpt>
      <trkpt lat="48.91484" lon="1.88856">
        <ele>178.60000610352</ele>
        <time>2013-01-27T03:07:10.000Z</time>
      </trkpt>
      <trkpt lat="48.91483" lon="1.88827">
        <ele>179</ele>
        <time>2013-01-27T03:07:18.000Z</time>
      </trkpt>
      <trkpt lat="48.9148" lon="1.88779">
        <ele>179.39999389648</ele>
        <time>2013-01-27T03:07:32.000Z</time>
      </trkpt>
      <trkpt lat="48.91479" lon="1.88752">
        <ele>179.60000610352</ele>
        <time>2013-01-27T03:07:40.000Z</time>
      </trkpt>
      <trkpt lat="48.91478" lon="1.88724">
        <ele>179.60000610352</ele>
        <time>2013-01-27T03:07:48.000Z</time>
      </trkpt>
      <trkpt lat="48.91477" lon="1.88699">
        <ele>179.60000610352</ele>
        <time>2013-01-27T03:07:55.000Z</time>
      </trkpt>
      <trkpt lat="48.91477" lon="1.88673">
        <ele>179.60000610352</ele>
        <time>2013-01-27T03:08:03.000Z</time>
      </trkpt>
      <trkpt lat="48.91475" lon="1.88643">
        <ele>179.80000305176</ele>
        <time>2013-01-27T03:08:11.000Z</time>
      </trkpt>
      <trkpt lat="48.91474" lon="1.88615">
        <ele>180.19999694824</ele>
        <time>2013-01-27T03:08:19.000Z</time>
      </trkpt>
      <trkpt lat="48.91472" lon="1.88583">
        <ele>180.60000610352</ele>
        <time>2013-01-27T03:08:28.000Z</time>
      </trkpt>
      <trkpt lat="48.91471" lon="1.88555">
        <ele>180.80000305176</ele>
        <time>2013-01-27T03:08:36.000Z</time>
      </trkpt>
      <trkpt lat="48.9147" lon="1.8853">
        <ele>181</ele>
        <time>2013-01-27T03:08:43.000Z</time>
      </trkpt>
      <trkpt lat="48.91469" lon="1.88498">
        <ele>181.19999694824</ele>
        <time>2013-01-27T03:08:52.000Z</time>
      </trkpt>
      <trkpt lat="48.91468" lon="1.8847">
        <ele>181</ele>
        <time>2013-01-27T03:09:00.000Z</time>
      </trkpt>
      <trkpt lat="48.91467" lon="1.88443">
        <ele>180.60000610352</ele>
        <time>2013-01-27T03:09:07.000Z</time>
      </trkpt>
      <trkpt lat="48.91465" lon="1.88416">
        <ele>180.39999389648</ele>
        <time>2013-01-27T03:09:15.000Z</time>
      </trkpt>
      <trkpt lat="48.91463" lon="1.88389">
        <ele>180.19999694824</ele>
        <time>2013-01-27T03:09:22.000Z</time>
      </trkpt>
      <trkpt lat="48.9146" lon="1.88359">
        <ele>180</ele>
        <time>2013-01-27T03:09:30.000Z</time>
      </trkpt>
      <trkpt lat="48.91461" lon="1.88334">
        <ele>180</ele>
        <time>2013-01-27T03:09:37.000Z</time>
      </trkpt>
      <trkpt lat="48.9146" lon="1.88309">
        <ele>180.39999389648</ele>
        <time>2013-01-27T03:09:44.000Z</time>
      </trkpt>
      <trkpt lat="48.91458" lon="1.88279">
        <ele>180.80000305176</ele>
        <time>2013-01-27T03:09:52.000Z</time>
      </trkpt>
      <trkpt lat="48.91456" lon="1.8825">
        <ele>181.39999389648</ele>
        <time>2013-01-27T03:10:00.000Z</time>
      </trkpt>
      <trkpt lat="48.91455" lon="1.8822">
        <ele>182</ele>
        <time>2013-01-27T03:10:08.000Z</time>
      </trkpt>
      <trkpt lat="48.91459" lon="1.88191">
        <ele>182.39999389648</ele>
        <time>2013-01-27T03:10:16.000Z</time>
      </trkpt>
      <trkpt lat="48.91462" lon="1.88156">
        <ele>183</ele>
        <time>2013-01-27T03:10:27.000Z</time>
      </trkpt>
      <trkpt lat="48.91448" lon="1.88129">
        <ele>183.60000610352</ele>
        <time>2013-01-27T03:10:36.000Z</time>
      </trkpt>
      <trkpt lat="48.91446" lon="1.88123">
        <ele>183.80000305176</ele>
        <time>2013-01-27T03:10:38.000Z</time>
      </trkpt>
      <trkpt lat="48.91439" lon="1.88101">
        <ele>184</ele>
        <time>2013-01-27T03:10:45.000Z</time>
      </trkpt>
      <trkpt lat="48.91435" lon="1.88088">
        <ele>184</ele>
        <time>2013-01-27T03:10:50.000Z</time>
      </trkpt>
      <trkpt lat="48.91429" lon="1.88068">
        <ele>184.19999694824</ele>
        <time>2013-01-27T03:10:56.000Z</time>
      </trkpt>
      <trkpt lat="48.91423" lon="1.88047">
        <ele>184.39999389648</ele>
        <time>2013-01-27T03:11:02.000Z</time>
      </trkpt>
      <trkpt lat="48.91419" lon="1.88032">
        <ele>184.60000610352</ele>
        <time>2013-01-27T03:11:06.000Z</time>
      </trkpt>
      <trkpt lat="48.91414" lon="1.88015">
        <ele>184.80000305176</ele>
        <time>2013-01-27T03:11:11.000Z</time>
      </trkpt>
      <trkpt lat="48.91408" lon="1.87986">
        <ele>184.39999389648</ele>
        <time>2013-01-27T03:11:19.000Z</time>
      </trkpt>
      <trkpt lat="48.91399" lon="1.87953">
        <ele>183.19999694824</ele>
        <time>2013-01-27T03:11:28.000Z</time>
      </trkpt>
      <trkpt lat="48.91394" lon="1.87931">
        <ele>182.39999389648</ele>
        <time>2013-01-27T03:11:34.000Z</time>
      </trkpt>
      <trkpt lat="48.9139" lon="1.87908">
        <ele>181.39999389648</ele>
        <time>2013-01-27T03:11:40.000Z</time>
      </trkpt>
      <trkpt lat="48.91388" lon="1.87885">
        <ele>180.19999694824</ele>
        <time>2013-01-27T03:11:46.000Z</time>
      </trkpt>
      <trkpt lat="48.91388" lon="1.87874">
        <ele>179.60000610352</ele>
        <time>2013-01-27T03:11:49.000Z</time>
      </trkpt>
      <trkpt lat="48.91387" lon="1.8786">
        <ele>178.80000305176</ele>
        <time>2013-01-27T03:11:53.000Z</time>
      </trkpt>
      <trkpt lat="48.91386" lon="1.87841">
        <ele>177.80000305176</ele>
        <time>2013-01-27T03:11:58.000Z</time>
      </trkpt>
      <trkpt lat="48.91382" lon="1.87828">
        <ele>176.80000305176</ele>
        <time>2013-01-27T03:12:02.000Z</time>
      </trkpt>
      <trkpt lat="48.91374" lon="1.87802">
        <ele>174</ele>
        <time>2013-01-27T03:12:09.000Z</time>
      </trkpt>
      <trkpt lat="48.91364" lon="1.87774">
        <ele>171</ele>
        <time>2013-01-27T03:12:18.000Z</time>
      </trkpt>
      <trkpt lat="48.91362" lon="1.87754">
        <ele>169</ele>
        <time>2013-01-27T03:12:24.000Z</time>
      </trkpt>
      <trkpt lat="48.91362" lon="1.87734">
        <ele>166.60000610352</ele>
        <time>2013-01-27T03:12:29.000Z</time>
      </trkpt>
      <trkpt lat="48.91362" lon="1.87723">
        <ele>165.19999694824</ele>
        <time>2013-01-27T03:12:35.000Z</time>
      </trkpt>
      <trkpt lat="48.91362" lon="1.87722">
        <ele>165</ele>
        <time>2013-01-27T03:12:36.000Z</time>
      </trkpt>
      <trkpt lat="48.91363" lon="1.87721">
        <ele>164.80000305176</ele>
        <time>2013-01-27T03:12:39.000Z</time>
      </trkpt>
      <trkpt lat="48.91363" lon="1.87716">
        <ele>164.19999694824</ele>
        <time>2013-01-27T03:12:44.000Z</time>
      </trkpt>
      <trkpt lat="48.91364" lon="1.87709">
        <ele>163.39999389648</ele>
        <time>2013-01-27T03:12:52.000Z</time>
      </trkpt>
      <trkpt lat="48.91366" lon="1.87703">
        <ele>162.80000305176</ele>
        <time>2013-01-27T03:12:58.000Z</time>
      </trkpt>
      <trkpt lat="48.91369" lon="1.87698">
        <ele>162.39999389648</ele>
        <time>2013-01-27T03:13:05.000Z</time>
      </trkpt>
      <trkpt lat="48.9137" lon="1.87673">
        <ele>159.19999694824</ele>
        <time>2013-01-27T03:13:17.000Z</time>
      </trkpt>
      <trkpt lat="48.91371" lon="1.87659">
        <ele>157.60000610352</ele>
        <time>2013-01-27T03:13:25.000Z</time>
      </trkpt>
      <trkpt lat="48.91371" lon="1.87652">
        <ele>156.80000305176</ele>
        <time>2013-01-27T03:13:28.000Z</time>
      </trkpt>
      <trkpt lat="48.91372" lon="1.87645">
        <ele>156</ele>
        <time>2013-01-27T03:13:32.000Z</time>
      </trkpt>
      <trkpt lat="48.9137" lon="1.87632">
        <ele>154.19999694824</ele>
        <time>2013-01-27T03:13:39.000Z</time>
      </trkpt>
      <trkpt lat="48.91369" lon="1.87619">
        <ele>152.60000610352</ele>
        <time>2013-01-27T03:13:46.000Z</time>
      </trkpt>
      <trkpt lat="48.91367" lon="1.87603">
        <ele>150.39999389648</ele>
        <time>2013-01-27T03:13:53.000Z</time>
      </trkpt>
      <trkpt lat="48.91367" lon="1.87601">
        <ele>150</ele>
        <time>2013-01-27T03:13:54.000Z</time>
      </trkpt>
      <trkpt lat="48.91365" lon="1.87588">
        <ele>148.39999389648</ele>
        <time>2013-01-27T03:14:00.000Z</time>
      </trkpt>
      <trkpt lat="48.91363" lon="1.87579">
        <ele>147.19999694824</ele>
        <time>2013-01-27T03:14:05.000Z</time>
      </trkpt>
      <trkpt lat="48.91364" lon="1.87564">
        <ele>146</ele>
        <time>2013-01-27T03:14:12.000Z</time>
      </trkpt>
      <trkpt lat="48.91364" lon="1.87555">
        <ele>145.19999694824</ele>
        <time>2013-01-27T03:14:16.000Z</time>
      </trkpt>
      <trkpt lat="48.91364" lon="1.8754">
        <ele>144</ele>
        <time>2013-01-27T03:14:24.000Z</time>
      </trkpt>
      <trkpt lat="48.91363" lon="1.87526">
        <ele>142.80000305176</ele>
        <time>2013-01-27T03:14:30.000Z</time>
      </trkpt>
      <trkpt lat="48.91362" lon="1.87509">
        <ele>141.39999389648</ele>
        <time>2013-01-27T03:14:38.000Z</time>
      </trkpt>
      <trkpt lat="48.91362" lon="1.87505">
        <ele>141</ele>
        <time>2013-01-27T03:14:40.000Z</time>
      </trkpt>
      <trkpt lat="48.91361" lon="1.87495">
        <ele>140.19999694824</ele>
        <time>2013-01-27T03:14:44.000Z</time>
      </trkpt>
      <trkpt lat="48.91359" lon="1.87474">
        <ele>138.60000610352</ele>
        <time>2013-01-27T03:14:52.000Z</time>
      </trkpt>
      <trkpt lat="48.91358" lon="1.87452">
        <ele>137.19999694824</ele>
        <time>2013-01-27T03:14:59.000Z</time>
      </trkpt>
      <trkpt lat="48.91358" lon="1.8743">
        <ele>135.60000610352</ele>
        <time>2013-01-27T03:15:06.000Z</time>
      </trkpt>
      <trkpt lat="48.91358" lon="1.87399">
        <ele>133.60000610352</ele>
        <time>2013-01-27T03:15:15.000Z</time>
      </trkpt>
      <trkpt lat="48.91354" lon="1.87378">
        <ele>132</ele>
        <time>2013-01-27T03:15:20.000Z</time>
      </trkpt>
      <trkpt lat="48.9135" lon="1.87351">
        <ele>130</ele>
        <time>2013-01-27T03:15:28.000Z</time>
      </trkpt>
      <trkpt lat="48.91346" lon="1.87328">
        <ele>128.19999694824</ele>
        <time>2013-01-27T03:15:34.000Z</time>
      </trkpt>
      <trkpt lat="48.91341" lon="1.87298">
        <ele>126.59999847412</ele>
        <time>2013-01-27T03:15:42.000Z</time>
      </trkpt>
      <trkpt lat="48.91336" lon="1.87271">
        <ele>125</ele>
        <time>2013-01-27T03:15:50.000Z</time>
      </trkpt>
      <trkpt lat="48.9133" lon="1.87242">
        <ele>123.59999847412</ele>
        <time>2013-01-27T03:15:58.000Z</time>
      </trkpt>
      <trkpt lat="48.91323" lon="1.87216">
        <ele>122.59999847412</ele>
        <time>2013-01-27T03:16:06.000Z</time>
      </trkpt>
      <trkpt lat="48.91318" lon="1.87191">
        <ele>121.40000152588</ele>
        <time>2013-01-27T03:16:13.000Z</time>
      </trkpt>
      <trkpt lat="48.91313" lon="1.87166">
        <ele>120.19999694824</ele>
        <time>2013-01-27T03:16:20.000Z</time>
      </trkpt>
      <trkpt lat="48.91305" lon="1.87139">
        <ele>118.59999847412</ele>
        <time>2013-01-27T03:16:28.000Z</time>
      </trkpt>
      <trkpt lat="48.913" lon="1.87114">
        <ele>117.19999694824</ele>
        <time>2013-01-27T03:16:35.000Z</time>
      </trkpt>
      <trkpt lat="48.91295" lon="1.87089">
        <ele>115.80000305176</ele>
        <time>2013-01-27T03:16:42.000Z</time>
      </trkpt>
      <trkpt lat="48.91288" lon="1.87061">
        <ele>114</ele>
        <time>2013-01-27T03:16:50.000Z</time>
      </trkpt>
      <trkpt lat="48.91282" lon="1.87033">
        <ele>112.19999694824</ele>
        <time>2013-01-27T03:16:58.000Z</time>
      </trkpt>
      <trkpt lat="48.91278" lon="1.87004">
        <ele>110.19999694824</ele>
        <time>2013-01-27T03:17:06.000Z</time>
      </trkpt>
      <trkpt lat="48.91275" lon="1.86979">
        <ele>109</ele>
        <time>2013-01-27T03:17:13.000Z</time>
      </trkpt>
      <trkpt lat="48.91274" lon="1.86954">
        <ele>108</ele>
        <time>2013-01-27T03:17:20.000Z</time>
      </trkpt>
      <trkpt lat="48.9127" lon="1.86923">
        <ele>106.80000305176</ele>
        <time>2013-01-27T03:17:28.000Z</time>
      </trkpt>
      <trkpt lat="48.91265" lon="1.86902">
        <ele>105.80000305176</ele>
        <time>2013-01-27T03:17:34.000Z</time>
      </trkpt>
      <trkpt lat="48.91258" lon="1.86878">
        <ele>104.40000152588</ele>
        <time>2013-01-27T03:17:41.000Z</time>
      </trkpt>
      <trkpt lat="48.91252" lon="1.86849">
        <ele>102.80000305176</ele>
        <time>2013-01-27T03:17:49.000Z</time>
      </trkpt>
      <trkpt lat="48.91246" lon="1.86824">
        <ele>101.80000305176</ele>
        <time>2013-01-27T03:17:56.000Z</time>
      </trkpt>
      <trkpt lat="48.91237" lon="1.86798">
        <ele>101.59999847412</ele>
        <time>2013-01-27T03:18:04.000Z</time>
      </trkpt>
      <trkpt lat="48.91229" lon="1.86775">
        <ele>101.19999694824</ele>
        <time>2013-01-27T03:18:11.000Z</time>
      </trkpt>
      <trkpt lat="48.9122" lon="1.86751">
        <ele>100.40000152588</ele>
        <time>2013-01-27T03:18:18.000Z</time>
      </trkpt>
      <trkpt lat="48.9121" lon="1.86725">
        <ele>99.800003051758</ele>
        <time>2013-01-27T03:18:26.000Z</time>
      </trkpt>
      <trkpt lat="48.91204" lon="1.86705">
        <ele>99.400001525879</ele>
        <time>2013-01-27T03:18:32.000Z</time>
      </trkpt>
      <trkpt lat="48.91197" lon="1.86677">
        <ele>98.800003051758</ele>
        <time>2013-01-27T03:18:40.000Z</time>
      </trkpt>
      <trkpt lat="48.91192" lon="1.86652">
        <ele>98</ele>
        <time>2013-01-27T03:18:47.000Z</time>
      </trkpt>
      <trkpt lat="48.91187" lon="1.86626">
        <ele>97</ele>
        <time>2013-01-27T03:18:54.000Z</time>
      </trkpt>
      <trkpt lat="48.91181" lon="1.86597">
        <ele>95.800003051758</ele>
        <time>2013-01-27T03:19:02.000Z</time>
      </trkpt>
      <trkpt lat="48.91174" lon="1.86575">
        <ele>94.400001525879</ele>
        <time>2013-01-27T03:19:09.000Z</time>
      </trkpt>
      <trkpt lat="48.91173" lon="1.8657">
        <ele>94</ele>
        <time>2013-01-27T03:19:10.000Z</time>
      </trkpt>
      <trkpt lat="48.91165" lon="1.86549">
        <ele>92.599998474121</ele>
        <time>2013-01-27T03:19:16.000Z</time>
      </trkpt>
      <trkpt lat="48.91149" lon="1.86506">
        <ele>90.599998474121</ele>
        <time>2013-01-27T03:19:29.000Z</time>
      </trkpt>
      <trkpt lat="48.91141" lon="1.86482">
        <ele>89.199996948242</ele>
        <time>2013-01-27T03:19:36.000Z</time>
      </trkpt>
      <trkpt lat="48.91133" lon="1.86458">
        <ele>87.199996948242</ele>
        <time>2013-01-27T03:19:43.000Z</time>
      </trkpt>
      <trkpt lat="48.91125" lon="1.86432">
        <ele>84.599998474121</ele>
        <time>2013-01-27T03:19:51.000Z</time>
      </trkpt>
      <trkpt lat="48.91117" lon="1.86407">
        <ele>82</ele>
        <time>2013-01-27T03:19:58.000Z</time>
      </trkpt>
      <trkpt lat="48.9111" lon="1.86387">
        <ele>80.599998474121</ele>
        <time>2013-01-27T03:20:04.000Z</time>
      </trkpt>
      <trkpt lat="48.91103" lon="1.86372">
        <ele>79.199996948242</ele>
        <time>2013-01-27T03:20:09.000Z</time>
      </trkpt>
      <trkpt lat="48.91093" lon="1.86349">
        <ele>77.199996948242</ele>
        <time>2013-01-27T03:20:17.000Z</time>
      </trkpt>
      <trkpt lat="48.91065" lon="1.86289">
        <ele>76</ele>
        <time>2013-01-27T03:20:38.000Z</time>
      </trkpt>
      <trkpt lat="48.91056" lon="1.86272">
        <ele>75.599998474121</ele>
        <time>2013-01-27T03:20:44.000Z</time>
      </trkpt>
      <trkpt lat="48.91047" lon="1.86256">
        <ele>74.800003051758</ele>
        <time>2013-01-27T03:20:50.000Z</time>
      </trkpt>
      <trkpt lat="48.91035" lon="1.86235">
        <ele>73.199996948242</ele>
        <time>2013-01-27T03:20:58.000Z</time>
      </trkpt>
      <trkpt lat="48.91026" lon="1.86219">
        <ele>71.800003051758</ele>
        <time>2013-01-27T03:21:04.000Z</time>
      </trkpt>
      <trkpt lat="48.91017" lon="1.86203">
        <ele>70.400001525879</ele>
        <time>2013-01-27T03:21:10.000Z</time>
      </trkpt>
      <trkpt lat="48.91009" lon="1.86183">
        <ele>68.800003051758</ele>
        <time>2013-01-27T03:21:17.000Z</time>
      </trkpt>
      <trkpt lat="48.91" lon="1.86166">
        <ele>67</ele>
        <time>2013-01-27T03:21:23.000Z</time>
      </trkpt>
      <trkpt lat="48.9099" lon="1.86147">
        <ele>66.199996948242</ele>
        <time>2013-01-27T03:21:30.000Z</time>
      </trkpt>
      <trkpt lat="48.90981" lon="1.86129">
        <ele>65.400001525879</ele>
        <time>2013-01-27T03:21:36.000Z</time>
      </trkpt>
      <trkpt lat="48.90971" lon="1.86104">
        <ele>63.599998474121</ele>
        <time>2013-01-27T03:21:44.000Z</time>
      </trkpt>
      <trkpt lat="48.90963" lon="1.8608">
        <ele>61.799999237061</ele>
        <time>2013-01-27T03:21:51.000Z</time>
      </trkpt>
      <trkpt lat="48.90958" lon="1.86054">
        <ele>60.599998474121</ele>
        <time>2013-01-27T03:21:58.000Z</time>
      </trkpt>
      <trkpt lat="48.90954" lon="1.86024">
        <ele>59.200000762939</ele>
        <time>2013-01-27T03:22:06.000Z</time>
      </trkpt>
      <trkpt lat="48.90952" lon="1.86005">
        <ele>58.599998474121</ele>
        <time>2013-01-27T03:22:11.000Z</time>
      </trkpt>
      <trkpt lat="48.9095" lon="1.85977">
        <ele>56.400001525879</ele>
        <time>2013-01-27T03:22:18.000Z</time>
      </trkpt>
      <trkpt lat="48.90949" lon="1.85958">
        <ele>55</ele>
        <time>2013-01-27T03:22:23.000Z</time>
      </trkpt>
      <trkpt lat="48.90947" lon="1.85928">
        <ele>52.599998474121</ele>
        <time>2013-01-27T03:22:31.000Z</time>
      </trkpt>
      <trkpt lat="48.90946" lon="1.85905">
        <ele>51</ele>
        <time>2013-01-27T03:22:37.000Z</time>
      </trkpt>
      <trkpt lat="48.90948" lon="1.85877">
        <ele>49</ele>
        <time>2013-01-27T03:22:44.000Z</time>
      </trkpt>
      <trkpt lat="48.90951" lon="1.85854">
        <ele>47.799999237061</ele>
        <time>2013-01-27T03:22:50.000Z</time>
      </trkpt>
      <trkpt lat="48.90957" lon="1.85838">
        <ele>47.200000762939</ele>
        <time>2013-01-27T03:22:55.000Z</time>
      </trkpt>
      <trkpt lat="48.90969" lon="1.85815">
        <ele>46.799999237061</ele>
        <time>2013-01-27T03:23:03.000Z</time>
      </trkpt>
      <trkpt lat="48.90982" lon="1.85798">
        <ele>46.599998474121</ele>
        <time>2013-01-27T03:23:10.000Z</time>
      </trkpt>
      <trkpt lat="48.90992" lon="1.85782">
        <ele>46</ele>
        <time>2013-01-27T03:23:16.000Z</time>
      </trkpt>
      <trkpt lat="48.91003" lon="1.85762">
        <ele>45.200000762939</ele>
        <time>2013-01-27T03:23:23.000Z</time>
      </trkpt>
      <trkpt lat="48.91011" lon="1.85748">
        <ele>44.400001525879</ele>
        <time>2013-01-27T03:23:28.000Z</time>
      </trkpt>
      <trkpt lat="48.91022" lon="1.85729">
        <ele>44.400001525879</ele>
        <time>2013-01-27T03:23:35.000Z</time>
      </trkpt>
      <trkpt lat="48.91023" lon="1.85727">
        <ele>44.400001525879</ele>
        <time>2013-01-27T03:23:36.000Z</time>
      </trkpt>
      <trkpt lat="48.91029" lon="1.8572">
        <ele>44.599998474121</ele>
        <time>2013-01-27T03:23:39.000Z</time>
      </trkpt>
      <trkpt lat="48.91042" lon="1.85698">
        <ele>44.599998474121</ele>
        <time>2013-01-27T03:23:47.000Z</time>
      </trkpt>
      <trkpt lat="48.91052" lon="1.85682">
        <ele>44.799999237061</ele>
        <time>2013-01-27T03:23:53.000Z</time>
      </trkpt>
      <trkpt lat="48.91062" lon="1.85666">
        <ele>44.799999237061</ele>
        <time>2013-01-27T03:23:59.000Z</time>
      </trkpt>
      <trkpt lat="48.91069" lon="1.85656">
        <ele>44.799999237061</ele>
        <time>2013-01-27T03:24:03.000Z</time>
      </trkpt>
      <trkpt lat="48.91079" lon="1.8564">
        <ele>44.799999237061</ele>
        <time>2013-01-27T03:24:09.000Z</time>
      </trkpt>
      <trkpt lat="48.91088" lon="1.85625">
        <ele>44.599998474121</ele>
        <time>2013-01-27T03:24:15.000Z</time>
      </trkpt>
      <trkpt lat="48.91101" lon="1.85585">
        <ele>44</ele>
        <time>2013-01-27T03:24:28.000Z</time>
      </trkpt>
      <trkpt lat="48.91109" lon="1.85558">
        <ele>43.200000762939</ele>
        <time>2013-01-27T03:24:36.000Z</time>
      </trkpt>
      <trkpt lat="48.91118" lon="1.85536">
        <ele>42.799999237061</ele>
        <time>2013-01-27T03:24:43.000Z</time>
      </trkpt>
      <trkpt lat="48.91127" lon="1.85516">
        <ele>42.200000762939</ele>
        <time>2013-01-27T03:24:49.000Z</time>
      </trkpt>
      <trkpt lat="48.91138" lon="1.85502">
        <ele>42.200000762939</ele>
        <time>2013-01-27T03:24:55.000Z</time>
      </trkpt>
      <trkpt lat="48.91151" lon="1.85487">
        <ele>42.200000762939</ele>
        <time>2013-01-27T03:25:02.000Z</time>
      </trkpt>
      <trkpt lat="48.91163" lon="1.85475">
        <ele>42.200000762939</ele>
        <time>2013-01-27T03:25:08.000Z</time>
      </trkpt>
      <trkpt lat="48.91178" lon="1.85465">
        <ele>42.799999237061</ele>
        <time>2013-01-27T03:25:15.000Z</time>
      </trkpt>
      <trkpt lat="48.91187" lon="1.85457">
        <ele>43.200000762939</ele>
        <time>2013-01-27T03:25:20.000Z</time>
      </trkpt>
      <trkpt lat="48.91189" lon="1.85454">
        <ele>43.200000762939</ele>
        <time>2013-01-27T03:25:21.000Z</time>
      </trkpt>
      <trkpt lat="48.91197" lon="1.85438">
        <ele>42.599998474121</ele>
        <time>2013-01-27T03:25:27.000Z</time>
      </trkpt>
      <trkpt lat="48.91198" lon="1.85434">
        <ele>42.400001525879</ele>
        <time>2013-01-27T03:25:28.000Z</time>
      </trkpt>
      <trkpt lat="48.912" lon="1.85416">
        <ele>41.200000762939</ele>
        <time>2013-01-27T03:25:33.000Z</time>
      </trkpt>
      <trkpt lat="48.91198" lon="1.85401">
        <ele>40.200000762939</ele>
        <time>2013-01-27T03:25:37.000Z</time>
      </trkpt>
      <trkpt lat="48.91196" lon="1.85395">
        <ele>39.599998474121</ele>
        <time>2013-01-27T03:25:39.000Z</time>
      </trkpt>
      <trkpt lat="48.91186" lon="1.85368">
        <ele>37.400001525879</ele>
        <time>2013-01-27T03:25:47.000Z</time>
      </trkpt>
      <trkpt lat="48.91185" lon="1.85354">
        <ele>36.599998474121</ele>
        <time>2013-01-27T03:25:53.000Z</time>
      </trkpt>
      <trkpt lat="48.91192" lon="1.85344">
        <ele>36.200000762939</ele>
        <time>2013-01-27T03:25:59.000Z</time>
      </trkpt>
      <trkpt lat="48.91205" lon="1.85334">
        <ele>35.799999237061</ele>
        <time>2013-01-27T03:26:07.000Z</time>
      </trkpt>
      <trkpt lat="48.91216" lon="1.85325">
        <ele>36</ele>
        <time>2013-01-27T03:26:15.000Z</time>
      </trkpt>
      <trkpt lat="48.9123" lon="1.85313">
        <ele>35.799999237061</ele>
        <time>2013-01-27T03:26:25.000Z</time>
      </trkpt>
      <trkpt lat="48.91242" lon="1.85296">
        <ele>35.400001525879</ele>
        <time>2013-01-27T03:26:35.000Z</time>
      </trkpt>
      <trkpt lat="48.91248" lon="1.85276">
        <ele>34.799999237061</ele>
        <time>2013-01-27T03:26:45.000Z</time>
      </trkpt>
      <trkpt lat="48.91247" lon="1.85263">
        <ele>34.400001525879</ele>
        <time>2013-01-27T03:26:51.000Z</time>
      </trkpt>
      <trkpt lat="48.91242" lon="1.85246">
        <ele>34</ele>
        <time>2013-01-27T03:26:59.000Z</time>
      </trkpt>
      <trkpt lat="48.91235" lon="1.85225">
        <ele>33.799999237061</ele>
        <time>2013-01-27T03:27:08.000Z</time>
      </trkpt>
      <trkpt lat="48.91228" lon="1.85202">
        <ele>33.599998474121</ele>
        <time>2013-01-27T03:27:19.000Z</time>
      </trkpt>
      <trkpt lat="48.91222" lon="1.85183">
        <ele>33.400001525879</ele>
        <time>2013-01-27T03:27:28.000Z</time>
      </trkpt>
      <trkpt lat="48.91214" lon="1.8516">
        <ele>33.200000762939</ele>
        <time>2013-01-27T03:27:39.000Z</time>
      </trkpt>
      <trkpt lat="48.91207" lon="1.85139">
        <ele>33</ele>
        <time>2013-01-27T03:27:49.000Z</time>
      </trkpt>
      <trkpt lat="48.912" lon="1.8512">
        <ele>32.799999237061</ele>
        <time>2013-01-27T03:27:58.000Z</time>
      </trkpt>
      <trkpt lat="48.91194" lon="1.851">
        <ele>32.599998474121</ele>
        <time>2013-01-27T03:28:07.000Z</time>
      </trkpt>
      <trkpt lat="48.91187" lon="1.85078">
        <ele>32.400001525879</ele>
        <time>2013-01-27T03:28:17.000Z</time>
      </trkpt>
      <trkpt lat="48.91181" lon="1.8506">
        <ele>32.599998474121</ele>
        <time>2013-01-27T03:28:25.000Z</time>
      </trkpt>
      <trkpt lat="48.91175" lon="1.85044">
        <ele>32.799999237061</ele>
        <time>2013-01-27T03:28:33.000Z</time>
      </trkpt>
      <trkpt lat="48.91168" lon="1.85027">
        <ele>32.799999237061</ele>
        <time>2013-01-27T03:28:42.000Z</time>
      </trkpt>
      <trkpt lat="48.91165" lon="1.85018">
        <ele>33</ele>
        <time>2013-01-27T03:28:48.000Z</time>
      </trkpt>
      <trkpt lat="48.91164" lon="1.85016">
        <ele>33</ele>
        <time>2013-01-27T03:28:55.000Z</time>
      </trkpt>
      <trkpt lat="48.91161" lon="1.8501">
        <ele>33</ele>
        <time>2013-01-27T03:28:59.000Z</time>
      </trkpt>
      <trkpt lat="48.91154" lon="1.84993">
        <ele>33</ele>
        <time>2013-01-27T03:29:08.000Z</time>
      </trkpt>
      <trkpt lat="48.91147" lon="1.84977">
        <ele>33.400001525879</ele>
        <time>2013-01-27T03:29:16.000Z</time>
      </trkpt>
      <trkpt lat="48.91143" lon="1.8496">
        <ele>33.599998474121</ele>
        <time>2013-01-27T03:29:24.000Z</time>
      </trkpt>
      <trkpt lat="48.91136" lon="1.8494">
        <ele>34.200000762939</ele>
        <time>2013-01-27T03:29:33.000Z</time>
      </trkpt>
      <trkpt lat="48.9113" lon="1.8492">
        <ele>34.799999237061</ele>
        <time>2013-01-27T03:29:42.000Z</time>
      </trkpt>
      <trkpt lat="48.91125" lon="1.84905">
        <ele>35</ele>
        <time>2013-01-27T03:29:49.000Z</time>
      </trkpt>
      <trkpt lat="48.9112" lon="1.84889">
        <ele>35.599998474121</ele>
        <time>2013-01-27T03:29:56.000Z</time>
      </trkpt>
      <trkpt lat="48.91116" lon="1.84871">
        <ele>36</ele>
        <time>2013-01-27T03:30:04.000Z</time>
      </trkpt>
      <trkpt lat="48.91113" lon="1.84857">
        <ele>36.400001525879</ele>
        <time>2013-01-27T03:30:10.000Z</time>
      </trkpt>
      <trkpt lat="48.91109" lon="1.8484">
        <ele>36.799999237061</ele>
        <time>2013-01-27T03:30:18.000Z</time>
      </trkpt>
      <trkpt lat="48.91103" lon="1.84819">
        <ele>37.799999237061</ele>
        <time>2013-01-27T03:30:28.000Z</time>
      </trkpt>
      <trkpt lat="48.91099" lon="1.84802">
        <ele>38.799999237061</ele>
        <time>2013-01-27T03:30:36.000Z</time>
      </trkpt>
      <trkpt lat="48.91093" lon="1.84787">
        <ele>39.799999237061</ele>
        <time>2013-01-27T03:30:44.000Z</time>
      </trkpt>
      <trkpt lat="48.91087" lon="1.84772">
        <ele>40.599998474121</ele>
        <time>2013-01-27T03:30:52.000Z</time>
      </trkpt>
      <trkpt lat="48.91081" lon="1.84761">
        <ele>41.599998474121</ele>
        <time>2013-01-27T03:30:59.000Z</time>
      </trkpt>
      <trkpt lat="48.91074" lon="1.84748">
        <ele>43</ele>
        <time>2013-01-27T03:31:07.000Z</time>
      </trkpt>
      <trkpt lat="48.91065" lon="1.84733">
        <ele>44.799999237061</ele>
        <time>2013-01-27T03:31:16.000Z</time>
      </trkpt>
      <trkpt lat="48.91059" lon="1.84723">
        <ele>46</ele>
        <time>2013-01-27T03:31:23.000Z</time>
      </trkpt>
      <trkpt lat="48.91052" lon="1.84711">
        <ele>47.200000762939</ele>
        <time>2013-01-27T03:31:31.000Z</time>
      </trkpt>
      <trkpt lat="48.91046" lon="1.84702">
        <ele>48.200000762939</ele>
        <time>2013-01-27T03:31:37.000Z</time>
      </trkpt>
      <trkpt lat="48.91037" lon="1.84707">
        <ele>49</ele>
        <time>2013-01-27T03:31:44.000Z</time>
      </trkpt>
      <trkpt lat="48.91026" lon="1.84724">
        <ele>49.200000762939</ele>
        <time>2013-01-27T03:31:54.000Z</time>
      </trkpt>
      <trkpt lat="48.91021" lon="1.84735">
        <ele>49.200000762939</ele>
        <time>2013-01-27T03:32:00.000Z</time>
      </trkpt>
      <trkpt lat="48.91015" lon="1.84749">
        <ele>49.200000762939</ele>
        <time>2013-01-27T03:32:07.000Z</time>
      </trkpt>
      <trkpt lat="48.91007" lon="1.84766">
        <ele>49.200000762939</ele>
        <time>2013-01-27T03:32:17.000Z</time>
      </trkpt>
      <trkpt lat="48.90997" lon="1.84785">
        <ele>49</ele>
        <time>2013-01-27T03:32:27.000Z</time>
      </trkpt>
      <trkpt lat="48.90989" lon="1.84795">
        <ele>48.599998474121</ele>
        <time>2013-01-27T03:32:35.000Z</time>
      </trkpt>
      <trkpt lat="48.90979" lon="1.84801">
        <ele>48.599998474121</ele>
        <time>2013-01-27T03:32:43.000Z</time>
      </trkpt>
      <trkpt lat="48.90971" lon="1.848">
        <ele>49</ele>
        <time>2013-01-27T03:32:49.000Z</time>
      </trkpt>
      <trkpt lat="48.90958" lon="1.84794">
        <ele>50</ele>
        <time>2013-01-27T03:32:58.000Z</time>
      </trkpt>
      <trkpt lat="48.90948" lon="1.84789">
        <ele>50.799999237061</ele>
        <time>2013-01-27T03:33:06.000Z</time>
      </trkpt>
      <trkpt lat="48.90927" lon="1.84777">
        <ele>52.400001525879</ele>
        <time>2013-01-27T03:33:21.000Z</time>
      </trkpt>
      <trkpt lat="48.90913" lon="1.8477">
        <ele>53.400001525879</ele>
        <time>2013-01-27T03:33:31.000Z</time>
      </trkpt>
      <trkpt lat="48.90903" lon="1.84765">
        <ele>53.599998474121</ele>
        <time>2013-01-27T03:33:38.000Z</time>
      </trkpt>
      <trkpt lat="48.90889" lon="1.84756">
        <ele>53.799999237061</ele>
        <time>2013-01-27T03:33:48.000Z</time>
      </trkpt>
      <trkpt lat="48.90874" lon="1.84747">
        <ele>54</ele>
        <time>2013-01-27T03:33:59.000Z</time>
      </trkpt>
      <trkpt lat="48.90861" lon="1.84739">
        <ele>54.400001525879</ele>
        <time>2013-01-27T03:34:08.000Z</time>
      </trkpt>
      <trkpt lat="48.9085" lon="1.84732">
        <ele>54.599998474121</ele>
        <time>2013-01-27T03:34:16.000Z</time>
      </trkpt>
      <trkpt lat="48.90836" lon="1.84723">
        <ele>55</ele>
        <time>2013-01-27T03:34:25.000Z</time>
      </trkpt>
      <trkpt lat="48.90828" lon="1.84716">
        <ele>55.200000762939</ele>
        <time>2013-01-27T03:34:31.000Z</time>
      </trkpt>
      <trkpt lat="48.90827" lon="1.84707">
        <ele>55.799999237061</ele>
        <time>2013-01-27T03:34:35.000Z</time>
      </trkpt>
      <trkpt lat="48.90828" lon="1.84699">
        <ele>56.400001525879</ele>
        <time>2013-01-27T03:34:39.000Z</time>
      </trkpt>
      <trkpt lat="48.9083" lon="1.84683">
        <ele>57.599998474121</ele>
        <time>2013-01-27T03:34:47.000Z</time>
      </trkpt>
      <trkpt lat="48.90828" lon="1.84664">
        <ele>59</ele>
        <time>2013-01-27T03:34:55.000Z</time>
      </trkpt>
      <trkpt lat="48.90824" lon="1.84645">
        <ele>60.599998474121</ele>
        <time>2013-01-27T03:35:04.000Z</time>
      </trkpt>
      <trkpt lat="48.90823" lon="1.84641">
        <ele>60.799999237061</ele>
        <time>2013-01-27T03:35:06.000Z</time>
      </trkpt>
      <trkpt lat="48.90822" lon="1.84633">
        <ele>61.400001525879</ele>
        <time>2013-01-27T03:35:10.000Z</time>
      </trkpt>
      <trkpt lat="48.90816" lon="1.84618">
        <ele>62.599998474121</ele>
        <time>2013-01-27T03:35:18.000Z</time>
      </trkpt>
      <trkpt lat="48.90812" lon="1.846">
        <ele>64</ele>
        <time>2013-01-27T03:35:27.000Z</time>
      </trkpt>
      <trkpt lat="48.90807" lon="1.8458">
        <ele>65.599998474121</ele>
        <time>2013-01-27T03:35:37.000Z</time>
      </trkpt>
      <trkpt lat="48.90801" lon="1.84564">
        <ele>67.199996948242</ele>
        <time>2013-01-27T03:35:45.000Z</time>
      </trkpt>
      <trkpt lat="48.90799" lon="1.8456">
        <ele>67.599998474121</ele>
        <time>2013-01-27T03:35:47.000Z</time>
      </trkpt>
      <trkpt lat="48.90796" lon="1.84552">
        <ele>68.400001525879</ele>
        <time>2013-01-27T03:35:51.000Z</time>
      </trkpt>
      <trkpt lat="48.90789" lon="1.8453">
        <ele>70.599998474121</ele>
        <time>2013-01-27T03:36:02.000Z</time>
      </trkpt>
      <trkpt lat="48.90782" lon="1.8451">
        <ele>72.599998474121</ele>
        <time>2013-01-27T03:36:12.000Z</time>
      </trkpt>
      <trkpt lat="48.90777" lon="1.84494">
        <ele>74</ele>
        <time>2013-01-27T03:36:20.000Z</time>
      </trkpt>
      <trkpt lat="48.90771" lon="1.84478">
        <ele>75.199996948242</ele>
        <time>2013-01-27T03:36:28.000Z</time>
      </trkpt>
      <trkpt lat="48.90767" lon="1.84464">
        <ele>76.199996948242</ele>
        <time>2013-01-27T03:36:35.000Z</time>
      </trkpt>
      <trkpt lat="48.90761" lon="1.84449">
        <ele>77</ele>
        <time>2013-01-27T03:36:44.000Z</time>
      </trkpt>
      <trkpt lat="48.90757" lon="1.84439">
        <ele>77.599998474121</ele>
        <time>2013-01-27T03:36:49.000Z</time>
      </trkpt>
      <trkpt lat="48.90752" lon="1.84427">
        <ele>78.199996948242</ele>
        <time>2013-01-27T03:36:55.000Z</time>
      </trkpt>
      <trkpt lat="48.90747" lon="1.84409">
        <ele>79.599998474121</ele>
        <time>2013-01-27T03:37:04.000Z</time>
      </trkpt>
      <trkpt lat="48.90742" lon="1.84394">
        <ele>80.800003051758</ele>
        <time>2013-01-27T03:37:12.000Z</time>
      </trkpt>
      <trkpt lat="48.90735" lon="1.84377">
        <ele>82.199996948242</ele>
        <time>2013-01-27T03:37:21.000Z</time>
      </trkpt>
      <trkpt lat="48.90727" lon="1.8436">
        <ele>83.599998474121</ele>
        <time>2013-01-27T03:37:31.000Z</time>
      </trkpt>
      <trkpt lat="48.9072" lon="1.84346">
        <ele>84.800003051758</ele>
        <time>2013-01-27T03:37:39.000Z</time>
      </trkpt>
      <trkpt lat="48.90714" lon="1.84332">
        <ele>85.800003051758</ele>
        <time>2013-01-27T03:37:47.000Z</time>
      </trkpt>
      <trkpt lat="48.90705" lon="1.84318">
        <ele>86.800003051758</ele>
        <time>2013-01-27T03:37:56.000Z</time>
      </trkpt>
      <trkpt lat="48.90698" lon="1.84306">
        <ele>87.599998474121</ele>
        <time>2013-01-27T03:38:04.000Z</time>
      </trkpt>
      <trkpt lat="48.9069" lon="1.84295">
        <ele>88</ele>
        <time>2013-01-27T03:38:12.000Z</time>
      </trkpt>
      <trkpt lat="48.90683" lon="1.84285">
        <ele>88.400001525879</ele>
        <time>2013-01-27T03:38:19.000Z</time>
      </trkpt>
      <trkpt lat="48.90674" lon="1.8427">
        <ele>88.800003051758</ele>
        <time>2013-01-27T03:38:29.000Z</time>
      </trkpt>
      <trkpt lat="48.90664" lon="1.8425">
        <ele>89.599998474121</ele>
        <time>2013-01-27T03:38:41.000Z</time>
      </trkpt>
      <trkpt lat="48.9066" lon="1.84239">
        <ele>90.400001525879</ele>
        <time>2013-01-27T03:38:48.000Z</time>
      </trkpt>
      <trkpt lat="48.90654" lon="1.84221">
        <ele>91.800003051758</ele>
        <time>2013-01-27T03:38:58.000Z</time>
      </trkpt>
      <trkpt lat="48.9065" lon="1.84211">
        <ele>92.599998474121</ele>
        <time>2013-01-27T03:39:04.000Z</time>
      </trkpt>
      <trkpt lat="48.90647" lon="1.84204">
        <ele>93.199996948242</ele>
        <time>2013-01-27T03:39:08.000Z</time>
      </trkpt>
      <trkpt lat="48.90642" lon="1.84182">
        <ele>95</ele>
        <time>2013-01-27T03:39:20.000Z</time>
      </trkpt>
      <trkpt lat="48.90636" lon="1.84163">
        <ele>96.599998474121</ele>
        <time>2013-01-27T03:39:30.000Z</time>
      </trkpt>
      <trkpt lat="48.90632" lon="1.84148">
        <ele>97</ele>
        <time>2013-01-27T03:39:38.000Z</time>
      </trkpt>
      <trkpt lat="48.90625" lon="1.84132">
        <ele>97.400001525879</ele>
        <time>2013-01-27T03:39:47.000Z</time>
      </trkpt>
      <trkpt lat="48.90616" lon="1.84112">
        <ele>98</ele>
        <time>2013-01-27T03:39:58.000Z</time>
      </trkpt>
      <trkpt lat="48.90607" lon="1.84093">
        <ele>98.400001525879</ele>
        <time>2013-01-27T03:40:08.000Z</time>
      </trkpt>
      <trkpt lat="48.90598" lon="1.84073">
        <ele>98.400001525879</ele>
        <time>2013-01-27T03:40:19.000Z</time>
      </trkpt>
      <trkpt lat="48.90587" lon="1.84049">
        <ele>98</ele>
        <time>2013-01-27T03:40:32.000Z</time>
      </trkpt>
      <trkpt lat="48.90578" lon="1.84028">
        <ele>98.199996948242</ele>
        <time>2013-01-27T03:40:43.000Z</time>
      </trkpt>
      <trkpt lat="48.9057" lon="1.84009">
        <ele>98.599998474121</ele>
        <time>2013-01-27T03:40:53.000Z</time>
      </trkpt>
      <trkpt lat="48.90563" lon="1.83991">
        <ele>99</ele>
        <time>2013-01-27T03:41:02.000Z</time>
      </trkpt>
      <trkpt lat="48.90556" lon="1.8397">
        <ele>99.599998474121</ele>
        <time>2013-01-27T03:41:12.000Z</time>
      </trkpt>
      <trkpt lat="48.90548" lon="1.83948">
        <ele>100.40000152588</ele>
        <time>2013-01-27T03:41:23.000Z</time>
      </trkpt>
      <trkpt lat="48.9054" lon="1.83933">
        <ele>100.80000305176</ele>
        <time>2013-01-27T03:41:31.000Z</time>
      </trkpt>
      <trkpt lat="48.90528" lon="1.83915">
        <ele>101.19999694824</ele>
        <time>2013-01-27T03:41:42.000Z</time>
      </trkpt>
      <trkpt lat="48.90518" lon="1.83905">
        <ele>101.40000152588</ele>
        <time>2013-01-27T03:41:51.000Z</time>
      </trkpt>
      <trkpt lat="48.90509" lon="1.83891">
        <ele>101.40000152588</ele>
        <time>2013-01-27T03:42:00.000Z</time>
      </trkpt>
      <trkpt lat="48.90499" lon="1.83868">
        <ele>101.59999847412</ele>
        <time>2013-01-27T03:42:12.000Z</time>
      </trkpt>
      <trkpt lat="48.90493" lon="1.83849">
        <ele>102</ele>
        <time>2013-01-27T03:42:21.000Z</time>
      </trkpt>
      <trkpt lat="48.90486" lon="1.83823">
        <ele>102.80000305176</ele>
        <time>2013-01-27T03:42:33.000Z</time>
      </trkpt>
      <trkpt lat="48.9048" lon="1.838">
        <ele>104</ele>
        <time>2013-01-27T03:42:44.000Z</time>
      </trkpt>
      <trkpt lat="48.90473" lon="1.83779">
        <ele>105</ele>
        <time>2013-01-27T03:42:54.000Z</time>
      </trkpt>
      <trkpt lat="48.90465" lon="1.83756">
        <ele>106</ele>
        <time>2013-01-27T03:43:06.000Z</time>
      </trkpt>
      <trkpt lat="48.90456" lon="1.83731">
        <ele>106.80000305176</ele>
        <time>2013-01-27T03:43:19.000Z</time>
      </trkpt>
      <trkpt lat="48.90448" lon="1.83709">
        <ele>107.59999847412</ele>
        <time>2013-01-27T03:43:30.000Z</time>
      </trkpt>
      <trkpt lat="48.90442" lon="1.8369">
        <ele>108</ele>
        <time>2013-01-27T03:43:39.000Z</time>
      </trkpt>
      <trkpt lat="48.90435" lon="1.8367">
        <ele>108.59999847412</ele>
        <time>2013-01-27T03:43:49.000Z</time>
      </trkpt>
      <trkpt lat="48.90429" lon="1.83653">
        <ele>109</ele>
        <time>2013-01-27T03:43:57.000Z</time>
      </trkpt>
      <trkpt lat="48.90424" lon="1.83639">
        <ele>109.19999694824</ele>
        <time>2013-01-27T03:44:04.000Z</time>
      </trkpt>
      <trkpt lat="48.90416" lon="1.83619">
        <ele>109.40000152588</ele>
        <time>2013-01-27T03:44:14.000Z</time>
      </trkpt>
      <trkpt lat="48.90407" lon="1.83595">
        <ele>109.80000305176</ele>
        <time>2013-01-27T03:44:26.000Z</time>
      </trkpt>
      <trkpt lat="48.90399" lon="1.83575">
        <ele>110</ele>
        <time>2013-01-27T03:44:36.000Z</time>
      </trkpt>
      <trkpt lat="48.90388" lon="1.83551">
        <ele>110.40000152588</ele>
        <time>2013-01-27T03:44:48.000Z</time>
      </trkpt>
      <trkpt lat="48.90379" lon="1.83532">
        <ele>110.80000305176</ele>
        <time>2013-01-27T03:44:58.000Z</time>
      </trkpt>
      <trkpt lat="48.90369" lon="1.83512">
        <ele>111.19999694824</ele>
        <time>2013-01-27T03:45:09.000Z</time>
      </trkpt>
      <trkpt lat="48.90358" lon="1.83488">
        <ele>112</ele>
        <time>2013-01-27T03:45:22.000Z</time>
      </trkpt>
      <trkpt lat="48.90356" lon="1.83485">
        <ele>112.19999694824</ele>
        <time>2013-01-27T03:45:24.000Z</time>
      </trkpt>
      <trkpt lat="48.90347" lon="1.83466">
        <ele>113</ele>
        <time>2013-01-27T03:45:34.000Z</time>
      </trkpt>
      <trkpt lat="48.90337" lon="1.83445">
        <ele>113.80000305176</ele>
        <time>2013-01-27T03:45:45.000Z</time>
      </trkpt>
      <trkpt lat="48.90326" lon="1.83423">
        <ele>114.59999847412</ele>
        <time>2013-01-27T03:45:57.000Z</time>
      </trkpt>
      <trkpt lat="48.90316" lon="1.83405">
        <ele>115.19999694824</ele>
        <time>2013-01-27T03:46:07.000Z</time>
      </trkpt>
      <trkpt lat="48.90306" lon="1.83385">
        <ele>116</ele>
        <time>2013-01-27T03:46:18.000Z</time>
      </trkpt>
      <trkpt lat="48.90286" lon="1.83348">
        <ele>117</ele>
        <time>2013-01-27T03:46:38.000Z</time>
      </trkpt>
      <trkpt lat="48.90275" lon="1.83326">
        <ele>117.19999694824</ele>
        <time>2013-01-27T03:46:50.000Z</time>
      </trkpt>
      <trkpt lat="48.90264" lon="1.83304">
        <ele>117.40000152588</ele>
        <time>2013-01-27T03:47:02.000Z</time>
      </trkpt>
      <trkpt lat="48.90251" lon="1.83281">
        <ele>117.59999847412</ele>
        <time>2013-01-27T03:47:15.000Z</time>
      </trkpt>
      <trkpt lat="48.90238" lon="1.8326">
        <ele>117.59999847412</ele>
        <time>2013-01-27T03:47:27.000Z</time>
      </trkpt>
      <trkpt lat="48.90226" lon="1.8324">
        <ele>117.80000305176</ele>
        <time>2013-01-27T03:47:39.000Z</time>
      </trkpt>
      <trkpt lat="48.90213" lon="1.83221">
        <ele>118.19999694824</ele>
        <time>2013-01-27T03:47:51.000Z</time>
      </trkpt>
      <trkpt lat="48.90201" lon="1.83201">
        <ele>118.59999847412</ele>
        <time>2013-01-27T03:48:03.000Z</time>
      </trkpt>
      <trkpt lat="48.90188" lon="1.83181">
        <ele>119.19999694824</ele>
        <time>2013-01-27T03:48:15.000Z</time>
      </trkpt>
      <trkpt lat="48.90177" lon="1.83158">
        <ele>120</ele>
        <time>2013-01-27T03:48:27.000Z</time>
      </trkpt>
      <trkpt lat="48.90166" lon="1.83136">
        <ele>120.19999694824</ele>
        <time>2013-01-27T03:48:39.000Z</time>
      </trkpt>
      <trkpt lat="48.90155" lon="1.83113">
        <ele>120.40000152588</ele>
        <time>2013-01-27T03:48:51.000Z</time>
      </trkpt>
      <trkpt lat="48.90145" lon="1.83089">
        <ele>120.59999847412</ele>
        <time>2013-01-27T03:49:03.000Z</time>
      </trkpt>
      <trkpt lat="48.90137" lon="1.83064">
        <ele>120.59999847412</ele>
        <time>2013-01-27T03:49:15.000Z</time>
      </trkpt>
      <trkpt lat="48.90129" lon="1.83041">
        <ele>120.40000152588</ele>
        <time>2013-01-27T03:49:26.000Z</time>
      </trkpt>
      <trkpt lat="48.90121" lon="1.83016">
        <ele>120.40000152588</ele>
        <time>2013-01-27T03:49:38.000Z</time>
      </trkpt>
      <trkpt lat="48.90113" lon="1.82991">
        <ele>120.40000152588</ele>
        <time>2013-01-27T03:49:50.000Z</time>
      </trkpt>
      <trkpt lat="48.90104" lon="1.82967">
        <ele>121</ele>
        <time>2013-01-27T03:50:02.000Z</time>
      </trkpt>
      <trkpt lat="48.90095" lon="1.82942">
        <ele>121.40000152588</ele>
        <time>2013-01-27T03:50:14.000Z</time>
      </trkpt>
      <trkpt lat="48.90077" lon="1.82894">
        <ele>121.80000305176</ele>
        <time>2013-01-27T03:50:38.000Z</time>
      </trkpt>
      <trkpt lat="48.90068" lon="1.82875">
        <ele>121.80000305176</ele>
        <time>2013-01-27T03:50:48.000Z</time>
      </trkpt>
      <trkpt lat="48.90058" lon="1.82852">
        <ele>121.80000305176</ele>
        <time>2013-01-27T03:51:00.000Z</time>
      </trkpt>
      <trkpt lat="48.90047" lon="1.82833">
        <ele>122</ele>
        <time>2013-01-27T03:51:11.000Z</time>
      </trkpt>
      <trkpt lat="48.90035" lon="1.82812">
        <ele>122</ele>
        <time>2013-01-27T03:51:23.000Z</time>
      </trkpt>
      <trkpt lat="48.90021" lon="1.82794">
        <ele>122</ele>
        <time>2013-01-27T03:51:35.000Z</time>
      </trkpt>
      <trkpt lat="48.90007" lon="1.82776">
        <ele>122</ele>
        <time>2013-01-27T03:51:47.000Z</time>
      </trkpt>
      <trkpt lat="48.89994" lon="1.82759">
        <ele>121.80000305176</ele>
        <time>2013-01-27T03:51:58.000Z</time>
      </trkpt>
      <trkpt lat="48.8998" lon="1.82741">
        <ele>121.40000152588</ele>
        <time>2013-01-27T03:52:10.000Z</time>
      </trkpt>
      <trkpt lat="48.89966" lon="1.82722">
        <ele>121.19999694824</ele>
        <time>2013-01-27T03:52:22.000Z</time>
      </trkpt>
      <trkpt lat="48.89952" lon="1.82704">
        <ele>121</ele>
        <time>2013-01-27T03:52:34.000Z</time>
      </trkpt>
      <trkpt lat="48.89938" lon="1.82685">
        <ele>121</ele>
        <time>2013-01-27T03:52:46.000Z</time>
      </trkpt>
      <trkpt lat="48.89924" lon="1.82667">
        <ele>121</ele>
        <time>2013-01-27T03:52:58.000Z</time>
      </trkpt>
      <trkpt lat="48.8991" lon="1.82649">
        <ele>120.80000305176</ele>
        <time>2013-01-27T03:53:10.000Z</time>
      </trkpt>
      <trkpt lat="48.89896" lon="1.82631">
        <ele>120.59999847412</ele>
        <time>2013-01-27T03:53:22.000Z</time>
      </trkpt>
      <trkpt lat="48.89883" lon="1.82614">
        <ele>120.19999694824</ele>
        <time>2013-01-27T03:53:33.000Z</time>
      </trkpt>
      <trkpt lat="48.89868" lon="1.82598">
        <ele>119.80000305176</ele>
        <time>2013-01-27T03:53:45.000Z</time>
      </trkpt>
      <trkpt lat="48.89854" lon="1.82584">
        <ele>119.40000152588</ele>
        <time>2013-01-27T03:53:56.000Z</time>
      </trkpt>
      <trkpt lat="48.89838" lon="1.82571">
        <ele>118.59999847412</ele>
        <time>2013-01-27T03:54:08.000Z</time>
      </trkpt>
      <trkpt lat="48.89821" lon="1.82557">
        <ele>118.40000152588</ele>
        <time>2013-01-27T03:54:20.000Z</time>
      </trkpt>
      <trkpt lat="48.89808" lon="1.82547">
        <ele>118.19999694824</ele>
        <time>2013-01-27T03:54:30.000Z</time>
      </trkpt>
      <trkpt lat="48.89791" lon="1.82534">
        <ele>118</ele>
        <time>2013-01-27T03:54:42.000Z</time>
      </trkpt>
      <trkpt lat="48.89776" lon="1.82522">
        <ele>118</ele>
        <time>2013-01-27T03:54:53.000Z</time>
      </trkpt>
      <trkpt lat="48.89763" lon="1.82511">
        <ele>117.80000305176</ele>
        <time>2013-01-27T03:55:03.000Z</time>
      </trkpt>
      <trkpt lat="48.89756" lon="1.82505">
        <ele>117.80000305176</ele>
        <time>2013-01-27T03:55:08.000Z</time>
      </trkpt>
      <trkpt lat="48.89746" lon="1.82498">
        <ele>117.80000305176</ele>
        <time>2013-01-27T03:55:15.000Z</time>
      </trkpt>
      <trkpt lat="48.8973" lon="1.82485">
        <ele>117.80000305176</ele>
        <time>2013-01-27T03:55:27.000Z</time>
      </trkpt>
      <trkpt lat="48.89713" lon="1.82473">
        <ele>117.80000305176</ele>
        <time>2013-01-27T03:55:39.000Z</time>
      </trkpt>
      <trkpt lat="48.89699" lon="1.82461">
        <ele>117.80000305176</ele>
        <time>2013-01-27T03:55:49.000Z</time>
      </trkpt>
      <trkpt lat="48.89687" lon="1.82452">
        <ele>117.80000305176</ele>
        <time>2013-01-27T03:55:58.000Z</time>
      </trkpt>
      <trkpt lat="48.89676" lon="1.82444">
        <ele>117.80000305176</ele>
        <time>2013-01-27T03:56:06.000Z</time>
      </trkpt>
      <trkpt lat="48.89664" lon="1.82434">
        <ele>118</ele>
        <time>2013-01-27T03:56:15.000Z</time>
      </trkpt>
      <trkpt lat="48.89648" lon="1.82421">
        <ele>118.40000152588</ele>
        <time>2013-01-27T03:56:27.000Z</time>
      </trkpt>
      <trkpt lat="48.89634" lon="1.8241">
        <ele>118.40000152588</ele>
        <time>2013-01-27T03:56:38.000Z</time>
      </trkpt>
      <trkpt lat="48.89622" lon="1.82401">
        <ele>118.59999847412</ele>
        <time>2013-01-27T03:56:47.000Z</time>
      </trkpt>
      <trkpt lat="48.8961" lon="1.82394">
        <ele>118.59999847412</ele>
        <time>2013-01-27T03:56:56.000Z</time>
      </trkpt>
      <trkpt lat="48.89601" lon="1.82388">
        <ele>118.40000152588</ele>
        <time>2013-01-27T03:57:03.000Z</time>
      </trkpt>
      <trkpt lat="48.89593" lon="1.82382">
        <ele>118.40000152588</ele>
        <time>2013-01-27T03:57:10.000Z</time>
      </trkpt>
      <trkpt lat="48.89578" lon="1.82372">
        <ele>118.59999847412</ele>
        <time>2013-01-27T03:57:21.000Z</time>
      </trkpt>
      <trkpt lat="48.89565" lon="1.82361">
        <ele>118.59999847412</ele>
        <time>2013-01-27T03:57:31.000Z</time>
      </trkpt>
      <trkpt lat="48.89554" lon="1.8235">
        <ele>118.59999847412</ele>
        <time>2013-01-27T03:57:40.000Z</time>
      </trkpt>
      <trkpt lat="48.89543" lon="1.82343">
        <ele>118.80000305176</ele>
        <time>2013-01-27T03:57:48.000Z</time>
      </trkpt>
      <trkpt lat="48.89532" lon="1.82335">
        <ele>118.80000305176</ele>
        <time>2013-01-27T03:57:57.000Z</time>
      </trkpt>
      <trkpt lat="48.8953" lon="1.82334">
        <ele>118.80000305176</ele>
        <time>2013-01-27T03:57:58.000Z</time>
      </trkpt>
      <trkpt lat="48.89522" lon="1.82325">
        <ele>119</ele>
        <time>2013-01-27T03:58:05.000Z</time>
      </trkpt>
      <trkpt lat="48.89511" lon="1.82316">
        <ele>119.19999694824</ele>
        <time>2013-01-27T03:58:14.000Z</time>
      </trkpt>
      <trkpt lat="48.89504" lon="1.82314">
        <ele>119.59999847412</ele>
        <time>2013-01-27T03:58:19.000Z</time>
      </trkpt>
      <trkpt lat="48.8949" lon="1.82304">
        <ele>120</ele>
        <time>2013-01-27T03:58:30.000Z</time>
      </trkpt>
      <trkpt lat="48.89473" lon="1.82292">
        <ele>120.59999847412</ele>
        <time>2013-01-27T03:58:43.000Z</time>
      </trkpt>
      <trkpt lat="48.89463" lon="1.82286">
        <ele>121</ele>
        <time>2013-01-27T03:58:51.000Z</time>
      </trkpt>
      <trkpt lat="48.89459" lon="1.82284">
        <ele>121</ele>
        <time>2013-01-27T03:58:54.000Z</time>
      </trkpt>
      <trkpt lat="48.89453" lon="1.82278">
        <ele>121.40000152588</ele>
        <time>2013-01-27T03:58:59.000Z</time>
      </trkpt>
      <trkpt lat="48.89442" lon="1.82271">
        <ele>121.80000305176</ele>
        <time>2013-01-27T03:59:08.000Z</time>
      </trkpt>
      <trkpt lat="48.89429" lon="1.82264">
        <ele>122.40000152588</ele>
        <time>2013-01-27T03:59:18.000Z</time>
      </trkpt>
      <trkpt lat="48.89428" lon="1.82263">
        <ele>122.40000152588</ele>
        <time>2013-01-27T03:59:19.000Z</time>
      </trkpt>
      <trkpt lat="48.89425" lon="1.82263">
        <ele>122.59999847412</ele>
        <time>2013-01-27T03:59:22.000Z</time>
      </trkpt>
      <trkpt lat="48.89419" lon="1.82261">
        <ele>122.80000305176</ele>
        <time>2013-01-27T03:59:26.000Z</time>
      </trkpt>
      <trkpt lat="48.89408" lon="1.82253">
        <ele>123.19999694824</ele>
        <time>2013-01-27T03:59:36.000Z</time>
      </trkpt>
      <trkpt lat="48.89396" lon="1.82247">
        <ele>123.40000152588</ele>
        <time>2013-01-27T03:59:45.000Z</time>
      </trkpt>
      <trkpt lat="48.89391" lon="1.82245">
        <ele>123.59999847412</ele>
        <time>2013-01-27T03:59:50.000Z</time>
      </trkpt>
      <trkpt lat="48.89386" lon="1.8224">
        <ele>123.80000305176</ele>
        <time>2013-01-27T03:59:54.000Z</time>
      </trkpt>
      <trkpt lat="48.89374" lon="1.82234">
        <ele>124</ele>
        <time>2013-01-27T04:00:03.000Z</time>
      </trkpt>
      <trkpt lat="48.89366" lon="1.8223">
        <ele>124.19999694824</ele>
        <time>2013-01-27T04:00:09.000Z</time>
      </trkpt>
      <trkpt lat="48.89351" lon="1.82226">
        <ele>124.59999847412</ele>
        <time>2013-01-27T04:00:19.000Z</time>
      </trkpt>
      <trkpt lat="48.89335" lon="1.82223">
        <ele>124.80000305176</ele>
        <time>2013-01-27T04:00:30.000Z</time>
      </trkpt>
      <trkpt lat="48.89322" lon="1.82221">
        <ele>124.59999847412</ele>
        <time>2013-01-27T04:00:40.000Z</time>
      </trkpt>
      <trkpt lat="48.89308" lon="1.82219">
        <ele>124.19999694824</ele>
        <time>2013-01-27T04:00:50.000Z</time>
      </trkpt>
      <trkpt lat="48.89306" lon="1.8222">
        <ele>124.19999694824</ele>
        <time>2013-01-27T04:00:51.000Z</time>
      </trkpt>
      <trkpt lat="48.89293" lon="1.82217">
        <ele>124</ele>
        <time>2013-01-27T04:01:01.000Z</time>
      </trkpt>
      <trkpt lat="48.89287" lon="1.82215">
        <ele>123.80000305176</ele>
        <time>2013-01-27T04:01:06.000Z</time>
      </trkpt>
      <trkpt lat="48.89283" lon="1.82212">
        <ele>123.59999847412</ele>
        <time>2013-01-27T04:01:10.000Z</time>
      </trkpt>
      <trkpt lat="48.89267" lon="1.82204">
        <ele>123.40000152588</ele>
        <time>2013-01-27T04:01:22.000Z</time>
      </trkpt>
      <trkpt lat="48.89249" lon="1.82196">
        <ele>123</ele>
        <time>2013-01-27T04:01:35.000Z</time>
      </trkpt>
      <trkpt lat="48.89236" lon="1.82189">
        <ele>123</ele>
        <time>2013-01-27T04:01:45.000Z</time>
      </trkpt>
      <trkpt lat="48.89225" lon="1.82182">
        <ele>123.19999694824</ele>
        <time>2013-01-27T04:01:53.000Z</time>
      </trkpt>
      <trkpt lat="48.89215" lon="1.82174">
        <ele>123.40000152588</ele>
        <time>2013-01-27T04:02:02.000Z</time>
      </trkpt>
      <trkpt lat="48.89205" lon="1.82166">
        <ele>123.40000152588</ele>
        <time>2013-01-27T04:02:10.000Z</time>
      </trkpt>
      <trkpt lat="48.8919" lon="1.82155">
        <ele>123.59999847412</ele>
        <time>2013-01-27T04:02:22.000Z</time>
      </trkpt>
      <trkpt lat="48.8918" lon="1.82145">
        <ele>123.59999847412</ele>
        <time>2013-01-27T04:02:31.000Z</time>
      </trkpt>
      <trkpt lat="48.89169" lon="1.82136">
        <ele>123.59999847412</ele>
        <time>2013-01-27T04:02:40.000Z</time>
      </trkpt>
      <trkpt lat="48.89158" lon="1.82124">
        <ele>123.40000152588</ele>
        <time>2013-01-27T04:02:51.000Z</time>
      </trkpt>
      <trkpt lat="48.89147" lon="1.82113">
        <ele>123.19999694824</ele>
        <time>2013-01-27T04:03:00.000Z</time>
      </trkpt>
      <trkpt lat="48.89143" lon="1.82107">
        <ele>123.19999694824</ele>
        <time>2013-01-27T04:03:05.000Z</time>
      </trkpt>
      <trkpt lat="48.89137" lon="1.82101">
        <ele>123</ele>
        <time>2013-01-27T04:03:12.000Z</time>
      </trkpt>
      <trkpt lat="48.89129" lon="1.82091">
        <ele>123</ele>
        <time>2013-01-27T04:03:22.000Z</time>
      </trkpt>
      <trkpt lat="48.89127" lon="1.82086">
        <ele>123</ele>
        <time>2013-01-27T04:03:25.000Z</time>
      </trkpt>
      <trkpt lat="48.89121" lon="1.82076">
        <ele>122.80000305176</ele>
        <time>2013-01-27T04:03:33.000Z</time>
      </trkpt>
      <trkpt lat="48.89114" lon="1.82066">
        <ele>122.80000305176</ele>
        <time>2013-01-27T04:03:40.000Z</time>
      </trkpt>
      <trkpt lat="48.89104" lon="1.82055">
        <ele>122.59999847412</ele>
        <time>2013-01-27T04:03:49.000Z</time>
      </trkpt>
      <trkpt lat="48.89096" lon="1.82045">
        <ele>122.59999847412</ele>
        <time>2013-01-27T04:03:57.000Z</time>
      </trkpt>
      <trkpt lat="48.89081" lon="1.82027">
        <ele>122.19999694824</ele>
        <time>2013-01-27T04:04:11.000Z</time>
      </trkpt>
      <trkpt lat="48.89071" lon="1.82016">
        <ele>122</ele>
        <time>2013-01-27T04:04:20.000Z</time>
      </trkpt>
      <trkpt lat="48.89057" lon="1.82003">
        <ele>122</ele>
        <time>2013-01-27T04:04:32.000Z</time>
      </trkpt>
      <trkpt lat="48.89048" lon="1.81994">
        <ele>121.80000305176</ele>
        <time>2013-01-27T04:04:40.000Z</time>
      </trkpt>
      <trkpt lat="48.89034" lon="1.81987">
        <ele>121.80000305176</ele>
        <time>2013-01-27T04:04:51.000Z</time>
      </trkpt>
      <trkpt lat="48.89022" lon="1.81982">
        <ele>121.59999847412</ele>
        <time>2013-01-27T04:05:00.000Z</time>
      </trkpt>
      <trkpt lat="48.89008" lon="1.81974">
        <ele>121.59999847412</ele>
        <time>2013-01-27T04:05:11.000Z</time>
      </trkpt>
      <trkpt lat="48.88993" lon="1.81965">
        <ele>121.19999694824</ele>
        <time>2013-01-27T04:05:23.000Z</time>
      </trkpt>
      <trkpt lat="48.88978" lon="1.81956">
        <ele>120.59999847412</ele>
        <time>2013-01-27T04:05:34.000Z</time>
      </trkpt>
      <trkpt lat="48.88974" lon="1.81954">
        <ele>120.40000152588</ele>
        <time>2013-01-27T04:05:38.000Z</time>
      </trkpt>
      <trkpt lat="48.88968" lon="1.81953">
        <ele>120.19999694824</ele>
        <time>2013-01-27T04:05:44.000Z</time>
      </trkpt>
      <trkpt lat="48.88962" lon="1.81951">
        <ele>119.80000305176</ele>
        <time>2013-01-27T04:05:50.000Z</time>
      </trkpt>
      <trkpt lat="48.88951" lon="1.81943">
        <ele>119.19999694824</ele>
        <time>2013-01-27T04:05:59.000Z</time>
      </trkpt>
      <trkpt lat="48.88949" lon="1.81941">
        <ele>119.19999694824</ele>
        <time>2013-01-27T04:06:01.000Z</time>
      </trkpt>
      <trkpt lat="48.88943" lon="1.81937">
        <ele>118.80000305176</ele>
        <time>2013-01-27T04:06:07.000Z</time>
      </trkpt>
      <trkpt lat="48.88932" lon="1.81928">
        <ele>118</ele>
        <time>2013-01-27T04:06:15.000Z</time>
      </trkpt>
      <trkpt lat="48.88922" lon="1.81918">
        <ele>117.19999694824</ele>
        <time>2013-01-27T04:06:24.000Z</time>
      </trkpt>
      <trkpt lat="48.88914" lon="1.8191">
        <ele>116.80000305176</ele>
        <time>2013-01-27T04:06:31.000Z</time>
      </trkpt>
      <trkpt lat="48.88906" lon="1.81902">
        <ele>116.40000152588</ele>
        <time>2013-01-27T04:06:38.000Z</time>
      </trkpt>
      <trkpt lat="48.88897" lon="1.81893">
        <ele>116</ele>
        <time>2013-01-27T04:06:46.000Z</time>
      </trkpt>
      <trkpt lat="48.88891" lon="1.81888">
        <ele>115.80000305176</ele>
        <time>2013-01-27T04:06:51.000Z</time>
      </trkpt>
      <trkpt lat="48.88883" lon="1.8188">
        <ele>115.40000152588</ele>
        <time>2013-01-27T04:06:58.000Z</time>
      </trkpt>
      <trkpt lat="48.88874" lon="1.81867">
        <ele>114.80000305176</ele>
        <time>2013-01-27T04:07:07.000Z</time>
      </trkpt>
      <trkpt lat="48.88869" lon="1.81858">
        <ele>114.40000152588</ele>
        <time>2013-01-27T04:07:13.000Z</time>
      </trkpt>
      <trkpt lat="48.88858" lon="1.81842">
        <ele>113.40000152588</ele>
        <time>2013-01-27T04:07:24.000Z</time>
      </trkpt>
      <trkpt lat="48.8885" lon="1.81829">
        <ele>113</ele>
        <time>2013-01-27T04:07:32.000Z</time>
      </trkpt>
      <trkpt lat="48.88842" lon="1.81814">
        <ele>112.59999847412</ele>
        <time>2013-01-27T04:07:41.000Z</time>
      </trkpt>
      <trkpt lat="48.88838" lon="1.81801">
        <ele>112.59999847412</ele>
        <time>2013-01-27T04:07:47.000Z</time>
      </trkpt>
      <trkpt lat="48.88832" lon="1.8179">
        <ele>112.40000152588</ele>
        <time>2013-01-27T04:07:54.000Z</time>
      </trkpt>
      <trkpt lat="48.88825" lon="1.81775">
        <ele>112.59999847412</ele>
        <time>2013-01-27T04:08:03.000Z</time>
      </trkpt>
      <trkpt lat="48.88818" lon="1.81762">
        <ele>112.80000305176</ele>
        <time>2013-01-27T04:08:11.000Z</time>
      </trkpt>
      <trkpt lat="48.88809" lon="1.81748">
        <ele>112.80000305176</ele>
        <time>2013-01-27T04:08:21.000Z</time>
      </trkpt>
      <trkpt lat="48.88801" lon="1.81731">
        <ele>112.80000305176</ele>
        <time>2013-01-27T04:08:31.000Z</time>
      </trkpt>
      <trkpt lat="48.88793" lon="1.81717">
        <ele>112.80000305176</ele>
        <time>2013-01-27T04:08:40.000Z</time>
      </trkpt>
      <trkpt lat="48.88785" lon="1.81704">
        <ele>113</ele>
        <time>2013-01-27T04:08:49.000Z</time>
      </trkpt>
      <trkpt lat="48.88779" lon="1.81696">
        <ele>113</ele>
        <time>2013-01-27T04:08:55.000Z</time>
      </trkpt>
      <trkpt lat="48.88771" lon="1.81682">
        <ele>113.40000152588</ele>
        <time>2013-01-27T04:09:04.000Z</time>
      </trkpt>
      <trkpt lat="48.88761" lon="1.81665">
        <ele>113.59999847412</ele>
        <time>2013-01-27T04:09:15.000Z</time>
      </trkpt>
      <trkpt lat="48.88752" lon="1.81656">
        <ele>113.80000305176</ele>
        <time>2013-01-27T04:09:24.000Z</time>
      </trkpt>
      <trkpt lat="48.88745" lon="1.81662">
        <ele>114</ele>
        <time>2013-01-27T04:09:30.000Z</time>
      </trkpt>
      <trkpt lat="48.88735" lon="1.8168">
        <ele>114</ele>
        <time>2013-01-27T04:09:41.000Z</time>
      </trkpt>
      <trkpt lat="48.88727" lon="1.81695">
        <ele>114.19999694824</ele>
        <time>2013-01-27T04:09:50.000Z</time>
      </trkpt>
      <trkpt lat="48.88719" lon="1.81708">
        <ele>114.19999694824</ele>
        <time>2013-01-27T04:09:58.000Z</time>
      </trkpt>
      <trkpt lat="48.88708" lon="1.81726">
        <ele>114.19999694824</ele>
        <time>2013-01-27T04:10:09.000Z</time>
      </trkpt>
      <trkpt lat="48.88687" lon="1.81765">
        <ele>114.40000152588</ele>
        <time>2013-01-27T04:10:33.000Z</time>
      </trkpt>
      <trkpt lat="48.88679" lon="1.81779">
        <ele>114.59999847412</ele>
        <time>2013-01-27T04:10:41.000Z</time>
      </trkpt>
      <trkpt lat="48.8867" lon="1.81795">
        <ele>114.80000305176</ele>
        <time>2013-01-27T04:10:51.000Z</time>
      </trkpt>
      <trkpt lat="48.88661" lon="1.8181">
        <ele>115</ele>
        <time>2013-01-27T04:11:00.000Z</time>
      </trkpt>
      <trkpt lat="48.88654" lon="1.81823">
        <ele>115.19999694824</ele>
        <time>2013-01-27T04:11:08.000Z</time>
      </trkpt>
      <trkpt lat="48.88643" lon="1.81844">
        <ele>115.40000152588</ele>
        <time>2013-01-27T04:11:20.000Z</time>
      </trkpt>
      <trkpt lat="48.88632" lon="1.81864">
        <ele>115.40000152588</ele>
        <time>2013-01-27T04:11:32.000Z</time>
      </trkpt>
      <trkpt lat="48.88622" lon="1.81884">
        <ele>115.40000152588</ele>
        <time>2013-01-27T04:11:43.000Z</time>
      </trkpt>
      <trkpt lat="48.88615" lon="1.81891">
        <ele>115.40000152588</ele>
        <time>2013-01-27T04:11:48.000Z</time>
      </trkpt>
      <trkpt lat="48.8861" lon="1.81881">
        <ele>115.59999847412</ele>
        <time>2013-01-27T04:11:54.000Z</time>
      </trkpt>
      <trkpt lat="48.88609" lon="1.81876">
        <ele>115.80000305176</ele>
        <time>2013-01-27T04:11:56.000Z</time>
      </trkpt>
      <trkpt lat="48.88609" lon="1.81853">
        <ele>116</ele>
        <time>2013-01-27T04:12:06.000Z</time>
      </trkpt>
      <trkpt lat="48.8861" lon="1.81827">
        <ele>116.19999694824</ele>
        <time>2013-01-27T04:12:17.000Z</time>
      </trkpt>
      <trkpt lat="48.8861" lon="1.818">
        <ele>116</ele>
        <time>2013-01-27T04:12:29.000Z</time>
      </trkpt>
      <trkpt lat="48.88611" lon="1.81784">
        <ele>115.80000305176</ele>
        <time>2013-01-27T04:12:36.000Z</time>
      </trkpt>
      <trkpt lat="48.88611" lon="1.81765">
        <ele>115.59999847412</ele>
        <time>2013-01-27T04:12:44.000Z</time>
      </trkpt>
      <trkpt lat="48.88611" lon="1.81742">
        <ele>115.59999847412</ele>
        <time>2013-01-27T04:12:54.000Z</time>
      </trkpt>
      <trkpt lat="48.8861" lon="1.81717">
        <ele>116</ele>
        <time>2013-01-27T04:13:05.000Z</time>
      </trkpt>
      <trkpt lat="48.8861" lon="1.817">
        <ele>116.19999694824</ele>
        <time>2013-01-27T04:13:13.000Z</time>
      </trkpt>
      <trkpt lat="48.88608" lon="1.81681">
        <ele>116.40000152588</ele>
        <time>2013-01-27T04:13:21.000Z</time>
      </trkpt>
      <trkpt lat="48.88607" lon="1.81658">
        <ele>116.59999847412</ele>
        <time>2013-01-27T04:13:31.000Z</time>
      </trkpt>
      <trkpt lat="48.88605" lon="1.81632">
        <ele>116.40000152588</ele>
        <time>2013-01-27T04:13:43.000Z</time>
      </trkpt>
      <trkpt lat="48.88603" lon="1.81609">
        <ele>116.40000152588</ele>
        <time>2013-01-27T04:13:53.000Z</time>
      </trkpt>
      <trkpt lat="48.88601" lon="1.81581">
        <ele>116.19999694824</ele>
        <time>2013-01-27T04:14:05.000Z</time>
      </trkpt>
      <trkpt lat="48.886" lon="1.81563">
        <ele>116.40000152588</ele>
        <time>2013-01-27T04:14:13.000Z</time>
      </trkpt>
      <trkpt lat="48.88597" lon="1.81542">
        <ele>116.40000152588</ele>
        <time>2013-01-27T04:14:22.000Z</time>
      </trkpt>
      <trkpt lat="48.88596" lon="1.8152">
        <ele>116.40000152588</ele>
        <time>2013-01-27T04:14:32.000Z</time>
      </trkpt>
      <trkpt lat="48.88594" lon="1.81504">
        <ele>116.40000152588</ele>
        <time>2013-01-27T04:14:39.000Z</time>
      </trkpt>
      <trkpt lat="48.88593" lon="1.81487">
        <ele>116.59999847412</ele>
        <time>2013-01-27T04:14:46.000Z</time>
      </trkpt>
      <trkpt lat="48.88591" lon="1.8146">
        <ele>116.59999847412</ele>
        <time>2013-01-27T04:14:58.000Z</time>
      </trkpt>
      <trkpt lat="48.8859" lon="1.81437">
        <ele>116.80000305176</ele>
        <time>2013-01-27T04:15:08.000Z</time>
      </trkpt>
      <trkpt lat="48.88589" lon="1.81409">
        <ele>116.80000305176</ele>
        <time>2013-01-27T04:15:20.000Z</time>
      </trkpt>
      <trkpt lat="48.88588" lon="1.81381">
        <ele>116.80000305176</ele>
        <time>2013-01-27T04:15:32.000Z</time>
      </trkpt>
      <trkpt lat="48.88586" lon="1.81356">
        <ele>116.80000305176</ele>
        <time>2013-01-27T04:15:43.000Z</time>
      </trkpt>
      <trkpt lat="48.88582" lon="1.81336">
        <ele>117</ele>
        <time>2013-01-27T04:15:52.000Z</time>
      </trkpt>
      <trkpt lat="48.88576" lon="1.81313">
        <ele>116.40000152588</ele>
        <time>2013-01-27T04:16:03.000Z</time>
      </trkpt>
      <trkpt lat="48.88569" lon="1.81293">
        <ele>115.80000305176</ele>
        <time>2013-01-27T04:16:13.000Z</time>
      </trkpt>
      <trkpt lat="48.88563" lon="1.8128">
        <ele>115.59999847412</ele>
        <time>2013-01-27T04:16:20.000Z</time>
      </trkpt>
      <trkpt lat="48.8856" lon="1.8127">
        <ele>115.40000152588</ele>
        <time>2013-01-27T04:16:25.000Z</time>
      </trkpt>
      <trkpt lat="48.8855" lon="1.81247">
        <ele>115</ele>
        <time>2013-01-27T04:16:37.000Z</time>
      </trkpt>
      <trkpt lat="48.88542" lon="1.81226">
        <ele>115</ele>
        <time>2013-01-27T04:16:47.000Z</time>
      </trkpt>
      <trkpt lat="48.88533" lon="1.81202">
        <ele>115.19999694824</ele>
        <time>2013-01-27T04:16:59.000Z</time>
      </trkpt>
      <trkpt lat="48.88524" lon="1.81178">
        <ele>115.19999694824</ele>
        <time>2013-01-27T04:17:11.000Z</time>
      </trkpt>
      <trkpt lat="48.88516" lon="1.81159">
        <ele>115.19999694824</ele>
        <time>2013-01-27T04:17:18.000Z</time>
      </trkpt>
      <trkpt lat="48.88507" lon="1.81138">
        <ele>115</ele>
        <time>2013-01-27T04:17:25.000Z</time>
      </trkpt>
      <trkpt lat="48.88502" lon="1.81126">
        <ele>114.80000305176</ele>
        <time>2013-01-27T04:17:30.000Z</time>
      </trkpt>
      <trkpt lat="48.88494" lon="1.81109">
        <ele>114.59999847412</ele>
        <time>2013-01-27T04:17:40.000Z</time>
      </trkpt>
      <trkpt lat="48.88487" lon="1.81094">
        <ele>114.40000152588</ele>
        <time>2013-01-27T04:17:48.000Z</time>
      </trkpt>
      <trkpt lat="48.88482" lon="1.81081">
        <ele>114.19999694824</ele>
        <time>2013-01-27T04:17:56.000Z</time>
      </trkpt>
      <trkpt lat="48.88477" lon="1.81069">
        <ele>114.19999694824</ele>
        <time>2013-01-27T04:18:04.000Z</time>
      </trkpt>
      <trkpt lat="48.88471" lon="1.81055">
        <ele>114.19999694824</ele>
        <time>2013-01-27T04:18:13.000Z</time>
      </trkpt>
      <trkpt lat="48.88468" lon="1.81048">
        <ele>114.19999694824</ele>
        <time>2013-01-27T04:18:17.000Z</time>
      </trkpt>
      <trkpt lat="48.88466" lon="1.81042">
        <ele>114.19999694824</ele>
        <time>2013-01-27T04:18:21.000Z</time>
      </trkpt>
      <trkpt lat="48.88467" lon="1.81039">
        <ele>114</ele>
        <time>2013-01-27T04:18:23.000Z</time>
      </trkpt>
      <trkpt lat="48.88465" lon="1.81028">
        <ele>114</ele>
        <time>2013-01-27T04:18:30.000Z</time>
      </trkpt>
      <trkpt lat="48.88464" lon="1.81027">
        <ele>114</ele>
        <time>2013-01-27T04:18:31.000Z</time>
      </trkpt>
      <trkpt lat="48.88463" lon="1.81024">
        <ele>114</ele>
        <time>2013-01-27T04:18:34.000Z</time>
      </trkpt>
      <trkpt lat="48.88462" lon="1.8102">
        <ele>114</ele>
        <time>2013-01-27T04:18:37.000Z</time>
      </trkpt>
      <trkpt lat="48.88456" lon="1.81014">
        <ele>114</ele>
        <time>2013-01-27T04:18:44.000Z</time>
      </trkpt>
      <trkpt lat="48.8845" lon="1.81003">
        <ele>114</ele>
        <time>2013-01-27T04:18:51.000Z</time>
      </trkpt>
      <trkpt lat="48.88444" lon="1.80991">
        <ele>113.80000305176</ele>
        <time>2013-01-27T04:18:59.000Z</time>
      </trkpt>
      <trkpt lat="48.88438" lon="1.80974">
        <ele>113.59999847412</ele>
        <time>2013-01-27T04:19:10.000Z</time>
      </trkpt>
      <trkpt lat="48.88438" lon="1.80972">
        <ele>113.59999847412</ele>
        <time>2013-01-27T04:19:11.000Z</time>
      </trkpt>
      <trkpt lat="48.8843" lon="1.80954">
        <ele>113.40000152588</ele>
        <time>2013-01-27T04:19:22.000Z</time>
      </trkpt>
      <trkpt lat="48.88422" lon="1.80934">
        <ele>113.19999694824</ele>
        <time>2013-01-27T04:19:34.000Z</time>
      </trkpt>
      <trkpt lat="48.88417" lon="1.80924">
        <ele>113</ele>
        <time>2013-01-27T04:19:41.000Z</time>
      </trkpt>
      <trkpt lat="48.88413" lon="1.80914">
        <ele>113</ele>
        <time>2013-01-27T04:19:48.000Z</time>
      </trkpt>
      <trkpt lat="48.88408" lon="1.80902">
        <ele>113.40000152588</ele>
        <time>2013-01-27T04:19:55.000Z</time>
      </trkpt>
      <trkpt lat="48.88402" lon="1.80886">
        <ele>113.80000305176</ele>
        <time>2013-01-27T04:20:05.000Z</time>
      </trkpt>
      <trkpt lat="48.88396" lon="1.80871">
        <ele>114</ele>
        <time>2013-01-27T04:20:14.000Z</time>
      </trkpt>
      <trkpt lat="48.88387" lon="1.80851">
        <ele>114.40000152588</ele>
        <time>2013-01-27T04:20:26.000Z</time>
      </trkpt>
      <trkpt lat="48.88381" lon="1.80836">
        <ele>114.80000305176</ele>
        <time>2013-01-27T04:20:35.000Z</time>
      </trkpt>
      <trkpt lat="48.88374" lon="1.80821">
        <ele>115</ele>
        <time>2013-01-27T04:20:45.000Z</time>
      </trkpt>
      <trkpt lat="48.88367" lon="1.80807">
        <ele>115.40000152588</ele>
        <time>2013-01-27T04:20:54.000Z</time>
      </trkpt>
      <trkpt lat="48.88361" lon="1.80793">
        <ele>115.59999847412</ele>
        <time>2013-01-27T04:21:03.000Z</time>
      </trkpt>
      <trkpt lat="48.88349" lon="1.8077">
        <ele>115.80000305176</ele>
        <time>2013-01-27T04:21:18.000Z</time>
      </trkpt>
      <trkpt lat="48.8834" lon="1.80755">
        <ele>115.80000305176</ele>
        <time>2013-01-27T04:21:28.000Z</time>
      </trkpt>
      <trkpt lat="48.88333" lon="1.8074">
        <ele>116</ele>
        <time>2013-01-27T04:21:37.000Z</time>
      </trkpt>
      <trkpt lat="48.88324" lon="1.80727">
        <ele>116.19999694824</ele>
        <time>2013-01-27T04:21:46.000Z</time>
      </trkpt>
      <trkpt lat="48.88316" lon="1.80713">
        <ele>116.59999847412</ele>
        <time>2013-01-27T04:21:55.000Z</time>
      </trkpt>
      <trkpt lat="48.8831" lon="1.80703">
        <ele>116.80000305176</ele>
        <time>2013-01-27T04:22:02.000Z</time>
      </trkpt>
      <trkpt lat="48.88303" lon="1.80691">
        <ele>117</ele>
        <time>2013-01-27T04:22:10.000Z</time>
      </trkpt>
      <trkpt lat="48.88295" lon="1.80676">
        <ele>117.19999694824</ele>
        <time>2013-01-27T04:22:20.000Z</time>
      </trkpt>
      <trkpt lat="48.88286" lon="1.80663">
        <ele>117.40000152588</ele>
        <time>2013-01-27T04:22:29.000Z</time>
      </trkpt>
      <trkpt lat="48.88275" lon="1.80646">
        <ele>117.19999694824</ele>
        <time>2013-01-27T04:22:41.000Z</time>
      </trkpt>
      <trkpt lat="48.88265" lon="1.80631">
        <ele>117.19999694824</ele>
        <time>2013-01-27T04:22:51.000Z</time>
      </trkpt>
      <trkpt lat="48.88253" lon="1.80613">
        <ele>117.19999694824</ele>
        <time>2013-01-27T04:23:04.000Z</time>
      </trkpt>
      <trkpt lat="48.8824" lon="1.80595">
        <ele>117</ele>
        <time>2013-01-27T04:23:16.000Z</time>
      </trkpt>
      <trkpt lat="48.8823" lon="1.80581">
        <ele>116.59999847412</ele>
        <time>2013-01-27T04:23:26.000Z</time>
      </trkpt>
      <trkpt lat="48.88219" lon="1.80567">
        <ele>116.19999694824</ele>
        <time>2013-01-27T04:23:36.000Z</time>
      </trkpt>
      <trkpt lat="48.88208" lon="1.80549">
        <ele>115.80000305176</ele>
        <time>2013-01-27T04:23:48.000Z</time>
      </trkpt>
      <trkpt lat="48.88201" lon="1.80538">
        <ele>115.59999847412</ele>
        <time>2013-01-27T04:23:55.000Z</time>
      </trkpt>
      <trkpt lat="48.88193" lon="1.80527">
        <ele>115.40000152588</ele>
        <time>2013-01-27T04:24:03.000Z</time>
      </trkpt>
      <trkpt lat="48.88185" lon="1.80516">
        <ele>115.19999694824</ele>
        <time>2013-01-27T04:24:11.000Z</time>
      </trkpt>
      <trkpt lat="48.88177" lon="1.80505">
        <ele>115</ele>
        <time>2013-01-27T04:24:19.000Z</time>
      </trkpt>
      <trkpt lat="48.88169" lon="1.80492">
        <ele>115</ele>
        <time>2013-01-27T04:24:28.000Z</time>
      </trkpt>
      <trkpt lat="48.88158" lon="1.80478">
        <ele>115.19999694824</ele>
        <time>2013-01-27T04:24:38.000Z</time>
      </trkpt>
      <trkpt lat="48.88149" lon="1.80464">
        <ele>115.40000152588</ele>
        <time>2013-01-27T04:24:47.000Z</time>
      </trkpt>
      <trkpt lat="48.88139" lon="1.80449">
        <ele>115.59999847412</ele>
        <time>2013-01-27T04:24:57.000Z</time>
      </trkpt>
      <trkpt lat="48.88131" lon="1.80437">
        <ele>115.59999847412</ele>
        <time>2013-01-27T04:25:05.000Z</time>
      </trkpt>
      <trkpt lat="48.88123" lon="1.80423">
        <ele>115.80000305176</ele>
        <time>2013-01-27T04:25:14.000Z</time>
      </trkpt>
      <trkpt lat="48.88113" lon="1.80406">
        <ele>116</ele>
        <time>2013-01-27T04:25:25.000Z</time>
      </trkpt>
      <trkpt lat="48.88108" lon="1.80398">
        <ele>116.19999694824</ele>
        <time>2013-01-27T04:25:30.000Z</time>
      </trkpt>
      <trkpt lat="48.88103" lon="1.80387">
        <ele>116.19999694824</ele>
        <time>2013-01-27T04:25:37.000Z</time>
      </trkpt>
      <trkpt lat="48.88096" lon="1.80375">
        <ele>116.40000152588</ele>
        <time>2013-01-27T04:25:45.000Z</time>
      </trkpt>
      <trkpt lat="48.88085" lon="1.80356">
        <ele>116.59999847412</ele>
        <time>2013-01-27T04:25:57.000Z</time>
      </trkpt>
      <trkpt lat="48.88075" lon="1.80335">
        <ele>116.80000305176</ele>
        <time>2013-01-27T04:26:09.000Z</time>
      </trkpt>
      <trkpt lat="48.88064" lon="1.80314">
        <ele>116.59999847412</ele>
        <time>2013-01-27T04:26:22.000Z</time>
      </trkpt>
      <trkpt lat="48.88056" lon="1.80299">
        <ele>116.40000152588</ele>
        <time>2013-01-27T04:26:31.000Z</time>
      </trkpt>
      <trkpt lat="48.88046" lon="1.80278">
        <ele>116</ele>
        <time>2013-01-27T04:26:43.000Z</time>
      </trkpt>
      <trkpt lat="48.88037" lon="1.80258">
        <ele>115.40000152588</ele>
        <time>2013-01-27T04:26:54.000Z</time>
      </trkpt>
      <trkpt lat="48.8803" lon="1.80242">
        <ele>115.19999694824</ele>
        <time>2013-01-27T04:27:03.000Z</time>
      </trkpt>
      <trkpt lat="48.88022" lon="1.80227">
        <ele>115.19999694824</ele>
        <time>2013-01-27T04:27:12.000Z</time>
      </trkpt>
      <trkpt lat="48.88016" lon="1.80214">
        <ele>115</ele>
        <time>2013-01-27T04:27:20.000Z</time>
      </trkpt>
      <trkpt lat="48.88013" lon="1.80209">
        <ele>115</ele>
        <time>2013-01-27T04:27:23.000Z</time>
      </trkpt>
      <trkpt lat="48.88007" lon="1.80195">
        <ele>115</ele>
        <time>2013-01-27T04:27:31.000Z</time>
      </trkpt>
      <trkpt lat="48.88001" lon="1.8018">
        <ele>115</ele>
        <time>2013-01-27T04:27:40.000Z</time>
      </trkpt>
      <trkpt lat="48.87993" lon="1.80165">
        <ele>115.19999694824</ele>
        <time>2013-01-27T04:27:49.000Z</time>
      </trkpt>
      <trkpt lat="48.87987" lon="1.80147">
        <ele>115.59999847412</ele>
        <time>2013-01-27T04:27:59.000Z</time>
      </trkpt>
      <trkpt lat="48.87981" lon="1.8013">
        <ele>115.80000305176</ele>
        <time>2013-01-27T04:28:08.000Z</time>
      </trkpt>
      <trkpt lat="48.87976" lon="1.80113">
        <ele>116</ele>
        <time>2013-01-27T04:28:17.000Z</time>
      </trkpt>
      <trkpt lat="48.87971" lon="1.80095">
        <ele>116.19999694824</ele>
        <time>2013-01-27T04:28:27.000Z</time>
      </trkpt>
      <trkpt lat="48.87964" lon="1.80075">
        <ele>116.40000152588</ele>
        <time>2013-01-27T04:28:38.000Z</time>
      </trkpt>
      <trkpt lat="48.87959" lon="1.80055">
        <ele>116.59999847412</ele>
        <time>2013-01-27T04:28:48.000Z</time>
      </trkpt>
      <trkpt lat="48.87956" lon="1.80044">
        <ele>116.59999847412</ele>
        <time>2013-01-27T04:28:54.000Z</time>
      </trkpt>
      <trkpt lat="48.87956" lon="1.80036">
        <ele>116.59999847412</ele>
        <time>2013-01-27T04:28:58.000Z</time>
      </trkpt>
      <trkpt lat="48.87948" lon="1.8001">
        <ele>116.80000305176</ele>
        <time>2013-01-27T04:29:11.000Z</time>
      </trkpt>
      <trkpt lat="48.87943" lon="1.79991">
        <ele>117</ele>
        <time>2013-01-27T04:29:21.000Z</time>
      </trkpt>
      <trkpt lat="48.87932" lon="1.79955">
        <ele>117</ele>
        <time>2013-01-27T04:29:40.000Z</time>
      </trkpt>
      <trkpt lat="48.87932" lon="1.79951">
        <ele>117</ele>
        <time>2013-01-27T04:29:42.000Z</time>
      </trkpt>
      <trkpt lat="48.87924" lon="1.79931">
        <ele>117</ele>
        <time>2013-01-27T04:29:52.000Z</time>
      </trkpt>
      <trkpt lat="48.87916" lon="1.79908">
        <ele>117</ele>
        <time>2013-01-27T04:30:04.000Z</time>
      </trkpt>
      <trkpt lat="48.87905" lon="1.79874">
        <ele>117</ele>
        <time>2013-01-27T04:30:22.000Z</time>
      </trkpt>
      <trkpt lat="48.87898" lon="1.79856">
        <ele>117</ele>
        <time>2013-01-27T04:30:31.000Z</time>
      </trkpt>
      <trkpt lat="48.8789" lon="1.79838">
        <ele>117</ele>
        <time>2013-01-27T04:30:41.000Z</time>
      </trkpt>
      <trkpt lat="48.87883" lon="1.79824">
        <ele>117</ele>
        <time>2013-01-27T04:30:49.000Z</time>
      </trkpt>
      <trkpt lat="48.87877" lon="1.79809">
        <ele>117</ele>
        <time>2013-01-27T04:30:57.000Z</time>
      </trkpt>
      <trkpt lat="48.87871" lon="1.79794">
        <ele>117.19999694824</ele>
        <time>2013-01-27T04:31:05.000Z</time>
      </trkpt>
      <trkpt lat="48.87865" lon="1.79779">
        <ele>117.19999694824</ele>
        <time>2013-01-27T04:31:14.000Z</time>
      </trkpt>
      <trkpt lat="48.87857" lon="1.7976">
        <ele>117.19999694824</ele>
        <time>2013-01-27T04:31:24.000Z</time>
      </trkpt>
      <trkpt lat="48.87848" lon="1.7974">
        <ele>117</ele>
        <time>2013-01-27T04:31:36.000Z</time>
      </trkpt>
      <trkpt lat="48.8784" lon="1.79723">
        <ele>117</ele>
        <time>2013-01-27T04:31:46.000Z</time>
      </trkpt>
      <trkpt lat="48.87836" lon="1.79716">
        <ele>117</ele>
        <time>2013-01-27T04:31:51.000Z</time>
      </trkpt>
      <trkpt lat="48.87832" lon="1.79708">
        <ele>117</ele>
        <time>2013-01-27T04:31:57.000Z</time>
      </trkpt>
      <trkpt lat="48.8783" lon="1.79704">
        <ele>117</ele>
        <time>2013-01-27T04:31:59.000Z</time>
      </trkpt>
      <trkpt lat="48.87822" lon="1.79684">
        <ele>117</ele>
        <time>2013-01-27T04:32:10.000Z</time>
      </trkpt>
      <trkpt lat="48.87815" lon="1.79669">
        <ele>117.19999694824</ele>
        <time>2013-01-27T04:32:18.000Z</time>
      </trkpt>
      <trkpt lat="48.87806" lon="1.7965">
        <ele>117.40000152588</ele>
        <time>2013-01-27T04:32:29.000Z</time>
      </trkpt>
      <trkpt lat="48.87799" lon="1.79631">
        <ele>117.59999847412</ele>
        <time>2013-01-27T04:32:39.000Z</time>
      </trkpt>
      <trkpt lat="48.87793" lon="1.79617">
        <ele>117.59999847412</ele>
        <time>2013-01-27T04:32:47.000Z</time>
      </trkpt>
      <trkpt lat="48.87788" lon="1.79605">
        <ele>117.80000305176</ele>
        <time>2013-01-27T04:32:55.000Z</time>
      </trkpt>
      <trkpt lat="48.87787" lon="1.79604">
        <ele>117.80000305176</ele>
        <time>2013-01-27T04:32:56.000Z</time>
      </trkpt>
      <trkpt lat="48.87785" lon="1.7959">
        <ele>117.80000305176</ele>
        <time>2013-01-27T04:33:03.000Z</time>
      </trkpt>
      <trkpt lat="48.87791" lon="1.7958">
        <ele>117.80000305176</ele>
        <time>2013-01-27T04:33:10.000Z</time>
      </trkpt>
      <trkpt lat="48.87804" lon="1.79572">
        <ele>118</ele>
        <time>2013-01-27T04:33:20.000Z</time>
      </trkpt>
      <trkpt lat="48.87814" lon="1.79566">
        <ele>118</ele>
        <time>2013-01-27T04:33:27.000Z</time>
      </trkpt>
      <trkpt lat="48.87824" lon="1.79559">
        <ele>118.19999694824</ele>
        <time>2013-01-27T04:33:35.000Z</time>
      </trkpt>
      <trkpt lat="48.87837" lon="1.7955">
        <ele>118.40000152588</ele>
        <time>2013-01-27T04:33:45.000Z</time>
      </trkpt>
      <trkpt lat="48.8785" lon="1.79541">
        <ele>118.80000305176</ele>
        <time>2013-01-27T04:33:55.000Z</time>
      </trkpt>
      <trkpt lat="48.87865" lon="1.79531">
        <ele>119.40000152588</ele>
        <time>2013-01-27T04:34:06.000Z</time>
      </trkpt>
      <trkpt lat="48.87878" lon="1.79522">
        <ele>120</ele>
        <time>2013-01-27T04:34:16.000Z</time>
      </trkpt>
      <trkpt lat="48.87895" lon="1.7951">
        <ele>120.80000305176</ele>
        <time>2013-01-27T04:34:28.000Z</time>
      </trkpt>
      <trkpt lat="48.87906" lon="1.79502">
        <ele>121.40000152588</ele>
        <time>2013-01-27T04:34:36.000Z</time>
      </trkpt>
      <trkpt lat="48.87916" lon="1.79493">
        <ele>122</ele>
        <time>2013-01-27T04:34:44.000Z</time>
      </trkpt>
      <trkpt lat="48.8793" lon="1.7948">
        <ele>122.19999694824</ele>
        <time>2013-01-27T04:34:55.000Z</time>
      </trkpt>
      <trkpt lat="48.87942" lon="1.79468">
        <ele>122.19999694824</ele>
        <time>2013-01-27T04:35:05.000Z</time>
      </trkpt>
      <trkpt lat="48.8795" lon="1.79462">
        <ele>122.40000152588</ele>
        <time>2013-01-27T04:35:11.000Z</time>
      </trkpt>
      <trkpt lat="48.87965" lon="1.79446">
        <ele>122.59999847412</ele>
        <time>2013-01-27T04:35:24.000Z</time>
      </trkpt>
      <trkpt lat="48.87975" lon="1.79434">
        <ele>122.59999847412</ele>
        <time>2013-01-27T04:35:33.000Z</time>
      </trkpt>
      <trkpt lat="48.87987" lon="1.7942">
        <ele>122.80000305176</ele>
        <time>2013-01-27T04:35:43.000Z</time>
      </trkpt>
      <trkpt lat="48.87999" lon="1.79406">
        <ele>122.80000305176</ele>
        <time>2013-01-27T04:35:53.000Z</time>
      </trkpt>
      <trkpt lat="48.8801" lon="1.7939">
        <ele>122.40000152588</ele>
        <time>2013-01-27T04:36:03.000Z</time>
      </trkpt>
      <trkpt lat="48.8802" lon="1.79376">
        <ele>122</ele>
        <time>2013-01-27T04:36:12.000Z</time>
      </trkpt>
      <trkpt lat="48.88032" lon="1.79359">
        <ele>121.59999847412</ele>
        <time>2013-01-27T04:36:23.000Z</time>
      </trkpt>
      <trkpt lat="48.88042" lon="1.79347">
        <ele>121.40000152588</ele>
        <time>2013-01-27T04:36:31.000Z</time>
      </trkpt>
      <trkpt lat="48.88053" lon="1.79332">
        <ele>121.19999694824</ele>
        <time>2013-01-27T04:36:41.000Z</time>
      </trkpt>
      <trkpt lat="48.88061" lon="1.79321">
        <ele>121.19999694824</ele>
        <time>2013-01-27T04:36:48.000Z</time>
      </trkpt>
      <trkpt lat="48.8807" lon="1.79313">
        <ele>121</ele>
        <time>2013-01-27T04:36:55.000Z</time>
      </trkpt>
      <trkpt lat="48.88079" lon="1.79301">
        <ele>121</ele>
        <time>2013-01-27T04:37:04.000Z</time>
      </trkpt>
      <trkpt lat="48.88089" lon="1.79291">
        <ele>120.80000305176</ele>
        <time>2013-01-27T04:37:12.000Z</time>
      </trkpt>
      <trkpt lat="48.88098" lon="1.79282">
        <ele>120.80000305176</ele>
        <time>2013-01-27T04:37:19.000Z</time>
      </trkpt>
      <trkpt lat="48.88099" lon="1.79282">
        <ele>120.80000305176</ele>
        <time>2013-01-27T04:37:20.000Z</time>
      </trkpt>
      <trkpt lat="48.88111" lon="1.79269">
        <ele>120.59999847412</ele>
        <time>2013-01-27T04:37:30.000Z</time>
      </trkpt>
      <trkpt lat="48.8812" lon="1.7926">
        <ele>120.40000152588</ele>
        <time>2013-01-27T04:37:38.000Z</time>
      </trkpt>
      <trkpt lat="48.88134" lon="1.79248">
        <ele>120.40000152588</ele>
        <time>2013-01-27T04:37:49.000Z</time>
      </trkpt>
      <trkpt lat="48.88138" lon="1.79245">
        <ele>120.40000152588</ele>
        <time>2013-01-27T04:37:52.000Z</time>
      </trkpt>
      <trkpt lat="48.88146" lon="1.79236">
        <ele>120.40000152588</ele>
        <time>2013-01-27T04:37:59.000Z</time>
      </trkpt>
      <trkpt lat="48.88159" lon="1.79225">
        <ele>120.19999694824</ele>
        <time>2013-01-27T04:38:09.000Z</time>
      </trkpt>
      <trkpt lat="48.8817" lon="1.79215">
        <ele>120.19999694824</ele>
        <time>2013-01-27T04:38:18.000Z</time>
      </trkpt>
      <trkpt lat="48.8818" lon="1.79205">
        <ele>120.19999694824</ele>
        <time>2013-01-27T04:38:26.000Z</time>
      </trkpt>
      <trkpt lat="48.88191" lon="1.79193">
        <ele>120</ele>
        <time>2013-01-27T04:38:35.000Z</time>
      </trkpt>
      <trkpt lat="48.88204" lon="1.79182">
        <ele>120</ele>
        <time>2013-01-27T04:38:45.000Z</time>
      </trkpt>
      <trkpt lat="48.88217" lon="1.7917">
        <ele>119.59999847412</ele>
        <time>2013-01-27T04:38:56.000Z</time>
      </trkpt>
      <trkpt lat="48.88219" lon="1.79164">
        <ele>119.59999847412</ele>
        <time>2013-01-27T04:39:03.000Z</time>
      </trkpt>
      <trkpt lat="48.88224" lon="1.79161">
        <ele>119.59999847412</ele>
        <time>2013-01-27T04:39:10.000Z</time>
      </trkpt>
      <trkpt lat="48.88231" lon="1.79154">
        <ele>119.59999847412</ele>
        <time>2013-01-27T04:39:16.000Z</time>
      </trkpt>
      <trkpt lat="48.88234" lon="1.79153">
        <ele>119.59999847412</ele>
        <time>2013-01-27T04:39:18.000Z</time>
      </trkpt>
      <trkpt lat="48.88241" lon="1.79148">
        <ele>119.59999847412</ele>
        <time>2013-01-27T04:39:24.000Z</time>
      </trkpt>
      <trkpt lat="48.88253" lon="1.79141">
        <ele>119.59999847412</ele>
        <time>2013-01-27T04:39:33.000Z</time>
      </trkpt>
      <trkpt lat="48.88266" lon="1.79132">
        <ele>120</ele>
        <time>2013-01-27T04:39:43.000Z</time>
      </trkpt>
      <trkpt lat="48.88278" lon="1.79124">
        <ele>120.40000152588</ele>
        <time>2013-01-27T04:39:52.000Z</time>
      </trkpt>
      <trkpt lat="48.88293" lon="1.79113">
        <ele>120.80000305176</ele>
        <time>2013-01-27T04:40:03.000Z</time>
      </trkpt>
      <trkpt lat="48.88306" lon="1.79105">
        <ele>121.19999694824</ele>
        <time>2013-01-27T04:40:13.000Z</time>
      </trkpt>
      <trkpt lat="48.88319" lon="1.79097">
        <ele>121.59999847412</ele>
        <time>2013-01-27T04:40:22.000Z</time>
      </trkpt>
      <trkpt lat="48.88331" lon="1.79087">
        <ele>121.80000305176</ele>
        <time>2013-01-27T04:40:31.000Z</time>
      </trkpt>
      <trkpt lat="48.88343" lon="1.79077">
        <ele>121.40000152588</ele>
        <time>2013-01-27T04:40:40.000Z</time>
      </trkpt>
      <trkpt lat="48.88357" lon="1.79067">
        <ele>120.80000305176</ele>
        <time>2013-01-27T04:40:50.000Z</time>
      </trkpt>
      <trkpt lat="48.88369" lon="1.79058">
        <ele>120.19999694824</ele>
        <time>2013-01-27T04:40:59.000Z</time>
      </trkpt>
      <trkpt lat="48.88382" lon="1.79048">
        <ele>119.40000152588</ele>
        <time>2013-01-27T04:41:09.000Z</time>
      </trkpt>
      <trkpt lat="48.88398" lon="1.79036">
        <ele>118.59999847412</ele>
        <time>2013-01-27T04:41:21.000Z</time>
      </trkpt>
      <trkpt lat="48.8841" lon="1.79025">
        <ele>118</ele>
        <time>2013-01-27T04:41:30.000Z</time>
      </trkpt>
      <trkpt lat="48.88424" lon="1.79014">
        <ele>117.40000152588</ele>
        <time>2013-01-27T04:41:41.000Z</time>
      </trkpt>
      <trkpt lat="48.88437" lon="1.79003">
        <ele>117</ele>
        <time>2013-01-27T04:41:51.000Z</time>
      </trkpt>
      <trkpt lat="48.88438" lon="1.79001">
        <ele>117</ele>
        <time>2013-01-27T04:41:52.000Z</time>
      </trkpt>
      <trkpt lat="48.88449" lon="1.78995">
        <ele>117</ele>
        <time>2013-01-27T04:42:00.000Z</time>
      </trkpt>
      <trkpt lat="48.88462" lon="1.78987">
        <ele>117.19999694824</ele>
        <time>2013-01-27T04:42:09.000Z</time>
      </trkpt>
      <trkpt lat="48.88476" lon="1.7898">
        <ele>117.40000152588</ele>
        <time>2013-01-27T04:42:19.000Z</time>
      </trkpt>
      <trkpt lat="48.8849" lon="1.78974">
        <ele>117.40000152588</ele>
        <time>2013-01-27T04:42:29.000Z</time>
      </trkpt>
      <trkpt lat="48.88503" lon="1.7897">
        <ele>117.80000305176</ele>
        <time>2013-01-27T04:42:38.000Z</time>
      </trkpt>
      <trkpt lat="48.88517" lon="1.78965">
        <ele>118.40000152588</ele>
        <time>2013-01-27T04:42:48.000Z</time>
      </trkpt>
      <trkpt lat="48.88527" lon="1.7896">
        <ele>118.80000305176</ele>
        <time>2013-01-27T04:42:55.000Z</time>
      </trkpt>
      <trkpt lat="48.88538" lon="1.78957">
        <ele>119.19999694824</ele>
        <time>2013-01-27T04:43:03.000Z</time>
      </trkpt>
      <trkpt lat="48.88549" lon="1.78954">
        <ele>119.80000305176</ele>
        <time>2013-01-27T04:43:11.000Z</time>
      </trkpt>
      <trkpt lat="48.8856" lon="1.7895">
        <ele>120.19999694824</ele>
        <time>2013-01-27T04:43:19.000Z</time>
      </trkpt>
      <trkpt lat="48.88568" lon="1.78947">
        <ele>120.59999847412</ele>
        <time>2013-01-27T04:43:25.000Z</time>
      </trkpt>
      <trkpt lat="48.88578" lon="1.78942">
        <ele>121</ele>
        <time>2013-01-27T04:43:34.000Z</time>
      </trkpt>
      <trkpt lat="48.88584" lon="1.78944">
        <ele>121.19999694824</ele>
        <time>2013-01-27T04:43:40.000Z</time>
      </trkpt>
      <trkpt lat="48.88588" lon="1.78946">
        <ele>121.40000152588</ele>
        <time>2013-01-27T04:43:44.000Z</time>
      </trkpt>
      <trkpt lat="48.88592" lon="1.78951">
        <ele>121.19999694824</ele>
        <time>2013-01-27T04:43:49.000Z</time>
      </trkpt>
      <trkpt lat="48.88595" lon="1.78966">
        <ele>121</ele>
        <time>2013-01-27T04:43:57.000Z</time>
      </trkpt>
      <trkpt lat="48.88599" lon="1.78984">
        <ele>120.59999847412</ele>
        <time>2013-01-27T04:44:06.000Z</time>
      </trkpt>
      <trkpt lat="48.886" lon="1.78986">
        <ele>120.59999847412</ele>
        <time>2013-01-27T04:44:07.000Z</time>
      </trkpt>
      <trkpt lat="48.88604" lon="1.78989">
        <ele>120.59999847412</ele>
        <time>2013-01-27T04:44:11.000Z</time>
      </trkpt>
      <trkpt lat="48.88618" lon="1.78991">
        <ele>121</ele>
        <time>2013-01-27T04:44:21.000Z</time>
      </trkpt>
      <trkpt lat="48.88631" lon="1.78985">
        <ele>121.40000152588</ele>
        <time>2013-01-27T04:44:31.000Z</time>
      </trkpt>
      <trkpt lat="48.88632" lon="1.78984">
        <ele>121.40000152588</ele>
        <time>2013-01-27T04:44:32.000Z</time>
      </trkpt>
      <trkpt lat="48.88635" lon="1.78975">
        <ele>121.80000305176</ele>
        <time>2013-01-27T04:44:37.000Z</time>
      </trkpt>
      <trkpt lat="48.88638" lon="1.78963">
        <ele>122.19999694824</ele>
        <time>2013-01-27T04:44:44.000Z</time>
      </trkpt>
      <trkpt lat="48.88641" lon="1.78955">
        <ele>122.40000152588</ele>
        <time>2013-01-27T04:44:48.000Z</time>
      </trkpt>
      <trkpt lat="48.88648" lon="1.78948">
        <ele>122.59999847412</ele>
        <time>2013-01-27T04:44:55.000Z</time>
      </trkpt>
      <trkpt lat="48.88653" lon="1.78949">
        <ele>122.80000305176</ele>
        <time>2013-01-27T04:44:59.000Z</time>
      </trkpt>
      <trkpt lat="48.88657" lon="1.78949">
        <ele>123</ele>
        <time>2013-01-27T04:45:03.000Z</time>
      </trkpt>
      <trkpt lat="48.88666" lon="1.78951">
        <ele>123</ele>
        <time>2013-01-27T04:45:11.000Z</time>
      </trkpt>
      <trkpt lat="48.88675" lon="1.78953">
        <ele>123.19999694824</ele>
        <time>2013-01-27T04:45:20.000Z</time>
      </trkpt>
      <trkpt lat="48.88687" lon="1.78952">
        <ele>123.19999694824</ele>
        <time>2013-01-27T04:45:28.000Z</time>
      </trkpt>
      <trkpt lat="48.88694" lon="1.78949">
        <ele>123.40000152588</ele>
        <time>2013-01-27T04:45:34.000Z</time>
      </trkpt>
      <trkpt lat="48.88701" lon="1.78939">
        <ele>123.59999847412</ele>
        <time>2013-01-27T04:45:41.000Z</time>
      </trkpt>
      <trkpt lat="48.88703" lon="1.78927">
        <ele>123.80000305176</ele>
        <time>2013-01-27T04:45:47.000Z</time>
      </trkpt>
      <trkpt lat="48.88702" lon="1.7891">
        <ele>123.80000305176</ele>
        <time>2013-01-27T04:45:55.000Z</time>
      </trkpt>
      <trkpt lat="48.88701" lon="1.78895">
        <ele>123.80000305176</ele>
        <time>2013-01-27T04:46:02.000Z</time>
      </trkpt>
      <trkpt lat="48.887" lon="1.78878">
        <ele>123.59999847412</ele>
        <time>2013-01-27T04:46:10.000Z</time>
      </trkpt>
      <trkpt lat="48.88698" lon="1.78863">
        <ele>123.59999847412</ele>
        <time>2013-01-27T04:46:17.000Z</time>
      </trkpt>
      <trkpt lat="48.88697" lon="1.78844">
        <ele>123.40000152588</ele>
        <time>2013-01-27T04:46:26.000Z</time>
      </trkpt>
      <trkpt lat="48.88697" lon="1.78831">
        <ele>123.19999694824</ele>
        <time>2013-01-27T04:46:32.000Z</time>
      </trkpt>
      <trkpt lat="48.88701" lon="1.78817">
        <ele>123.19999694824</ele>
        <time>2013-01-27T04:46:40.000Z</time>
      </trkpt>
      <trkpt lat="48.8871" lon="1.78804">
        <ele>123.19999694824</ele>
        <time>2013-01-27T04:46:49.000Z</time>
      </trkpt>
      <trkpt lat="48.88719" lon="1.7879">
        <ele>123.40000152588</ele>
        <time>2013-01-27T04:46:58.000Z</time>
      </trkpt>
      <trkpt lat="48.88729" lon="1.78779">
        <ele>123.40000152588</ele>
        <time>2013-01-27T04:47:07.000Z</time>
      </trkpt>
      <trkpt lat="48.8874" lon="1.78766">
        <ele>123.59999847412</ele>
        <time>2013-01-27T04:47:17.000Z</time>
      </trkpt>
      <trkpt lat="48.88753" lon="1.78753">
        <ele>124</ele>
        <time>2013-01-27T04:47:28.000Z</time>
      </trkpt>
      <trkpt lat="48.88763" lon="1.78742">
        <ele>124.19999694824</ele>
        <time>2013-01-27T04:47:37.000Z</time>
      </trkpt>
      <trkpt lat="48.88768" lon="1.78738">
        <ele>124.40000152588</ele>
        <time>2013-01-27T04:47:41.000Z</time>
      </trkpt>
      <trkpt lat="48.88781" lon="1.78724">
        <ele>124.40000152588</ele>
        <time>2013-01-27T04:47:52.000Z</time>
      </trkpt>
      <trkpt lat="48.88796" lon="1.78708">
        <ele>124.19999694824</ele>
        <time>2013-01-27T04:48:05.000Z</time>
      </trkpt>
      <trkpt lat="48.88808" lon="1.78694">
        <ele>124</ele>
        <time>2013-01-27T04:48:16.000Z</time>
      </trkpt>
      <trkpt lat="48.88828" lon="1.78675">
        <ele>123.40000152588</ele>
        <time>2013-01-27T04:48:33.000Z</time>
      </trkpt>
      <trkpt lat="48.88837" lon="1.78667">
        <ele>123</ele>
        <time>2013-01-27T04:48:41.000Z</time>
      </trkpt>
      <trkpt lat="48.88838" lon="1.78666">
        <ele>123.19999694824</ele>
        <time>2013-01-27T04:48:42.000Z</time>
      </trkpt>
      <trkpt lat="48.88852" lon="1.78651">
        <ele>124</ele>
        <time>2013-01-27T04:48:54.000Z</time>
      </trkpt>
      <trkpt lat="48.8886" lon="1.78641">
        <ele>124.40000152588</ele>
        <time>2013-01-27T04:49:02.000Z</time>
      </trkpt>
      <trkpt lat="48.8887" lon="1.7863">
        <ele>124.80000305176</ele>
        <time>2013-01-27T04:49:11.000Z</time>
      </trkpt>
      <trkpt lat="48.88885" lon="1.78615">
        <ele>125.59999847412</ele>
        <time>2013-01-27T04:49:24.000Z</time>
      </trkpt>
      <trkpt lat="48.88896" lon="1.78603">
        <ele>126</ele>
        <time>2013-01-27T04:49:34.000Z</time>
      </trkpt>
      <trkpt lat="48.88907" lon="1.78592">
        <ele>126.59999847412</ele>
        <time>2013-01-27T04:49:44.000Z</time>
      </trkpt>
      <trkpt lat="48.88915" lon="1.78585">
        <ele>126.80000305176</ele>
        <time>2013-01-27T04:49:51.000Z</time>
      </trkpt>
      <trkpt lat="48.8892" lon="1.7858">
        <ele>127</ele>
        <time>2013-01-27T04:49:56.000Z</time>
      </trkpt>
      <trkpt lat="48.88927" lon="1.78571">
        <ele>127.19999694824</ele>
        <time>2013-01-27T04:50:03.000Z</time>
      </trkpt>
      <trkpt lat="48.88938" lon="1.78559">
        <ele>127.40000152588</ele>
        <time>2013-01-27T04:50:13.000Z</time>
      </trkpt>
      <trkpt lat="48.8895" lon="1.78547">
        <ele>127.80000305176</ele>
        <time>2013-01-27T04:50:24.000Z</time>
      </trkpt>
      <trkpt lat="48.8896" lon="1.78537">
        <ele>128</ele>
        <time>2013-01-27T04:50:33.000Z</time>
      </trkpt>
      <trkpt lat="48.88966" lon="1.7853">
        <ele>128</ele>
        <time>2013-01-27T04:50:39.000Z</time>
      </trkpt>
      <trkpt lat="48.88971" lon="1.78524">
        <ele>128.19999694824</ele>
        <time>2013-01-27T04:50:44.000Z</time>
      </trkpt>
      <trkpt lat="48.88981" lon="1.78513">
        <ele>128.39999389648</ele>
        <time>2013-01-27T04:50:54.000Z</time>
      </trkpt>
      <trkpt lat="48.88989" lon="1.78503">
        <ele>128.60000610352</ele>
        <time>2013-01-27T04:51:03.000Z</time>
      </trkpt>
      <trkpt lat="48.88994" lon="1.78496">
        <ele>128.80000305176</ele>
        <time>2013-01-27T04:51:09.000Z</time>
      </trkpt>
      <trkpt lat="48.89002" lon="1.78488">
        <ele>129</ele>
        <time>2013-01-27T04:51:16.000Z</time>
      </trkpt>
      <trkpt lat="48.89009" lon="1.7848">
        <ele>129</ele>
        <time>2013-01-27T04:51:23.000Z</time>
      </trkpt>
      <trkpt lat="48.89018" lon="1.78471">
        <ele>129</ele>
        <time>2013-01-27T04:51:32.000Z</time>
      </trkpt>
      <trkpt lat="48.89026" lon="1.7846">
        <ele>129</ele>
        <time>2013-01-27T04:51:40.000Z</time>
      </trkpt>
      <trkpt lat="48.89035" lon="1.78449">
        <ele>129</ele>
        <time>2013-01-27T04:51:49.000Z</time>
      </trkpt>
      <trkpt lat="48.89044" lon="1.78437">
        <ele>129</ele>
        <time>2013-01-27T04:51:58.000Z</time>
      </trkpt>
      <trkpt lat="48.89053" lon="1.78427">
        <ele>129</ele>
        <time>2013-01-27T04:52:06.000Z</time>
      </trkpt>
      <trkpt lat="48.89063" lon="1.78413">
        <ele>129</ele>
        <time>2013-01-27T04:52:16.000Z</time>
      </trkpt>
      <trkpt lat="48.89072" lon="1.78402">
        <ele>129</ele>
        <time>2013-01-27T04:52:24.000Z</time>
      </trkpt>
      <trkpt lat="48.89083" lon="1.78387">
        <ele>129.19999694824</ele>
        <time>2013-01-27T04:52:35.000Z</time>
      </trkpt>
      <trkpt lat="48.89095" lon="1.78371">
        <ele>129.60000610352</ele>
        <time>2013-01-27T04:52:46.000Z</time>
      </trkpt>
      <trkpt lat="48.89103" lon="1.78359">
        <ele>129.60000610352</ele>
        <time>2013-01-27T04:52:54.000Z</time>
      </trkpt>
      <trkpt lat="48.89113" lon="1.78346">
        <ele>129.80000305176</ele>
        <time>2013-01-27T04:53:03.000Z</time>
      </trkpt>
      <trkpt lat="48.89122" lon="1.78332">
        <ele>129.80000305176</ele>
        <time>2013-01-27T04:53:12.000Z</time>
      </trkpt>
      <trkpt lat="48.89123" lon="1.78331">
        <ele>129.80000305176</ele>
        <time>2013-01-27T04:53:13.000Z</time>
      </trkpt>
      <trkpt lat="48.8913" lon="1.7832">
        <ele>129.80000305176</ele>
        <time>2013-01-27T04:53:21.000Z</time>
      </trkpt>
      <trkpt lat="48.89139" lon="1.78306">
        <ele>129.60000610352</ele>
        <time>2013-01-27T04:53:30.000Z</time>
      </trkpt>
      <trkpt lat="48.89143" lon="1.78296">
        <ele>129.60000610352</ele>
        <time>2013-01-27T04:53:36.000Z</time>
      </trkpt>
      <trkpt lat="48.8915" lon="1.78285">
        <ele>129.39999389648</ele>
        <time>2013-01-27T04:53:43.000Z</time>
      </trkpt>
      <trkpt lat="48.89159" lon="1.78273">
        <ele>129.19999694824</ele>
        <time>2013-01-27T04:53:52.000Z</time>
      </trkpt>
      <trkpt lat="48.89169" lon="1.78258">
        <ele>129</ele>
        <time>2013-01-27T04:54:02.000Z</time>
      </trkpt>
      <trkpt lat="48.89179" lon="1.78247">
        <ele>129</ele>
        <time>2013-01-27T04:54:11.000Z</time>
      </trkpt>
      <trkpt lat="48.89186" lon="1.78237">
        <ele>129.19999694824</ele>
        <time>2013-01-27T04:54:18.000Z</time>
      </trkpt>
      <trkpt lat="48.89194" lon="1.78224">
        <ele>129.39999389648</ele>
        <time>2013-01-27T04:54:26.000Z</time>
      </trkpt>
      <trkpt lat="48.892" lon="1.78214">
        <ele>129.60000610352</ele>
        <time>2013-01-27T04:54:32.000Z</time>
      </trkpt>
      <trkpt lat="48.89206" lon="1.78202">
        <ele>129.60000610352</ele>
        <time>2013-01-27T04:54:39.000Z</time>
      </trkpt>
      <trkpt lat="48.89212" lon="1.78188">
        <ele>129.80000305176</ele>
        <time>2013-01-27T04:54:47.000Z</time>
      </trkpt>
      <trkpt lat="48.8922" lon="1.78171">
        <ele>129.80000305176</ele>
        <time>2013-01-27T04:54:57.000Z</time>
      </trkpt>
      <trkpt lat="48.89226" lon="1.78154">
        <ele>129.80000305176</ele>
        <time>2013-01-27T04:55:06.000Z</time>
      </trkpt>
      <trkpt lat="48.89233" lon="1.78135">
        <ele>129.39999389648</ele>
        <time>2013-01-27T04:55:16.000Z</time>
      </trkpt>
      <trkpt lat="48.89239" lon="1.78119">
        <ele>129</ele>
        <time>2013-01-27T04:55:24.000Z</time>
      </trkpt>
      <trkpt lat="48.89245" lon="1.78104">
        <ele>128.60000610352</ele>
        <time>2013-01-27T04:55:32.000Z</time>
      </trkpt>
      <trkpt lat="48.89254" lon="1.78082">
        <ele>128</ele>
        <time>2013-01-27T04:55:44.000Z</time>
      </trkpt>
      <trkpt lat="48.89261" lon="1.78066">
        <ele>128</ele>
        <time>2013-01-27T04:55:53.000Z</time>
      </trkpt>
      <trkpt lat="48.89268" lon="1.78047">
        <ele>128</ele>
        <time>2013-01-27T04:56:03.000Z</time>
      </trkpt>
      <trkpt lat="48.89274" lon="1.78033">
        <ele>127.80000305176</ele>
        <time>2013-01-27T04:56:11.000Z</time>
      </trkpt>
      <trkpt lat="48.89281" lon="1.78018">
        <ele>127.59999847412</ele>
        <time>2013-01-27T04:56:20.000Z</time>
      </trkpt>
      <trkpt lat="48.89289" lon="1.77998">
        <ele>127.40000152588</ele>
        <time>2013-01-27T04:56:31.000Z</time>
      </trkpt>
      <trkpt lat="48.89297" lon="1.77979">
        <ele>127.40000152588</ele>
        <time>2013-01-27T04:56:41.000Z</time>
      </trkpt>
      <trkpt lat="48.89304" lon="1.77962">
        <ele>127.59999847412</ele>
        <time>2013-01-27T04:56:50.000Z</time>
      </trkpt>
      <trkpt lat="48.89311" lon="1.77946">
        <ele>127.59999847412</ele>
        <time>2013-01-27T04:56:59.000Z</time>
      </trkpt>
      <trkpt lat="48.89316" lon="1.77934">
        <ele>127.80000305176</ele>
        <time>2013-01-27T04:57:06.000Z</time>
      </trkpt>
      <trkpt lat="48.89324" lon="1.77918">
        <ele>127.80000305176</ele>
        <time>2013-01-27T04:57:15.000Z</time>
      </trkpt>
      <trkpt lat="48.8933" lon="1.77907">
        <ele>127.80000305176</ele>
        <time>2013-01-27T04:57:22.000Z</time>
      </trkpt>
      <trkpt lat="48.89338" lon="1.77888">
        <ele>127.59999847412</ele>
        <time>2013-01-27T04:57:32.000Z</time>
      </trkpt>
      <trkpt lat="48.89345" lon="1.77868">
        <ele>127.19999694824</ele>
        <time>2013-01-27T04:57:43.000Z</time>
      </trkpt>
      <trkpt lat="48.89352" lon="1.77851">
        <ele>127</ele>
        <time>2013-01-27T04:57:52.000Z</time>
      </trkpt>
      <trkpt lat="48.89359" lon="1.77835">
        <ele>127</ele>
        <time>2013-01-27T04:58:01.000Z</time>
      </trkpt>
      <trkpt lat="48.89367" lon="1.77816">
        <ele>126.80000305176</ele>
        <time>2013-01-27T04:58:12.000Z</time>
      </trkpt>
      <trkpt lat="48.89374" lon="1.778">
        <ele>126.80000305176</ele>
        <time>2013-01-27T04:58:21.000Z</time>
      </trkpt>
      <trkpt lat="48.89381" lon="1.77781">
        <ele>126.59999847412</ele>
        <time>2013-01-27T04:58:31.000Z</time>
      </trkpt>
      <trkpt lat="48.89386" lon="1.77766">
        <ele>126.40000152588</ele>
        <time>2013-01-27T04:58:39.000Z</time>
      </trkpt>
      <trkpt lat="48.89391" lon="1.77751">
        <ele>126.19999694824</ele>
        <time>2013-01-27T04:58:47.000Z</time>
      </trkpt>
      <trkpt lat="48.89398" lon="1.77736">
        <ele>126.19999694824</ele>
        <time>2013-01-27T04:58:56.000Z</time>
      </trkpt>
      <trkpt lat="48.89403" lon="1.7772">
        <ele>126.40000152588</ele>
        <time>2013-01-27T04:59:05.000Z</time>
      </trkpt>
      <trkpt lat="48.89407" lon="1.77707">
        <ele>126.40000152588</ele>
        <time>2013-01-27T04:59:12.000Z</time>
      </trkpt>
      <trkpt lat="48.89408" lon="1.77704">
        <ele>126.40000152588</ele>
        <time>2013-01-27T04:59:13.000Z</time>
      </trkpt>
      <trkpt lat="48.89411" lon="1.77695">
        <ele>126.59999847412</ele>
        <time>2013-01-27T04:59:18.000Z</time>
      </trkpt>
      <trkpt lat="48.89416" lon="1.7768">
        <ele>126.80000305176</ele>
        <time>2013-01-27T04:59:27.000Z</time>
      </trkpt>
      <trkpt lat="48.8942" lon="1.77669">
        <ele>126.80000305176</ele>
        <time>2013-01-27T04:59:34.000Z</time>
      </trkpt>
      <trkpt lat="48.89421" lon="1.77664">
        <ele>127</ele>
        <time>2013-01-27T04:59:37.000Z</time>
      </trkpt>
      <trkpt lat="48.89425" lon="1.77658">
        <ele>127</ele>
        <time>2013-01-27T04:59:42.000Z</time>
      </trkpt>
      <trkpt lat="48.89426" lon="1.77656">
        <ele>127</ele>
        <time>2013-01-27T04:59:43.000Z</time>
      </trkpt>
      <trkpt lat="48.89432" lon="1.77638">
        <ele>127</ele>
        <time>2013-01-27T04:59:53.000Z</time>
      </trkpt>
      <trkpt lat="48.89438" lon="1.77622">
        <ele>127</ele>
        <time>2013-01-27T05:00:02.000Z</time>
      </trkpt>
      <trkpt lat="48.89442" lon="1.77614">
        <ele>127</ele>
        <time>2013-01-27T05:00:07.000Z</time>
      </trkpt>
      <trkpt lat="48.89456" lon="1.77605">
        <ele>127.19999694824</ele>
        <time>2013-01-27T05:00:20.000Z</time>
      </trkpt>
      <trkpt lat="48.89473" lon="1.77614">
        <ele>127.40000152588</ele>
        <time>2013-01-27T05:00:33.000Z</time>
      </trkpt>
      <trkpt lat="48.89485" lon="1.77618">
        <ele>127.40000152588</ele>
        <time>2013-01-27T05:00:39.000Z</time>
      </trkpt>
      <trkpt lat="48.89499" lon="1.77626">
        <ele>127.40000152588</ele>
        <time>2013-01-27T05:00:46.000Z</time>
      </trkpt>
      <trkpt lat="48.89514" lon="1.77633">
        <ele>127.40000152588</ele>
        <time>2013-01-27T05:00:53.000Z</time>
      </trkpt>
      <trkpt lat="48.89529" lon="1.7764">
        <ele>127.59999847412</ele>
        <time>2013-01-27T05:01:00.000Z</time>
      </trkpt>
      <trkpt lat="48.89545" lon="1.77649">
        <ele>127.59999847412</ele>
        <time>2013-01-27T05:01:07.000Z</time>
      </trkpt>
      <trkpt lat="48.89559" lon="1.77654">
        <ele>127.80000305176</ele>
        <time>2013-01-27T05:01:13.000Z</time>
      </trkpt>
      <trkpt lat="48.89575" lon="1.7766">
        <ele>127.80000305176</ele>
        <time>2013-01-27T05:01:20.000Z</time>
      </trkpt>
      <trkpt lat="48.89594" lon="1.7767">
        <ele>127.80000305176</ele>
        <time>2013-01-27T05:01:28.000Z</time>
      </trkpt>
      <trkpt lat="48.89608" lon="1.77677">
        <ele>127.59999847412</ele>
        <time>2013-01-27T05:01:34.000Z</time>
      </trkpt>
      <trkpt lat="48.89624" lon="1.77686">
        <ele>127.19999694824</ele>
        <time>2013-01-27T05:01:41.000Z</time>
      </trkpt>
      <trkpt lat="48.8964" lon="1.77694">
        <ele>127.19999694824</ele>
        <time>2013-01-27T05:01:48.000Z</time>
      </trkpt>
      <trkpt lat="48.89653" lon="1.77701">
        <ele>127</ele>
        <time>2013-01-27T05:01:54.000Z</time>
      </trkpt>
      <trkpt lat="48.89668" lon="1.77708">
        <ele>126.80000305176</ele>
        <time>2013-01-27T05:02:00.000Z</time>
      </trkpt>
      <trkpt lat="48.89677" lon="1.77714">
        <ele>126.80000305176</ele>
        <time>2013-01-27T05:02:04.000Z</time>
      </trkpt>
      <trkpt lat="48.89691" lon="1.77722">
        <ele>126.40000152588</ele>
        <time>2013-01-27T05:02:10.000Z</time>
      </trkpt>
      <trkpt lat="48.89708" lon="1.77734">
        <ele>126</ele>
        <time>2013-01-27T05:02:18.000Z</time>
      </trkpt>
      <trkpt lat="48.89725" lon="1.77746">
        <ele>125.59999847412</ele>
        <time>2013-01-27T05:02:26.000Z</time>
      </trkpt>
      <trkpt lat="48.8974" lon="1.77757">
        <ele>125</ele>
        <time>2013-01-27T05:02:33.000Z</time>
      </trkpt>
      <trkpt lat="48.89754" lon="1.77765">
        <ele>124.59999847412</ele>
        <time>2013-01-27T05:02:39.000Z</time>
      </trkpt>
      <trkpt lat="48.8977" lon="1.77776">
        <ele>124.19999694824</ele>
        <time>2013-01-27T05:02:46.000Z</time>
      </trkpt>
      <trkpt lat="48.89781" lon="1.77782">
        <ele>124</ele>
        <time>2013-01-27T05:02:51.000Z</time>
      </trkpt>
      <trkpt lat="48.89794" lon="1.77792">
        <ele>123.59999847412</ele>
        <time>2013-01-27T05:02:57.000Z</time>
      </trkpt>
      <trkpt lat="48.89807" lon="1.77799">
        <ele>123.19999694824</ele>
        <time>2013-01-27T05:03:03.000Z</time>
      </trkpt>
      <trkpt lat="48.89823" lon="1.7781">
        <ele>122.59999847412</ele>
        <time>2013-01-27T05:03:10.000Z</time>
      </trkpt>
      <trkpt lat="48.89837" lon="1.7782">
        <ele>122.19999694824</ele>
        <time>2013-01-27T05:03:16.000Z</time>
      </trkpt>
      <trkpt lat="48.8985" lon="1.77831">
        <ele>122</ele>
        <time>2013-01-27T05:03:22.000Z</time>
      </trkpt>
      <trkpt lat="48.89862" lon="1.77843">
        <ele>121.80000305176</ele>
        <time>2013-01-27T05:03:28.000Z</time>
      </trkpt>
      <trkpt lat="48.89879" lon="1.77857">
        <ele>121.80000305176</ele>
        <time>2013-01-27T05:03:36.000Z</time>
      </trkpt>
      <trkpt lat="48.89896" lon="1.77872">
        <ele>121.59999847412</ele>
        <time>2013-01-27T05:03:44.000Z</time>
      </trkpt>
      <trkpt lat="48.89911" lon="1.77883">
        <ele>121.40000152588</ele>
        <time>2013-01-27T05:03:51.000Z</time>
      </trkpt>
      <trkpt lat="48.89926" lon="1.7789">
        <ele>121.19999694824</ele>
        <time>2013-01-27T05:03:57.000Z</time>
      </trkpt>
      <trkpt lat="48.89941" lon="1.77891">
        <ele>121.19999694824</ele>
        <time>2013-01-27T05:04:03.000Z</time>
      </trkpt>
      <trkpt lat="48.89956" lon="1.77885">
        <ele>121.40000152588</ele>
        <time>2013-01-27T05:04:09.000Z</time>
      </trkpt>
      <trkpt lat="48.89974" lon="1.77875">
        <ele>121.80000305176</ele>
        <time>2013-01-27T05:04:17.000Z</time>
      </trkpt>
      <trkpt lat="48.89991" lon="1.77864">
        <ele>122</ele>
        <time>2013-01-27T05:04:24.000Z</time>
      </trkpt>
      <trkpt lat="48.90004" lon="1.77856">
        <ele>122.19999694824</ele>
        <time>2013-01-27T05:04:30.000Z</time>
      </trkpt>
      <trkpt lat="48.90019" lon="1.77848">
        <ele>122.19999694824</ele>
        <time>2013-01-27T05:04:36.000Z</time>
      </trkpt>
      <trkpt lat="48.90034" lon="1.77835">
        <ele>122</ele>
        <time>2013-01-27T05:04:43.000Z</time>
      </trkpt>
      <trkpt lat="48.9005" lon="1.77825">
        <ele>121.80000305176</ele>
        <time>2013-01-27T05:04:50.000Z</time>
      </trkpt>
      <trkpt lat="48.90065" lon="1.77816">
        <ele>121.59999847412</ele>
        <time>2013-01-27T05:04:56.000Z</time>
      </trkpt>
      <trkpt lat="48.9008" lon="1.77806">
        <ele>121.40000152588</ele>
        <time>2013-01-27T05:05:03.000Z</time>
      </trkpt>
      <trkpt lat="48.90094" lon="1.77795">
        <ele>121</ele>
        <time>2013-01-27T05:05:09.000Z</time>
      </trkpt>
      <trkpt lat="48.90112" lon="1.77782">
        <ele>120.59999847412</ele>
        <time>2013-01-27T05:05:17.000Z</time>
      </trkpt>
      <trkpt lat="48.90126" lon="1.77774">
        <ele>120.19999694824</ele>
        <time>2013-01-27T05:05:23.000Z</time>
      </trkpt>
      <trkpt lat="48.90137" lon="1.77766">
        <ele>119.80000305176</ele>
        <time>2013-01-27T05:05:28.000Z</time>
      </trkpt>
      <trkpt lat="48.90153" lon="1.77755">
        <ele>119.40000152588</ele>
        <time>2013-01-27T05:05:35.000Z</time>
      </trkpt>
      <trkpt lat="48.90166" lon="1.77745">
        <ele>119</ele>
        <time>2013-01-27T05:05:41.000Z</time>
      </trkpt>
      <trkpt lat="48.90182" lon="1.77733">
        <ele>119.19999694824</ele>
        <time>2013-01-27T05:05:48.000Z</time>
      </trkpt>
      <trkpt lat="48.90196" lon="1.77723">
        <ele>119.40000152588</ele>
        <time>2013-01-27T05:05:54.000Z</time>
      </trkpt>
      <trkpt lat="48.9021" lon="1.77713">
        <ele>119.59999847412</ele>
        <time>2013-01-27T05:06:00.000Z</time>
      </trkpt>
      <trkpt lat="48.90224" lon="1.77703">
        <ele>119.59999847412</ele>
        <time>2013-01-27T05:06:06.000Z</time>
      </trkpt>
      <trkpt lat="48.90236" lon="1.77697">
        <ele>119.59999847412</ele>
        <time>2013-01-27T05:06:11.000Z</time>
      </trkpt>
      <trkpt lat="48.90239" lon="1.77696">
        <ele>119.59999847412</ele>
        <time>2013-01-27T05:06:12.000Z</time>
      </trkpt>
      <trkpt lat="48.90256" lon="1.77691">
        <ele>119.80000305176</ele>
        <time>2013-01-27T05:06:19.000Z</time>
      </trkpt>
      <trkpt lat="48.90265" lon="1.7769">
        <ele>120.19999694824</ele>
        <time>2013-01-27T05:06:23.000Z</time>
      </trkpt>
      <trkpt lat="48.90274" lon="1.77689">
        <ele>120.40000152588</ele>
        <time>2013-01-27T05:06:30.000Z</time>
      </trkpt>
      <trkpt lat="48.90278" lon="1.7769">
        <ele>120.59999847412</ele>
        <time>2013-01-27T05:06:34.000Z</time>
      </trkpt>
      <trkpt lat="48.90284" lon="1.77689">
        <ele>120.80000305176</ele>
        <time>2013-01-27T05:06:39.000Z</time>
      </trkpt>
      <trkpt lat="48.90291" lon="1.77689">
        <ele>121.19999694824</ele>
        <time>2013-01-27T05:06:45.000Z</time>
      </trkpt>
      <trkpt lat="48.903" lon="1.7769">
        <ele>121.40000152588</ele>
        <time>2013-01-27T05:06:51.000Z</time>
      </trkpt>
      <trkpt lat="48.90311" lon="1.77689">
        <ele>121.80000305176</ele>
        <time>2013-01-27T05:06:58.000Z</time>
      </trkpt>
      <trkpt lat="48.9032" lon="1.77689">
        <ele>122.19999694824</ele>
        <time>2013-01-27T05:07:04.000Z</time>
      </trkpt>
      <trkpt lat="48.9033" lon="1.77689">
        <ele>122.59999847412</ele>
        <time>2013-01-27T05:07:11.000Z</time>
      </trkpt>
      <trkpt lat="48.90343" lon="1.7769">
        <ele>122.40000152588</ele>
        <time>2013-01-27T05:07:20.000Z</time>
      </trkpt>
      <trkpt lat="48.90354" lon="1.7769">
        <ele>122.19999694824</ele>
        <time>2013-01-27T05:07:27.000Z</time>
      </trkpt>
      <trkpt lat="48.90366" lon="1.77694">
        <ele>122</ele>
        <time>2013-01-27T05:07:34.000Z</time>
      </trkpt>
      <trkpt lat="48.90383" lon="1.77706">
        <ele>121.59999847412</ele>
        <time>2013-01-27T05:07:44.000Z</time>
      </trkpt>
      <trkpt lat="48.90399" lon="1.77724">
        <ele>121.19999694824</ele>
        <time>2013-01-27T05:07:55.000Z</time>
      </trkpt>
      <trkpt lat="48.90413" lon="1.77744">
        <ele>121</ele>
        <time>2013-01-27T05:08:06.000Z</time>
      </trkpt>
      <trkpt lat="48.90434" lon="1.77776">
        <ele>119.80000305176</ele>
        <time>2013-01-27T05:08:24.000Z</time>
      </trkpt>
      <trkpt lat="48.90444" lon="1.77792">
        <ele>119.40000152588</ele>
        <time>2013-01-27T05:08:33.000Z</time>
      </trkpt>
      <trkpt lat="48.90455" lon="1.77808">
        <ele>119</ele>
        <time>2013-01-27T05:08:42.000Z</time>
      </trkpt>
      <trkpt lat="48.90465" lon="1.77824">
        <ele>118.59999847412</ele>
        <time>2013-01-27T05:08:51.000Z</time>
      </trkpt>
      <trkpt lat="48.90475" lon="1.77841">
        <ele>118.40000152588</ele>
        <time>2013-01-27T05:09:00.000Z</time>
      </trkpt>
      <trkpt lat="48.90487" lon="1.77862">
        <ele>118.40000152588</ele>
        <time>2013-01-27T05:09:11.000Z</time>
      </trkpt>
      <trkpt lat="48.90498" lon="1.77883">
        <ele>118.19999694824</ele>
        <time>2013-01-27T05:09:22.000Z</time>
      </trkpt>
      <trkpt lat="48.90506" lon="1.77902">
        <ele>118.19999694824</ele>
        <time>2013-01-27T05:09:31.000Z</time>
      </trkpt>
      <trkpt lat="48.90516" lon="1.77924">
        <ele>118.40000152588</ele>
        <time>2013-01-27T05:09:42.000Z</time>
      </trkpt>
      <trkpt lat="48.90525" lon="1.77944">
        <ele>119</ele>
        <time>2013-01-27T05:09:52.000Z</time>
      </trkpt>
      <trkpt lat="48.90534" lon="1.77963">
        <ele>119.40000152588</ele>
        <time>2013-01-27T05:10:02.000Z</time>
      </trkpt>
      <trkpt lat="48.90543" lon="1.77983">
        <ele>119.59999847412</ele>
        <time>2013-01-27T05:10:12.000Z</time>
      </trkpt>
      <trkpt lat="48.90555" lon="1.78007">
        <ele>120</ele>
        <time>2013-01-27T05:10:25.000Z</time>
      </trkpt>
      <trkpt lat="48.90565" lon="1.78028">
        <ele>120</ele>
        <time>2013-01-27T05:10:36.000Z</time>
      </trkpt>
      <trkpt lat="48.90575" lon="1.78048">
        <ele>120</ele>
        <time>2013-01-27T05:10:46.000Z</time>
      </trkpt>
      <trkpt lat="48.90584" lon="1.78067">
        <ele>120</ele>
        <time>2013-01-27T05:10:52.000Z</time>
      </trkpt>
      <trkpt lat="48.90596" lon="1.78091">
        <ele>120</ele>
        <time>2013-01-27T05:11:00.000Z</time>
      </trkpt>
      <trkpt lat="48.90604" lon="1.78113">
        <ele>119.80000305176</ele>
        <time>2013-01-27T05:11:07.000Z</time>
      </trkpt>
      <trkpt lat="48.90611" lon="1.78131">
        <ele>119.40000152588</ele>
        <time>2013-01-27T05:11:13.000Z</time>
      </trkpt>
      <trkpt lat="48.90622" lon="1.78154">
        <ele>119.19999694824</ele>
        <time>2013-01-27T05:11:21.000Z</time>
      </trkpt>
      <trkpt lat="48.90631" lon="1.78177">
        <ele>118.59999847412</ele>
        <time>2013-01-27T05:11:28.000Z</time>
      </trkpt>
      <trkpt lat="48.90641" lon="1.78202">
        <ele>117.80000305176</ele>
        <time>2013-01-27T05:11:36.000Z</time>
      </trkpt>
      <trkpt lat="48.90647" lon="1.78218">
        <ele>117.19999694824</ele>
        <time>2013-01-27T05:11:41.000Z</time>
      </trkpt>
      <trkpt lat="48.90656" lon="1.78236">
        <ele>116.59999847412</ele>
        <time>2013-01-27T05:11:47.000Z</time>
      </trkpt>
      <trkpt lat="48.90663" lon="1.78256">
        <ele>115.80000305176</ele>
        <time>2013-01-27T05:11:53.000Z</time>
      </trkpt>
      <trkpt lat="48.90671" lon="1.78274">
        <ele>115.40000152588</ele>
        <time>2013-01-27T05:11:59.000Z</time>
      </trkpt>
      <trkpt lat="48.9068" lon="1.78292">
        <ele>115.40000152588</ele>
        <time>2013-01-27T05:12:05.000Z</time>
      </trkpt>
      <trkpt lat="48.90688" lon="1.78315">
        <ele>115.40000152588</ele>
        <time>2013-01-27T05:12:12.000Z</time>
      </trkpt>
      <trkpt lat="48.90697" lon="1.78336">
        <ele>115.40000152588</ele>
        <time>2013-01-27T05:12:19.000Z</time>
      </trkpt>
      <trkpt lat="48.90704" lon="1.78352">
        <ele>115.59999847412</ele>
        <time>2013-01-27T05:12:24.000Z</time>
      </trkpt>
      <trkpt lat="48.90719" lon="1.78386">
        <ele>116.40000152588</ele>
        <time>2013-01-27T05:12:35.000Z</time>
      </trkpt>
      <trkpt lat="48.90727" lon="1.78403">
        <ele>116.80000305176</ele>
        <time>2013-01-27T05:12:41.000Z</time>
      </trkpt>
      <trkpt lat="48.90734" lon="1.78419">
        <ele>117</ele>
        <time>2013-01-27T05:12:46.000Z</time>
      </trkpt>
      <trkpt lat="48.90741" lon="1.78434">
        <ele>117</ele>
        <time>2013-01-27T05:12:52.000Z</time>
      </trkpt>
      <trkpt lat="48.90749" lon="1.78449">
        <ele>117</ele>
        <time>2013-01-27T05:13:00.000Z</time>
      </trkpt>
      <trkpt lat="48.90757" lon="1.78466">
        <ele>116.80000305176</ele>
        <time>2013-01-27T05:13:07.000Z</time>
      </trkpt>
      <trkpt lat="48.90767" lon="1.78484">
        <ele>116.59999847412</ele>
        <time>2013-01-27T05:13:15.000Z</time>
      </trkpt>
      <trkpt lat="48.90785" lon="1.7852">
        <ele>116.19999694824</ele>
        <time>2013-01-27T05:13:28.000Z</time>
      </trkpt>
      <trkpt lat="48.90797" lon="1.78543">
        <ele>115.80000305176</ele>
        <time>2013-01-27T05:13:36.000Z</time>
      </trkpt>
      <trkpt lat="48.90801" lon="1.78565">
        <ele>115.19999694824</ele>
        <time>2013-01-27T05:13:42.000Z</time>
      </trkpt>
      <trkpt lat="48.908" lon="1.78591">
        <ele>114.19999694824</ele>
        <time>2013-01-27T05:13:49.000Z</time>
      </trkpt>
      <trkpt lat="48.90799" lon="1.78619">
        <ele>112.80000305176</ele>
        <time>2013-01-27T05:13:56.000Z</time>
      </trkpt>
      <trkpt lat="48.90799" lon="1.78627">
        <ele>112.40000152588</ele>
        <time>2013-01-27T05:13:58.000Z</time>
      </trkpt>
      <trkpt lat="48.90802" lon="1.78645">
        <ele>111.59999847412</ele>
        <time>2013-01-27T05:14:03.000Z</time>
      </trkpt>
      <trkpt lat="48.90812" lon="1.78666">
        <ele>111</ele>
        <time>2013-01-27T05:14:10.000Z</time>
      </trkpt>
      <trkpt lat="48.90821" lon="1.78681">
        <ele>110.59999847412</ele>
        <time>2013-01-27T05:14:16.000Z</time>
      </trkpt>
      <trkpt lat="48.90836" lon="1.78701">
        <ele>110.19999694824</ele>
        <time>2013-01-27T05:14:24.000Z</time>
      </trkpt>
      <trkpt lat="48.90851" lon="1.78719">
        <ele>109.59999847412</ele>
        <time>2013-01-27T05:14:31.000Z</time>
      </trkpt>
      <trkpt lat="48.90859" lon="1.78729">
        <ele>109.19999694824</ele>
        <time>2013-01-27T05:14:35.000Z</time>
      </trkpt>
      <trkpt lat="48.90872" lon="1.7875">
        <ele>108.40000152588</ele>
        <time>2013-01-27T05:14:42.000Z</time>
      </trkpt>
      <trkpt lat="48.9088" lon="1.78763">
        <ele>108</ele>
        <time>2013-01-27T05:14:47.000Z</time>
      </trkpt>
      <trkpt lat="48.9089" lon="1.78785">
        <ele>106.80000305176</ele>
        <time>2013-01-27T05:14:54.000Z</time>
      </trkpt>
      <trkpt lat="48.90898" lon="1.78802">
        <ele>106</ele>
        <time>2013-01-27T05:14:59.000Z</time>
      </trkpt>
      <trkpt lat="48.90906" lon="1.78821">
        <ele>104.80000305176</ele>
        <time>2013-01-27T05:15:05.000Z</time>
      </trkpt>
      <trkpt lat="48.90916" lon="1.78844">
        <ele>103.80000305176</ele>
        <time>2013-01-27T05:15:12.000Z</time>
      </trkpt>
      <trkpt lat="48.90926" lon="1.78862">
        <ele>103</ele>
        <time>2013-01-27T05:15:18.000Z</time>
      </trkpt>
      <trkpt lat="48.90936" lon="1.7888">
        <ele>102.40000152588</ele>
        <time>2013-01-27T05:15:24.000Z</time>
      </trkpt>
      <trkpt lat="48.90947" lon="1.78901">
        <ele>101.59999847412</ele>
        <time>2013-01-27T05:15:31.000Z</time>
      </trkpt>
      <trkpt lat="48.90956" lon="1.78925">
        <ele>101</ele>
        <time>2013-01-27T05:15:38.000Z</time>
      </trkpt>
      <trkpt lat="48.90965" lon="1.78947">
        <ele>100.40000152588</ele>
        <time>2013-01-27T05:15:45.000Z</time>
      </trkpt>
      <trkpt lat="48.90976" lon="1.78965">
        <ele>99.599998474121</ele>
        <time>2013-01-27T05:15:51.000Z</time>
      </trkpt>
      <trkpt lat="48.90986" lon="1.78982">
        <ele>99</ele>
        <time>2013-01-27T05:15:57.000Z</time>
      </trkpt>
      <trkpt lat="48.90997" lon="1.79">
        <ele>98</ele>
        <time>2013-01-27T05:16:03.000Z</time>
      </trkpt>
      <trkpt lat="48.9101" lon="1.79025">
        <ele>98.400001525879</ele>
        <time>2013-01-27T05:16:11.000Z</time>
      </trkpt>
      <trkpt lat="48.91011" lon="1.79027">
        <ele>98.400001525879</ele>
        <time>2013-01-27T05:16:12.000Z</time>
      </trkpt>
      <trkpt lat="48.91016" lon="1.79025">
        <ele>98.400001525879</ele>
        <time>2013-01-27T05:16:14.000Z</time>
      </trkpt>
      <trkpt lat="48.91026" lon="1.79008">
        <ele>98.400001525879</ele>
        <time>2013-01-27T05:16:22.000Z</time>
      </trkpt>
      <trkpt lat="48.91033" lon="1.78994">
        <ele>98.400001525879</ele>
        <time>2013-01-27T05:16:29.000Z</time>
      </trkpt>
      <trkpt lat="48.9104" lon="1.7898">
        <ele>98.599998474121</ele>
        <time>2013-01-27T05:16:36.000Z</time>
      </trkpt>
      <trkpt lat="48.91046" lon="1.78966">
        <ele>98.800003051758</ele>
        <time>2013-01-27T05:16:43.000Z</time>
      </trkpt>
      <trkpt lat="48.91053" lon="1.7895">
        <ele>99.199996948242</ele>
        <time>2013-01-27T05:16:51.000Z</time>
      </trkpt>
      <trkpt lat="48.91057" lon="1.78934">
        <ele>99.400001525879</ele>
        <time>2013-01-27T05:16:59.000Z</time>
      </trkpt>
      <trkpt lat="48.91057" lon="1.78918">
        <ele>99.599998474121</ele>
        <time>2013-01-27T05:17:07.000Z</time>
      </trkpt>
      <trkpt lat="48.91055" lon="1.78905">
        <ele>99.400001525879</ele>
        <time>2013-01-27T05:17:13.000Z</time>
      </trkpt>
      <trkpt lat="48.9104" lon="1.78866">
        <ele>98.800003051758</ele>
        <time>2013-01-27T05:17:32.000Z</time>
      </trkpt>
      <trkpt lat="48.91035" lon="1.78843">
        <ele>98.599998474121</ele>
        <time>2013-01-27T05:17:42.000Z</time>
      </trkpt>
      <trkpt lat="48.91036" lon="1.78825">
        <ele>98.400001525879</ele>
        <time>2013-01-27T05:17:51.000Z</time>
      </trkpt>
      <trkpt lat="48.91038" lon="1.78809">
        <ele>98.400001525879</ele>
        <time>2013-01-27T05:17:58.000Z</time>
      </trkpt>
      <trkpt lat="48.91045" lon="1.78793">
        <ele>98.400001525879</ele>
        <time>2013-01-27T05:18:07.000Z</time>
      </trkpt>
      <trkpt lat="48.91056" lon="1.78782">
        <ele>98</ele>
        <time>2013-01-27T05:18:16.000Z</time>
      </trkpt>
      <trkpt lat="48.91077" lon="1.78762">
        <ele>97.199996948242</ele>
        <time>2013-01-27T05:18:33.000Z</time>
      </trkpt>
      <trkpt lat="48.91085" lon="1.78754">
        <ele>97</ele>
        <time>2013-01-27T05:18:40.000Z</time>
      </trkpt>
      <trkpt lat="48.91088" lon="1.7875">
        <ele>97</ele>
        <time>2013-01-27T05:18:43.000Z</time>
      </trkpt>
      <trkpt lat="48.91097" lon="1.78735">
        <ele>97</ele>
        <time>2013-01-27T05:18:52.000Z</time>
      </trkpt>
      <trkpt lat="48.91101" lon="1.78721">
        <ele>97.199996948242</ele>
        <time>2013-01-27T05:18:59.000Z</time>
      </trkpt>
      <trkpt lat="48.91105" lon="1.78707">
        <ele>97.199996948242</ele>
        <time>2013-01-27T05:19:06.000Z</time>
      </trkpt>
      <trkpt lat="48.91117" lon="1.78692">
        <ele>97.400001525879</ele>
        <time>2013-01-27T05:19:16.000Z</time>
      </trkpt>
      <trkpt lat="48.9113" lon="1.7868">
        <ele>97.199996948242</ele>
        <time>2013-01-27T05:19:26.000Z</time>
      </trkpt>
      <trkpt lat="48.91142" lon="1.78671">
        <ele>97.199996948242</ele>
        <time>2013-01-27T05:19:35.000Z</time>
      </trkpt>
      <trkpt lat="48.91154" lon="1.78667">
        <ele>97</ele>
        <time>2013-01-27T05:19:43.000Z</time>
      </trkpt>
      <trkpt lat="48.91168" lon="1.78664">
        <ele>97</ele>
        <time>2013-01-27T05:19:52.000Z</time>
      </trkpt>
      <trkpt lat="48.91182" lon="1.78664">
        <ele>96.800003051758</ele>
        <time>2013-01-27T05:20:02.000Z</time>
      </trkpt>
      <trkpt lat="48.91194" lon="1.78668">
        <ele>96.599998474121</ele>
        <time>2013-01-27T05:20:10.000Z</time>
      </trkpt>
      <trkpt lat="48.91205" lon="1.78672">
        <ele>96.599998474121</ele>
        <time>2013-01-27T05:20:18.000Z</time>
      </trkpt>
      <trkpt lat="48.91219" lon="1.7868">
        <ele>96.599998474121</ele>
        <time>2013-01-27T05:20:28.000Z</time>
      </trkpt>
      <trkpt lat="48.91233" lon="1.78687">
        <ele>96.599998474121</ele>
        <time>2013-01-27T05:20:37.000Z</time>
      </trkpt>
      <trkpt lat="48.91243" lon="1.78691">
        <ele>96.800003051758</ele>
        <time>2013-01-27T05:20:44.000Z</time>
      </trkpt>
      <trkpt lat="48.91258" lon="1.7869">
        <ele>97</ele>
        <time>2013-01-27T05:20:53.000Z</time>
      </trkpt>
      <trkpt lat="48.91268" lon="1.78689">
        <ele>97</ele>
        <time>2013-01-27T05:21:00.000Z</time>
      </trkpt>
      <trkpt lat="48.91281" lon="1.78688">
        <ele>97.199996948242</ele>
        <time>2013-01-27T05:21:08.000Z</time>
      </trkpt>
      <trkpt lat="48.91288" lon="1.78686">
        <ele>97.199996948242</ele>
        <time>2013-01-27T05:21:13.000Z</time>
      </trkpt>
      <trkpt lat="48.91298" lon="1.78682">
        <ele>97</ele>
        <time>2013-01-27T05:21:20.000Z</time>
      </trkpt>
      <trkpt lat="48.9131" lon="1.78678">
        <ele>96.800003051758</ele>
        <time>2013-01-27T05:21:28.000Z</time>
      </trkpt>
      <trkpt lat="48.91319" lon="1.78675">
        <ele>96.599998474121</ele>
        <time>2013-01-27T05:21:34.000Z</time>
      </trkpt>
      <trkpt lat="48.91329" lon="1.78671">
        <ele>96.400001525879</ele>
        <time>2013-01-27T05:21:41.000Z</time>
      </trkpt>
      <trkpt lat="48.9134" lon="1.78666">
        <ele>96</ele>
        <time>2013-01-27T05:21:49.000Z</time>
      </trkpt>
      <trkpt lat="48.91344" lon="1.78664">
        <ele>96.199996948242</ele>
        <time>2013-01-27T05:21:52.000Z</time>
      </trkpt>
      <trkpt lat="48.91347" lon="1.78662">
        <ele>96.199996948242</ele>
        <time>2013-01-27T05:21:59.000Z</time>
      </trkpt>
      <trkpt lat="48.91359" lon="1.78656">
        <ele>96.199996948242</ele>
        <time>2013-01-27T05:22:08.000Z</time>
      </trkpt>
      <trkpt lat="48.9137" lon="1.78649">
        <ele>96.199996948242</ele>
        <time>2013-01-27T05:22:16.000Z</time>
      </trkpt>
      <trkpt lat="48.91379" lon="1.78642">
        <ele>96</ele>
        <time>2013-01-27T05:22:24.000Z</time>
      </trkpt>
      <trkpt lat="48.91382" lon="1.7864">
        <ele>96</ele>
        <time>2013-01-27T05:22:26.000Z</time>
      </trkpt>
      <trkpt lat="48.91387" lon="1.78637">
        <ele>95.800003051758</ele>
        <time>2013-01-27T05:22:30.000Z</time>
      </trkpt>
      <trkpt lat="48.91397" lon="1.7863">
        <ele>95.400001525879</ele>
        <time>2013-01-27T05:22:38.000Z</time>
      </trkpt>
      <trkpt lat="48.91407" lon="1.78624">
        <ele>95</ele>
        <time>2013-01-27T05:22:45.000Z</time>
      </trkpt>
      <trkpt lat="48.91417" lon="1.78621">
        <ele>94.599998474121</ele>
        <time>2013-01-27T05:22:52.000Z</time>
      </trkpt>
      <trkpt lat="48.91422" lon="1.78618">
        <ele>94.599998474121</ele>
        <time>2013-01-27T05:22:56.000Z</time>
      </trkpt>
      <trkpt lat="48.91434" lon="1.78613">
        <ele>94.800003051758</ele>
        <time>2013-01-27T05:23:04.000Z</time>
      </trkpt>
      <trkpt lat="48.91446" lon="1.78609">
        <ele>94.800003051758</ele>
        <time>2013-01-27T05:23:12.000Z</time>
      </trkpt>
      <trkpt lat="48.91459" lon="1.78605">
        <ele>94.800003051758</ele>
        <time>2013-01-27T05:23:21.000Z</time>
      </trkpt>
      <trkpt lat="48.9147" lon="1.786">
        <ele>94.800003051758</ele>
        <time>2013-01-27T05:23:29.000Z</time>
      </trkpt>
      <trkpt lat="48.91485" lon="1.78592">
        <ele>94.400001525879</ele>
        <time>2013-01-27T05:23:39.000Z</time>
      </trkpt>
      <trkpt lat="48.91496" lon="1.78586">
        <ele>94</ele>
        <time>2013-01-27T05:23:46.000Z</time>
      </trkpt>
      <trkpt lat="48.91505" lon="1.78583">
        <ele>94</ele>
        <time>2013-01-27T05:23:52.000Z</time>
      </trkpt>
      <trkpt lat="48.91517" lon="1.78579">
        <ele>94</ele>
        <time>2013-01-27T05:24:00.000Z</time>
      </trkpt>
      <trkpt lat="48.91531" lon="1.78575">
        <ele>94.199996948242</ele>
        <time>2013-01-27T05:24:09.000Z</time>
      </trkpt>
      <trkpt lat="48.91546" lon="1.78573">
        <ele>94.199996948242</ele>
        <time>2013-01-27T05:24:18.000Z</time>
      </trkpt>
      <trkpt lat="48.91562" lon="1.7857">
        <ele>94.199996948242</ele>
        <time>2013-01-27T05:24:28.000Z</time>
      </trkpt>
      <trkpt lat="48.9158" lon="1.7857">
        <ele>94.400001525879</ele>
        <time>2013-01-27T05:24:39.000Z</time>
      </trkpt>
      <trkpt lat="48.91596" lon="1.78572">
        <ele>94.199996948242</ele>
        <time>2013-01-27T05:24:49.000Z</time>
      </trkpt>
      <trkpt lat="48.91611" lon="1.78572">
        <ele>94</ele>
        <time>2013-01-27T05:24:59.000Z</time>
      </trkpt>
      <trkpt lat="48.91626" lon="1.78573">
        <ele>93.599998474121</ele>
        <time>2013-01-27T05:25:09.000Z</time>
      </trkpt>
      <trkpt lat="48.91643" lon="1.78574">
        <ele>93.199996948242</ele>
        <time>2013-01-27T05:25:20.000Z</time>
      </trkpt>
      <trkpt lat="48.91655" lon="1.78576">
        <ele>93</ele>
        <time>2013-01-27T05:25:28.000Z</time>
      </trkpt>
      <trkpt lat="48.91663" lon="1.78578">
        <ele>93</ele>
        <time>2013-01-27T05:25:34.000Z</time>
      </trkpt>
      <trkpt lat="48.91673" lon="1.7858">
        <ele>92.599998474121</ele>
        <time>2013-01-27T05:25:41.000Z</time>
      </trkpt>
      <trkpt lat="48.91684" lon="1.78581">
        <ele>92.199996948242</ele>
        <time>2013-01-27T05:25:48.000Z</time>
      </trkpt>
      <trkpt lat="48.91697" lon="1.78582">
        <ele>91.800003051758</ele>
        <time>2013-01-27T05:25:57.000Z</time>
      </trkpt>
      <trkpt lat="48.91708" lon="1.78582">
        <ele>91.400001525879</ele>
        <time>2013-01-27T05:26:05.000Z</time>
      </trkpt>
      <trkpt lat="48.91735" lon="1.78582">
        <ele>90.400001525879</ele>
        <time>2013-01-27T05:26:23.000Z</time>
      </trkpt>
      <trkpt lat="48.9175" lon="1.78581">
        <ele>90</ele>
        <time>2013-01-27T05:26:32.000Z</time>
      </trkpt>
      <trkpt lat="48.91765" lon="1.78578">
        <ele>89.800003051758</ele>
        <time>2013-01-27T05:26:42.000Z</time>
      </trkpt>
      <trkpt lat="48.91781" lon="1.78577">
        <ele>89.599998474121</ele>
        <time>2013-01-27T05:26:52.000Z</time>
      </trkpt>
      <trkpt lat="48.91797" lon="1.78576">
        <ele>89.599998474121</ele>
        <time>2013-01-27T05:27:02.000Z</time>
      </trkpt>
      <trkpt lat="48.91816" lon="1.78575">
        <ele>89.400001525879</ele>
        <time>2013-01-27T05:27:15.000Z</time>
      </trkpt>
      <trkpt lat="48.91828" lon="1.78573">
        <ele>89.400001525879</ele>
        <time>2013-01-27T05:27:23.000Z</time>
      </trkpt>
      <trkpt lat="48.91846" lon="1.78571">
        <ele>89.400001525879</ele>
        <time>2013-01-27T05:27:35.000Z</time>
      </trkpt>
      <trkpt lat="48.91858" lon="1.78568">
        <ele>89.400001525879</ele>
        <time>2013-01-27T05:27:43.000Z</time>
      </trkpt>
      <trkpt lat="48.91871" lon="1.78563">
        <ele>89.599998474121</ele>
        <time>2013-01-27T05:27:52.000Z</time>
      </trkpt>
      <trkpt lat="48.91886" lon="1.78552">
        <ele>89.800003051758</ele>
        <time>2013-01-27T05:28:03.000Z</time>
      </trkpt>
      <trkpt lat="48.919" lon="1.78538">
        <ele>90</ele>
        <time>2013-01-27T05:28:14.000Z</time>
      </trkpt>
      <trkpt lat="48.91914" lon="1.78521">
        <ele>90.400001525879</ele>
        <time>2013-01-27T05:28:26.000Z</time>
      </trkpt>
      <trkpt lat="48.91926" lon="1.785">
        <ele>90.400001525879</ele>
        <time>2013-01-27T05:28:38.000Z</time>
      </trkpt>
      <trkpt lat="48.91937" lon="1.78478">
        <ele>90.800003051758</ele>
        <time>2013-01-27T05:28:50.000Z</time>
      </trkpt>
      <trkpt lat="48.91948" lon="1.78455">
        <ele>91</ele>
        <time>2013-01-27T05:29:02.000Z</time>
      </trkpt>
      <trkpt lat="48.91957" lon="1.78436">
        <ele>90.800003051758</ele>
        <time>2013-01-27T05:29:12.000Z</time>
      </trkpt>
      <trkpt lat="48.91968" lon="1.78414">
        <ele>90.599998474121</ele>
        <time>2013-01-27T05:29:24.000Z</time>
      </trkpt>
      <trkpt lat="48.91978" lon="1.78391">
        <ele>89.800003051758</ele>
        <time>2013-01-27T05:29:36.000Z</time>
      </trkpt>
      <trkpt lat="48.91987" lon="1.78372">
        <ele>89</ele>
        <time>2013-01-27T05:29:46.000Z</time>
      </trkpt>
      <trkpt lat="48.91998" lon="1.7835">
        <ele>88</ele>
        <time>2013-01-27T05:29:58.000Z</time>
      </trkpt>
      <trkpt lat="48.92007" lon="1.7833">
        <ele>88.199996948242</ele>
        <time>2013-01-27T05:30:09.000Z</time>
      </trkpt>
      <trkpt lat="48.92017" lon="1.78309">
        <ele>88.400001525879</ele>
        <time>2013-01-27T05:30:20.000Z</time>
      </trkpt>
      <trkpt lat="48.92029" lon="1.78289">
        <ele>88.400001525879</ele>
        <time>2013-01-27T05:30:32.000Z</time>
      </trkpt>
      <trkpt lat="48.92039" lon="1.78276">
        <ele>88.199996948242</ele>
        <time>2013-01-27T05:30:41.000Z</time>
      </trkpt>
      <trkpt lat="48.92049" lon="1.78263">
        <ele>87.800003051758</ele>
        <time>2013-01-27T05:30:50.000Z</time>
      </trkpt>
      <trkpt lat="48.92058" lon="1.78253">
        <ele>87.400001525879</ele>
        <time>2013-01-27T05:30:57.000Z</time>
      </trkpt>
      <trkpt lat="48.92068" lon="1.78243">
        <ele>87.400001525879</ele>
        <time>2013-01-27T05:31:05.000Z</time>
      </trkpt>
      <trkpt lat="48.92079" lon="1.78235">
        <ele>87.800003051758</ele>
        <time>2013-01-27T05:31:11.000Z</time>
      </trkpt>
      <trkpt lat="48.92096" lon="1.78226">
        <ele>87.800003051758</ele>
        <time>2013-01-27T05:31:19.000Z</time>
      </trkpt>
      <trkpt lat="48.9211" lon="1.78217">
        <ele>87.800003051758</ele>
        <time>2013-01-27T05:31:26.000Z</time>
      </trkpt>
      <trkpt lat="48.92125" lon="1.78211">
        <ele>87.800003051758</ele>
        <time>2013-01-27T05:31:33.000Z</time>
      </trkpt>
      <trkpt lat="48.92143" lon="1.78204">
        <ele>87.599998474121</ele>
        <time>2013-01-27T05:31:41.000Z</time>
      </trkpt>
      <trkpt lat="48.9216" lon="1.78197">
        <ele>87.599998474121</ele>
        <time>2013-01-27T05:31:49.000Z</time>
      </trkpt>
      <trkpt lat="48.92172" lon="1.78193">
        <ele>87.599998474121</ele>
        <time>2013-01-27T05:31:55.000Z</time>
      </trkpt>
      <trkpt lat="48.92174" lon="1.78193">
        <ele>87.599998474121</ele>
        <time>2013-01-27T05:31:56.000Z</time>
      </trkpt>
      <trkpt lat="48.92189" lon="1.78191">
        <ele>87.800003051758</ele>
        <time>2013-01-27T05:32:03.000Z</time>
      </trkpt>
      <trkpt lat="48.92204" lon="1.78187">
        <ele>88</ele>
        <time>2013-01-27T05:32:10.000Z</time>
      </trkpt>
      <trkpt lat="48.92222" lon="1.78179">
        <ele>88.400001525879</ele>
        <time>2013-01-27T05:32:18.000Z</time>
      </trkpt>
      <trkpt lat="48.92234" lon="1.78174">
        <ele>88.599998474121</ele>
        <time>2013-01-27T05:32:24.000Z</time>
      </trkpt>
      <trkpt lat="48.92247" lon="1.7817">
        <ele>88.800003051758</ele>
        <time>2013-01-27T05:32:30.000Z</time>
      </trkpt>
      <trkpt lat="48.92262" lon="1.78162">
        <ele>88.599998474121</ele>
        <time>2013-01-27T05:32:37.000Z</time>
      </trkpt>
      <trkpt lat="48.92276" lon="1.78152">
        <ele>88.199996948242</ele>
        <time>2013-01-27T05:32:44.000Z</time>
      </trkpt>
      <trkpt lat="48.92285" lon="1.78143">
        <ele>88</ele>
        <time>2013-01-27T05:32:50.000Z</time>
      </trkpt>
      <trkpt lat="48.92297" lon="1.78128">
        <ele>87.599998474121</ele>
        <time>2013-01-27T05:33:00.000Z</time>
      </trkpt>
      <trkpt lat="48.92311" lon="1.78109">
        <ele>86.800003051758</ele>
        <time>2013-01-27T05:33:12.000Z</time>
      </trkpt>
      <trkpt lat="48.92323" lon="1.78087">
        <ele>85.400001525879</ele>
        <time>2013-01-27T05:33:24.000Z</time>
      </trkpt>
      <trkpt lat="48.92335" lon="1.78065">
        <ele>84</ele>
        <time>2013-01-27T05:33:36.000Z</time>
      </trkpt>
      <trkpt lat="48.92342" lon="1.78047">
        <ele>84.199996948242</ele>
        <time>2013-01-27T05:33:45.000Z</time>
      </trkpt>
      <trkpt lat="48.92348" lon="1.78031">
        <ele>84.199996948242</ele>
        <time>2013-01-27T05:33:53.000Z</time>
      </trkpt>
      <trkpt lat="48.92356" lon="1.78007">
        <ele>84.400001525879</ele>
        <time>2013-01-27T05:34:04.000Z</time>
      </trkpt>
      <trkpt lat="48.92363" lon="1.77984">
        <ele>84.400001525879</ele>
        <time>2013-01-27T05:34:15.000Z</time>
      </trkpt>
      <trkpt lat="48.92371" lon="1.77958">
        <ele>84</ele>
        <time>2013-01-27T05:34:27.000Z</time>
      </trkpt>
      <trkpt lat="48.92376" lon="1.77941">
        <ele>83.800003051758</ele>
        <time>2013-01-27T05:34:35.000Z</time>
      </trkpt>
      <trkpt lat="48.92384" lon="1.77916">
        <ele>83.400001525879</ele>
        <time>2013-01-27T05:34:47.000Z</time>
      </trkpt>
      <trkpt lat="48.92391" lon="1.77889">
        <ele>82.400001525879</ele>
        <time>2013-01-27T05:34:59.000Z</time>
      </trkpt>
      <trkpt lat="48.92392" lon="1.77869">
        <ele>81.400001525879</ele>
        <time>2013-01-27T05:35:08.000Z</time>
      </trkpt>
      <trkpt lat="48.92395" lon="1.77823">
        <ele>79.800003051758</ele>
        <time>2013-01-27T05:35:28.000Z</time>
      </trkpt>
      <trkpt lat="48.92403" lon="1.7781">
        <ele>79.599998474121</ele>
        <time>2013-01-27T05:35:36.000Z</time>
      </trkpt>
      <trkpt lat="48.92414" lon="1.77801">
        <ele>79</ele>
        <time>2013-01-27T05:35:45.000Z</time>
      </trkpt>
      <trkpt lat="48.92426" lon="1.77791">
        <ele>79</ele>
        <time>2013-01-27T05:35:54.000Z</time>
      </trkpt>
      <trkpt lat="48.92436" lon="1.77782">
        <ele>79.400001525879</ele>
        <time>2013-01-27T05:36:02.000Z</time>
      </trkpt>
      <trkpt lat="48.92467" lon="1.77757">
        <ele>80.599998474121</ele>
        <time>2013-01-27T05:36:25.000Z</time>
      </trkpt>
      <trkpt lat="48.9248" lon="1.7775">
        <ele>81.199996948242</ele>
        <time>2013-01-27T05:36:34.000Z</time>
      </trkpt>
      <trkpt lat="48.92493" lon="1.77743">
        <ele>82</ele>
        <time>2013-01-27T05:36:43.000Z</time>
      </trkpt>
      <trkpt lat="48.92504" lon="1.77739">
        <ele>82.800003051758</ele>
        <time>2013-01-27T05:36:51.000Z</time>
      </trkpt>
      <trkpt lat="48.92516" lon="1.77733">
        <ele>83.400001525879</ele>
        <time>2013-01-27T05:37:00.000Z</time>
      </trkpt>
      <trkpt lat="48.92527" lon="1.77727">
        <ele>84.199996948242</ele>
        <time>2013-01-27T05:37:08.000Z</time>
      </trkpt>
      <trkpt lat="48.92538" lon="1.77722">
        <ele>84.800003051758</ele>
        <time>2013-01-27T05:37:16.000Z</time>
      </trkpt>
      <trkpt lat="48.92551" lon="1.77714">
        <ele>85.599998474121</ele>
        <time>2013-01-27T05:37:26.000Z</time>
      </trkpt>
      <trkpt lat="48.92562" lon="1.77706">
        <ele>86.400001525879</ele>
        <time>2013-01-27T05:37:34.000Z</time>
      </trkpt>
      <trkpt lat="48.92576" lon="1.77691">
        <ele>87.599998474121</ele>
        <time>2013-01-27T05:37:46.000Z</time>
      </trkpt>
      <trkpt lat="48.92586" lon="1.77678">
        <ele>88.199996948242</ele>
        <time>2013-01-27T05:37:55.000Z</time>
      </trkpt>
      <trkpt lat="48.92597" lon="1.77658">
        <ele>88.400001525879</ele>
        <time>2013-01-27T05:38:06.000Z</time>
      </trkpt>
      <trkpt lat="48.92605" lon="1.77641">
        <ele>89.199996948242</ele>
        <time>2013-01-27T05:38:16.000Z</time>
      </trkpt>
      <trkpt lat="48.92613" lon="1.77623">
        <ele>90</ele>
        <time>2013-01-27T05:38:26.000Z</time>
      </trkpt>
      <trkpt lat="48.92621" lon="1.77604">
        <ele>90.599998474121</ele>
        <time>2013-01-27T05:38:36.000Z</time>
      </trkpt>
      <trkpt lat="48.9263" lon="1.77584">
        <ele>91.400001525879</ele>
        <time>2013-01-27T05:38:47.000Z</time>
      </trkpt>
      <trkpt lat="48.92637" lon="1.77568">
        <ele>92.199996948242</ele>
        <time>2013-01-27T05:38:56.000Z</time>
      </trkpt>
      <trkpt lat="48.92646" lon="1.77546">
        <ele>93.599998474121</ele>
        <time>2013-01-27T05:39:08.000Z</time>
      </trkpt>
      <trkpt lat="48.92654" lon="1.77529">
        <ele>94.800003051758</ele>
        <time>2013-01-27T05:39:18.000Z</time>
      </trkpt>
      <trkpt lat="48.9266" lon="1.77512">
        <ele>96</ele>
        <time>2013-01-27T05:39:27.000Z</time>
      </trkpt>
      <trkpt lat="48.92667" lon="1.77495">
        <ele>97.400001525879</ele>
        <time>2013-01-27T05:39:36.000Z</time>
      </trkpt>
      <trkpt lat="48.92674" lon="1.77477">
        <ele>99.800003051758</ele>
        <time>2013-01-27T05:39:46.000Z</time>
      </trkpt>
      <trkpt lat="48.92683" lon="1.77457">
        <ele>102.19999694824</ele>
        <time>2013-01-27T05:39:57.000Z</time>
      </trkpt>
      <trkpt lat="48.92692" lon="1.77439">
        <ele>104.40000152588</ele>
        <time>2013-01-27T05:40:07.000Z</time>
      </trkpt>
      <trkpt lat="48.92702" lon="1.77428">
        <ele>105.80000305176</ele>
        <time>2013-01-27T05:40:16.000Z</time>
      </trkpt>
      <trkpt lat="48.92709" lon="1.77419">
        <ele>106.59999847412</ele>
        <time>2013-01-27T05:40:22.000Z</time>
      </trkpt>
      <trkpt lat="48.92717" lon="1.77408">
        <ele>107.40000152588</ele>
        <time>2013-01-27T05:40:30.000Z</time>
      </trkpt>
      <trkpt lat="48.92722" lon="1.77403">
        <ele>107.80000305176</ele>
        <time>2013-01-27T05:40:34.000Z</time>
      </trkpt>
      <trkpt lat="48.92729" lon="1.77393">
        <ele>108.40000152588</ele>
        <time>2013-01-27T05:40:41.000Z</time>
      </trkpt>
      <trkpt lat="48.9273" lon="1.77392">
        <ele>108.59999847412</ele>
        <time>2013-01-27T05:40:42.000Z</time>
      </trkpt>
      <trkpt lat="48.92743" lon="1.77381">
        <ele>109.19999694824</ele>
        <time>2013-01-27T05:40:53.000Z</time>
      </trkpt>
      <trkpt lat="48.92752" lon="1.77373">
        <ele>109.40000152588</ele>
        <time>2013-01-27T05:41:00.000Z</time>
      </trkpt>
      <trkpt lat="48.92762" lon="1.77363">
        <ele>109.59999847412</ele>
        <time>2013-01-27T05:41:08.000Z</time>
      </trkpt>
      <trkpt lat="48.92773" lon="1.77348">
        <ele>109.80000305176</ele>
        <time>2013-01-27T05:41:18.000Z</time>
      </trkpt>
      <trkpt lat="48.92781" lon="1.77337">
        <ele>109.80000305176</ele>
        <time>2013-01-27T05:41:25.000Z</time>
      </trkpt>
      <trkpt lat="48.92787" lon="1.77326">
        <ele>109.80000305176</ele>
        <time>2013-01-27T05:41:32.000Z</time>
      </trkpt>
      <trkpt lat="48.9279" lon="1.77316">
        <ele>109.80000305176</ele>
        <time>2013-01-27T05:41:37.000Z</time>
      </trkpt>
      <trkpt lat="48.92792" lon="1.77311">
        <ele>109.80000305176</ele>
        <time>2013-01-27T05:41:40.000Z</time>
      </trkpt>
      <trkpt lat="48.92797" lon="1.77294">
        <ele>109.80000305176</ele>
        <time>2013-01-27T05:41:49.000Z</time>
      </trkpt>
      <trkpt lat="48.928" lon="1.77281">
        <ele>109.59999847412</ele>
        <time>2013-01-27T05:41:56.000Z</time>
      </trkpt>
      <trkpt lat="48.92802" lon="1.77259">
        <ele>109.80000305176</ele>
        <time>2013-01-27T05:42:06.000Z</time>
      </trkpt>
      <trkpt lat="48.92805" lon="1.77243">
        <ele>109.59999847412</ele>
        <time>2013-01-27T05:42:14.000Z</time>
      </trkpt>
      <trkpt lat="48.92808" lon="1.77219">
        <ele>109.59999847412</ele>
        <time>2013-01-27T05:42:25.000Z</time>
      </trkpt>
      <trkpt lat="48.92809" lon="1.77197">
        <ele>109.59999847412</ele>
        <time>2013-01-27T05:42:35.000Z</time>
      </trkpt>
      <trkpt lat="48.92811" lon="1.77173">
        <ele>109.40000152588</ele>
        <time>2013-01-27T05:42:46.000Z</time>
      </trkpt>
      <trkpt lat="48.92814" lon="1.77147">
        <ele>110.40000152588</ele>
        <time>2013-01-27T05:42:58.000Z</time>
      </trkpt>
      <trkpt lat="48.92816" lon="1.77126">
        <ele>111.19999694824</ele>
        <time>2013-01-27T05:43:08.000Z</time>
      </trkpt>
      <trkpt lat="48.92818" lon="1.77099">
        <ele>112.40000152588</ele>
        <time>2013-01-27T05:43:21.000Z</time>
      </trkpt>
      <trkpt lat="48.92821" lon="1.77078">
        <ele>113.40000152588</ele>
        <time>2013-01-27T05:43:31.000Z</time>
      </trkpt>
      <trkpt lat="48.92822" lon="1.77055">
        <ele>115</ele>
        <time>2013-01-27T05:43:42.000Z</time>
      </trkpt>
      <trkpt lat="48.92825" lon="1.77031">
        <ele>116.40000152588</ele>
        <time>2013-01-27T05:43:53.000Z</time>
      </trkpt>
      <trkpt lat="48.92826" lon="1.77015">
        <ele>117.40000152588</ele>
        <time>2013-01-27T05:44:01.000Z</time>
      </trkpt>
      <trkpt lat="48.92828" lon="1.76995">
        <ele>118.59999847412</ele>
        <time>2013-01-27T05:44:10.000Z</time>
      </trkpt>
      <trkpt lat="48.9283" lon="1.76976">
        <ele>119.80000305176</ele>
        <time>2013-01-27T05:44:19.000Z</time>
      </trkpt>
      <trkpt lat="48.92832" lon="1.76943">
        <ele>122.19999694824</ele>
        <time>2013-01-27T05:44:35.000Z</time>
      </trkpt>
      <trkpt lat="48.92833" lon="1.76924">
        <ele>123.40000152588</ele>
        <time>2013-01-27T05:44:44.000Z</time>
      </trkpt>
      <trkpt lat="48.92834" lon="1.76907">
        <ele>123.59999847412</ele>
        <time>2013-01-27T05:44:52.000Z</time>
      </trkpt>
      <trkpt lat="48.92836" lon="1.76884">
        <ele>123.40000152588</ele>
        <time>2013-01-27T05:45:03.000Z</time>
      </trkpt>
      <trkpt lat="48.92837" lon="1.76867">
        <ele>123.19999694824</ele>
        <time>2013-01-27T05:45:11.000Z</time>
      </trkpt>
      <trkpt lat="48.92839" lon="1.76846">
        <ele>123</ele>
        <time>2013-01-27T05:45:21.000Z</time>
      </trkpt>
      <trkpt lat="48.92839" lon="1.7683">
        <ele>123</ele>
        <time>2013-01-27T05:45:29.000Z</time>
      </trkpt>
      <trkpt lat="48.92841" lon="1.76812">
        <ele>122.59999847412</ele>
        <time>2013-01-27T05:45:38.000Z</time>
      </trkpt>
      <trkpt lat="48.92842" lon="1.76796">
        <ele>122.19999694824</ele>
        <time>2013-01-27T05:45:45.000Z</time>
      </trkpt>
      <trkpt lat="48.92845" lon="1.76777">
        <ele>121.80000305176</ele>
        <time>2013-01-27T05:45:54.000Z</time>
      </trkpt>
      <trkpt lat="48.92848" lon="1.7676">
        <ele>121.59999847412</ele>
        <time>2013-01-27T05:46:02.000Z</time>
      </trkpt>
      <trkpt lat="48.9285" lon="1.76746">
        <ele>121.40000152588</ele>
        <time>2013-01-27T05:46:09.000Z</time>
      </trkpt>
      <trkpt lat="48.92853" lon="1.76728">
        <ele>121.40000152588</ele>
        <time>2013-01-27T05:46:18.000Z</time>
      </trkpt>
      <trkpt lat="48.92855" lon="1.76708">
        <ele>121.40000152588</ele>
        <time>2013-01-27T05:46:27.000Z</time>
      </trkpt>
      <trkpt lat="48.92856" lon="1.76706">
        <ele>121.40000152588</ele>
        <time>2013-01-27T05:46:28.000Z</time>
      </trkpt>
      <trkpt lat="48.92858" lon="1.76685">
        <ele>121.59999847412</ele>
        <time>2013-01-27T05:46:37.000Z</time>
      </trkpt>
      <trkpt lat="48.92861" lon="1.76667">
        <ele>121.80000305176</ele>
        <time>2013-01-27T05:46:45.000Z</time>
      </trkpt>
      <trkpt lat="48.92865" lon="1.76642">
        <ele>122</ele>
        <time>2013-01-27T05:46:56.000Z</time>
      </trkpt>
      <trkpt lat="48.92868" lon="1.76627">
        <ele>122</ele>
        <time>2013-01-27T05:47:03.000Z</time>
      </trkpt>
      <trkpt lat="48.92874" lon="1.76598">
        <ele>122.19999694824</ele>
        <time>2013-01-27T05:47:16.000Z</time>
      </trkpt>
      <trkpt lat="48.92882" lon="1.76554">
        <ele>122.80000305176</ele>
        <time>2013-01-27T05:47:35.000Z</time>
      </trkpt>
      <trkpt lat="48.92886" lon="1.7653">
        <ele>123.19999694824</ele>
        <time>2013-01-27T05:47:46.000Z</time>
      </trkpt>
      <trkpt lat="48.92889" lon="1.76512">
        <ele>123.40000152588</ele>
        <time>2013-01-27T05:47:54.000Z</time>
      </trkpt>
      <trkpt lat="48.92892" lon="1.76492">
        <ele>123.80000305176</ele>
        <time>2013-01-27T05:48:03.000Z</time>
      </trkpt>
      <trkpt lat="48.92896" lon="1.76469">
        <ele>124.59999847412</ele>
        <time>2013-01-27T05:48:14.000Z</time>
      </trkpt>
      <trkpt lat="48.92898" lon="1.76448">
        <ele>125.40000152588</ele>
        <time>2013-01-27T05:48:23.000Z</time>
      </trkpt>
      <trkpt lat="48.92903" lon="1.76405">
        <ele>126.59999847412</ele>
        <time>2013-01-27T05:48:42.000Z</time>
      </trkpt>
      <trkpt lat="48.92905" lon="1.76381">
        <ele>127.59999847412</ele>
        <time>2013-01-27T05:48:53.000Z</time>
      </trkpt>
      <trkpt lat="48.92907" lon="1.76353">
        <ele>128.60000610352</ele>
        <time>2013-01-27T05:49:06.000Z</time>
      </trkpt>
      <trkpt lat="48.9291" lon="1.76327">
        <ele>129.39999389648</ele>
        <time>2013-01-27T05:49:18.000Z</time>
      </trkpt>
      <trkpt lat="48.92912" lon="1.76301">
        <ele>130.19999694824</ele>
        <time>2013-01-27T05:49:30.000Z</time>
      </trkpt>
      <trkpt lat="48.92914" lon="1.76272">
        <ele>131.19999694824</ele>
        <time>2013-01-27T05:49:43.000Z</time>
      </trkpt>
      <trkpt lat="48.92915" lon="1.76247">
        <ele>132</ele>
        <time>2013-01-27T05:49:55.000Z</time>
      </trkpt>
      <trkpt lat="48.92917" lon="1.76223">
        <ele>132.19999694824</ele>
        <time>2013-01-27T05:50:06.000Z</time>
      </trkpt>
      <trkpt lat="48.92917" lon="1.76203">
        <ele>132.39999389648</ele>
        <time>2013-01-27T05:50:16.000Z</time>
      </trkpt>
      <trkpt lat="48.92917" lon="1.76159">
        <ele>133</ele>
        <time>2013-01-27T05:50:35.000Z</time>
      </trkpt>
      <trkpt lat="48.92916" lon="1.76131">
        <ele>133.39999389648</ele>
        <time>2013-01-27T05:50:48.000Z</time>
      </trkpt>
      <trkpt lat="48.92914" lon="1.76101">
        <ele>133.60000610352</ele>
        <time>2013-01-27T05:51:01.000Z</time>
      </trkpt>
      <trkpt lat="48.92914" lon="1.76079">
        <ele>134</ele>
        <time>2013-01-27T05:51:11.000Z</time>
      </trkpt>
      <trkpt lat="48.92911" lon="1.76025">
        <ele>134.60000610352</ele>
        <time>2013-01-27T05:51:35.000Z</time>
      </trkpt>
      <trkpt lat="48.92908" lon="1.75996">
        <ele>134.80000305176</ele>
        <time>2013-01-27T05:51:48.000Z</time>
      </trkpt>
      <trkpt lat="48.92904" lon="1.75974">
        <ele>135.39999389648</ele>
        <time>2013-01-27T05:51:58.000Z</time>
      </trkpt>
      <trkpt lat="48.92903" lon="1.75968">
        <ele>135.60000610352</ele>
        <time>2013-01-27T05:52:01.000Z</time>
      </trkpt>
      <trkpt lat="48.92894" lon="1.75917">
        <ele>136.60000610352</ele>
        <time>2013-01-27T05:52:25.000Z</time>
      </trkpt>
      <trkpt lat="48.9289" lon="1.75895">
        <ele>137</ele>
        <time>2013-01-27T05:52:35.000Z</time>
      </trkpt>
      <trkpt lat="48.92888" lon="1.7588">
        <ele>137.19999694824</ele>
        <time>2013-01-27T05:52:42.000Z</time>
      </trkpt>
      <trkpt lat="48.92884" lon="1.75859">
        <ele>137.39999389648</ele>
        <time>2013-01-27T05:52:52.000Z</time>
      </trkpt>
      <trkpt lat="48.9288" lon="1.75841">
        <ele>137.39999389648</ele>
        <time>2013-01-27T05:53:01.000Z</time>
      </trkpt>
      <trkpt lat="48.92874" lon="1.75813">
        <ele>137.39999389648</ele>
        <time>2013-01-27T05:53:14.000Z</time>
      </trkpt>
      <trkpt lat="48.92871" lon="1.75796">
        <ele>137.60000610352</ele>
        <time>2013-01-27T05:53:22.000Z</time>
      </trkpt>
      <trkpt lat="48.92869" lon="1.75784">
        <ele>137.60000610352</ele>
        <time>2013-01-27T05:53:27.000Z</time>
      </trkpt>
      <trkpt lat="48.92872" lon="1.75776">
        <ele>137.60000610352</ele>
        <time>2013-01-27T05:53:31.000Z</time>
      </trkpt>
      <trkpt lat="48.92875" lon="1.75771">
        <ele>137.80000305176</ele>
        <time>2013-01-27T05:53:34.000Z</time>
      </trkpt>
      <trkpt lat="48.92884" lon="1.75768">
        <ele>138</ele>
        <time>2013-01-27T05:53:40.000Z</time>
      </trkpt>
      <trkpt lat="48.929" lon="1.7577">
        <ele>138.39999389648</ele>
        <time>2013-01-27T05:53:51.000Z</time>
      </trkpt>
      <trkpt lat="48.92913" lon="1.75766">
        <ele>138.80000305176</ele>
        <time>2013-01-27T05:54:00.000Z</time>
      </trkpt>
      <trkpt lat="48.92922" lon="1.75754">
        <ele>139</ele>
        <time>2013-01-27T05:54:08.000Z</time>
      </trkpt>
      <trkpt lat="48.92933" lon="1.75731">
        <ele>138.80000305176</ele>
        <time>2013-01-27T05:54:20.000Z</time>
      </trkpt>
      <trkpt lat="48.92942" lon="1.75712">
        <ele>138.60000610352</ele>
        <time>2013-01-27T05:54:30.000Z</time>
      </trkpt>
      <trkpt lat="48.92952" lon="1.7569">
        <ele>138.39999389648</ele>
        <time>2013-01-27T05:54:41.000Z</time>
      </trkpt>
      <trkpt lat="48.9296" lon="1.75675">
        <ele>138.39999389648</ele>
        <time>2013-01-27T05:54:49.000Z</time>
      </trkpt>
      <trkpt lat="48.92971" lon="1.75665">
        <ele>138.60000610352</ele>
        <time>2013-01-27T05:54:58.000Z</time>
      </trkpt>
      <trkpt lat="48.92983" lon="1.7566">
        <ele>138.80000305176</ele>
        <time>2013-01-27T05:55:06.000Z</time>
      </trkpt>
      <trkpt lat="48.92993" lon="1.75656">
        <ele>139</ele>
        <time>2013-01-27T05:55:13.000Z</time>
      </trkpt>
      <trkpt lat="48.93006" lon="1.75644">
        <ele>139.19999694824</ele>
        <time>2013-01-27T05:55:24.000Z</time>
      </trkpt>
      <trkpt lat="48.93014" lon="1.75625">
        <ele>139.39999389648</ele>
        <time>2013-01-27T05:55:33.000Z</time>
      </trkpt>
      <trkpt lat="48.9302" lon="1.75606">
        <ele>139.60000610352</ele>
        <time>2013-01-27T05:55:41.000Z</time>
      </trkpt>
      <trkpt lat="48.93026" lon="1.75588">
        <ele>139.80000305176</ele>
        <time>2013-01-27T05:55:47.000Z</time>
      </trkpt>
      <trkpt lat="48.93031" lon="1.75567">
        <ele>140</ele>
        <time>2013-01-27T05:55:54.000Z</time>
      </trkpt>
      <trkpt lat="48.93035" lon="1.75548">
        <ele>140</ele>
        <time>2013-01-27T05:56:00.000Z</time>
      </trkpt>
      <trkpt lat="48.9304" lon="1.75526">
        <ele>140</ele>
        <time>2013-01-27T05:56:07.000Z</time>
      </trkpt>
      <trkpt lat="48.93046" lon="1.75501">
        <ele>139.80000305176</ele>
        <time>2013-01-27T05:56:15.000Z</time>
      </trkpt>
      <trkpt lat="48.93053" lon="1.75479">
        <ele>139.60000610352</ele>
        <time>2013-01-27T05:56:22.000Z</time>
      </trkpt>
      <trkpt lat="48.93061" lon="1.75463">
        <ele>139.39999389648</ele>
        <time>2013-01-27T05:56:28.000Z</time>
      </trkpt>
      <trkpt lat="48.93075" lon="1.75459">
        <ele>139.19999694824</ele>
        <time>2013-01-27T05:56:34.000Z</time>
      </trkpt>
      <trkpt lat="48.93091" lon="1.75463">
        <ele>138.80000305176</ele>
        <time>2013-01-27T05:56:41.000Z</time>
      </trkpt>
      <trkpt lat="48.93105" lon="1.75468">
        <ele>138.60000610352</ele>
        <time>2013-01-27T05:56:47.000Z</time>
      </trkpt>
      <trkpt lat="48.93122" lon="1.75473">
        <ele>138.19999694824</ele>
        <time>2013-01-27T05:56:55.000Z</time>
      </trkpt>
      <trkpt lat="48.93135" lon="1.75472">
        <ele>138</ele>
        <time>2013-01-27T05:57:04.000Z</time>
      </trkpt>
      <trkpt lat="48.93153" lon="1.75466">
        <ele>137.80000305176</ele>
        <time>2013-01-27T05:57:16.000Z</time>
      </trkpt>
      <trkpt lat="48.93165" lon="1.75461">
        <ele>137.39999389648</ele>
        <time>2013-01-27T05:57:24.000Z</time>
      </trkpt>
      <trkpt lat="48.93181" lon="1.75453">
        <ele>136.80000305176</ele>
        <time>2013-01-27T05:57:35.000Z</time>
      </trkpt>
      <trkpt lat="48.93197" lon="1.75446">
        <ele>136</ele>
        <time>2013-01-27T05:57:46.000Z</time>
      </trkpt>
      <trkpt lat="48.93209" lon="1.75443">
        <ele>135.60000610352</ele>
        <time>2013-01-27T05:57:54.000Z</time>
      </trkpt>
      <trkpt lat="48.9322" lon="1.75439">
        <ele>135</ele>
        <time>2013-01-27T05:58:02.000Z</time>
      </trkpt>
      <trkpt lat="48.93232" lon="1.75433">
        <ele>134.60000610352</ele>
        <time>2013-01-27T05:58:10.000Z</time>
      </trkpt>
      <trkpt lat="48.93245" lon="1.75427">
        <ele>134</ele>
        <time>2013-01-27T05:58:19.000Z</time>
      </trkpt>
      <trkpt lat="48.93261" lon="1.7542">
        <ele>133.39999389648</ele>
        <time>2013-01-27T05:58:30.000Z</time>
      </trkpt>
      <trkpt lat="48.93274" lon="1.75414">
        <ele>133</ele>
        <time>2013-01-27T05:58:39.000Z</time>
      </trkpt>
      <trkpt lat="48.93288" lon="1.75398">
        <ele>132.80000305176</ele>
        <time>2013-01-27T05:58:50.000Z</time>
      </trkpt>
      <trkpt lat="48.93298" lon="1.75383">
        <ele>132.60000610352</ele>
        <time>2013-01-27T05:58:59.000Z</time>
      </trkpt>
      <trkpt lat="48.93309" lon="1.75375">
        <ele>132.39999389648</ele>
        <time>2013-01-27T05:59:07.000Z</time>
      </trkpt>
      <trkpt lat="48.93325" lon="1.75364">
        <ele>132.39999389648</ele>
        <time>2013-01-27T05:59:18.000Z</time>
      </trkpt>
      <trkpt lat="48.93337" lon="1.75355">
        <ele>132.19999694824</ele>
        <time>2013-01-27T05:59:27.000Z</time>
      </trkpt>
      <trkpt lat="48.93348" lon="1.75345">
        <ele>132.19999694824</ele>
        <time>2013-01-27T05:59:35.000Z</time>
      </trkpt>
      <trkpt lat="48.93359" lon="1.75335">
        <ele>132.19999694824</ele>
        <time>2013-01-27T05:59:43.000Z</time>
      </trkpt>
      <trkpt lat="48.93373" lon="1.75323">
        <ele>132.19999694824</ele>
        <time>2013-01-27T05:59:54.000Z</time>
      </trkpt>
      <trkpt lat="48.93387" lon="1.75311">
        <ele>132.19999694824</ele>
        <time>2013-01-27T06:00:04.000Z</time>
      </trkpt>
      <trkpt lat="48.93398" lon="1.75303">
        <ele>132</ele>
        <time>2013-01-27T06:00:12.000Z</time>
      </trkpt>
      <trkpt lat="48.93415" lon="1.7529">
        <ele>132</ele>
        <time>2013-01-27T06:00:24.000Z</time>
      </trkpt>
      <trkpt lat="48.93427" lon="1.75282">
        <ele>132.19999694824</ele>
        <time>2013-01-27T06:00:33.000Z</time>
      </trkpt>
      <trkpt lat="48.9344" lon="1.75275">
        <ele>132.39999389648</ele>
        <time>2013-01-27T06:00:42.000Z</time>
      </trkpt>
      <trkpt lat="48.9345" lon="1.75271">
        <ele>132.39999389648</ele>
        <time>2013-01-27T06:00:49.000Z</time>
      </trkpt>
      <trkpt lat="48.93461" lon="1.75269">
        <ele>132.60000610352</ele>
        <time>2013-01-27T06:00:56.000Z</time>
      </trkpt>
      <trkpt lat="48.93469" lon="1.75268">
        <ele>132.60000610352</ele>
        <time>2013-01-27T06:01:02.000Z</time>
      </trkpt>
      <trkpt lat="48.93483" lon="1.75268">
        <ele>132.60000610352</ele>
        <time>2013-01-27T06:01:11.000Z</time>
      </trkpt>
      <trkpt lat="48.93492" lon="1.7527">
        <ele>132.60000610352</ele>
        <time>2013-01-27T06:01:17.000Z</time>
      </trkpt>
      <trkpt lat="48.93498" lon="1.75271">
        <ele>132.60000610352</ele>
        <time>2013-01-27T06:01:21.000Z</time>
      </trkpt>
      <trkpt lat="48.93532" lon="1.75278">
        <ele>132.39999389648</ele>
        <time>2013-01-27T06:01:43.000Z</time>
      </trkpt>
      <trkpt lat="48.93545" lon="1.75282">
        <ele>132.39999389648</ele>
        <time>2013-01-27T06:01:52.000Z</time>
      </trkpt>
      <trkpt lat="48.93558" lon="1.75285">
        <ele>132.19999694824</ele>
        <time>2013-01-27T06:02:01.000Z</time>
      </trkpt>
      <trkpt lat="48.93573" lon="1.75289">
        <ele>132</ele>
        <time>2013-01-27T06:02:11.000Z</time>
      </trkpt>
      <trkpt lat="48.93587" lon="1.75291">
        <ele>131.80000305176</ele>
        <time>2013-01-27T06:02:20.000Z</time>
      </trkpt>
      <trkpt lat="48.93601" lon="1.75291">
        <ele>131.80000305176</ele>
        <time>2013-01-27T06:02:29.000Z</time>
      </trkpt>
      <trkpt lat="48.93618" lon="1.75289">
        <ele>131.60000610352</ele>
        <time>2013-01-27T06:02:40.000Z</time>
      </trkpt>
      <trkpt lat="48.93636" lon="1.75284">
        <ele>131.60000610352</ele>
        <time>2013-01-27T06:02:52.000Z</time>
      </trkpt>
      <trkpt lat="48.93649" lon="1.75276">
        <ele>132</ele>
        <time>2013-01-27T06:03:01.000Z</time>
      </trkpt>
      <trkpt lat="48.93663" lon="1.75265">
        <ele>132.80000305176</ele>
        <time>2013-01-27T06:03:11.000Z</time>
      </trkpt>
      <trkpt lat="48.93673" lon="1.75253">
        <ele>133.19999694824</ele>
        <time>2013-01-27T06:03:20.000Z</time>
      </trkpt>
      <trkpt lat="48.93686" lon="1.75235">
        <ele>133.19999694824</ele>
        <time>2013-01-27T06:03:31.000Z</time>
      </trkpt>
      <trkpt lat="48.93696" lon="1.75218">
        <ele>133.19999694824</ele>
        <time>2013-01-27T06:03:41.000Z</time>
      </trkpt>
      <trkpt lat="48.93703" lon="1.75203">
        <ele>133.19999694824</ele>
        <time>2013-01-27T06:03:49.000Z</time>
      </trkpt>
      <trkpt lat="48.93712" lon="1.75186">
        <ele>133.19999694824</ele>
        <time>2013-01-27T06:03:58.000Z</time>
      </trkpt>
      <trkpt lat="48.93723" lon="1.75166">
        <ele>133.19999694824</ele>
        <time>2013-01-27T06:04:09.000Z</time>
      </trkpt>
      <trkpt lat="48.93745" lon="1.75142">
        <ele>131.19999694824</ele>
        <time>2013-01-27T06:04:27.000Z</time>
      </trkpt>
      <trkpt lat="48.93755" lon="1.75136">
        <ele>130.39999389648</ele>
        <time>2013-01-27T06:04:34.000Z</time>
      </trkpt>
      <trkpt lat="48.93765" lon="1.75133">
        <ele>129.60000610352</ele>
        <time>2013-01-27T06:04:42.000Z</time>
      </trkpt>
      <trkpt lat="48.93775" lon="1.75131">
        <ele>128.60000610352</ele>
        <time>2013-01-27T06:04:49.000Z</time>
      </trkpt>
      <trkpt lat="48.93789" lon="1.75126">
        <ele>127.40000152588</ele>
        <time>2013-01-27T06:04:58.000Z</time>
      </trkpt>
      <trkpt lat="48.93802" lon="1.75122">
        <ele>126.19999694824</ele>
        <time>2013-01-27T06:05:07.000Z</time>
      </trkpt>
      <trkpt lat="48.93819" lon="1.75116">
        <ele>124.80000305176</ele>
        <time>2013-01-27T06:05:18.000Z</time>
      </trkpt>
      <trkpt lat="48.93836" lon="1.75109">
        <ele>123.19999694824</ele>
        <time>2013-01-27T06:05:27.000Z</time>
      </trkpt>
      <trkpt lat="48.93851" lon="1.75101">
        <ele>121.80000305176</ele>
        <time>2013-01-27T06:05:34.000Z</time>
      </trkpt>
      <trkpt lat="48.93865" lon="1.75096">
        <ele>120.40000152588</ele>
        <time>2013-01-27T06:05:40.000Z</time>
      </trkpt>
      <trkpt lat="48.93877" lon="1.75089">
        <ele>119</ele>
        <time>2013-01-27T06:05:46.000Z</time>
      </trkpt>
      <trkpt lat="48.93892" lon="1.75077">
        <ele>117.59999847412</ele>
        <time>2013-01-27T06:05:53.000Z</time>
      </trkpt>
      <trkpt lat="48.93903" lon="1.75064">
        <ele>116.59999847412</ele>
        <time>2013-01-27T06:05:59.000Z</time>
      </trkpt>
      <trkpt lat="48.93917" lon="1.75046">
        <ele>115.40000152588</ele>
        <time>2013-01-27T06:06:07.000Z</time>
      </trkpt>
      <trkpt lat="48.93926" lon="1.75027">
        <ele>114.59999847412</ele>
        <time>2013-01-27T06:06:14.000Z</time>
      </trkpt>
      <trkpt lat="48.93945" lon="1.74983">
        <ele>113.59999847412</ele>
        <time>2013-01-27T06:06:28.000Z</time>
      </trkpt>
      <trkpt lat="48.93957" lon="1.7496">
        <ele>113</ele>
        <time>2013-01-27T06:06:36.000Z</time>
      </trkpt>
      <trkpt lat="48.93971" lon="1.74945">
        <ele>112.19999694824</ele>
        <time>2013-01-27T06:06:43.000Z</time>
      </trkpt>
      <trkpt lat="48.93982" lon="1.74941">
        <ele>111.40000152588</ele>
        <time>2013-01-27T06:06:48.000Z</time>
      </trkpt>
      <trkpt lat="48.93999" lon="1.74941">
        <ele>110.19999694824</ele>
        <time>2013-01-27T06:06:55.000Z</time>
      </trkpt>
      <trkpt lat="48.94015" lon="1.74944">
        <ele>109.80000305176</ele>
        <time>2013-01-27T06:07:02.000Z</time>
      </trkpt>
      <trkpt lat="48.94029" lon="1.74948">
        <ele>109.59999847412</ele>
        <time>2013-01-27T06:07:08.000Z</time>
      </trkpt>
      <trkpt lat="48.94048" lon="1.74952">
        <ele>109.19999694824</ele>
        <time>2013-01-27T06:07:16.000Z</time>
      </trkpt>
      <trkpt lat="48.94067" lon="1.74951">
        <ele>109.19999694824</ele>
        <time>2013-01-27T06:07:24.000Z</time>
      </trkpt>
      <trkpt lat="48.94083" lon="1.74951">
        <ele>109</ele>
        <time>2013-01-27T06:07:31.000Z</time>
      </trkpt>
      <trkpt lat="48.94099" lon="1.74953">
        <ele>107.59999847412</ele>
        <time>2013-01-27T06:07:38.000Z</time>
      </trkpt>
      <trkpt lat="48.94112" lon="1.74954">
        <ele>106.40000152588</ele>
        <time>2013-01-27T06:07:44.000Z</time>
      </trkpt>
      <trkpt lat="48.94123" lon="1.74951">
        <ele>105.80000305176</ele>
        <time>2013-01-27T06:07:49.000Z</time>
      </trkpt>
      <trkpt lat="48.9413" lon="1.74952">
        <ele>105.19999694824</ele>
        <time>2013-01-27T06:07:55.000Z</time>
      </trkpt>
      <trkpt lat="48.94139" lon="1.74957">
        <ele>104.19999694824</ele>
        <time>2013-01-27T06:08:02.000Z</time>
      </trkpt>
      <trkpt lat="48.94149" lon="1.74966">
        <ele>102.80000305176</ele>
        <time>2013-01-27T06:08:08.000Z</time>
      </trkpt>
      <trkpt lat="48.94159" lon="1.74976">
        <ele>101.19999694824</ele>
        <time>2013-01-27T06:08:14.000Z</time>
      </trkpt>
      <trkpt lat="48.94173" lon="1.74988">
        <ele>98.800003051758</ele>
        <time>2013-01-27T06:08:21.000Z</time>
      </trkpt>
      <trkpt lat="48.94186" lon="1.74998">
        <ele>96.599998474121</ele>
        <time>2013-01-27T06:08:27.000Z</time>
      </trkpt>
      <trkpt lat="48.94196" lon="1.75007">
        <ele>94.599998474121</ele>
        <time>2013-01-27T06:08:32.000Z</time>
      </trkpt>
      <trkpt lat="48.94209" lon="1.75014">
        <ele>92.400001525879</ele>
        <time>2013-01-27T06:08:38.000Z</time>
      </trkpt>
      <trkpt lat="48.94218" lon="1.75009">
        <ele>91.599998474121</ele>
        <time>2013-01-27T06:08:42.000Z</time>
      </trkpt>
      <trkpt lat="48.94228" lon="1.74995">
        <ele>91.199996948242</ele>
        <time>2013-01-27T06:08:48.000Z</time>
      </trkpt>
      <trkpt lat="48.94236" lon="1.7498">
        <ele>91</ele>
        <time>2013-01-27T06:08:53.000Z</time>
      </trkpt>
      <trkpt lat="48.94245" lon="1.74963">
        <ele>90.800003051758</ele>
        <time>2013-01-27T06:08:59.000Z</time>
      </trkpt>
      <trkpt lat="48.94254" lon="1.7495">
        <ele>90.400001525879</ele>
        <time>2013-01-27T06:09:04.000Z</time>
      </trkpt>
      <trkpt lat="48.94265" lon="1.74945">
        <ele>89.599998474121</ele>
        <time>2013-01-27T06:09:09.000Z</time>
      </trkpt>
      <trkpt lat="48.94272" lon="1.74943">
        <ele>89</ele>
        <time>2013-01-27T06:09:12.000Z</time>
      </trkpt>
      <trkpt lat="48.94279" lon="1.74943">
        <ele>88.400001525879</ele>
        <time>2013-01-27T06:09:16.000Z</time>
      </trkpt>
      <trkpt lat="48.94289" lon="1.7494">
        <ele>87.599998474121</ele>
        <time>2013-01-27T06:09:24.000Z</time>
      </trkpt>
      <trkpt lat="48.94297" lon="1.74928">
        <ele>88</ele>
        <time>2013-01-27T06:09:32.000Z</time>
      </trkpt>
      <trkpt lat="48.94303" lon="1.74912">
        <ele>88.599998474121</ele>
        <time>2013-01-27T06:09:40.000Z</time>
      </trkpt>
      <trkpt lat="48.9431" lon="1.749">
        <ele>88.599998474121</ele>
        <time>2013-01-27T06:09:47.000Z</time>
      </trkpt>
      <trkpt lat="48.94315" lon="1.74883">
        <ele>88.800003051758</ele>
        <time>2013-01-27T06:09:56.000Z</time>
      </trkpt>
      <trkpt lat="48.94323" lon="1.7487">
        <ele>88.599998474121</ele>
        <time>2013-01-27T06:10:04.000Z</time>
      </trkpt>
      <trkpt lat="48.94331" lon="1.74858">
        <ele>88.199996948242</ele>
        <time>2013-01-27T06:10:12.000Z</time>
      </trkpt>
      <trkpt lat="48.94346" lon="1.74841">
        <ele>87</ele>
        <time>2013-01-27T06:10:25.000Z</time>
      </trkpt>
      <trkpt lat="48.94359" lon="1.7483">
        <ele>86.199996948242</ele>
        <time>2013-01-27T06:10:35.000Z</time>
      </trkpt>
      <trkpt lat="48.94369" lon="1.7482">
        <ele>85.800003051758</ele>
        <time>2013-01-27T06:10:43.000Z</time>
      </trkpt>
      <trkpt lat="48.94378" lon="1.74808">
        <ele>85.800003051758</ele>
        <time>2013-01-27T06:10:49.000Z</time>
      </trkpt>
      <trkpt lat="48.9439" lon="1.74789">
        <ele>85.800003051758</ele>
        <time>2013-01-27T06:10:57.000Z</time>
      </trkpt>
      <trkpt lat="48.944" lon="1.74774">
        <ele>85.599998474121</ele>
        <time>2013-01-27T06:11:03.000Z</time>
      </trkpt>
      <trkpt lat="48.94412" lon="1.74757">
        <ele>85.199996948242</ele>
        <time>2013-01-27T06:11:10.000Z</time>
      </trkpt>
      <trkpt lat="48.94423" lon="1.74744">
        <ele>84.599998474121</ele>
        <time>2013-01-27T06:11:16.000Z</time>
      </trkpt>
      <trkpt lat="48.9444" lon="1.74725">
        <ele>83.800003051758</ele>
        <time>2013-01-27T06:11:25.000Z</time>
      </trkpt>
      <trkpt lat="48.94452" lon="1.74711">
        <ele>83.400001525879</ele>
        <time>2013-01-27T06:11:31.000Z</time>
      </trkpt>
      <trkpt lat="48.94463" lon="1.74697">
        <ele>83.400001525879</ele>
        <time>2013-01-27T06:11:37.000Z</time>
      </trkpt>
      <trkpt lat="48.94473" lon="1.74688">
        <ele>83</ele>
        <time>2013-01-27T06:11:44.000Z</time>
      </trkpt>
      <trkpt lat="48.94483" lon="1.74678">
        <ele>82.800003051758</ele>
        <time>2013-01-27T06:11:52.000Z</time>
      </trkpt>
      <trkpt lat="48.94494" lon="1.74664">
        <ele>83</ele>
        <time>2013-01-27T06:12:02.000Z</time>
      </trkpt>
      <trkpt lat="48.94503" lon="1.74652">
        <ele>83.800003051758</ele>
        <time>2013-01-27T06:12:11.000Z</time>
      </trkpt>
      <trkpt lat="48.94514" lon="1.74638">
        <ele>84.800003051758</ele>
        <time>2013-01-27T06:12:21.000Z</time>
      </trkpt>
      <trkpt lat="48.94523" lon="1.74622">
        <ele>86.199996948242</ele>
        <time>2013-01-27T06:12:32.000Z</time>
      </trkpt>
      <trkpt lat="48.94525" lon="1.74619">
        <ele>86.400001525879</ele>
        <time>2013-01-27T06:12:35.000Z</time>
      </trkpt>
      <trkpt lat="48.94525" lon="1.74619">
        <ele>86.400001525879</ele>
        <time>2013-01-27T06:12:48.000Z</time>
      </trkpt>
      <trkpt lat="48.94525" lon="1.74621">
        <ele>86.199996948242</ele>
        <time>2013-01-27T06:13:36.000Z</time>
      </trkpt>
      <trkpt lat="48.94526" lon="1.74622">
        <ele>86</ele>
        <time>2013-01-27T06:13:41.000Z</time>
      </trkpt>
      <trkpt lat="48.94522" lon="1.74634">
        <ele>84.800003051758</ele>
        <time>2013-01-27T06:14:35.000Z</time>
      </trkpt>
      <trkpt lat="48.94518" lon="1.74641">
        <ele>84</ele>
        <time>2013-01-27T06:14:42.000Z</time>
      </trkpt>
      <trkpt lat="48.94511" lon="1.74649">
        <ele>83.400001525879</ele>
        <time>2013-01-27T06:14:49.000Z</time>
      </trkpt>
      <trkpt lat="48.94503" lon="1.74657">
        <ele>83</ele>
        <time>2013-01-27T06:14:57.000Z</time>
      </trkpt>
      <trkpt lat="48.94496" lon="1.74665">
        <ele>82.599998474121</ele>
        <time>2013-01-27T06:15:05.000Z</time>
      </trkpt>
      <trkpt lat="48.94486" lon="1.74678">
        <ele>82.400001525879</ele>
        <time>2013-01-27T06:15:14.000Z</time>
      </trkpt>
      <trkpt lat="48.94492" lon="1.74685">
        <ele>81</ele>
        <time>2013-01-27T06:15:21.000Z</time>
      </trkpt>
      <trkpt lat="48.94505" lon="1.74686">
        <ele>79.400001525879</ele>
        <time>2013-01-27T06:15:30.000Z</time>
      </trkpt>
      <trkpt lat="48.94522" lon="1.74683">
        <ele>78.400001525879</ele>
        <time>2013-01-27T06:15:41.000Z</time>
      </trkpt>
      <trkpt lat="48.94536" lon="1.74681">
        <ele>77.199996948242</ele>
        <time>2013-01-27T06:15:51.000Z</time>
      </trkpt>
      <trkpt lat="48.94554" lon="1.74678">
        <ele>76</ele>
        <time>2013-01-27T06:16:03.000Z</time>
      </trkpt>
      <trkpt lat="48.9457" lon="1.74676">
        <ele>75</ele>
        <time>2013-01-27T06:16:14.000Z</time>
      </trkpt>
      <trkpt lat="48.94589" lon="1.74673">
        <ele>73.599998474121</ele>
        <time>2013-01-27T06:16:26.000Z</time>
      </trkpt>
      <trkpt lat="48.94603" lon="1.74671">
        <ele>72.199996948242</ele>
        <time>2013-01-27T06:16:35.000Z</time>
      </trkpt>
      <trkpt lat="48.94617" lon="1.74668">
        <ele>70.800003051758</ele>
        <time>2013-01-27T06:16:45.000Z</time>
      </trkpt>
      <trkpt lat="48.94633" lon="1.74662">
        <ele>69.199996948242</ele>
        <time>2013-01-27T06:16:56.000Z</time>
      </trkpt>
      <trkpt lat="48.9465" lon="1.74659">
        <ele>67.599998474121</ele>
        <time>2013-01-27T06:17:07.000Z</time>
      </trkpt>
      <trkpt lat="48.94662" lon="1.74655">
        <ele>66.199996948242</ele>
        <time>2013-01-27T06:17:16.000Z</time>
      </trkpt>
      <trkpt lat="48.94676" lon="1.74646">
        <ele>64.800003051758</ele>
        <time>2013-01-27T06:17:28.000Z</time>
      </trkpt>
      <trkpt lat="48.94679" lon="1.74645">
        <ele>64.400001525879</ele>
        <time>2013-01-27T06:17:32.000Z</time>
      </trkpt>
      <trkpt lat="48.94689" lon="1.74639">
        <ele>63.400001525879</ele>
        <time>2013-01-27T06:17:39.000Z</time>
      </trkpt>
      <trkpt lat="48.94703" lon="1.74626">
        <ele>62.200000762939</ele>
        <time>2013-01-27T06:17:50.000Z</time>
      </trkpt>
      <trkpt lat="48.94716" lon="1.74611">
        <ele>61.599998474121</ele>
        <time>2013-01-27T06:18:00.000Z</time>
      </trkpt>
      <trkpt lat="48.94728" lon="1.74598">
        <ele>60.799999237061</ele>
        <time>2013-01-27T06:18:09.000Z</time>
      </trkpt>
      <trkpt lat="48.94741" lon="1.74584">
        <ele>60</ele>
        <time>2013-01-27T06:18:19.000Z</time>
      </trkpt>
      <trkpt lat="48.94755" lon="1.74567">
        <ele>60</ele>
        <time>2013-01-27T06:18:31.000Z</time>
      </trkpt>
      <trkpt lat="48.94769" lon="1.7455">
        <ele>59.799999237061</ele>
        <time>2013-01-27T06:18:43.000Z</time>
      </trkpt>
      <trkpt lat="48.94784" lon="1.74533">
        <ele>59.200000762939</ele>
        <time>2013-01-27T06:18:55.000Z</time>
      </trkpt>
      <trkpt lat="48.94797" lon="1.74518">
        <ele>58.400001525879</ele>
        <time>2013-01-27T06:19:06.000Z</time>
      </trkpt>
      <trkpt lat="48.94807" lon="1.74506">
        <ele>58</ele>
        <time>2013-01-27T06:19:14.000Z</time>
      </trkpt>
      <trkpt lat="48.94818" lon="1.74494">
        <ele>57.400001525879</ele>
        <time>2013-01-27T06:19:23.000Z</time>
      </trkpt>
      <trkpt lat="48.94831" lon="1.74479">
        <ele>56.599998474121</ele>
        <time>2013-01-27T06:19:33.000Z</time>
      </trkpt>
      <trkpt lat="48.9484" lon="1.74473">
        <ele>56</ele>
        <time>2013-01-27T06:19:40.000Z</time>
      </trkpt>
      <trkpt lat="48.9485" lon="1.74462">
        <ele>56.200000762939</ele>
        <time>2013-01-27T06:19:48.000Z</time>
      </trkpt>
      <trkpt lat="48.94863" lon="1.74448">
        <ele>56.400001525879</ele>
        <time>2013-01-27T06:19:58.000Z</time>
      </trkpt>
      <trkpt lat="48.94874" lon="1.74432">
        <ele>57</ele>
        <time>2013-01-27T06:20:08.000Z</time>
      </trkpt>
      <trkpt lat="48.94892" lon="1.74404">
        <ele>57.200000762939</ele>
        <time>2013-01-27T06:20:25.000Z</time>
      </trkpt>
      <trkpt lat="48.94902" lon="1.74385">
        <ele>57</ele>
        <time>2013-01-27T06:20:36.000Z</time>
      </trkpt>
      <trkpt lat="48.94911" lon="1.74371">
        <ele>56.799999237061</ele>
        <time>2013-01-27T06:20:45.000Z</time>
      </trkpt>
      <trkpt lat="48.94915" lon="1.74364">
        <ele>56.599998474121</ele>
        <time>2013-01-27T06:20:49.000Z</time>
      </trkpt>
      <trkpt lat="48.9492" lon="1.74356">
        <ele>56.400001525879</ele>
        <time>2013-01-27T06:20:54.000Z</time>
      </trkpt>
      <trkpt lat="48.94929" lon="1.7434">
        <ele>56.400001525879</ele>
        <time>2013-01-27T06:21:03.000Z</time>
      </trkpt>
      <trkpt lat="48.94939" lon="1.74325">
        <ele>56.400001525879</ele>
        <time>2013-01-27T06:21:13.000Z</time>
      </trkpt>
      <trkpt lat="48.94958" lon="1.74296">
        <ele>56.599998474121</ele>
        <time>2013-01-27T06:21:32.000Z</time>
      </trkpt>
      <trkpt lat="48.94972" lon="1.74277">
        <ele>56.799999237061</ele>
        <time>2013-01-27T06:21:44.000Z</time>
      </trkpt>
      <trkpt lat="48.94984" lon="1.74261">
        <ele>57.200000762939</ele>
        <time>2013-01-27T06:21:55.000Z</time>
      </trkpt>
      <trkpt lat="48.94993" lon="1.74248">
        <ele>57.400001525879</ele>
        <time>2013-01-27T06:22:03.000Z</time>
      </trkpt>
      <trkpt lat="48.95" lon="1.74238">
        <ele>57.400001525879</ele>
        <time>2013-01-27T06:22:10.000Z</time>
      </trkpt>
      <trkpt lat="48.95008" lon="1.74222">
        <ele>56.799999237061</ele>
        <time>2013-01-27T06:22:19.000Z</time>
      </trkpt>
      <trkpt lat="48.95017" lon="1.74206">
        <ele>56.200000762939</ele>
        <time>2013-01-27T06:22:28.000Z</time>
      </trkpt>
      <trkpt lat="48.95025" lon="1.7419">
        <ele>55.599998474121</ele>
        <time>2013-01-27T06:22:37.000Z</time>
      </trkpt>
      <trkpt lat="48.95034" lon="1.74172">
        <ele>55.200000762939</ele>
        <time>2013-01-27T06:22:47.000Z</time>
      </trkpt>
      <trkpt lat="48.95039" lon="1.74163">
        <ele>54.799999237061</ele>
        <time>2013-01-27T06:22:52.000Z</time>
      </trkpt>
      <trkpt lat="48.95044" lon="1.74154">
        <ele>54.200000762939</ele>
        <time>2013-01-27T06:22:58.000Z</time>
      </trkpt>
      <trkpt lat="48.95049" lon="1.74145">
        <ele>53.799999237061</ele>
        <time>2013-01-27T06:23:03.000Z</time>
      </trkpt>
      <trkpt lat="48.9505" lon="1.74143">
        <ele>53.599998474121</ele>
        <time>2013-01-27T06:23:04.000Z</time>
      </trkpt>
      <trkpt lat="48.95059" lon="1.7413">
        <ele>52.799999237061</ele>
        <time>2013-01-27T06:23:12.000Z</time>
      </trkpt>
      <trkpt lat="48.95072" lon="1.74109">
        <ele>51.200000762939</ele>
        <time>2013-01-27T06:23:25.000Z</time>
      </trkpt>
      <trkpt lat="48.95084" lon="1.74092">
        <ele>49.799999237061</ele>
        <time>2013-01-27T06:23:36.000Z</time>
      </trkpt>
      <trkpt lat="48.95093" lon="1.7408">
        <ele>49.200000762939</ele>
        <time>2013-01-27T06:23:43.000Z</time>
      </trkpt>
      <trkpt lat="48.95099" lon="1.74071">
        <ele>49.200000762939</ele>
        <time>2013-01-27T06:23:49.000Z</time>
      </trkpt>
      <trkpt lat="48.95108" lon="1.74056">
        <ele>49.200000762939</ele>
        <time>2013-01-27T06:23:56.000Z</time>
      </trkpt>
      <trkpt lat="48.95122" lon="1.7404">
        <ele>48.799999237061</ele>
        <time>2013-01-27T06:24:03.000Z</time>
      </trkpt>
      <trkpt lat="48.95137" lon="1.74026">
        <ele>48.200000762939</ele>
        <time>2013-01-27T06:24:10.000Z</time>
      </trkpt>
      <trkpt lat="48.95152" lon="1.74012">
        <ele>47.599998474121</ele>
        <time>2013-01-27T06:24:17.000Z</time>
      </trkpt>
      <trkpt lat="48.95169" lon="1.74">
        <ele>46.599998474121</ele>
        <time>2013-01-27T06:24:25.000Z</time>
      </trkpt>
      <trkpt lat="48.95185" lon="1.73987">
        <ele>46.200000762939</ele>
        <time>2013-01-27T06:24:32.000Z</time>
      </trkpt>
      <trkpt lat="48.952" lon="1.73974">
        <ele>45.599998474121</ele>
        <time>2013-01-27T06:24:39.000Z</time>
      </trkpt>
      <trkpt lat="48.95215" lon="1.73962">
        <ele>45</ele>
        <time>2013-01-27T06:24:46.000Z</time>
      </trkpt>
      <trkpt lat="48.9523" lon="1.73948">
        <ele>44.200000762939</ele>
        <time>2013-01-27T06:24:53.000Z</time>
      </trkpt>
      <trkpt lat="48.95242" lon="1.73935">
        <ele>43.799999237061</ele>
        <time>2013-01-27T06:24:59.000Z</time>
      </trkpt>
      <trkpt lat="48.95257" lon="1.73923">
        <ele>43.400001525879</ele>
        <time>2013-01-27T06:25:06.000Z</time>
      </trkpt>
      <trkpt lat="48.95289" lon="1.73906">
        <ele>42.799999237061</ele>
        <time>2013-01-27T06:25:20.000Z</time>
      </trkpt>
      <trkpt lat="48.95305" lon="1.73903">
        <ele>42.400001525879</ele>
        <time>2013-01-27T06:25:26.000Z</time>
      </trkpt>
      <trkpt lat="48.95323" lon="1.73899">
        <ele>41.799999237061</ele>
        <time>2013-01-27T06:25:34.000Z</time>
      </trkpt>
      <trkpt lat="48.95334" lon="1.73897">
        <ele>41.599998474121</ele>
        <time>2013-01-27T06:25:39.000Z</time>
      </trkpt>
      <trkpt lat="48.95346" lon="1.73895">
        <ele>41.799999237061</ele>
        <time>2013-01-27T06:25:44.000Z</time>
      </trkpt>
      <trkpt lat="48.95363" lon="1.73889">
        <ele>42.200000762939</ele>
        <time>2013-01-27T06:25:52.000Z</time>
      </trkpt>
      <trkpt lat="48.95378" lon="1.73882">
        <ele>42.599998474121</ele>
        <time>2013-01-27T06:25:59.000Z</time>
      </trkpt>
      <trkpt lat="48.95393" lon="1.73876">
        <ele>42.799999237061</ele>
        <time>2013-01-27T06:26:06.000Z</time>
      </trkpt>
      <trkpt lat="48.95419" lon="1.73857">
        <ele>42.799999237061</ele>
        <time>2013-01-27T06:26:19.000Z</time>
      </trkpt>
      <trkpt lat="48.95432" lon="1.73839">
        <ele>42.400001525879</ele>
        <time>2013-01-27T06:26:27.000Z</time>
      </trkpt>
      <trkpt lat="48.9544" lon="1.73818">
        <ele>42.400001525879</ele>
        <time>2013-01-27T06:26:34.000Z</time>
      </trkpt>
      <trkpt lat="48.95447" lon="1.73797">
        <ele>42.400001525879</ele>
        <time>2013-01-27T06:26:41.000Z</time>
      </trkpt>
      <trkpt lat="48.95453" lon="1.73776">
        <ele>42.400001525879</ele>
        <time>2013-01-27T06:26:48.000Z</time>
      </trkpt>
      <trkpt lat="48.95461" lon="1.73756">
        <ele>42.400001525879</ele>
        <time>2013-01-27T06:26:56.000Z</time>
      </trkpt>
      <trkpt lat="48.95469" lon="1.73734">
        <ele>41.799999237061</ele>
        <time>2013-01-27T06:27:03.000Z</time>
      </trkpt>
      <trkpt lat="48.95478" lon="1.73708">
        <ele>41</ele>
        <time>2013-01-27T06:27:11.000Z</time>
      </trkpt>
      <trkpt lat="48.95485" lon="1.73688">
        <ele>40.200000762939</ele>
        <time>2013-01-27T06:27:18.000Z</time>
      </trkpt>
      <trkpt lat="48.95492" lon="1.73672">
        <ele>39.400001525879</ele>
        <time>2013-01-27T06:27:24.000Z</time>
      </trkpt>
      <trkpt lat="48.95501" lon="1.73648">
        <ele>38.400001525879</ele>
        <time>2013-01-27T06:27:32.000Z</time>
      </trkpt>
      <trkpt lat="48.95508" lon="1.73629">
        <ele>37.799999237061</ele>
        <time>2013-01-27T06:27:39.000Z</time>
      </trkpt>
      <trkpt lat="48.95517" lon="1.73606">
        <ele>36.799999237061</ele>
        <time>2013-01-27T06:27:47.000Z</time>
      </trkpt>
      <trkpt lat="48.95524" lon="1.73589">
        <ele>36.200000762939</ele>
        <time>2013-01-27T06:27:53.000Z</time>
      </trkpt>
      <trkpt lat="48.95531" lon="1.73569">
        <ele>35.599998474121</ele>
        <time>2013-01-27T06:28:00.000Z</time>
      </trkpt>
      <trkpt lat="48.95539" lon="1.73548">
        <ele>35</ele>
        <time>2013-01-27T06:28:07.000Z</time>
      </trkpt>
      <trkpt lat="48.95546" lon="1.73529">
        <ele>34.200000762939</ele>
        <time>2013-01-27T06:28:14.000Z</time>
      </trkpt>
      <trkpt lat="48.95559" lon="1.73495">
        <ele>32.799999237061</ele>
        <time>2013-01-27T06:28:24.000Z</time>
      </trkpt>
      <trkpt lat="48.95564" lon="1.7348">
        <ele>32.400001525879</ele>
        <time>2013-01-27T06:28:29.000Z</time>
      </trkpt>
      <trkpt lat="48.95572" lon="1.73458">
        <ele>31.799999237061</ele>
        <time>2013-01-27T06:28:36.000Z</time>
      </trkpt>
      <trkpt lat="48.95581" lon="1.73434">
        <ele>31</ele>
        <time>2013-01-27T06:28:44.000Z</time>
      </trkpt>
      <trkpt lat="48.95591" lon="1.73409">
        <ele>31.39999961853</ele>
        <time>2013-01-27T06:28:52.000Z</time>
      </trkpt>
      <trkpt lat="48.956" lon="1.7339">
        <ele>32</ele>
        <time>2013-01-27T06:28:59.000Z</time>
      </trkpt>
      <trkpt lat="48.95607" lon="1.73382">
        <ele>32.200000762939</ele>
        <time>2013-01-27T06:29:05.000Z</time>
      </trkpt>
      <trkpt lat="48.95618" lon="1.73374">
        <ele>32.400001525879</ele>
        <time>2013-01-27T06:29:14.000Z</time>
      </trkpt>
      <trkpt lat="48.9563" lon="1.73368">
        <ele>32.599998474121</ele>
        <time>2013-01-27T06:29:24.000Z</time>
      </trkpt>
      <trkpt lat="48.95645" lon="1.73361">
        <ele>32.799999237061</ele>
        <time>2013-01-27T06:29:35.000Z</time>
      </trkpt>
      <trkpt lat="48.9566" lon="1.73356">
        <ele>32.799999237061</ele>
        <time>2013-01-27T06:29:45.000Z</time>
      </trkpt>
      <trkpt lat="48.95669" lon="1.73351">
        <ele>32.799999237061</ele>
        <time>2013-01-27T06:29:52.000Z</time>
      </trkpt>
      <trkpt lat="48.95688" lon="1.73347">
        <ele>33.599998474121</ele>
        <time>2013-01-27T06:30:05.000Z</time>
      </trkpt>
      <trkpt lat="48.95701" lon="1.73344">
        <ele>34</ele>
        <time>2013-01-27T06:30:14.000Z</time>
      </trkpt>
      <trkpt lat="48.95716" lon="1.73341">
        <ele>34.400001525879</ele>
        <time>2013-01-27T06:30:24.000Z</time>
      </trkpt>
      <trkpt lat="48.95734" lon="1.73338">
        <ele>34.799999237061</ele>
        <time>2013-01-27T06:30:36.000Z</time>
      </trkpt>
      <trkpt lat="48.95747" lon="1.73337">
        <ele>35.200000762939</ele>
        <time>2013-01-27T06:30:45.000Z</time>
      </trkpt>
      <trkpt lat="48.95763" lon="1.73334">
        <ele>34.799999237061</ele>
        <time>2013-01-27T06:30:56.000Z</time>
      </trkpt>
      <trkpt lat="48.95779" lon="1.73332">
        <ele>34.400001525879</ele>
        <time>2013-01-27T06:31:07.000Z</time>
      </trkpt>
      <trkpt lat="48.95798" lon="1.73329">
        <ele>34</ele>
        <time>2013-01-27T06:31:20.000Z</time>
      </trkpt>
      <trkpt lat="48.95813" lon="1.73327">
        <ele>33.599998474121</ele>
        <time>2013-01-27T06:31:30.000Z</time>
      </trkpt>
      <trkpt lat="48.95825" lon="1.73325">
        <ele>33.400001525879</ele>
        <time>2013-01-27T06:31:38.000Z</time>
      </trkpt>
      <trkpt lat="48.95841" lon="1.73321">
        <ele>33</ele>
        <time>2013-01-27T06:31:48.000Z</time>
      </trkpt>
      <trkpt lat="48.95858" lon="1.73314">
        <ele>33</ele>
        <time>2013-01-27T06:32:00.000Z</time>
      </trkpt>
      <trkpt lat="48.95893" lon="1.733">
        <ele>32.599998474121</ele>
        <time>2013-01-27T06:32:24.000Z</time>
      </trkpt>
      <trkpt lat="48.95907" lon="1.73294">
        <ele>32.400001525879</ele>
        <time>2013-01-27T06:32:33.000Z</time>
      </trkpt>
      <trkpt lat="48.95921" lon="1.73288">
        <ele>32.200000762939</ele>
        <time>2013-01-27T06:32:44.000Z</time>
      </trkpt>
      <trkpt lat="48.95936" lon="1.73282">
        <ele>32</ele>
        <time>2013-01-27T06:32:52.000Z</time>
      </trkpt>
      <trkpt lat="48.95954" lon="1.73272">
        <ele>31.39999961853</ele>
        <time>2013-01-27T06:33:01.000Z</time>
      </trkpt>
      <trkpt lat="48.95969" lon="1.73265">
        <ele>31</ele>
        <time>2013-01-27T06:33:08.000Z</time>
      </trkpt>
      <trkpt lat="48.95982" lon="1.73258">
        <ele>30.60000038147</ele>
        <time>2013-01-27T06:33:15.000Z</time>
      </trkpt>
      <trkpt lat="48.95997" lon="1.73251">
        <ele>30</ele>
        <time>2013-01-27T06:33:21.000Z</time>
      </trkpt>
      <trkpt lat="48.96015" lon="1.73241">
        <ele>29.60000038147</ele>
        <time>2013-01-27T06:33:30.000Z</time>
      </trkpt>
      <trkpt lat="48.9603" lon="1.73234">
        <ele>29.39999961853</ele>
        <time>2013-01-27T06:33:37.000Z</time>
      </trkpt>
      <trkpt lat="48.96043" lon="1.73223">
        <ele>29</ele>
        <time>2013-01-27T06:33:44.000Z</time>
      </trkpt>
      <trkpt lat="48.96053" lon="1.73215">
        <ele>29</ele>
        <time>2013-01-27T06:33:49.000Z</time>
      </trkpt>
      <trkpt lat="48.96067" lon="1.73208">
        <ele>28.799999237061</ele>
        <time>2013-01-27T06:33:56.000Z</time>
      </trkpt>
      <trkpt lat="48.96083" lon="1.732">
        <ele>28.60000038147</ele>
        <time>2013-01-27T06:34:03.000Z</time>
      </trkpt>
      <trkpt lat="48.96098" lon="1.73191">
        <ele>28.39999961853</ele>
        <time>2013-01-27T06:34:10.000Z</time>
      </trkpt>
      <trkpt lat="48.96112" lon="1.73187">
        <ele>28.200000762939</ele>
        <time>2013-01-27T06:34:17.000Z</time>
      </trkpt>
      <trkpt lat="48.9614" lon="1.73181">
        <ele>27.60000038147</ele>
        <time>2013-01-27T06:34:30.000Z</time>
      </trkpt>
      <trkpt lat="48.96142" lon="1.73182">
        <ele>27.60000038147</ele>
        <time>2013-01-27T06:34:31.000Z</time>
      </trkpt>
      <trkpt lat="48.96166" lon="1.73178">
        <ele>27.200000762939</ele>
        <time>2013-01-27T06:34:42.000Z</time>
      </trkpt>
      <trkpt lat="48.96181" lon="1.73174">
        <ele>26.799999237061</ele>
        <time>2013-01-27T06:34:49.000Z</time>
      </trkpt>
      <trkpt lat="48.96195" lon="1.73171">
        <ele>26.39999961853</ele>
        <time>2013-01-27T06:34:56.000Z</time>
      </trkpt>
      <trkpt lat="48.96211" lon="1.73166">
        <ele>25.799999237061</ele>
        <time>2013-01-27T06:35:04.000Z</time>
      </trkpt>
      <trkpt lat="48.96224" lon="1.73162">
        <ele>26</ele>
        <time>2013-01-27T06:35:09.000Z</time>
      </trkpt>
      <trkpt lat="48.96238" lon="1.7316">
        <ele>26</ele>
        <time>2013-01-27T06:35:16.000Z</time>
      </trkpt>
      <trkpt lat="48.96252" lon="1.73157">
        <ele>26.200000762939</ele>
        <time>2013-01-27T06:35:23.000Z</time>
      </trkpt>
      <trkpt lat="48.96272" lon="1.73152">
        <ele>26.60000038147</ele>
        <time>2013-01-27T06:35:32.000Z</time>
      </trkpt>
      <trkpt lat="48.96288" lon="1.73148">
        <ele>26.799999237061</ele>
        <time>2013-01-27T06:35:39.000Z</time>
      </trkpt>
      <trkpt lat="48.96305" lon="1.73144">
        <ele>27</ele>
        <time>2013-01-27T06:35:47.000Z</time>
      </trkpt>
      <trkpt lat="48.9632" lon="1.7314">
        <ele>27.39999961853</ele>
        <time>2013-01-27T06:35:54.000Z</time>
      </trkpt>
      <trkpt lat="48.96336" lon="1.73137">
        <ele>27.39999961853</ele>
        <time>2013-01-27T06:36:00.000Z</time>
      </trkpt>
      <trkpt lat="48.96352" lon="1.73133">
        <ele>28</ele>
        <time>2013-01-27T06:36:08.000Z</time>
      </trkpt>
      <trkpt lat="48.9637" lon="1.73131">
        <ele>28</ele>
        <time>2013-01-27T06:36:16.000Z</time>
      </trkpt>
      <trkpt lat="48.96373" lon="1.7313">
        <ele>28</ele>
        <time>2013-01-27T06:36:19.000Z</time>
      </trkpt>
      <trkpt lat="48.96373" lon="1.7313">
        <ele>28</ele>
        <time>2013-01-27T06:36:27.000Z</time>
      </trkpt>
      <trkpt lat="48.96378" lon="1.7313">
        <ele>28</ele>
        <time>2013-01-27T06:36:40.000Z</time>
      </trkpt>
      <trkpt lat="48.9639" lon="1.7313">
        <ele>28</ele>
        <time>2013-01-27T06:36:49.000Z</time>
      </trkpt>
      <trkpt lat="48.96397" lon="1.7313">
        <ele>28</ele>
        <time>2013-01-27T06:36:55.000Z</time>
      </trkpt>
      <trkpt lat="48.96408" lon="1.73129">
        <ele>27.799999237061</ele>
        <time>2013-01-27T06:37:03.000Z</time>
      </trkpt>
      <trkpt lat="48.96419" lon="1.7313">
        <ele>27.799999237061</ele>
        <time>2013-01-27T06:37:10.000Z</time>
      </trkpt>
      <trkpt lat="48.96433" lon="1.73128">
        <ele>27.39999961853</ele>
        <time>2013-01-27T06:37:20.000Z</time>
      </trkpt>
      <trkpt lat="48.96449" lon="1.73127">
        <ele>26.799999237061</ele>
        <time>2013-01-27T06:37:30.000Z</time>
      </trkpt>
      <trkpt lat="48.96461" lon="1.73127">
        <ele>26.60000038147</ele>
        <time>2013-01-27T06:37:38.000Z</time>
      </trkpt>
      <trkpt lat="48.96474" lon="1.73128">
        <ele>26</ele>
        <time>2013-01-27T06:37:47.000Z</time>
      </trkpt>
      <trkpt lat="48.96486" lon="1.73127">
        <ele>25.799999237061</ele>
        <time>2013-01-27T06:37:55.000Z</time>
      </trkpt>
      <trkpt lat="48.96502" lon="1.73127">
        <ele>25.39999961853</ele>
        <time>2013-01-27T06:38:05.000Z</time>
      </trkpt>
      <trkpt lat="48.96516" lon="1.73126">
        <ele>25.200000762939</ele>
        <time>2013-01-27T06:38:15.000Z</time>
      </trkpt>
      <trkpt lat="48.96526" lon="1.73126">
        <ele>25.200000762939</ele>
        <time>2013-01-27T06:38:22.000Z</time>
      </trkpt>
      <trkpt lat="48.96538" lon="1.73124">
        <ele>25.200000762939</ele>
        <time>2013-01-27T06:38:31.000Z</time>
      </trkpt>
      <trkpt lat="48.96551" lon="1.73125">
        <ele>25</ele>
        <time>2013-01-27T06:38:40.000Z</time>
      </trkpt>
      <trkpt lat="48.96562" lon="1.73123">
        <ele>25</ele>
        <time>2013-01-27T06:38:48.000Z</time>
      </trkpt>
      <trkpt lat="48.96575" lon="1.7312">
        <ele>25</ele>
        <time>2013-01-27T06:38:58.000Z</time>
      </trkpt>
      <trkpt lat="48.96587" lon="1.73114">
        <ele>25</ele>
        <time>2013-01-27T06:39:07.000Z</time>
      </trkpt>
      <trkpt lat="48.96601" lon="1.73108">
        <ele>25</ele>
        <time>2013-01-27T06:39:16.000Z</time>
      </trkpt>
      <trkpt lat="48.96614" lon="1.73102">
        <ele>24.799999237061</ele>
        <time>2013-01-27T06:39:26.000Z</time>
      </trkpt>
      <trkpt lat="48.96629" lon="1.73098">
        <ele>24.60000038147</ele>
        <time>2013-01-27T06:39:36.000Z</time>
      </trkpt>
      <trkpt lat="48.96639" lon="1.73097">
        <ele>24.39999961853</ele>
        <time>2013-01-27T06:39:44.000Z</time>
      </trkpt>
      <trkpt lat="48.9665" lon="1.73094">
        <ele>24.200000762939</ele>
        <time>2013-01-27T06:39:52.000Z</time>
      </trkpt>
      <trkpt lat="48.96652" lon="1.73094">
        <ele>24.200000762939</ele>
        <time>2013-01-27T06:39:53.000Z</time>
      </trkpt>
      <trkpt lat="48.96661" lon="1.7309">
        <ele>24</ele>
        <time>2013-01-27T06:40:00.000Z</time>
      </trkpt>
      <trkpt lat="48.96669" lon="1.73088">
        <ele>24</ele>
        <time>2013-01-27T06:40:06.000Z</time>
      </trkpt>
      <trkpt lat="48.9668" lon="1.73084">
        <ele>24.200000762939</ele>
        <time>2013-01-27T06:40:14.000Z</time>
      </trkpt>
      <trkpt lat="48.96694" lon="1.73078">
        <ele>25</ele>
        <time>2013-01-27T06:40:23.000Z</time>
      </trkpt>
      <trkpt lat="48.96707" lon="1.73072">
        <ele>25.799999237061</ele>
        <time>2013-01-27T06:40:32.000Z</time>
      </trkpt>
      <trkpt lat="48.96718" lon="1.73069">
        <ele>26.39999961853</ele>
        <time>2013-01-27T06:40:40.000Z</time>
      </trkpt>
      <trkpt lat="48.9673" lon="1.73064">
        <ele>26.799999237061</ele>
        <time>2013-01-27T06:40:48.000Z</time>
      </trkpt>
      <trkpt lat="48.96743" lon="1.73059">
        <ele>27.60000038147</ele>
        <time>2013-01-27T06:40:56.000Z</time>
      </trkpt>
      <trkpt lat="48.96756" lon="1.73053">
        <ele>27.799999237061</ele>
        <time>2013-01-27T06:41:05.000Z</time>
      </trkpt>
      <trkpt lat="48.96764" lon="1.73049">
        <ele>27.799999237061</ele>
        <time>2013-01-27T06:41:11.000Z</time>
      </trkpt>
      <trkpt lat="48.96771" lon="1.73046">
        <ele>27.799999237061</ele>
        <time>2013-01-27T06:41:16.000Z</time>
      </trkpt>
      <trkpt lat="48.96787" lon="1.73037">
        <ele>27.60000038147</ele>
        <time>2013-01-27T06:41:28.000Z</time>
      </trkpt>
      <trkpt lat="48.96799" lon="1.73031">
        <ele>27.39999961853</ele>
        <time>2013-01-27T06:41:36.000Z</time>
      </trkpt>
      <trkpt lat="48.96811" lon="1.73028">
        <ele>27</ele>
        <time>2013-01-27T06:41:45.000Z</time>
      </trkpt>
      <trkpt lat="48.96821" lon="1.73024">
        <ele>26.60000038147</ele>
        <time>2013-01-27T06:41:52.000Z</time>
      </trkpt>
      <trkpt lat="48.96829" lon="1.73022">
        <ele>26.39999961853</ele>
        <time>2013-01-27T06:41:58.000Z</time>
      </trkpt>
      <trkpt lat="48.96838" lon="1.7302">
        <ele>26</ele>
        <time>2013-01-27T06:42:04.000Z</time>
      </trkpt>
      <trkpt lat="48.96848" lon="1.73017">
        <ele>25.799999237061</ele>
        <time>2013-01-27T06:42:11.000Z</time>
      </trkpt>
      <trkpt lat="48.96857" lon="1.73015">
        <ele>25.60000038147</ele>
        <time>2013-01-27T06:42:16.000Z</time>
      </trkpt>
      <trkpt lat="48.9687" lon="1.73011">
        <ele>25.39999961853</ele>
        <time>2013-01-27T06:42:25.000Z</time>
      </trkpt>
      <trkpt lat="48.96885" lon="1.73008">
        <ele>24.799999237061</ele>
        <time>2013-01-27T06:42:35.000Z</time>
      </trkpt>
      <trkpt lat="48.96899" lon="1.73006">
        <ele>24.39999961853</ele>
        <time>2013-01-27T06:42:44.000Z</time>
      </trkpt>
      <trkpt lat="48.96913" lon="1.73005">
        <ele>24</ele>
        <time>2013-01-27T06:42:53.000Z</time>
      </trkpt>
      <trkpt lat="48.96923" lon="1.73007">
        <ele>24</ele>
        <time>2013-01-27T06:43:00.000Z</time>
      </trkpt>
      <trkpt lat="48.96934" lon="1.73008">
        <ele>24.60000038147</ele>
        <time>2013-01-27T06:43:08.000Z</time>
      </trkpt>
      <trkpt lat="48.96944" lon="1.7301">
        <ele>25</ele>
        <time>2013-01-27T06:43:15.000Z</time>
      </trkpt>
      <trkpt lat="48.96959" lon="1.73014">
        <ele>25.39999961853</ele>
        <time>2013-01-27T06:43:23.000Z</time>
      </trkpt>
      <trkpt lat="48.96971" lon="1.73016">
        <ele>25.799999237061</ele>
        <time>2013-01-27T06:43:29.000Z</time>
      </trkpt>
      <trkpt lat="48.96982" lon="1.73017">
        <ele>26.200000762939</ele>
        <time>2013-01-27T06:43:34.000Z</time>
      </trkpt>
      <trkpt lat="48.96997" lon="1.7302">
        <ele>26.60000038147</ele>
        <time>2013-01-27T06:43:41.000Z</time>
      </trkpt>
      <trkpt lat="48.97012" lon="1.73023">
        <ele>27.39999961853</ele>
        <time>2013-01-27T06:43:48.000Z</time>
      </trkpt>
      <trkpt lat="48.97026" lon="1.73026">
        <ele>28</ele>
        <time>2013-01-27T06:43:54.000Z</time>
      </trkpt>
      <trkpt lat="48.97043" lon="1.73031">
        <ele>28.60000038147</ele>
        <time>2013-01-27T06:44:02.000Z</time>
      </trkpt>
      <trkpt lat="48.97045" lon="1.73031">
        <ele>28.799999237061</ele>
        <time>2013-01-27T06:44:03.000Z</time>
      </trkpt>
      <trkpt lat="48.97056" lon="1.73034">
        <ele>29.200000762939</ele>
        <time>2013-01-27T06:44:08.000Z</time>
      </trkpt>
      <trkpt lat="48.97074" lon="1.73038">
        <ele>29.799999237061</ele>
        <time>2013-01-27T06:44:16.000Z</time>
      </trkpt>
      <trkpt lat="48.97083" lon="1.73044">
        <ele>29.60000038147</ele>
        <time>2013-01-27T06:44:21.000Z</time>
      </trkpt>
      <trkpt lat="48.97092" lon="1.73044">
        <ele>30</ele>
        <time>2013-01-27T06:44:25.000Z</time>
      </trkpt>
      <trkpt lat="48.97106" lon="1.73047">
        <ele>30.39999961853</ele>
        <time>2013-01-27T06:44:32.000Z</time>
      </trkpt>
      <trkpt lat="48.97118" lon="1.73048">
        <ele>31</ele>
        <time>2013-01-27T06:44:37.000Z</time>
      </trkpt>
      <trkpt lat="48.97127" lon="1.73049">
        <ele>31.200000762939</ele>
        <time>2013-01-27T06:44:41.000Z</time>
      </trkpt>
      <trkpt lat="48.97129" lon="1.73051">
        <ele>31.200000762939</ele>
        <time>2013-01-27T06:44:42.000Z</time>
      </trkpt>
      <trkpt lat="48.97135" lon="1.73053">
        <ele>31.200000762939</ele>
        <time>2013-01-27T06:44:45.000Z</time>
      </trkpt>
      <trkpt lat="48.97137" lon="1.73053">
        <ele>31.39999961853</ele>
        <time>2013-01-27T06:44:46.000Z</time>
      </trkpt>
      <trkpt lat="48.97152" lon="1.73056">
        <ele>31.799999237061</ele>
        <time>2013-01-27T06:44:53.000Z</time>
      </trkpt>
      <trkpt lat="48.97161" lon="1.73057">
        <ele>32</ele>
        <time>2013-01-27T06:44:57.000Z</time>
      </trkpt>
      <trkpt lat="48.97171" lon="1.7306">
        <ele>32.200000762939</ele>
        <time>2013-01-27T06:45:02.000Z</time>
      </trkpt>
      <trkpt lat="48.97179" lon="1.73063">
        <ele>32</ele>
        <time>2013-01-27T06:45:06.000Z</time>
      </trkpt>
      <trkpt lat="48.97192" lon="1.73064">
        <ele>32.400001525879</ele>
        <time>2013-01-27T06:45:12.000Z</time>
      </trkpt>
      <trkpt lat="48.97194" lon="1.73064">
        <ele>32.400001525879</ele>
        <time>2013-01-27T06:45:13.000Z</time>
      </trkpt>
      <trkpt lat="48.97211" lon="1.73066">
        <ele>32.799999237061</ele>
        <time>2013-01-27T06:45:21.000Z</time>
      </trkpt>
      <trkpt lat="48.97212" lon="1.73067">
        <ele>32.799999237061</ele>
        <time>2013-01-27T06:45:25.000Z</time>
      </trkpt>
      <trkpt lat="48.9727" lon="1.73086">
        <ele>32.599998474121</ele>
        <time>2013-01-27T06:45:43.000Z</time>
      </trkpt>
      <trkpt lat="48.97273" lon="1.73086">
        <ele>32.599998474121</ele>
        <time>2013-01-27T06:45:44.000Z</time>
      </trkpt>
      <trkpt lat="48.97279" lon="1.73083">
        <ele>33</ele>
        <time>2013-01-27T06:45:46.000Z</time>
      </trkpt>
      <trkpt lat="48.97287" lon="1.7308">
        <ele>33.200000762939</ele>
        <time>2013-01-27T06:45:52.000Z</time>
      </trkpt>
      <trkpt lat="48.97289" lon="1.73082">
        <ele>33</ele>
        <time>2013-01-27T06:45:55.000Z</time>
      </trkpt>
      <trkpt lat="48.97303" lon="1.73089">
        <ele>32.400001525879</ele>
        <time>2013-01-27T06:46:04.000Z</time>
      </trkpt>
      <trkpt lat="48.9731" lon="1.73092">
        <ele>32</ele>
        <time>2013-01-27T06:46:10.000Z</time>
      </trkpt>
      <trkpt lat="48.97319" lon="1.73094">
        <ele>31.799999237061</ele>
        <time>2013-01-27T06:46:16.000Z</time>
      </trkpt>
      <trkpt lat="48.97327" lon="1.73097">
        <ele>31.39999961853</ele>
        <time>2013-01-27T06:46:24.000Z</time>
      </trkpt>
      <trkpt lat="48.97339" lon="1.73099">
        <ele>31.200000762939</ele>
        <time>2013-01-27T06:46:32.000Z</time>
      </trkpt>
      <trkpt lat="48.97347" lon="1.73102">
        <ele>31</ele>
        <time>2013-01-27T06:46:39.000Z</time>
      </trkpt>
      <trkpt lat="48.97353" lon="1.73104">
        <ele>30.799999237061</ele>
        <time>2013-01-27T06:46:45.000Z</time>
      </trkpt>
      <trkpt lat="48.97364" lon="1.73107">
        <ele>30.799999237061</ele>
        <time>2013-01-27T06:46:53.000Z</time>
      </trkpt>
      <trkpt lat="48.97376" lon="1.73112">
        <ele>30.60000038147</ele>
        <time>2013-01-27T06:47:02.000Z</time>
      </trkpt>
      <trkpt lat="48.97386" lon="1.73114">
        <ele>30.60000038147</ele>
        <time>2013-01-27T06:47:09.000Z</time>
      </trkpt>
      <trkpt lat="48.97394" lon="1.73117">
        <ele>30.39999961853</ele>
        <time>2013-01-27T06:47:15.000Z</time>
      </trkpt>
      <trkpt lat="48.97405" lon="1.73121">
        <ele>30.39999961853</ele>
        <time>2013-01-27T06:47:23.000Z</time>
      </trkpt>
      <trkpt lat="48.97417" lon="1.73124">
        <ele>30.39999961853</ele>
        <time>2013-01-27T06:47:32.000Z</time>
      </trkpt>
      <trkpt lat="48.97427" lon="1.73127">
        <ele>30.200000762939</ele>
        <time>2013-01-27T06:47:39.000Z</time>
      </trkpt>
      <trkpt lat="48.97437" lon="1.73129">
        <ele>30.200000762939</ele>
        <time>2013-01-27T06:47:46.000Z</time>
      </trkpt>
      <trkpt lat="48.97448" lon="1.73131">
        <ele>30</ele>
        <time>2013-01-27T06:47:54.000Z</time>
      </trkpt>
      <trkpt lat="48.97457" lon="1.73132">
        <ele>29.799999237061</ele>
        <time>2013-01-27T06:48:01.000Z</time>
      </trkpt>
      <trkpt lat="48.97468" lon="1.73136">
        <ele>29.39999961853</ele>
        <time>2013-01-27T06:48:10.000Z</time>
      </trkpt>
      <trkpt lat="48.97481" lon="1.73138">
        <ele>29.200000762939</ele>
        <time>2013-01-27T06:48:19.000Z</time>
      </trkpt>
      <trkpt lat="48.97494" lon="1.7314">
        <ele>28.799999237061</ele>
        <time>2013-01-27T06:48:28.000Z</time>
      </trkpt>
      <trkpt lat="48.97506" lon="1.73143">
        <ele>28.39999961853</ele>
        <time>2013-01-27T06:48:36.000Z</time>
      </trkpt>
      <trkpt lat="48.97522" lon="1.73143">
        <ele>28.39999961853</ele>
        <time>2013-01-27T06:48:43.000Z</time>
      </trkpt>
      <trkpt lat="48.97542" lon="1.73145">
        <ele>28.39999961853</ele>
        <time>2013-01-27T06:48:51.000Z</time>
      </trkpt>
      <trkpt lat="48.9756" lon="1.7315">
        <ele>27.799999237061</ele>
        <time>2013-01-27T06:48:58.000Z</time>
      </trkpt>
      <trkpt lat="48.97574" lon="1.73155">
        <ele>27.39999961853</ele>
        <time>2013-01-27T06:49:03.000Z</time>
      </trkpt>
      <trkpt lat="48.97577" lon="1.73155">
        <ele>27.39999961853</ele>
        <time>2013-01-27T06:49:05.000Z</time>
      </trkpt>
      <trkpt lat="48.97594" lon="1.73156">
        <ele>26.799999237061</ele>
        <time>2013-01-27T06:49:12.000Z</time>
      </trkpt>
      <trkpt lat="48.97609" lon="1.73161">
        <ele>26</ele>
        <time>2013-01-27T06:49:18.000Z</time>
      </trkpt>
      <trkpt lat="48.97624" lon="1.73163">
        <ele>25.200000762939</ele>
        <time>2013-01-27T06:49:23.000Z</time>
      </trkpt>
      <trkpt lat="48.97637" lon="1.73167">
        <ele>24.60000038147</ele>
        <time>2013-01-27T06:49:29.000Z</time>
      </trkpt>
      <trkpt lat="48.9765" lon="1.73156">
        <ele>25.200000762939</ele>
        <time>2013-01-27T06:49:37.000Z</time>
      </trkpt>
      <trkpt lat="48.97658" lon="1.73148">
        <ele>25.60000038147</ele>
        <time>2013-01-27T06:49:43.000Z</time>
      </trkpt>
      <trkpt lat="48.97671" lon="1.73143">
        <ele>25.39999961853</ele>
        <time>2013-01-27T06:49:49.000Z</time>
      </trkpt>
      <trkpt lat="48.97672" lon="1.7314">
        <ele>25.60000038147</ele>
        <time>2013-01-27T06:49:50.000Z</time>
      </trkpt>
      <trkpt lat="48.97678" lon="1.7312">
        <ele>26.60000038147</ele>
        <time>2013-01-27T06:49:59.000Z</time>
      </trkpt>
      <trkpt lat="48.97679" lon="1.73118">
        <ele>26.799999237061</ele>
        <time>2013-01-27T06:50:00.000Z</time>
      </trkpt>
      <trkpt lat="48.97683" lon="1.73111">
        <ele>27</ele>
        <time>2013-01-27T06:50:04.000Z</time>
      </trkpt>
      <trkpt lat="48.9769" lon="1.73093">
        <ele>27.39999961853</ele>
        <time>2013-01-27T06:50:13.000Z</time>
      </trkpt>
      <trkpt lat="48.97698" lon="1.73078">
        <ele>27.60000038147</ele>
        <time>2013-01-27T06:50:22.000Z</time>
      </trkpt>
      <trkpt lat="48.97707" lon="1.73063">
        <ele>27.799999237061</ele>
        <time>2013-01-27T06:50:31.000Z</time>
      </trkpt>
      <trkpt lat="48.97715" lon="1.73041">
        <ele>28.39999961853</ele>
        <time>2013-01-27T06:50:41.000Z</time>
      </trkpt>
      <trkpt lat="48.97718" lon="1.7303">
        <ele>28.799999237061</ele>
        <time>2013-01-27T06:50:46.000Z</time>
      </trkpt>
      <trkpt lat="48.97725" lon="1.73019">
        <ele>28.799999237061</ele>
        <time>2013-01-27T06:50:53.000Z</time>
      </trkpt>
      <trkpt lat="48.97726" lon="1.73018">
        <ele>28.799999237061</ele>
        <time>2013-01-27T06:50:54.000Z</time>
      </trkpt>
      <trkpt lat="48.97734" lon="1.73004">
        <ele>29</ele>
        <time>2013-01-27T06:51:03.000Z</time>
      </trkpt>
      <trkpt lat="48.97739" lon="1.72997">
        <ele>28.799999237061</ele>
        <time>2013-01-27T06:51:08.000Z</time>
      </trkpt>
      <trkpt lat="48.97746" lon="1.72978">
        <ele>28.799999237061</ele>
        <time>2013-01-27T06:51:18.000Z</time>
      </trkpt>
      <trkpt lat="48.97749" lon="1.72963">
        <ele>28.799999237061</ele>
        <time>2013-01-27T06:51:25.000Z</time>
      </trkpt>
      <trkpt lat="48.9775" lon="1.72957">
        <ele>29</ele>
        <time>2013-01-27T06:51:27.000Z</time>
      </trkpt>
      <trkpt lat="48.97757" lon="1.7294">
        <ele>29</ele>
        <time>2013-01-27T06:51:34.000Z</time>
      </trkpt>
      <trkpt lat="48.97758" lon="1.72937">
        <ele>29</ele>
        <time>2013-01-27T06:51:35.000Z</time>
      </trkpt>
      <trkpt lat="48.97763" lon="1.72912">
        <ele>29.39999961853</ele>
        <time>2013-01-27T06:51:42.000Z</time>
      </trkpt>
      <trkpt lat="48.97767" lon="1.72894">
        <ele>29.200000762939</ele>
        <time>2013-01-27T06:51:47.000Z</time>
      </trkpt>
      <trkpt lat="48.97775" lon="1.72882">
        <ele>29</ele>
        <time>2013-01-27T06:51:52.000Z</time>
      </trkpt>
      <trkpt lat="48.97776" lon="1.7288">
        <ele>29</ele>
        <time>2013-01-27T06:51:54.000Z</time>
      </trkpt>
      <trkpt lat="48.97778" lon="1.72891">
        <ele>28.799999237061</ele>
        <time>2013-01-27T06:51:58.000Z</time>
      </trkpt>
      <trkpt lat="48.97792" lon="1.72886">
        <ele>28.200000762939</ele>
        <time>2013-01-27T06:52:07.000Z</time>
      </trkpt>
      <trkpt lat="48.978" lon="1.72864">
        <ele>28.200000762939</ele>
        <time>2013-01-27T06:52:13.000Z</time>
      </trkpt>
      <trkpt lat="48.97807" lon="1.72833">
        <ele>28.60000038147</ele>
        <time>2013-01-27T06:52:26.000Z</time>
      </trkpt>
      <trkpt lat="48.97811" lon="1.7281">
        <ele>28.39999961853</ele>
        <time>2013-01-27T06:52:36.000Z</time>
      </trkpt>
      <trkpt lat="48.97815" lon="1.72793">
        <ele>28.39999961853</ele>
        <time>2013-01-27T06:52:45.000Z</time>
      </trkpt>
      <trkpt lat="48.97819" lon="1.72772">
        <ele>28.200000762939</ele>
        <time>2013-01-27T06:52:55.000Z</time>
      </trkpt>
      <trkpt lat="48.9782" lon="1.72751">
        <ele>28.200000762939</ele>
        <time>2013-01-27T06:53:05.000Z</time>
      </trkpt>
      <trkpt lat="48.97818" lon="1.72733">
        <ele>28.200000762939</ele>
        <time>2013-01-27T06:53:13.000Z</time>
      </trkpt>
      <trkpt lat="48.97818" lon="1.72716">
        <ele>28</ele>
        <time>2013-01-27T06:53:21.000Z</time>
      </trkpt>
      <trkpt lat="48.97819" lon="1.72688">
        <ele>27.799999237061</ele>
        <time>2013-01-27T06:53:32.000Z</time>
      </trkpt>
      <trkpt lat="48.9782" lon="1.72662">
        <ele>27.799999237061</ele>
        <time>2013-01-27T06:53:39.000Z</time>
      </trkpt>
      <trkpt lat="48.9782" lon="1.7264">
        <ele>27.799999237061</ele>
        <time>2013-01-27T06:53:45.000Z</time>
      </trkpt>
      <trkpt lat="48.9782" lon="1.7261">
        <ele>27.799999237061</ele>
        <time>2013-01-27T06:53:53.000Z</time>
      </trkpt>
      <trkpt lat="48.97819" lon="1.72583">
        <ele>28</ele>
        <time>2013-01-27T06:54:01.000Z</time>
      </trkpt>
      <trkpt lat="48.97818" lon="1.72555">
        <ele>27.39999961853</ele>
        <time>2013-01-27T06:54:09.000Z</time>
      </trkpt>
      <trkpt lat="48.97814" lon="1.72521">
        <ele>27</ele>
        <time>2013-01-27T06:54:19.000Z</time>
      </trkpt>
      <trkpt lat="48.97812" lon="1.72497">
        <ele>26.60000038147</ele>
        <time>2013-01-27T06:54:26.000Z</time>
      </trkpt>
      <trkpt lat="48.97808" lon="1.72474">
        <ele>26.799999237061</ele>
        <time>2013-01-27T06:54:32.000Z</time>
      </trkpt>
      <trkpt lat="48.97803" lon="1.72447">
        <ele>26.799999237061</ele>
        <time>2013-01-27T06:54:41.000Z</time>
      </trkpt>
      <trkpt lat="48.97798" lon="1.7242">
        <ele>27</ele>
        <time>2013-01-27T06:54:49.000Z</time>
      </trkpt>
      <trkpt lat="48.97793" lon="1.72395">
        <ele>27.39999961853</ele>
        <time>2013-01-27T06:54:57.000Z</time>
      </trkpt>
      <trkpt lat="48.97786" lon="1.72369">
        <ele>28.200000762939</ele>
        <time>2013-01-27T06:55:04.000Z</time>
      </trkpt>
      <trkpt lat="48.97781" lon="1.72353">
        <ele>28.60000038147</ele>
        <time>2013-01-27T06:55:10.000Z</time>
      </trkpt>
      <trkpt lat="48.97778" lon="1.72333">
        <ele>28.799999237061</ele>
        <time>2013-01-27T06:55:16.000Z</time>
      </trkpt>
      <trkpt lat="48.97773" lon="1.72305">
        <ele>28.39999961853</ele>
        <time>2013-01-27T06:55:25.000Z</time>
      </trkpt>
      <trkpt lat="48.97768" lon="1.72288">
        <ele>28</ele>
        <time>2013-01-27T06:55:30.000Z</time>
      </trkpt>
      <trkpt lat="48.97764" lon="1.72268">
        <ele>27.60000038147</ele>
        <time>2013-01-27T06:55:41.000Z</time>
      </trkpt>
      <trkpt lat="48.97761" lon="1.72247">
        <ele>27.200000762939</ele>
        <time>2013-01-27T06:55:51.000Z</time>
      </trkpt>
      <trkpt lat="48.97759" lon="1.72223">
        <ele>27.200000762939</ele>
        <time>2013-01-27T06:56:01.000Z</time>
      </trkpt>
      <trkpt lat="48.9776" lon="1.72199">
        <ele>26.799999237061</ele>
        <time>2013-01-27T06:56:12.000Z</time>
      </trkpt>
      <trkpt lat="48.97768" lon="1.72176">
        <ele>26.39999961853</ele>
        <time>2013-01-27T06:56:23.000Z</time>
      </trkpt>
      <trkpt lat="48.9778" lon="1.72153">
        <ele>25.799999237061</ele>
        <time>2013-01-27T06:56:36.000Z</time>
      </trkpt>
      <trkpt lat="48.97794" lon="1.72136">
        <ele>25.60000038147</ele>
        <time>2013-01-27T06:56:49.000Z</time>
      </trkpt>
      <trkpt lat="48.97807" lon="1.72124">
        <ele>25.200000762939</ele>
        <time>2013-01-27T06:56:59.000Z</time>
      </trkpt>
      <trkpt lat="48.97824" lon="1.72119">
        <ele>24.799999237061</ele>
        <time>2013-01-27T06:57:10.000Z</time>
      </trkpt>
      <trkpt lat="48.97825" lon="1.7212">
        <ele>24.799999237061</ele>
        <time>2013-01-27T06:57:11.000Z</time>
      </trkpt>
      <trkpt lat="48.97829" lon="1.72131">
        <ele>24.39999961853</ele>
        <time>2013-01-27T06:57:17.000Z</time>
      </trkpt>
      <trkpt lat="48.97832" lon="1.72153">
        <ele>24</ele>
        <time>2013-01-27T06:57:28.000Z</time>
      </trkpt>
      <trkpt lat="48.97837" lon="1.72169">
        <ele>23.799999237061</ele>
        <time>2013-01-27T06:57:36.000Z</time>
      </trkpt>
      <trkpt lat="48.97844" lon="1.72182">
        <ele>23.60000038147</ele>
        <time>2013-01-27T06:57:44.000Z</time>
      </trkpt>
      <trkpt lat="48.97852" lon="1.72195">
        <ele>23.39999961853</ele>
        <time>2013-01-27T06:57:52.000Z</time>
      </trkpt>
      <trkpt lat="48.97859" lon="1.72206">
        <ele>23.200000762939</ele>
        <time>2013-01-27T06:57:59.000Z</time>
      </trkpt>
      <trkpt lat="48.9787" lon="1.72224">
        <ele>22.799999237061</ele>
        <time>2013-01-27T06:58:10.000Z</time>
      </trkpt>
      <trkpt lat="48.97878" lon="1.72236">
        <ele>22.60000038147</ele>
        <time>2013-01-27T06:58:18.000Z</time>
      </trkpt>
      <trkpt lat="48.97889" lon="1.72255">
        <ele>22.39999961853</ele>
        <time>2013-01-27T06:58:30.000Z</time>
      </trkpt>
      <trkpt lat="48.97899" lon="1.72268">
        <ele>22.39999961853</ele>
        <time>2013-01-27T06:58:39.000Z</time>
      </trkpt>
      <trkpt lat="48.97907" lon="1.72282">
        <ele>22.39999961853</ele>
        <time>2013-01-27T06:58:48.000Z</time>
      </trkpt>
      <trkpt lat="48.97914" lon="1.72292">
        <ele>22.39999961853</ele>
        <time>2013-01-27T06:58:55.000Z</time>
      </trkpt>
      <trkpt lat="48.97923" lon="1.72302">
        <ele>22.60000038147</ele>
        <time>2013-01-27T06:59:03.000Z</time>
      </trkpt>
      <trkpt lat="48.97931" lon="1.7231">
        <ele>22.799999237061</ele>
        <time>2013-01-27T06:59:10.000Z</time>
      </trkpt>
      <trkpt lat="48.97942" lon="1.72323">
        <ele>23</ele>
        <time>2013-01-27T06:59:21.000Z</time>
      </trkpt>
      <trkpt lat="48.97944" lon="1.72324">
        <ele>23.200000762939</ele>
        <time>2013-01-27T06:59:22.000Z</time>
      </trkpt>
      <trkpt lat="48.97953" lon="1.72331">
        <ele>23.39999961853</ele>
        <time>2013-01-27T06:59:29.000Z</time>
      </trkpt>
      <trkpt lat="48.97964" lon="1.72338">
        <ele>23.39999961853</ele>
        <time>2013-01-27T06:59:37.000Z</time>
      </trkpt>
      <trkpt lat="48.97976" lon="1.72345">
        <ele>23.60000038147</ele>
        <time>2013-01-27T06:59:46.000Z</time>
      </trkpt>
      <trkpt lat="48.97991" lon="1.72352">
        <ele>23.799999237061</ele>
        <time>2013-01-27T06:59:58.000Z</time>
      </trkpt>
      <trkpt lat="48.97999" lon="1.72355">
        <ele>23.799999237061</ele>
        <time>2013-01-27T07:00:04.000Z</time>
      </trkpt>
      <trkpt lat="48.98006" lon="1.72358">
        <ele>23.799999237061</ele>
        <time>2013-01-27T07:00:10.000Z</time>
      </trkpt>
      <trkpt lat="48.98013" lon="1.72362">
        <ele>23.60000038147</ele>
        <time>2013-01-27T07:00:16.000Z</time>
      </trkpt>
      <trkpt lat="48.98023" lon="1.72366">
        <ele>23.39999961853</ele>
        <time>2013-01-27T07:00:25.000Z</time>
      </trkpt>
      <trkpt lat="48.98026" lon="1.72364">
        <ele>23.39999961853</ele>
        <time>2013-01-27T07:00:29.000Z</time>
      </trkpt>
      <trkpt lat="48.9803" lon="1.72366">
        <ele>23.39999961853</ele>
        <time>2013-01-27T07:00:33.000Z</time>
      </trkpt>
      <trkpt lat="48.98044" lon="1.72377">
        <ele>23.200000762939</ele>
        <time>2013-01-27T07:00:41.000Z</time>
      </trkpt>
      <trkpt lat="48.98055" lon="1.72384">
        <ele>23</ele>
        <time>2013-01-27T07:00:48.000Z</time>
      </trkpt>
      <trkpt lat="48.98063" lon="1.72386">
        <ele>22.799999237061</ele>
        <time>2013-01-27T07:00:54.000Z</time>
      </trkpt>
      <trkpt lat="48.98076" lon="1.72374">
        <ele>22.60000038147</ele>
        <time>2013-01-27T07:01:04.000Z</time>
      </trkpt>
      <trkpt lat="48.98086" lon="1.72358">
        <ele>22.200000762939</ele>
        <time>2013-01-27T07:01:14.000Z</time>
      </trkpt>
      <trkpt lat="48.98097" lon="1.72336">
        <ele>22</ele>
        <time>2013-01-27T07:01:26.000Z</time>
      </trkpt>
      <trkpt lat="48.98107" lon="1.72326">
        <ele>22</ele>
        <time>2013-01-27T07:01:34.000Z</time>
      </trkpt>
      <trkpt lat="48.98119" lon="1.72319">
        <ele>22</ele>
        <time>2013-01-27T07:01:43.000Z</time>
      </trkpt>
      <trkpt lat="48.98131" lon="1.72318">
        <ele>22</ele>
        <time>2013-01-27T07:01:52.000Z</time>
      </trkpt>
      <trkpt lat="48.98139" lon="1.72321">
        <ele>22</ele>
        <time>2013-01-27T07:01:59.000Z</time>
      </trkpt>
      <trkpt lat="48.9815" lon="1.72323">
        <ele>22</ele>
        <time>2013-01-27T07:02:07.000Z</time>
      </trkpt>
      <trkpt lat="48.98161" lon="1.72325">
        <ele>22</ele>
        <time>2013-01-27T07:02:12.000Z</time>
      </trkpt>
      <trkpt lat="48.98199" lon="1.72324">
        <ele>22.39999961853</ele>
        <time>2013-01-27T07:02:29.000Z</time>
      </trkpt>
      <trkpt lat="48.98213" lon="1.72326">
        <ele>22.60000038147</ele>
        <time>2013-01-27T07:02:35.000Z</time>
      </trkpt>
      <trkpt lat="48.98227" lon="1.72329">
        <ele>22.60000038147</ele>
        <time>2013-01-27T07:02:41.000Z</time>
      </trkpt>
      <trkpt lat="48.98242" lon="1.7233">
        <ele>22.799999237061</ele>
        <time>2013-01-27T07:02:48.000Z</time>
      </trkpt>
      <trkpt lat="48.98257" lon="1.72332">
        <ele>23.39999961853</ele>
        <time>2013-01-27T07:02:55.000Z</time>
      </trkpt>
      <trkpt lat="48.98271" lon="1.72339">
        <ele>24.39999961853</ele>
        <time>2013-01-27T07:03:02.000Z</time>
      </trkpt>
      <trkpt lat="48.98286" lon="1.72353">
        <ele>25</ele>
        <time>2013-01-27T07:03:09.000Z</time>
      </trkpt>
      <trkpt lat="48.98293" lon="1.72364">
        <ele>25.200000762939</ele>
        <time>2013-01-27T07:03:14.000Z</time>
      </trkpt>
      <trkpt lat="48.98311" lon="1.72396">
        <ele>25.200000762939</ele>
        <time>2013-01-27T07:03:31.000Z</time>
      </trkpt>
      <trkpt lat="48.98322" lon="1.72418">
        <ele>24.60000038147</ele>
        <time>2013-01-27T07:03:39.000Z</time>
      </trkpt>
      <trkpt lat="48.98328" lon="1.7243">
        <ele>24.60000038147</ele>
        <time>2013-01-27T07:03:45.000Z</time>
      </trkpt>
      <trkpt lat="48.98334" lon="1.72444">
        <ele>24.60000038147</ele>
        <time>2013-01-27T07:03:52.000Z</time>
      </trkpt>
      <trkpt lat="48.98342" lon="1.72466">
        <ele>24.60000038147</ele>
        <time>2013-01-27T07:04:03.000Z</time>
      </trkpt>
      <trkpt lat="48.98348" lon="1.72485">
        <ele>24.200000762939</ele>
        <time>2013-01-27T07:04:13.000Z</time>
      </trkpt>
      <trkpt lat="48.98356" lon="1.7251">
        <ele>23.799999237061</ele>
        <time>2013-01-27T07:04:26.000Z</time>
      </trkpt>
      <trkpt lat="48.98363" lon="1.72535">
        <ele>23.39999961853</ele>
        <time>2013-01-27T07:04:39.000Z</time>
      </trkpt>
      <trkpt lat="48.9837" lon="1.72558">
        <ele>23.200000762939</ele>
        <time>2013-01-27T07:04:50.000Z</time>
      </trkpt>
      <trkpt lat="48.98378" lon="1.72581">
        <ele>23</ele>
        <time>2013-01-27T07:05:02.000Z</time>
      </trkpt>
      <trkpt lat="48.98384" lon="1.726">
        <ele>22.799999237061</ele>
        <time>2013-01-27T07:05:12.000Z</time>
      </trkpt>
      <trkpt lat="48.98393" lon="1.72617">
        <ele>22.60000038147</ele>
        <time>2013-01-27T07:05:22.000Z</time>
      </trkpt>
      <trkpt lat="48.98404" lon="1.72634">
        <ele>22.39999961853</ele>
        <time>2013-01-27T07:05:34.000Z</time>
      </trkpt>
      <trkpt lat="48.98406" lon="1.7264">
        <ele>22.39999961853</ele>
        <time>2013-01-27T07:05:38.000Z</time>
      </trkpt>
      <trkpt lat="48.98413" lon="1.72641">
        <ele>22.39999961853</ele>
        <time>2013-01-27T07:05:43.000Z</time>
      </trkpt>
      <trkpt lat="48.9843" lon="1.7265">
        <ele>22.200000762939</ele>
        <time>2013-01-27T07:05:56.000Z</time>
      </trkpt>
      <trkpt lat="48.98446" lon="1.72652">
        <ele>21.799999237061</ele>
        <time>2013-01-27T07:06:08.000Z</time>
      </trkpt>
      <trkpt lat="48.9847" lon="1.72646">
        <ele>21.60000038147</ele>
        <time>2013-01-27T07:06:30.000Z</time>
      </trkpt>
      <trkpt lat="48.98478" lon="1.72641">
        <ele>21.60000038147</ele>
        <time>2013-01-27T07:06:37.000Z</time>
      </trkpt>
      <trkpt lat="48.98484" lon="1.72639">
        <ele>21.39999961853</ele>
        <time>2013-01-27T07:06:44.000Z</time>
      </trkpt>
      <trkpt lat="48.98484" lon="1.72638">
        <ele>21.39999961853</ele>
        <time>2013-01-27T07:07:11.000Z</time>
      </trkpt>
      <trkpt lat="48.98497" lon="1.7263">
        <ele>21.39999961853</ele>
        <time>2013-01-27T07:07:22.000Z</time>
      </trkpt>
      <trkpt lat="48.98508" lon="1.72624">
        <ele>21.39999961853</ele>
        <time>2013-01-27T07:07:31.000Z</time>
      </trkpt>
      <trkpt lat="48.98523" lon="1.72611">
        <ele>21.799999237061</ele>
        <time>2013-01-27T07:07:44.000Z</time>
      </trkpt>
      <trkpt lat="48.98533" lon="1.72603">
        <ele>22.200000762939</ele>
        <time>2013-01-27T07:07:52.000Z</time>
      </trkpt>
      <trkpt lat="48.98545" lon="1.72592">
        <ele>22.799999237061</ele>
        <time>2013-01-27T07:08:02.000Z</time>
      </trkpt>
      <trkpt lat="48.98553" lon="1.72585">
        <ele>23.200000762939</ele>
        <time>2013-01-27T07:08:08.000Z</time>
      </trkpt>
      <trkpt lat="48.98563" lon="1.72575">
        <ele>23.799999237061</ele>
        <time>2013-01-27T07:08:16.000Z</time>
      </trkpt>
      <trkpt lat="48.98576" lon="1.72562">
        <ele>24.39999961853</ele>
        <time>2013-01-27T07:08:27.000Z</time>
      </trkpt>
      <trkpt lat="48.98586" lon="1.72551">
        <ele>25</ele>
        <time>2013-01-27T07:08:35.000Z</time>
      </trkpt>
      <trkpt lat="48.98597" lon="1.72539">
        <ele>25.39999961853</ele>
        <time>2013-01-27T07:08:41.000Z</time>
      </trkpt>
      <trkpt lat="48.98611" lon="1.72526">
        <ele>26</ele>
        <time>2013-01-27T07:08:48.000Z</time>
      </trkpt>
      <trkpt lat="48.9862" lon="1.72517">
        <ele>26.200000762939</ele>
        <time>2013-01-27T07:08:53.000Z</time>
      </trkpt>
      <trkpt lat="48.98627" lon="1.72506">
        <ele>26.60000038147</ele>
        <time>2013-01-27T07:09:00.000Z</time>
      </trkpt>
      <trkpt lat="48.98636" lon="1.72493">
        <ele>27</ele>
        <time>2013-01-27T07:09:08.000Z</time>
      </trkpt>
      <trkpt lat="48.98644" lon="1.72481">
        <ele>26.799999237061</ele>
        <time>2013-01-27T07:09:16.000Z</time>
      </trkpt>
      <trkpt lat="48.98654" lon="1.72472">
        <ele>26.60000038147</ele>
        <time>2013-01-27T07:09:22.000Z</time>
      </trkpt>
      <trkpt lat="48.9867" lon="1.72457">
        <ele>25.60000038147</ele>
        <time>2013-01-27T07:09:30.000Z</time>
      </trkpt>
      <trkpt lat="48.98686" lon="1.72443">
        <ele>24.200000762939</ele>
        <time>2013-01-27T07:09:37.000Z</time>
      </trkpt>
      <trkpt lat="48.98701" lon="1.72428">
        <ele>22.799999237061</ele>
        <time>2013-01-27T07:09:44.000Z</time>
      </trkpt>
      <trkpt lat="48.98717" lon="1.72414">
        <ele>21.39999961853</ele>
        <time>2013-01-27T07:09:52.000Z</time>
      </trkpt>
      <trkpt lat="48.98731" lon="1.72401">
        <ele>21.200000762939</ele>
        <time>2013-01-27T07:09:59.000Z</time>
      </trkpt>
      <trkpt lat="48.98745" lon="1.7239">
        <ele>20.60000038147</ele>
        <time>2013-01-27T07:10:05.000Z</time>
      </trkpt>
      <trkpt lat="48.98757" lon="1.72378">
        <ele>20.60000038147</ele>
        <time>2013-01-27T07:10:11.000Z</time>
      </trkpt>
      <trkpt lat="48.98773" lon="1.72365">
        <ele>20.799999237061</ele>
        <time>2013-01-27T07:10:19.000Z</time>
      </trkpt>
      <trkpt lat="48.98787" lon="1.72354">
        <ele>20.799999237061</ele>
        <time>2013-01-27T07:10:26.000Z</time>
      </trkpt>
      <trkpt lat="48.98802" lon="1.72343">
        <ele>20.799999237061</ele>
        <time>2013-01-27T07:10:33.000Z</time>
      </trkpt>
      <trkpt lat="48.98807" lon="1.72338">
        <ele>20.60000038147</ele>
        <time>2013-01-27T07:10:38.000Z</time>
      </trkpt>
      <trkpt lat="48.98818" lon="1.72328">
        <ele>20.60000038147</ele>
        <time>2013-01-27T07:10:47.000Z</time>
      </trkpt>
      <trkpt lat="48.98833" lon="1.72318">
        <ele>20.39999961853</ele>
        <time>2013-01-27T07:10:58.000Z</time>
      </trkpt>
      <trkpt lat="48.98839" lon="1.72314">
        <ele>20.60000038147</ele>
        <time>2013-01-27T07:11:03.000Z</time>
      </trkpt>
      <trkpt lat="48.98843" lon="1.72305">
        <ele>21</ele>
        <time>2013-01-27T07:11:08.000Z</time>
      </trkpt>
      <trkpt lat="48.98858" lon="1.72292">
        <ele>21.60000038147</ele>
        <time>2013-01-27T07:11:21.000Z</time>
      </trkpt>
      <trkpt lat="48.98868" lon="1.72286">
        <ele>21.799999237061</ele>
        <time>2013-01-27T07:11:29.000Z</time>
      </trkpt>
      <trkpt lat="48.98879" lon="1.7228">
        <ele>22</ele>
        <time>2013-01-27T07:11:36.000Z</time>
      </trkpt>
      <trkpt lat="48.9889" lon="1.7227">
        <ele>22.39999961853</ele>
        <time>2013-01-27T07:11:42.000Z</time>
      </trkpt>
      <trkpt lat="48.98904" lon="1.72263">
        <ele>22.60000038147</ele>
        <time>2013-01-27T07:11:48.000Z</time>
      </trkpt>
      <trkpt lat="48.98906" lon="1.72262">
        <ele>22.60000038147</ele>
        <time>2013-01-27T07:11:49.000Z</time>
      </trkpt>
      <trkpt lat="48.98915" lon="1.72257">
        <ele>22.799999237061</ele>
        <time>2013-01-27T07:11:54.000Z</time>
      </trkpt>
      <trkpt lat="48.98929" lon="1.72249">
        <ele>23.200000762939</ele>
        <time>2013-01-27T07:12:00.000Z</time>
      </trkpt>
      <trkpt lat="48.98939" lon="1.7224">
        <ele>23.799999237061</ele>
        <time>2013-01-27T07:12:05.000Z</time>
      </trkpt>
      <trkpt lat="48.98945" lon="1.72236">
        <ele>24.200000762939</ele>
        <time>2013-01-27T07:12:08.000Z</time>
      </trkpt>
      <trkpt lat="48.98957" lon="1.72232">
        <ele>24.60000038147</ele>
        <time>2013-01-27T07:12:13.000Z</time>
      </trkpt>
      <trkpt lat="48.98968" lon="1.72224">
        <ele>25.200000762939</ele>
        <time>2013-01-27T07:12:18.000Z</time>
      </trkpt>
      <trkpt lat="48.98976" lon="1.72217">
        <ele>25.60000038147</ele>
        <time>2013-01-27T07:12:22.000Z</time>
      </trkpt>
      <trkpt lat="48.98987" lon="1.72208">
        <ele>26</ele>
        <time>2013-01-27T07:12:27.000Z</time>
      </trkpt>
      <trkpt lat="48.98998" lon="1.72194">
        <ele>26.60000038147</ele>
        <time>2013-01-27T07:12:33.000Z</time>
      </trkpt>
      <trkpt lat="48.99008" lon="1.72184">
        <ele>26.39999961853</ele>
        <time>2013-01-27T07:12:38.000Z</time>
      </trkpt>
      <trkpt lat="48.99012" lon="1.7218">
        <ele>26.200000762939</ele>
        <time>2013-01-27T07:12:40.000Z</time>
      </trkpt>
      <trkpt lat="48.99021" lon="1.72171">
        <ele>26</ele>
        <time>2013-01-27T07:12:45.000Z</time>
      </trkpt>
      <trkpt lat="48.99023" lon="1.72169">
        <ele>25.799999237061</ele>
        <time>2013-01-27T07:12:46.000Z</time>
      </trkpt>
      <trkpt lat="48.99026" lon="1.72165">
        <ele>25.799999237061</ele>
        <time>2013-01-27T07:12:48.000Z</time>
      </trkpt>
      <trkpt lat="48.99033" lon="1.72156">
        <ele>26</ele>
        <time>2013-01-27T07:12:52.000Z</time>
      </trkpt>
      <trkpt lat="48.99041" lon="1.72144">
        <ele>26.39999961853</ele>
        <time>2013-01-27T07:12:58.000Z</time>
      </trkpt>
      <trkpt lat="48.9905" lon="1.72132">
        <ele>26.799999237061</ele>
        <time>2013-01-27T07:13:06.000Z</time>
      </trkpt>
      <trkpt lat="48.99059" lon="1.72123">
        <ele>27</ele>
        <time>2013-01-27T07:13:13.000Z</time>
      </trkpt>
      <trkpt lat="48.99068" lon="1.72114">
        <ele>27.39999961853</ele>
        <time>2013-01-27T07:13:21.000Z</time>
      </trkpt>
      <trkpt lat="48.99076" lon="1.72107">
        <ele>27.799999237061</ele>
        <time>2013-01-27T07:13:27.000Z</time>
      </trkpt>
      <trkpt lat="48.99083" lon="1.72099">
        <ele>28.200000762939</ele>
        <time>2013-01-27T07:13:33.000Z</time>
      </trkpt>
      <trkpt lat="48.99093" lon="1.72093">
        <ele>27.799999237061</ele>
        <time>2013-01-27T07:13:40.000Z</time>
      </trkpt>
      <trkpt lat="48.99095" lon="1.72092">
        <ele>27.60000038147</ele>
        <time>2013-01-27T07:13:41.000Z</time>
      </trkpt>
      <trkpt lat="48.99104" lon="1.72086">
        <ele>27</ele>
        <time>2013-01-27T07:13:48.000Z</time>
      </trkpt>
      <trkpt lat="48.99112" lon="1.72078">
        <ele>26.39999961853</ele>
        <time>2013-01-27T07:13:55.000Z</time>
      </trkpt>
      <trkpt lat="48.99122" lon="1.72072">
        <ele>25.39999961853</ele>
        <time>2013-01-27T07:14:03.000Z</time>
      </trkpt>
      <trkpt lat="48.99129" lon="1.72065">
        <ele>25</ele>
        <time>2013-01-27T07:14:09.000Z</time>
      </trkpt>
      <trkpt lat="48.9913" lon="1.72064">
        <ele>25</ele>
        <time>2013-01-27T07:14:10.000Z</time>
      </trkpt>
      <trkpt lat="48.99131" lon="1.72062">
        <ele>25</ele>
        <time>2013-01-27T07:14:13.000Z</time>
      </trkpt>
      <trkpt lat="48.99128" lon="1.72053">
        <ele>25.799999237061</ele>
        <time>2013-01-27T07:14:23.000Z</time>
      </trkpt>
      <trkpt lat="48.99126" lon="1.72045">
        <ele>26.60000038147</ele>
        <time>2013-01-27T07:14:32.000Z</time>
      </trkpt>
      <trkpt lat="48.99126" lon="1.72041">
        <ele>26.799999237061</ele>
        <time>2013-01-27T07:14:37.000Z</time>
      </trkpt>
      <trkpt lat="48.99122" lon="1.7203">
        <ele>27.799999237061</ele>
        <time>2013-01-27T07:14:43.000Z</time>
      </trkpt>
      <trkpt lat="48.99114" lon="1.72018">
        <ele>29.39999961853</ele>
        <time>2013-01-27T07:14:52.000Z</time>
      </trkpt>
      <trkpt lat="48.99105" lon="1.72008">
        <ele>30.60000038147</ele>
        <time>2013-01-27T07:15:00.000Z</time>
      </trkpt>
      <trkpt lat="48.991" lon="1.72002">
        <ele>31.39999961853</ele>
        <time>2013-01-27T07:15:06.000Z</time>
      </trkpt>
      <trkpt lat="48.99094" lon="1.71996">
        <ele>32.200000762939</ele>
        <time>2013-01-27T07:15:12.000Z</time>
      </trkpt>
      <trkpt lat="48.99089" lon="1.71988">
        <ele>32.799999237061</ele>
        <time>2013-01-27T07:15:18.000Z</time>
      </trkpt>
      <trkpt lat="48.99088" lon="1.71987">
        <ele>32.799999237061</ele>
        <time>2013-01-27T07:15:19.000Z</time>
      </trkpt>
      <trkpt lat="48.99084" lon="1.71982">
        <ele>33.200000762939</ele>
        <time>2013-01-27T07:15:23.000Z</time>
      </trkpt>
      <trkpt lat="48.99079" lon="1.71979">
        <ele>33.799999237061</ele>
        <time>2013-01-27T07:15:26.000Z</time>
      </trkpt>
      <trkpt lat="48.99063" lon="1.71965">
        <ele>35.200000762939</ele>
        <time>2013-01-27T07:15:35.000Z</time>
      </trkpt>
      <trkpt lat="48.99054" lon="1.71955">
        <ele>35.799999237061</ele>
        <time>2013-01-27T07:15:42.000Z</time>
      </trkpt>
      <trkpt lat="48.99053" lon="1.71954">
        <ele>36</ele>
        <time>2013-01-27T07:15:43.000Z</time>
      </trkpt>
      <trkpt lat="48.99054" lon="1.71945">
        <ele>36</ele>
        <time>2013-01-27T07:15:47.000Z</time>
      </trkpt>
      <trkpt lat="48.99053" lon="1.71944">
        <ele>36</ele>
        <time>2013-01-27T07:15:48.000Z</time>
      </trkpt>
      <trkpt lat="48.99052" lon="1.71939">
        <ele>36.200000762939</ele>
        <time>2013-01-27T07:15:50.000Z</time>
      </trkpt>
      <trkpt lat="48.99055" lon="1.71918">
        <ele>36.200000762939</ele>
        <time>2013-01-27T07:15:59.000Z</time>
      </trkpt>
      <trkpt lat="48.99057" lon="1.71914">
        <ele>36.200000762939</ele>
        <time>2013-01-27T07:16:01.000Z</time>
      </trkpt>
      <trkpt lat="48.99059" lon="1.71901">
        <ele>36.200000762939</ele>
        <time>2013-01-27T07:16:07.000Z</time>
      </trkpt>
      <trkpt lat="48.9906" lon="1.71899">
        <ele>36.200000762939</ele>
        <time>2013-01-27T07:16:08.000Z</time>
      </trkpt>
      <trkpt lat="48.99062" lon="1.71889">
        <ele>36.200000762939</ele>
        <time>2013-01-27T07:16:14.000Z</time>
      </trkpt>
      <trkpt lat="48.99064" lon="1.71883">
        <ele>36.200000762939</ele>
        <time>2013-01-27T07:16:18.000Z</time>
      </trkpt>
      <trkpt lat="48.99064" lon="1.71879">
        <ele>36.200000762939</ele>
        <time>2013-01-27T07:16:20.000Z</time>
      </trkpt>
      <trkpt lat="48.99066" lon="1.71871">
        <ele>36.200000762939</ele>
        <time>2013-01-27T07:16:25.000Z</time>
      </trkpt>
      <trkpt lat="48.99066" lon="1.71869">
        <ele>36.400001525879</ele>
        <time>2013-01-27T07:16:26.000Z</time>
      </trkpt>
      <trkpt lat="48.99062" lon="1.71857">
        <ele>36.599998474121</ele>
        <time>2013-01-27T07:16:31.000Z</time>
      </trkpt>
      <trkpt lat="48.99061" lon="1.71845">
        <ele>36.799999237061</ele>
        <time>2013-01-27T07:16:35.000Z</time>
      </trkpt>
      <trkpt lat="48.99061" lon="1.71842">
        <ele>36.799999237061</ele>
        <time>2013-01-27T07:16:36.000Z</time>
      </trkpt>
      <trkpt lat="48.99059" lon="1.71833">
        <ele>37</ele>
        <time>2013-01-27T07:16:40.000Z</time>
      </trkpt>
      <trkpt lat="48.99059" lon="1.71817">
        <ele>37.799999237061</ele>
        <time>2013-01-27T07:16:48.000Z</time>
      </trkpt>
      <trkpt lat="48.99059" lon="1.71809">
        <ele>38</ele>
        <time>2013-01-27T07:16:52.000Z</time>
      </trkpt>
      <trkpt lat="48.9906" lon="1.71805">
        <ele>38.200000762939</ele>
        <time>2013-01-27T07:16:54.000Z</time>
      </trkpt>
      <trkpt lat="48.99059" lon="1.71801">
        <ele>38.400001525879</ele>
        <time>2013-01-27T07:16:56.000Z</time>
      </trkpt>
      <trkpt lat="48.99057" lon="1.71793">
        <ele>38.799999237061</ele>
        <time>2013-01-27T07:17:00.000Z</time>
      </trkpt>
      <trkpt lat="48.99055" lon="1.71789">
        <ele>39</ele>
        <time>2013-01-27T07:17:02.000Z</time>
      </trkpt>
      <trkpt lat="48.99053" lon="1.71776">
        <ele>39.599998474121</ele>
        <time>2013-01-27T07:17:09.000Z</time>
      </trkpt>
      <trkpt lat="48.99053" lon="1.71766">
        <ele>40</ele>
        <time>2013-01-27T07:17:14.000Z</time>
      </trkpt>
      <trkpt lat="48.99052" lon="1.71764">
        <ele>40</ele>
        <time>2013-01-27T07:17:15.000Z</time>
      </trkpt>
      <trkpt lat="48.99051" lon="1.71762">
        <ele>40.200000762939</ele>
        <time>2013-01-27T07:17:17.000Z</time>
      </trkpt>
      <trkpt lat="48.99051" lon="1.71753">
        <ele>40.599998474121</ele>
        <time>2013-01-27T07:17:21.000Z</time>
      </trkpt>
      <trkpt lat="48.99049" lon="1.71741">
        <ele>40.799999237061</ele>
        <time>2013-01-27T07:17:26.000Z</time>
      </trkpt>
      <trkpt lat="48.99046" lon="1.71728">
        <ele>41</ele>
        <time>2013-01-27T07:17:33.000Z</time>
      </trkpt>
      <trkpt lat="48.99042" lon="1.71716">
        <ele>41.200000762939</ele>
        <time>2013-01-27T07:17:40.000Z</time>
      </trkpt>
      <trkpt lat="48.99041" lon="1.71711">
        <ele>41.200000762939</ele>
        <time>2013-01-27T07:17:42.000Z</time>
      </trkpt>
      <trkpt lat="48.99036" lon="1.71694">
        <ele>41.400001525879</ele>
        <time>2013-01-27T07:17:50.000Z</time>
      </trkpt>
      <trkpt lat="48.99033" lon="1.71685">
        <ele>41.400001525879</ele>
        <time>2013-01-27T07:17:54.000Z</time>
      </trkpt>
      <trkpt lat="48.99031" lon="1.71675">
        <ele>41.400001525879</ele>
        <time>2013-01-27T07:17:59.000Z</time>
      </trkpt>
      <trkpt lat="48.99031" lon="1.71667">
        <ele>41.599998474121</ele>
        <time>2013-01-27T07:18:03.000Z</time>
      </trkpt>
      <trkpt lat="48.99031" lon="1.71656">
        <ele>41.400001525879</ele>
        <time>2013-01-27T07:18:08.000Z</time>
      </trkpt>
      <trkpt lat="48.99029" lon="1.71654">
        <ele>41.400001525879</ele>
        <time>2013-01-27T07:18:09.000Z</time>
      </trkpt>
      <trkpt lat="48.99027" lon="1.71651">
        <ele>41.599998474121</ele>
        <time>2013-01-27T07:18:11.000Z</time>
      </trkpt>
      <trkpt lat="48.99027" lon="1.71646">
        <ele>41.599998474121</ele>
        <time>2013-01-27T07:18:14.000Z</time>
      </trkpt>
      <trkpt lat="48.99021" lon="1.71631">
        <ele>41.599998474121</ele>
        <time>2013-01-27T07:18:21.000Z</time>
      </trkpt>
      <trkpt lat="48.99016" lon="1.71621">
        <ele>41.599998474121</ele>
        <time>2013-01-27T07:18:26.000Z</time>
      </trkpt>
      <trkpt lat="48.99011" lon="1.71617">
        <ele>41.599998474121</ele>
        <time>2013-01-27T07:18:30.000Z</time>
      </trkpt>
      <trkpt lat="48.99009" lon="1.71607">
        <ele>41.799999237061</ele>
        <time>2013-01-27T07:18:35.000Z</time>
      </trkpt>
      <trkpt lat="48.99006" lon="1.71598">
        <ele>41.799999237061</ele>
        <time>2013-01-27T07:18:40.000Z</time>
      </trkpt>
      <trkpt lat="48.99005" lon="1.71589">
        <ele>41.799999237061</ele>
        <time>2013-01-27T07:18:44.000Z</time>
      </trkpt>
      <trkpt lat="48.99004" lon="1.71587">
        <ele>41.799999237061</ele>
        <time>2013-01-27T07:18:45.000Z</time>
      </trkpt>
      <trkpt lat="48.99" lon="1.71568">
        <ele>41.400001525879</ele>
        <time>2013-01-27T07:18:51.000Z</time>
      </trkpt>
      <trkpt lat="48.98997" lon="1.71561">
        <ele>41.200000762939</ele>
        <time>2013-01-27T07:18:53.000Z</time>
      </trkpt>
      <trkpt lat="48.98987" lon="1.7155">
        <ele>40.799999237061</ele>
        <time>2013-01-27T07:18:57.000Z</time>
      </trkpt>
      <trkpt lat="48.98981" lon="1.71541">
        <ele>40.799999237061</ele>
        <time>2013-01-27T07:19:00.000Z</time>
      </trkpt>
      <trkpt lat="48.9897" lon="1.71529">
        <ele>40.599998474121</ele>
        <time>2013-01-27T07:19:06.000Z</time>
      </trkpt>
      <trkpt lat="48.98967" lon="1.7153">
        <ele>40.799999237061</ele>
        <time>2013-01-27T07:19:07.000Z</time>
      </trkpt>
      <trkpt lat="48.98963" lon="1.71531">
        <ele>40.799999237061</ele>
        <time>2013-01-27T07:19:09.000Z</time>
      </trkpt>
      <trkpt lat="48.98954" lon="1.71534">
        <ele>41.200000762939</ele>
        <time>2013-01-27T07:19:14.000Z</time>
      </trkpt>
      <trkpt lat="48.98951" lon="1.71536">
        <ele>41.200000762939</ele>
        <time>2013-01-27T07:19:17.000Z</time>
      </trkpt>
      <trkpt lat="48.98948" lon="1.71537">
        <ele>41.200000762939</ele>
        <time>2013-01-27T07:19:19.000Z</time>
      </trkpt>
      <trkpt lat="48.98928" lon="1.71531">
        <ele>41.599998474121</ele>
        <time>2013-01-27T07:19:27.000Z</time>
      </trkpt>
      <trkpt lat="48.98919" lon="1.71524">
        <ele>41.799999237061</ele>
        <time>2013-01-27T07:19:34.000Z</time>
      </trkpt>
      <trkpt lat="48.9891" lon="1.71523">
        <ele>41.799999237061</ele>
        <time>2013-01-27T07:19:41.000Z</time>
      </trkpt>
      <trkpt lat="48.98905" lon="1.71523">
        <ele>41.799999237061</ele>
        <time>2013-01-27T07:19:44.000Z</time>
      </trkpt>
      <trkpt lat="48.98894" lon="1.71516">
        <ele>41.599998474121</ele>
        <time>2013-01-27T07:19:53.000Z</time>
      </trkpt>
      <trkpt lat="48.98885" lon="1.71511">
        <ele>41.599998474121</ele>
        <time>2013-01-27T07:19:59.000Z</time>
      </trkpt>
      <trkpt lat="48.98884" lon="1.71511">
        <ele>41.599998474121</ele>
        <time>2013-01-27T07:20:00.000Z</time>
      </trkpt>
      <trkpt lat="48.98876" lon="1.71505">
        <ele>41.400001525879</ele>
        <time>2013-01-27T07:20:06.000Z</time>
      </trkpt>
      <trkpt lat="48.98869" lon="1.71502">
        <ele>41.400001525879</ele>
        <time>2013-01-27T07:20:11.000Z</time>
      </trkpt>
      <trkpt lat="48.98854" lon="1.71492">
        <ele>41</ele>
        <time>2013-01-27T07:20:20.000Z</time>
      </trkpt>
      <trkpt lat="48.98853" lon="1.71491">
        <ele>41</ele>
        <time>2013-01-27T07:20:21.000Z</time>
      </trkpt>
      <trkpt lat="48.98843" lon="1.71476">
        <ele>40.799999237061</ele>
        <time>2013-01-27T07:20:29.000Z</time>
      </trkpt>
      <trkpt lat="48.98835" lon="1.71464">
        <ele>40.400001525879</ele>
        <time>2013-01-27T07:20:36.000Z</time>
      </trkpt>
      <trkpt lat="48.98827" lon="1.71452">
        <ele>40.200000762939</ele>
        <time>2013-01-27T07:20:44.000Z</time>
      </trkpt>
      <trkpt lat="48.98817" lon="1.71443">
        <ele>39.799999237061</ele>
        <time>2013-01-27T07:20:52.000Z</time>
      </trkpt>
      <trkpt lat="48.98808" lon="1.71437">
        <ele>39.599998474121</ele>
        <time>2013-01-27T07:20:59.000Z</time>
      </trkpt>
      <trkpt lat="48.98797" lon="1.71426">
        <ele>39.200000762939</ele>
        <time>2013-01-27T07:21:08.000Z</time>
      </trkpt>
      <trkpt lat="48.98794" lon="1.71422">
        <ele>39</ele>
        <time>2013-01-27T07:21:12.000Z</time>
      </trkpt>
      <trkpt lat="48.98784" lon="1.71413">
        <ele>38.799999237061</ele>
        <time>2013-01-27T07:21:20.000Z</time>
      </trkpt>
      <trkpt lat="48.98781" lon="1.71412">
        <ele>38.799999237061</ele>
        <time>2013-01-27T07:21:22.000Z</time>
      </trkpt>
      <trkpt lat="48.98769" lon="1.71412">
        <ele>38.400001525879</ele>
        <time>2013-01-27T07:21:32.000Z</time>
      </trkpt>
      <trkpt lat="48.98762" lon="1.71411">
        <ele>38.200000762939</ele>
        <time>2013-01-27T07:21:36.000Z</time>
      </trkpt>
      <trkpt lat="48.98759" lon="1.71412">
        <ele>38.200000762939</ele>
        <time>2013-01-27T07:21:38.000Z</time>
      </trkpt>
      <trkpt lat="48.98752" lon="1.71404">
        <ele>38.200000762939</ele>
        <time>2013-01-27T07:21:44.000Z</time>
      </trkpt>
      <trkpt lat="48.98751" lon="1.71402">
        <ele>38.200000762939</ele>
        <time>2013-01-27T07:21:45.000Z</time>
      </trkpt>
    </trkseg>
  </trk>
</gpx>